<?xml version='1.0' encoding='UTF-8'?>
<gpx xmlns="http://www.topografix.com/GPX/1/1" creator="www.balnam.be" version="1.1" xmlns:xsi="http://www.w3.org/2001/XMLSchema-instance" xsi:schemaLocation="http://www.topografix.com/GPX/1/1 http://www.topografix.com/GPX/1/1/gpx.xsd">
<trk>
<name>hpcbz1</name>
<cmt>v</cmt>
<desc>Buzet Chemin n°1 </desc>
<link href="https://chemins.be/buzet/chemin/1"/><trkseg>
<trkpt lat="50.523200" lon="4.397629"><time>2026-05-02T17:47:44Z</time></trkpt>
<trkpt lat="50.523308" lon="4.397671"><time>2026-05-02T17:57:44Z</time></trkpt>
<trkpt lat="50.524000" lon="4.397220"><time>2026-05-02T18:07:44Z</time></trkpt>
</trkseg>
</trk>
<trk>
<name>hpcbz10</name>
<cmt>r</cmt>
<desc>Buzet Chemin n°10 Rue Notre Dame de Bon-Secours / Chemin de la Maquette</desc>
<link href="https://chemins.be/buzet/chemin/10"/><trkseg>
<trkpt lat="50.541517" lon="4.362004"><time>2026-05-02T17:47:44Z</time></trkpt>
<trkpt lat="50.541013" lon="4.359098"><time>2026-05-02T17:57:44Z</time></trkpt>
</trkseg></trk>
<trk>
<name>hpcbz10</name>
<cmt>v</cmt>
<desc>Buzet Chemin n°10 Rue Notre Dame de Bon-Secours / Chemin de la Maquette</desc>
<link href="https://chemins.be/buzet/chemin/10"/><trkseg>
<trkpt lat="50.541013" lon="4.359098"><time>2026-05-02T17:57:44Z</time></trkpt>
<trkpt lat="50.540213" lon="4.355543"><time>2026-05-02T18:07:44Z</time></trkpt>
<trkpt lat="50.539898" lon="4.354499"><time>2026-05-02T18:17:44Z</time></trkpt>
</trkseg>
</trk>
<trk>
<name>hpcbz12</name>
<cmt>r</cmt>
<desc>Buzet Chemin n°12 Buzet - Liberchies / Les-Bons-Villers - Pont-à-Celles / Rue Bati Notre Dame</desc>
<link href="https://chemins.be/buzet/chemin/12"/><trkseg>
<trkpt lat="50.525239" lon="4.405697"><time>2026-05-02T17:47:44Z</time></trkpt>
<trkpt lat="50.524970" lon="4.405241"><time>2026-05-02T17:57:44Z</time></trkpt>
<trkpt lat="50.524010" lon="4.403614"><time>2026-05-02T18:07:44Z</time></trkpt>
<trkpt lat="50.523574" lon="4.402378"><time>2026-05-02T18:17:44Z</time></trkpt>
<trkpt lat="50.523628" lon="4.401674"><time>2026-05-02T18:27:44Z</time></trkpt>
<trkpt lat="50.522852" lon="4.399956"><time>2026-05-02T18:37:44Z</time></trkpt>
</trkseg></trk>
<trk>
<name>hpcbz12</name>
<cmt>s</cmt>
<desc>Buzet Chemin n°12 Buzet - Liberchies / Les-Bons-Villers - Pont-à-Celles / Rue Bati Notre Dame</desc>
<link href="https://chemins.be/buzet/chemin/12"/><trkseg>
<trkpt lat="50.522852" lon="4.399956"><time>2026-05-02T18:37:44Z</time></trkpt>
<trkpt lat="50.522613" lon="4.399237"><time>2026-05-02T18:47:44Z</time></trkpt>
<trkpt lat="50.522404" lon="4.398538"><time>2026-05-02T18:57:44Z</time></trkpt>
</trkseg></trk>
<trk>
<name>hpcbz12</name>
<cmt>v</cmt>
<desc>Buzet Chemin n°12 Buzet - Liberchies / Les-Bons-Villers - Pont-à-Celles / Rue Bati Notre Dame</desc>
<link href="https://chemins.be/buzet/chemin/12"/><trkseg>
<trkpt lat="50.522404" lon="4.398538"><time>2026-05-02T18:57:44Z</time></trkpt>
<trkpt lat="50.522081" lon="4.397154"><time>2026-05-02T19:07:44Z</time></trkpt>
<trkpt lat="50.522122" lon="4.396885"><time>2026-05-02T19:17:44Z</time></trkpt>
<trkpt lat="50.522119" lon="4.396145"><time>2026-05-02T19:27:44Z</time></trkpt>
<trkpt lat="50.521973" lon="4.395383"><time>2026-05-02T19:37:44Z</time></trkpt>
</trkseg></trk>
<trk>
<name>hpcbz12</name>
<cmt>q</cmt>
<desc>Buzet Chemin n°12 Buzet - Liberchies / Les-Bons-Villers - Pont-à-Celles / Rue Bati Notre Dame</desc>
<link href="https://chemins.be/buzet/chemin/12"/><trkseg>
<trkpt lat="50.521973" lon="4.395383"><time>2026-05-02T19:37:44Z</time></trkpt>
<trkpt lat="50.521616" lon="4.393760"><time>2026-05-02T19:47:44Z</time></trkpt>
</trkseg>
</trk>
<trk>
<name>hpcbz13</name>
<cmt>s</cmt>
<desc>Buzet Chemin n°13 </desc>
<link href="https://chemins.be/buzet/chemin/13"/><trkseg>
<trkpt lat="50.526285" lon="4.392652"><time>2026-05-02T17:47:44Z</time></trkpt>
<trkpt lat="50.525296" lon="4.392891"><time>2026-05-02T17:57:44Z</time></trkpt>
<trkpt lat="50.524532" lon="4.392694"><time>2026-05-02T18:07:44Z</time></trkpt>
<trkpt lat="50.522743" lon="4.391593"><time>2026-05-02T18:17:44Z</time></trkpt>
</trkseg>
</trk>
<trk>
<name>hpcbz14</name>
<cmt>v</cmt>
<desc>Buzet Chemin n°14 </desc>
<link href="https://chemins.be/buzet/chemin/14"/><trkseg>
<trkpt lat="50.537848" lon="4.358824"><time>2026-05-02T17:47:44Z</time></trkpt>
<trkpt lat="50.539912" lon="4.354475"><time>2026-05-02T17:57:44Z</time></trkpt>
<trkpt lat="50.542133" lon="4.347155"><time>2026-05-02T18:07:44Z</time></trkpt>
<trkpt lat="50.544233" lon="4.342812"><time>2026-05-02T18:17:44Z</time></trkpt>
<trkpt lat="50.545004" lon="4.339474"><time>2026-05-02T18:27:44Z</time></trkpt>
</trkseg>
</trk>
<trk>
<name>hpcbz16</name>
<cmt>r</cmt>
<desc>Buzet Chemin n°16 Place Albert 1er</desc>
<link href="https://chemins.be/buzet/chemin/16"/><trkseg>
<trkpt lat="50.539180" lon="4.368987"><time>2026-05-02T17:47:44Z</time></trkpt>
<trkpt lat="50.539899" lon="4.368790"><time>2026-05-02T17:57:44Z</time></trkpt>
</trkseg>
</trk>
<trk>
<name>hpcbz2</name>
<cmt>v</cmt>
<desc>Buzet Chemin n°2 Rue de la Licheroule</desc>
<link href="https://chemins.be/buzet/chemin/2"/><trkseg>
<trkpt lat="50.552188" lon="4.369721"><time>2026-05-02T17:47:44Z</time></trkpt>
<trkpt lat="50.551514" lon="4.368945"><time>2026-05-02T17:57:44Z</time></trkpt>
<trkpt lat="50.550554" lon="4.368246"><time>2026-05-02T18:07:44Z</time></trkpt>
</trkseg></trk>
<trk>
<name>hpcbz2</name>
<cmt>s</cmt>
<desc>Buzet Chemin n°2 Rue de la Licheroule</desc>
<link href="https://chemins.be/buzet/chemin/2"/><trkseg>
<trkpt lat="50.550554" lon="4.368246"><time>2026-05-02T18:07:44Z</time></trkpt>
<trkpt lat="50.550230" lon="4.367822"><time>2026-05-02T18:17:44Z</time></trkpt>
</trkseg></trk>
<trk>
<name>hpcbz2</name>
<cmt>d</cmt>
<desc>Buzet Chemin n°2 Rue de la Licheroule</desc>
<link href="https://chemins.be/buzet/chemin/2"/><trkseg>
<trkpt lat="50.550230" lon="4.367822"><time>2026-05-02T18:17:44Z</time></trkpt>
<trkpt lat="50.549518" lon="4.366937"><time>2026-05-02T18:27:44Z</time></trkpt>
</trkseg>
</trk>
<trk>
<name>hpcbz20</name>
<cmt>v</cmt>
<desc>Buzet Chemin n°20 </desc>
<link href="https://chemins.be/buzet/chemin/20"/><trkseg>
<trkpt lat="50.523900" lon="4.403482"><time>2026-05-02T17:47:44Z</time></trkpt>
<trkpt lat="50.523054" lon="4.405244"><time>2026-05-02T17:57:44Z</time></trkpt>
<trkpt lat="50.522119" lon="4.407316"><time>2026-05-02T18:07:44Z</time></trkpt>
<trkpt lat="50.521705" lon="4.407823"><time>2026-05-02T18:17:44Z</time></trkpt>
</trkseg>
</trk>
<trk>
<name>hpcbz21</name>
<cmt>d</cmt>
<desc>Buzet Sentier n°21 </desc>
<link href="https://chemins.be/buzet/sentier/21"/><trkseg>
<trkpt lat="50.530610" lon="4.387760"><time>2026-05-02T17:47:44Z</time></trkpt>
<trkpt lat="50.530601" lon="4.386166"><time>2026-05-02T17:57:44Z</time></trkpt>
</trkseg></trk>
<trk>
<name>hpcbz21</name>
<cmt>q</cmt>
<desc>Buzet Sentier n°21 </desc>
<link href="https://chemins.be/buzet/sentier/21"/><trkseg>
<trkpt lat="50.530601" lon="4.386166"><time>2026-05-02T17:57:44Z</time></trkpt>
<trkpt lat="50.531177" lon="4.383303"><time>2026-05-02T18:07:44Z</time></trkpt>
<trkpt lat="50.531780" lon="4.380243"><time>2026-05-02T18:17:44Z</time></trkpt>
</trkseg>
</trk>
<trk>
<name>hpcbz26</name>
<cmt>q</cmt>
<desc>Buzet Sentier n°26 </desc>
<link href="https://chemins.be/buzet/sentier/26"/><trkseg>
<trkpt lat="50.546736" lon="4.356980"><time>2026-05-02T17:47:44Z</time></trkpt>
<trkpt lat="50.550704" lon="4.349813"><time>2026-05-02T17:57:44Z</time></trkpt>
<trkpt lat="50.553867" lon="4.346702"><time>2026-05-02T18:07:44Z</time></trkpt>
</trkseg>
</trk>
<trk>
<name>hpcbz27</name>
<cmt>v</cmt>
<desc>Buzet Sentier n°27 </desc>
<link href="https://chemins.be/buzet/sentier/27"/><trkseg>
<trkpt lat="50.544882" lon="4.357839"><time>2026-05-02T17:47:44Z</time></trkpt>
<trkpt lat="50.546081" lon="4.354620"><time>2026-05-02T17:57:44Z</time></trkpt>
<trkpt lat="50.547895" lon="4.350822"><time>2026-05-02T18:07:44Z</time></trkpt>
<trkpt lat="50.550151" lon="4.345221"><time>2026-05-02T18:17:44Z</time></trkpt>
</trkseg>
</trk>
<trk>
<name>hpcbz29</name>
<cmt>q</cmt>
<desc>Buzet Sentier n°29 </desc>
<link href="https://chemins.be/buzet/sentier/29"/><trkseg>
<trkpt lat="50.562176" lon="4.357201"><time>2026-05-02T17:47:44Z</time></trkpt>
<trkpt lat="50.561626" lon="4.358388"><time>2026-05-02T17:57:44Z</time></trkpt>
<trkpt lat="50.561535" lon="4.358900"><time>2026-05-02T18:07:44Z</time></trkpt>
<trkpt lat="50.561164" lon="4.359535"><time>2026-05-02T18:17:44Z</time></trkpt>
<trkpt lat="50.560957" lon="4.360085"><time>2026-05-02T18:27:44Z</time></trkpt>
</trkseg>
</trk>
<trk>
<name>hpcbz3</name>
<cmt>q</cmt>
<desc>Buzet Chemin n°3 </desc>
<link href="https://chemins.be/buzet/chemin/3"/><trkseg>
<trkpt lat="50.548026" lon="4.374829"><time>2026-05-02T17:47:44Z</time></trkpt>
<trkpt lat="50.546804" lon="4.373846"><time>2026-05-02T17:57:44Z</time></trkpt>
</trkseg></trk>
<trk>
<name>hpcbz3</name>
<cmt>v</cmt>
<desc>Buzet Chemin n°3 </desc>
<link href="https://chemins.be/buzet/chemin/3"/><trkseg>
<trkpt lat="50.546804" lon="4.373846"><time>2026-05-02T17:57:44Z</time></trkpt>
<trkpt lat="50.545086" lon="4.372988"><time>2026-05-02T18:07:44Z</time></trkpt>
</trkseg></trk>
<trk>
<name>hpcbz3</name>
<cmt>s</cmt>
<desc>Buzet Chemin n°3 </desc>
<link href="https://chemins.be/buzet/chemin/3"/><trkseg>
<trkpt lat="50.545086" lon="4.372988"><time>2026-05-02T18:07:44Z</time></trkpt>
<trkpt lat="50.543586" lon="4.372129"><time>2026-05-02T18:17:44Z</time></trkpt>
</trkseg>
</trk>
<trk>
<name>hpcbz30</name>
<cmt>q</cmt>
<desc>Buzet Sentier n°30 </desc>
<link href="https://chemins.be/buzet/sentier/30"/><trkseg>
<trkpt lat="50.555721" lon="4.359137"><time>2026-05-02T17:47:44Z</time></trkpt>
<trkpt lat="50.556205" lon="4.359825"><time>2026-05-02T17:57:44Z</time></trkpt>
</trkseg></trk>
<trk>
<name>hpcbz30</name>
<cmt>s</cmt>
<desc>Buzet Sentier n°30 </desc>
<link href="https://chemins.be/buzet/sentier/30"/><trkseg>
<trkpt lat="50.556205" lon="4.359825"><time>2026-05-02T17:57:44Z</time></trkpt>
<trkpt lat="50.556800" lon="4.360519"><time>2026-05-02T18:07:44Z</time></trkpt>
</trkseg></trk>
<trk>
<name>hpcbz30</name>
<cmt>q</cmt>
<desc>Buzet Sentier n°30 </desc>
<link href="https://chemins.be/buzet/sentier/30"/><trkseg>
<trkpt lat="50.556800" lon="4.360519"><time>2026-05-02T18:07:44Z</time></trkpt>
<trkpt lat="50.559146" lon="4.362270"><time>2026-05-02T18:17:44Z</time></trkpt>
<trkpt lat="50.559632" lon="4.363766"><time>2026-05-02T18:27:44Z</time></trkpt>
<trkpt lat="50.560297" lon="4.364189"><time>2026-05-02T18:37:44Z</time></trkpt>
</trkseg>
</trk>
<trk>
<name>hpcbz31</name>
<cmt>v</cmt>
<desc>Buzet Sentier n°31 </desc>
<link href="https://chemins.be/buzet/sentier/31"/><trkseg>
<trkpt lat="50.556651" lon="4.365941"><time>2026-05-02T17:47:44Z</time></trkpt>
<trkpt lat="50.555921" lon="4.365351"><time>2026-05-02T17:57:44Z</time></trkpt>
<trkpt lat="50.555811" lon="4.365111"><time>2026-05-02T18:07:44Z</time></trkpt>
<trkpt lat="50.555507" lon="4.363531"><time>2026-05-02T18:17:44Z</time></trkpt>
</trkseg></trk>
<trk>
<name>hpcbz31</name>
<cmt>s</cmt>
<desc>Buzet Sentier n°31 </desc>
<link href="https://chemins.be/buzet/sentier/31"/><trkseg>
<trkpt lat="50.555507" lon="4.363531"><time>2026-05-02T18:17:44Z</time></trkpt>
<trkpt lat="50.555452" lon="4.361278"><time>2026-05-02T18:27:44Z</time></trkpt>
</trkseg></trk>
<trk>
<name>hpcbz31</name>
<cmt>q</cmt>
<desc>Buzet Sentier n°31 </desc>
<link href="https://chemins.be/buzet/sentier/31"/><trkseg>
<trkpt lat="50.555452" lon="4.361278"><time>2026-05-02T18:27:44Z</time></trkpt>
<trkpt lat="50.555766" lon="4.359325"><time>2026-05-02T18:37:44Z</time></trkpt>
</trkseg></trk>
<trk>
<name>hpcbz31</name>
<cmt>r</cmt>
<desc>Buzet Sentier n°31 </desc>
<link href="https://chemins.be/buzet/sentier/31"/><trkseg>
<trkpt lat="50.555766" lon="4.359325"><time>2026-05-02T18:37:44Z</time></trkpt>
<trkpt lat="50.555562" lon="4.358810"><time>2026-05-02T18:47:44Z</time></trkpt>
<trkpt lat="50.555998" lon="4.357415"><time>2026-05-02T18:57:44Z</time></trkpt>
<trkpt lat="50.555943" lon="4.356793"><time>2026-05-02T19:07:44Z</time></trkpt>
</trkseg></trk>
<trk>
<name>hpcbz31</name>
<cmt>q</cmt>
<desc>Buzet Sentier n°31 </desc>
<link href="https://chemins.be/buzet/sentier/31"/><trkseg>
<trkpt lat="50.555943" lon="4.356793"><time>2026-05-02T19:07:44Z</time></trkpt>
<trkpt lat="50.555548" lon="4.353918"><time>2026-05-02T19:17:44Z</time></trkpt>
<trkpt lat="50.554975" lon="4.352652"><time>2026-05-02T19:27:44Z</time></trkpt>
</trkseg>
</trk>
<trk>
<name>hpcbz32</name>
<cmt>r</cmt>
<desc>Buzet Sentier n°32 Chemin du Chênois</desc>
<link href="https://chemins.be/buzet/sentier/32"/><trkseg>
<trkpt lat="50.556791" lon="4.365967"><time>2026-05-02T17:47:44Z</time></trkpt>
<trkpt lat="50.556953" lon="4.366264"><time>2026-05-02T17:57:44Z</time></trkpt>
<trkpt lat="50.557070" lon="4.367139"><time>2026-05-02T18:07:44Z</time></trkpt>
</trkseg></trk>
<trk>
<name>hpcbz32</name>
<cmt>v</cmt>
<desc>Buzet Sentier n°32 Chemin du Chênois</desc>
<link href="https://chemins.be/buzet/sentier/32"/><trkseg>
<trkpt lat="50.557070" lon="4.367139"><time>2026-05-02T18:07:44Z</time></trkpt>
<trkpt lat="50.557573" lon="4.366687"><time>2026-05-02T18:17:44Z</time></trkpt>
<trkpt lat="50.559183" lon="4.367604"><time>2026-05-02T18:27:44Z</time></trkpt>
<trkpt lat="50.559093" lon="4.368014"><time>2026-05-02T18:37:44Z</time></trkpt>
</trkseg></trk>
<trk>
<name>hpcbz32</name>
<cmt>q</cmt>
<desc>Buzet Sentier n°32 Chemin du Chênois</desc>
<link href="https://chemins.be/buzet/sentier/32"/><trkseg>
<trkpt lat="50.559093" lon="4.368014"><time>2026-05-02T18:37:44Z</time></trkpt>
<trkpt lat="50.559362" lon="4.369524"><time>2026-05-02T18:47:44Z</time></trkpt>
<trkpt lat="50.559830" lon="4.370484"><time>2026-05-02T18:57:44Z</time></trkpt>
</trkseg>
</trk>
<trk>
<name>hpcbz33</name>
<cmt>q</cmt>
<desc>Buzet Sentier n°33 </desc>
<link href="https://chemins.be/buzet/sentier/33"/><trkseg>
<trkpt lat="50.559342" lon="4.367120"><time>2026-05-02T17:47:44Z</time></trkpt>
<trkpt lat="50.560820" lon="4.368416"><time>2026-05-02T17:57:44Z</time></trkpt>
<trkpt lat="50.561676" lon="4.368596"><time>2026-05-02T18:07:44Z</time></trkpt>
</trkseg>
</trk>
<trk>
<name>hpcbz34</name>
<cmt>q</cmt>
<desc>Buzet Sentier n°34 </desc>
<link href="https://chemins.be/buzet/sentier/34"/><trkseg>
<trkpt lat="50.555757" lon="4.364853"><time>2026-05-02T17:47:44Z</time></trkpt>
<trkpt lat="50.555425" lon="4.366250"><time>2026-05-02T17:57:44Z</time></trkpt>
<trkpt lat="50.554795" lon="4.367435"><time>2026-05-02T18:07:44Z</time></trkpt>
<trkpt lat="50.555308" lon="4.372755"><time>2026-05-02T18:17:44Z</time></trkpt>
</trkseg>
</trk>
<trk>
<name>hpcbz35</name>
<cmt>q</cmt>
<desc>Buzet Sentier n°35 </desc>
<link href="https://chemins.be/buzet/sentier/35"/><trkseg>
<trkpt lat="50.555865" lon="4.373503"><time>2026-05-02T17:47:44Z</time></trkpt>
<trkpt lat="50.560811" lon="4.373121"><time>2026-05-02T17:57:44Z</time></trkpt>
</trkseg>
</trk>
<trk>
<name>hpcbz36</name>
<cmt>q</cmt>
<desc>Buzet Sentier n°36 </desc>
<link href="https://chemins.be/buzet/sentier/36"/><trkseg>
<trkpt lat="50.548041" lon="4.361890"><time>2026-05-02T17:47:44Z</time></trkpt>
<trkpt lat="50.551601" lon="4.361890"><time>2026-05-02T17:57:44Z</time></trkpt>
<trkpt lat="50.554003" lon="4.363250"><time>2026-05-02T18:07:44Z</time></trkpt>
</trkseg></trk>
<trk>
<name>hpcbz36</name>
<cmt>s</cmt>
<desc>Buzet Sentier n°36 </desc>
<link href="https://chemins.be/buzet/sentier/36"/><trkseg>
<trkpt lat="50.554003" lon="4.363250"><time>2026-05-02T18:07:44Z</time></trkpt>
<trkpt lat="50.554721" lon="4.363730"><time>2026-05-02T18:17:44Z</time></trkpt>
</trkseg></trk>
<trk>
<name>hpcbz36</name>
<cmt>v</cmt>
<desc>Buzet Sentier n°36 </desc>
<link href="https://chemins.be/buzet/sentier/36"/><trkseg>
<trkpt lat="50.554721" lon="4.363730"><time>2026-05-02T18:17:44Z</time></trkpt>
<trkpt lat="50.554961" lon="4.363600"><time>2026-05-02T18:27:44Z</time></trkpt>
<trkpt lat="50.555301" lon="4.363500"><time>2026-05-02T18:37:44Z</time></trkpt>
<trkpt lat="50.555521" lon="4.363710"><time>2026-05-02T18:47:44Z</time></trkpt>
</trkseg>
</trk>
<trk>
<name>hpcbz37</name>
<cmt>q</cmt>
<desc>Buzet Sentier n°37 </desc>
<link href="https://chemins.be/buzet/sentier/37"/><trkseg>
<trkpt lat="50.555520" lon="4.359290"><time>2026-05-02T17:47:44Z</time></trkpt>
<trkpt lat="50.554252" lon="4.359848"><time>2026-05-02T17:57:44Z</time></trkpt>
<trkpt lat="50.551743" lon="4.361887"><time>2026-05-02T18:07:44Z</time></trkpt>
</trkseg>
</trk>
<trk>
<name>hpcbz38</name>
<cmt>q</cmt>
<desc>Buzet Sentier n°38 </desc>
<link href="https://chemins.be/buzet/sentier/38"/><trkseg>
<trkpt lat="50.540649" lon="4.364784"><time>2026-05-02T17:47:44Z</time></trkpt>
<trkpt lat="50.540965" lon="4.364390"><time>2026-05-02T17:57:44Z</time></trkpt>
<trkpt lat="50.542760" lon="4.363495"><time>2026-05-02T18:07:44Z</time></trkpt>
<trkpt lat="50.545509" lon="4.363611"><time>2026-05-02T18:17:44Z</time></trkpt>
</trkseg></trk>
<trk>
<name>hpcbz38</name>
<cmt>v</cmt>
<desc>Buzet Sentier n°38 </desc>
<link href="https://chemins.be/buzet/sentier/38"/><trkseg>
<trkpt lat="50.545509" lon="4.363611"><time>2026-05-02T18:17:44Z</time></trkpt>
<trkpt lat="50.546300" lon="4.363031"><time>2026-05-02T18:27:44Z</time></trkpt>
</trkseg></trk>
<trk>
<name>hpcbz38</name>
<cmt>q</cmt>
<desc>Buzet Sentier n°38 </desc>
<link href="https://chemins.be/buzet/sentier/38"/><trkseg>
<trkpt lat="50.546300" lon="4.363031"><time>2026-05-02T18:27:44Z</time></trkpt>
<trkpt lat="50.548209" lon="4.365478"><time>2026-05-02T18:37:44Z</time></trkpt>
<trkpt lat="50.549586" lon="4.366422"><time>2026-05-02T18:47:44Z</time></trkpt>
<trkpt lat="50.549518" lon="4.366958"><time>2026-05-02T18:57:44Z</time></trkpt>
</trkseg>
</trk>
<trk>
<name>hpcbz39</name>
<cmt>d</cmt>
<desc>Buzet Sentier n°39 </desc>
<link href="https://chemins.be/buzet/sentier/39"/><trkseg>
<trkpt lat="50.546082" lon="4.354599"><time>2026-05-02T17:47:44Z</time></trkpt>
<trkpt lat="50.546109" lon="4.349256"><time>2026-05-02T17:57:44Z</time></trkpt>
<trkpt lat="50.547050" lon="4.341981"><time>2026-05-02T18:07:44Z</time></trkpt>
</trkseg>
</trk>
<trk>
<name>hpcbz4</name>
<cmt>s</cmt>
<desc>Buzet Chemin n°4 </desc>
<link href="https://chemins.be/buzet/chemin/4"/><trkseg>
<trkpt lat="50.552522" lon="4.380369"><time>2026-05-02T17:47:44Z</time></trkpt>
<trkpt lat="50.555210" lon="4.373760"><time>2026-05-02T17:57:44Z</time></trkpt>
<trkpt lat="50.555352" lon="4.372807"><time>2026-05-02T18:07:44Z</time></trkpt>
</trkseg></trk>
<trk>
<name>hpcbz4</name>
<cmt>r</cmt>
<desc>Buzet Chemin n°4 </desc>
<link href="https://chemins.be/buzet/chemin/4"/><trkseg>
<trkpt lat="50.555352" lon="4.372807"><time>2026-05-02T18:07:44Z</time></trkpt>
<trkpt lat="50.556243" lon="4.371584"><time>2026-05-02T18:17:44Z</time></trkpt>
<trkpt lat="50.557214" lon="4.370342"><time>2026-05-02T18:27:44Z</time></trkpt>
<trkpt lat="50.558050" lon="4.369693"><time>2026-05-02T18:37:44Z</time></trkpt>
<trkpt lat="50.558661" lon="4.369086"><time>2026-05-02T18:47:44Z</time></trkpt>
<trkpt lat="50.559084" lon="4.368028"><time>2026-05-02T18:57:44Z</time></trkpt>
<trkpt lat="50.559370" lon="4.367143"><time>2026-05-02T19:07:44Z</time></trkpt>
<trkpt lat="50.560189" lon="4.364612"><time>2026-05-02T19:17:44Z</time></trkpt>
<trkpt lat="50.560873" lon="4.362411"><time>2026-05-02T19:27:44Z</time></trkpt>
<trkpt lat="50.560989" lon="4.361564"><time>2026-05-02T19:37:44Z</time></trkpt>
<trkpt lat="50.560962" lon="4.360378"><time>2026-05-02T19:47:44Z</time></trkpt>
</trkseg>
</trk>
<trk>
<name>hpcbz40</name>
<cmt>q</cmt>
<desc>Buzet Sentier n°40 </desc>
<link href="https://chemins.be/buzet/sentier/40"/><trkseg>
<trkpt lat="50.540411" lon="4.370229"><time>2026-05-02T17:47:44Z</time></trkpt>
<trkpt lat="50.541256" lon="4.372077"><time>2026-05-02T17:57:44Z</time></trkpt>
<trkpt lat="50.542209" lon="4.374362"><time>2026-05-02T18:07:44Z</time></trkpt>
<trkpt lat="50.543854" lon="4.379329"><time>2026-05-02T18:17:44Z</time></trkpt>
</trkseg></trk>
<trk>
<name>hpcbz40</name>
<cmt>v</cmt>
<desc>Buzet Sentier n°40 </desc>
<link href="https://chemins.be/buzet/sentier/40"/><trkseg>
<trkpt lat="50.543854" lon="4.379329"><time>2026-05-02T18:17:44Z</time></trkpt>
<trkpt lat="50.544231" lon="4.380824"><time>2026-05-02T18:27:44Z</time></trkpt>
<trkpt lat="50.545004" lon="4.384521"><time>2026-05-02T18:37:44Z</time></trkpt>
</trkseg></trk>
<trk>
<name>hpcbz40</name>
<cmt>r</cmt>
<desc>Buzet Sentier n°40 </desc>
<link href="https://chemins.be/buzet/sentier/40"/><trkseg>
<trkpt lat="50.545004" lon="4.384521"><time>2026-05-02T18:37:44Z</time></trkpt>
<trkpt lat="50.545417" lon="4.385720"><time>2026-05-02T18:47:44Z</time></trkpt>
</trkseg>
</trk>
<trk>
<name>hpcbz41</name>
<cmt>q</cmt>
<desc>Buzet Sentier n°41 </desc>
<link href="https://chemins.be/buzet/sentier/41"/><trkseg>
<trkpt lat="50.540950" lon="4.368081"><time>2026-05-02T17:47:44Z</time></trkpt>
<trkpt lat="50.541150" lon="4.367741"><time>2026-05-02T17:57:44Z</time></trkpt>
<trkpt lat="50.541240" lon="4.367441"><time>2026-05-02T18:07:44Z</time></trkpt>
<trkpt lat="50.541470" lon="4.366671"><time>2026-05-02T18:17:44Z</time></trkpt>
<trkpt lat="50.541502" lon="4.366570"><time>2026-05-02T18:27:44Z</time></trkpt>
<trkpt lat="50.542086" lon="4.364500"><time>2026-05-02T18:37:44Z</time></trkpt>
<trkpt lat="50.542762" lon="4.363453"><time>2026-05-02T18:47:44Z</time></trkpt>
<trkpt lat="50.542834" lon="4.362194"><time>2026-05-02T18:57:44Z</time></trkpt>
</trkseg></trk>
<trk>
<name>hpcbz41</name>
<cmt>s</cmt>
<desc>Buzet Sentier n°41 </desc>
<link href="https://chemins.be/buzet/sentier/41"/><trkseg>
<trkpt lat="50.542834" lon="4.362194"><time>2026-05-02T18:57:44Z</time></trkpt>
<trkpt lat="50.542841" lon="4.361853"><time>2026-05-02T19:07:44Z</time></trkpt>
</trkseg></trk>
<trk>
<name>hpcbz41</name>
<cmt>q</cmt>
<desc>Buzet Sentier n°41 </desc>
<link href="https://chemins.be/buzet/sentier/41"/><trkseg>
<trkpt lat="50.542841" lon="4.361853"><time>2026-05-02T19:07:44Z</time></trkpt>
<trkpt lat="50.542893" lon="4.360415"><time>2026-05-02T19:17:44Z</time></trkpt>
</trkseg>
</trk>
<trk>
<name>hpcbz42</name>
<cmt>q</cmt>
<desc>Buzet Sentier n°42 </desc>
<link href="https://chemins.be/buzet/sentier/42"/><trkseg>
<trkpt lat="50.537094" lon="4.366194"><time>2026-05-02T17:47:44Z</time></trkpt>
<trkpt lat="50.537678" lon="4.364685"><time>2026-05-02T17:57:44Z</time></trkpt>
</trkseg></trk>
<trk>
<name>hpcbz42</name>
<cmt>s</cmt>
<desc>Buzet Sentier n°42 </desc>
<link href="https://chemins.be/buzet/sentier/42"/><trkseg>
<trkpt lat="50.537678" lon="4.364685"><time>2026-05-02T17:57:44Z</time></trkpt>
<trkpt lat="50.538110" lon="4.364247"><time>2026-05-02T18:07:44Z</time></trkpt>
<trkpt lat="50.538870" lon="4.362922"><time>2026-05-02T18:17:44Z</time></trkpt>
<trkpt lat="50.540476" lon="4.360298"><time>2026-05-02T18:27:44Z</time></trkpt>
</trkseg></trk>
<trk>
<name>hpcbz42</name>
<cmt>q</cmt>
<desc>Buzet Sentier n°42 </desc>
<link href="https://chemins.be/buzet/sentier/42"/><trkseg>
<trkpt lat="50.540476" lon="4.360298"><time>2026-05-02T18:27:44Z</time></trkpt>
<trkpt lat="50.540986" lon="4.359465"><time>2026-05-02T18:37:44Z</time></trkpt>
</trkseg>
</trk>
<trk>
<name>hpcbz43</name>
<cmt>s</cmt>
<desc>Buzet Sentier n°43 </desc>
<link href="https://chemins.be/buzet/sentier/43"/><trkseg>
<trkpt lat="50.539413" lon="4.362157"><time>2026-05-02T17:47:44Z</time></trkpt>
<trkpt lat="50.540879" lon="4.361129"><time>2026-05-02T17:57:44Z</time></trkpt>
</trkseg></trk>
<trk>
<name>hpcbz43</name>
<cmt>q</cmt>
<desc>Buzet Sentier n°43 </desc>
<link href="https://chemins.be/buzet/sentier/43"/><trkseg>
<trkpt lat="50.540879" lon="4.361129"><time>2026-05-02T17:57:44Z</time></trkpt>
<trkpt lat="50.541327" lon="4.360815"><time>2026-05-02T18:07:44Z</time></trkpt>
<trkpt lat="50.541666" lon="4.360578"><time>2026-05-02T18:17:44Z</time></trkpt>
<trkpt lat="50.542926" lon="4.360234"><time>2026-05-02T18:27:44Z</time></trkpt>
</trkseg>
</trk>
<trk>
<name>hpcbz44</name>
<cmt>q</cmt>
<desc>Buzet Sentier n°44 </desc>
<link href="https://chemins.be/buzet/sentier/44"/><trkseg>
<trkpt lat="50.541084" lon="4.359848"><time>2026-05-02T17:47:44Z</time></trkpt>
<trkpt lat="50.540710" lon="4.362258"><time>2026-05-02T17:57:44Z</time></trkpt>
</trkseg></trk>
<trk>
<name>hpcbz44</name>
<cmt>s</cmt>
<desc>Buzet Sentier n°44 </desc>
<link href="https://chemins.be/buzet/sentier/44"/><trkseg>
<trkpt lat="50.540710" lon="4.362258"><time>2026-05-02T17:57:44Z</time></trkpt>
<trkpt lat="50.540541" lon="4.363444"><time>2026-05-02T18:07:44Z</time></trkpt>
</trkseg>
</trk>
<trk>
<name>hpcbz45</name>
<cmt>q</cmt>
<desc>Buzet Sentier n°45 </desc>
<link href="https://chemins.be/buzet/sentier/45"/><trkseg>
<trkpt lat="50.539305" lon="4.364769"><time>2026-05-02T17:47:44Z</time></trkpt>
<trkpt lat="50.538065" lon="4.364261"><time>2026-05-02T17:57:44Z</time></trkpt>
<trkpt lat="50.537793" lon="4.364557"><time>2026-05-02T18:07:44Z</time></trkpt>
<trkpt lat="50.537714" lon="4.364642"><time>2026-05-02T18:17:44Z</time></trkpt>
<trkpt lat="50.535934" lon="4.365320"><time>2026-05-02T18:27:44Z</time></trkpt>
</trkseg>
</trk>
<trk>
<name>hpcbz46</name>
<cmt>q</cmt>
<desc>Buzet Sentier n°46 </desc>
<link href="https://chemins.be/buzet/sentier/46"/><trkseg>
<trkpt lat="50.537579" lon="4.366561"><time>2026-05-02T17:47:44Z</time></trkpt>
<trkpt lat="50.537813" lon="4.365968"><time>2026-05-02T17:57:44Z</time></trkpt>
<trkpt lat="50.538101" lon="4.364290"><time>2026-05-02T18:07:44Z</time></trkpt>
</trkseg>
</trk>
<trk>
<name>hpcbz47</name>
<cmt>q</cmt>
<desc>Buzet Sentier n°47 </desc>
<link href="https://chemins.be/buzet/sentier/47"/><trkseg>
<trkpt lat="50.543074" lon="4.365963"><time>2026-05-02T17:47:44Z</time></trkpt>
<trkpt lat="50.541847" lon="4.366703"><time>2026-05-02T17:57:44Z</time></trkpt>
<trkpt lat="50.541267" lon="4.367377"><time>2026-05-02T18:07:44Z</time></trkpt>
</trkseg>
</trk>
<trk>
<name>hpcbz48</name>
<cmt>q</cmt>
<desc>Buzet Sentier n°48 </desc>
<link href="https://chemins.be/buzet/sentier/48"/><trkseg>
<trkpt lat="50.543084" lon="4.367556"><time>2026-05-02T17:47:44Z</time></trkpt>
<trkpt lat="50.541271" lon="4.367428"><time>2026-05-02T17:57:44Z</time></trkpt>
</trkseg>
</trk>
<trk>
<name>hpcbz49</name>
<cmt>q</cmt>
<desc>Buzet Sentier n°49 Rue Cardinal Mercier</desc>
<link href="https://chemins.be/buzet/sentier/49"/><trkseg>
<trkpt lat="50.539318" lon="4.364896"><time>2026-05-02T17:47:44Z</time></trkpt>
<trkpt lat="50.539734" lon="4.366505"><time>2026-05-02T17:57:44Z</time></trkpt>
<trkpt lat="50.540307" lon="4.367342"><time>2026-05-02T18:07:44Z</time></trkpt>
<trkpt lat="50.540409" lon="4.366752"><time>2026-05-02T18:17:44Z</time></trkpt>
<trkpt lat="50.541460" lon="4.366521"><time>2026-05-02T18:27:44Z</time></trkpt>
<trkpt lat="50.541820" lon="4.366701"><time>2026-05-02T18:37:44Z</time></trkpt>
</trkseg>
</trk>
<trk>
<name>hpcbz5</name>
<cmt>v</cmt>
<desc>Buzet Chemin n°5 </desc>
<link href="https://chemins.be/buzet/chemin/5"/><trkseg>
<trkpt lat="50.533955" lon="4.385744"><time>2026-05-02T17:47:44Z</time></trkpt>
<trkpt lat="50.532903" lon="4.382740"><time>2026-05-02T17:57:44Z</time></trkpt>
<trkpt lat="50.532032" lon="4.380454"><time>2026-05-02T18:07:44Z</time></trkpt>
<trkpt lat="50.531798" lon="4.379961"><time>2026-05-02T18:17:44Z</time></trkpt>
<trkpt lat="50.531501" lon="4.379410"><time>2026-05-02T18:27:44Z</time></trkpt>
<trkpt lat="50.529407" lon="4.377971"><time>2026-05-02T18:37:44Z</time></trkpt>
<trkpt lat="50.529173" lon="4.377562"><time>2026-05-02T18:47:44Z</time></trkpt>
</trkseg>
</trk>
<trk>
<name>hpcbz50</name>
<cmt>q</cmt>
<desc>Buzet Sentier n°50 </desc>
<link href="https://chemins.be/buzet/sentier/50"/><trkseg>
<trkpt lat="50.538870" lon="4.368444"><time>2026-05-02T17:47:44Z</time></trkpt>
<trkpt lat="50.539109" lon="4.368111"><time>2026-05-02T17:57:44Z</time></trkpt>
<trkpt lat="50.539420" lon="4.366951"><time>2026-05-02T18:07:44Z</time></trkpt>
<trkpt lat="50.539400" lon="4.365421"><time>2026-05-02T18:17:44Z</time></trkpt>
</trkseg>
</trk>
<trk>
<name>hpcbz50bis</name>
<cmt>q</cmt>
<desc>Buzet Sentier n°50bis </desc>
<link href="https://chemins.be/buzet/sentier/50bis"/><trkseg>
<trkpt lat="50.539707" lon="4.366419"><time>2026-05-02T17:47:44Z</time></trkpt>
<trkpt lat="50.539434" lon="4.366805"><time>2026-05-02T17:57:44Z</time></trkpt>
</trkseg>
</trk>
<trk>
<name>hpcbz51</name>
<cmt>q</cmt>
<desc>Buzet Sentier n°51 Rue Paul Pastur</desc>
<link href="https://chemins.be/buzet/sentier/51"/><trkseg>
<trkpt lat="50.540981" lon="4.370408"><time>2026-05-02T17:47:44Z</time></trkpt>
<trkpt lat="50.541431" lon="4.370913"><time>2026-05-02T17:57:44Z</time></trkpt>
<trkpt lat="50.541972" lon="4.371252"><time>2026-05-02T18:07:44Z</time></trkpt>
</trkseg>
</trk>
<trk>
<name>hpcbz51bis</name>
<cmt>r</cmt>
<desc>Buzet Chemin n°51bis Rue du Marais</desc>
<link href="https://chemins.be/buzet/chemin/51bis"/><trkseg>
<trkpt lat="50.538376" lon="4.367476"><time>2026-05-02T17:47:44Z</time></trkpt>
<trkpt lat="50.538171" lon="4.367662"><time>2026-05-02T17:57:44Z</time></trkpt>
<trkpt lat="50.537814" lon="4.367615"><time>2026-05-02T18:07:44Z</time></trkpt>
</trkseg>
</trk>
<trk>
<name>hpcbz53</name>
<cmt>q</cmt>
<desc>Buzet Sentier n°53 </desc>
<link href="https://chemins.be/buzet/sentier/53"/><trkseg>
<trkpt lat="50.538940" lon="4.368821"><time>2026-05-02T17:47:44Z</time></trkpt>
<trkpt lat="50.538440" lon="4.369531"><time>2026-05-02T17:57:44Z</time></trkpt>
<trkpt lat="50.538050" lon="4.369561"><time>2026-05-02T18:07:44Z</time></trkpt>
<trkpt lat="50.537360" lon="4.368851"><time>2026-05-02T18:17:44Z</time></trkpt>
</trkseg></trk>
<trk>
<name>hpcbz53</name>
<cmt>r</cmt>
<desc>Buzet Sentier n°53 </desc>
<link href="https://chemins.be/buzet/sentier/53"/><trkseg>
<trkpt lat="50.537360" lon="4.368851"><time>2026-05-02T18:17:44Z</time></trkpt>
<trkpt lat="50.536893" lon="4.369627"><time>2026-05-02T18:27:44Z</time></trkpt>
</trkseg></trk>
<trk>
<name>hpcbz53</name>
<cmt>q</cmt>
<desc>Buzet Sentier n°53 </desc>
<link href="https://chemins.be/buzet/sentier/53"/><trkseg>
<trkpt lat="50.536893" lon="4.369627"><time>2026-05-02T18:27:44Z</time></trkpt>
<trkpt lat="50.536710" lon="4.370321"><time>2026-05-02T18:37:44Z</time></trkpt>
<trkpt lat="50.536290" lon="4.374241"><time>2026-05-02T18:47:44Z</time></trkpt>
</trkseg>
</trk>
<trk>
<name>hpcbz54</name>
<cmt>v</cmt>
<desc>Buzet Sentier n°54 Rue des Bouchers / Rue du Marais</desc>
<link href="https://chemins.be/buzet/sentier/54"/><trkseg>
<trkpt lat="50.532518" lon="4.370496"><time>2026-05-02T17:47:44Z</time></trkpt>
<trkpt lat="50.532949" lon="4.370144"><time>2026-05-02T17:57:44Z</time></trkpt>
</trkseg></trk>
<trk>
<name>hpcbz54</name>
<cmt>d</cmt>
<desc>Buzet Sentier n°54 Rue des Bouchers / Rue du Marais</desc>
<link href="https://chemins.be/buzet/sentier/54"/><trkseg>
<trkpt lat="50.532949" lon="4.370144"><time>2026-05-02T17:57:44Z</time></trkpt>
<trkpt lat="50.535691" lon="4.369086"><time>2026-05-02T18:07:44Z</time></trkpt>
</trkseg></trk>
<trk>
<name>hpcbz54</name>
<cmt>r</cmt>
<desc>Buzet Sentier n°54 Rue des Bouchers / Rue du Marais</desc>
<link href="https://chemins.be/buzet/sentier/54"/><trkseg>
<trkpt lat="50.535691" lon="4.369086"><time>2026-05-02T18:07:44Z</time></trkpt>
<trkpt lat="50.536278" lon="4.368395"><time>2026-05-02T18:17:44Z</time></trkpt>
<trkpt lat="50.537326" lon="4.368921"><time>2026-05-02T18:27:44Z</time></trkpt>
</trkseg>
</trk>
<trk>
<name>hpcbz55</name>
<cmt>q</cmt>
<desc>Buzet Sentier n°55 </desc>
<link href="https://chemins.be/buzet/sentier/55"/><trkseg>
<trkpt lat="50.531790" lon="4.380114"><time>2026-05-02T17:47:44Z</time></trkpt>
<trkpt lat="50.532215" lon="4.375015"><time>2026-05-02T17:57:44Z</time></trkpt>
<trkpt lat="50.533514" lon="4.373196"><time>2026-05-02T18:07:44Z</time></trkpt>
<trkpt lat="50.534616" lon="4.369436"><time>2026-05-02T18:17:44Z</time></trkpt>
</trkseg>
</trk>
<trk>
<name>hpcbz56</name>
<cmt>q</cmt>
<desc>Buzet Sentier n°56 </desc>
<link href="https://chemins.be/buzet/sentier/56"/><trkseg>
<trkpt lat="50.532230" lon="4.371060"><time>2026-05-02T17:47:44Z</time></trkpt>
<trkpt lat="50.532419" lon="4.371371"><time>2026-05-02T17:57:44Z</time></trkpt>
<trkpt lat="50.532886" lon="4.372443"><time>2026-05-02T18:07:44Z</time></trkpt>
<trkpt lat="50.532994" lon="4.373783"><time>2026-05-02T18:17:44Z</time></trkpt>
</trkseg>
</trk>
<trk>
<name>hpcbz57</name>
<cmt>v</cmt>
<desc>Buzet Sentier n°57 Rue des Bouchers</desc>
<link href="https://chemins.be/buzet/sentier/57"/><trkseg>
<trkpt lat="50.533801" lon="4.368581"><time>2026-05-02T17:47:44Z</time></trkpt>
<trkpt lat="50.533798" lon="4.368808"><time>2026-05-02T17:57:44Z</time></trkpt>
<trkpt lat="50.532976" lon="4.370073"><time>2026-05-02T18:07:44Z</time></trkpt>
</trkseg>
</trk>
<trk>
<name>hpcbz58</name>
<cmt>q</cmt>
<desc>Buzet Sentier n°58 </desc>
<link href="https://chemins.be/buzet/sentier/58"/><trkseg>
<trkpt lat="50.526810" lon="4.391895"><time>2026-05-02T17:47:44Z</time></trkpt>
<trkpt lat="50.524928" lon="4.388266"><time>2026-05-02T17:57:44Z</time></trkpt>
</trkseg>
</trk>
<trk>
<name>hpcbz59</name>
<cmt>s</cmt>
<desc>Buzet Sentier n°59 Rue de Fromiée</desc>
<link href="https://chemins.be/buzet/sentier/59"/><trkseg>
<trkpt lat="50.522468" lon="4.398842"><time>2026-05-02T17:47:44Z</time></trkpt>
<trkpt lat="50.521281" lon="4.399257"><time>2026-05-02T17:57:44Z</time></trkpt>
<trkpt lat="50.519231" lon="4.399064"><time>2026-05-02T18:07:44Z</time></trkpt>
</trkseg>
</trk>
<trk>
<name>hpcbz5bis</name>
<cmt>v</cmt>
<desc>Buzet Chemin n°5bis </desc>
<link href="https://chemins.be/buzet/chemin/5bis"/><trkseg>
<trkpt lat="50.548232" lon="4.374843"><time>2026-05-02T17:47:44Z</time></trkpt>
<trkpt lat="50.549869" lon="4.375944"><time>2026-05-02T17:57:44Z</time></trkpt>
<trkpt lat="50.550579" lon="4.375986"><time>2026-05-02T18:07:44Z</time></trkpt>
<trkpt lat="50.555092" lon="4.373588"><time>2026-05-02T18:17:44Z</time></trkpt>
</trkseg>
</trk>
<trk>
<name>hpcbz60</name>
<cmt>v</cmt>
<desc>Buzet Sentier n°60 </desc>
<link href="https://chemins.be/buzet/sentier/60"/><trkseg>
<trkpt lat="50.523965" lon="4.397093"><time>2026-05-02T17:47:44Z</time></trkpt>
<trkpt lat="50.524917" lon="4.397686"><time>2026-05-02T17:57:44Z</time></trkpt>
<trkpt lat="50.525169" lon="4.397997"><time>2026-05-02T18:07:44Z</time></trkpt>
</trkseg>
</trk>
<trk>
<name>hpcbz61</name>
<cmt>s</cmt>
<desc>Buzet Chemin n°61 </desc>
<link href="https://chemins.be/buzet/chemin/61"/><trkseg>
<trkpt lat="50.538177" lon="4.367040"><time>2026-05-02T17:47:44Z</time></trkpt>
<trkpt lat="50.537819" lon="4.367614"><time>2026-05-02T17:57:44Z</time></trkpt>
</trkseg>
</trk>
<trk>
<name>hpcbz62</name>
<cmt>s</cmt>
<desc>Buzet Sentier n°62 </desc>
<link href="https://chemins.be/buzet/sentier/62"/><trkseg>
<trkpt lat="50.516210" lon="4.403489"><time>2026-05-02T17:47:44Z</time></trkpt>
<trkpt lat="50.516231" lon="4.405163"><time>2026-05-02T17:57:44Z</time></trkpt>
</trkseg>
</trk>
<trk>
<name>hpcbz63</name>
<cmt>s</cmt>
<desc>Buzet Sentier n°63 </desc>
<link href="https://chemins.be/buzet/sentier/63"/><trkseg>
<trkpt lat="50.516752" lon="4.402471"><time>2026-05-02T17:47:44Z</time></trkpt>
<trkpt lat="50.517249" lon="4.403229"><time>2026-05-02T17:57:44Z</time></trkpt>
</trkseg></trk>
<trk>
<name>hpcbz63</name>
<cmt>q</cmt>
<desc>Buzet Sentier n°63 </desc>
<link href="https://chemins.be/buzet/sentier/63"/><trkseg>
<trkpt lat="50.517249" lon="4.403229"><time>2026-05-02T17:57:44Z</time></trkpt>
<trkpt lat="50.517688" lon="4.403900"><time>2026-05-02T18:07:44Z</time></trkpt>
<trkpt lat="50.518326" lon="4.404803"><time>2026-05-02T18:17:44Z</time></trkpt>
<trkpt lat="50.521507" lon="4.406610"><time>2026-05-02T18:27:44Z</time></trkpt>
<trkpt lat="50.523521" lon="4.407938"><time>2026-05-02T18:37:44Z</time></trkpt>
</trkseg>
</trk>
<trk>
<name>hpcbz7</name>
<cmt>r</cmt>
<desc>Buzet Chemin n°7 </desc>
<link href="https://chemins.be/buzet/chemin/7"/><trkseg>
<trkpt lat="50.543254" lon="4.366037"><time>2026-05-02T17:47:44Z</time></trkpt>
<trkpt lat="50.544371" lon="4.364781"><time>2026-05-02T17:57:44Z</time></trkpt>
</trkseg></trk>
<trk>
<name>hpcbz7</name>
<cmt>v</cmt>
<desc>Buzet Chemin n°7 </desc>
<link href="https://chemins.be/buzet/chemin/7"/><trkseg>
<trkpt lat="50.544371" lon="4.364781"><time>2026-05-02T17:57:44Z</time></trkpt>
<trkpt lat="50.545515" lon="4.363497"><time>2026-05-02T18:07:44Z</time></trkpt>
<trkpt lat="50.547671" lon="4.362171"><time>2026-05-02T18:17:44Z</time></trkpt>
<trkpt lat="50.549571" lon="4.360070"><time>2026-05-02T18:27:44Z</time></trkpt>
</trkseg></trk>
<trk>
<name>hpcbz7</name>
<cmt>s</cmt>
<desc>Buzet Chemin n°7 </desc>
<link href="https://chemins.be/buzet/chemin/7"/><trkseg>
<trkpt lat="50.549571" lon="4.360070"><time>2026-05-02T18:27:44Z</time></trkpt>
<trkpt lat="50.549944" lon="4.359376"><time>2026-05-02T18:37:44Z</time></trkpt>
</trkseg></trk>
<trk>
<name>hpcbz7</name>
<cmt>d</cmt>
<desc>Buzet Chemin n°7 </desc>
<link href="https://chemins.be/buzet/chemin/7"/><trkseg>
<trkpt lat="50.549944" lon="4.359376"><time>2026-05-02T18:37:44Z</time></trkpt>
<trkpt lat="50.551751" lon="4.357040"><time>2026-05-02T18:47:44Z</time></trkpt>
</trkseg>
</trk>
<trk>
<name>hpcbz8</name>
<cmt>v</cmt>
<desc>Buzet Chemin n°8 Rue de Rèves</desc>
<link href="https://chemins.be/buzet/chemin/8"/><trkseg>
<trkpt lat="50.539620" lon="4.369904"><time>2026-05-02T17:47:44Z</time></trkpt>
<trkpt lat="50.539341" lon="4.370525"><time>2026-05-02T17:57:44Z</time></trkpt>
<trkpt lat="50.538982" lon="4.370878"><time>2026-05-02T18:07:44Z</time></trkpt>
<trkpt lat="50.537759" lon="4.372260"><time>2026-05-02T18:17:44Z</time></trkpt>
<trkpt lat="50.534073" lon="4.377704"><time>2026-05-02T18:27:44Z</time></trkpt>
<trkpt lat="50.532904" lon="4.379002"><time>2026-05-02T18:37:44Z</time></trkpt>
<trkpt lat="50.531699" lon="4.380172"><time>2026-05-02T18:47:44Z</time></trkpt>
<trkpt lat="50.530027" lon="4.381639"><time>2026-05-02T18:57:44Z</time></trkpt>
<trkpt lat="50.526709" lon="4.384825"><time>2026-05-02T19:07:44Z</time></trkpt>
<trkpt lat="50.525846" lon="4.385530"><time>2026-05-02T19:17:44Z</time></trkpt>
<trkpt lat="50.524587" lon="4.387081"><time>2026-05-02T19:27:44Z</time></trkpt>
</trkseg>
</trk>
<trk>
<name>hpcbz9</name>
<cmt>v</cmt>
<desc>Buzet Chemin n°9 </desc>
<link href="https://chemins.be/buzet/chemin/9"/><trkseg>
<trkpt lat="50.536976" lon="4.383573"><time>2026-05-02T17:47:44Z</time></trkpt>
<trkpt lat="50.536922" lon="4.381288"><time>2026-05-02T17:57:44Z</time></trkpt>
<trkpt lat="50.537624" lon="4.377564"><time>2026-05-02T18:07:44Z</time></trkpt>
</trkseg></trk>
<trk>
<name>hpcbz9</name>
<cmt>s</cmt>
<desc>Buzet Chemin n°9 </desc>
<link href="https://chemins.be/buzet/chemin/9"/><trkseg>
<trkpt lat="50.537624" lon="4.377564"><time>2026-05-02T18:07:44Z</time></trkpt>
<trkpt lat="50.537876" lon="4.376506"><time>2026-05-02T18:17:44Z</time></trkpt>
</trkseg></trk>
<trk>
<name>hpcbz9</name>
<cmt>d</cmt>
<desc>Buzet Chemin n°9 </desc>
<link href="https://chemins.be/buzet/chemin/9"/><trkseg>
<trkpt lat="50.537876" lon="4.376506"><time>2026-05-02T18:17:44Z</time></trkpt>
<trkpt lat="50.538433" lon="4.374715"><time>2026-05-02T18:27:44Z</time></trkpt>
<trkpt lat="50.539081" lon="4.370807"><time>2026-05-02T18:37:44Z</time></trkpt>
</trkseg>
</trk>
<trk>
<name>hpcbzi1</name>
<cmt>v</cmt>
<desc>Buzet Sentier n°i1 </desc>
<link href="https://chemins.be/buzet/sentier/i1"/><trkseg>
<trkpt lat="50.536177" lon="4.363218"><time>2026-05-02T17:47:44Z</time></trkpt>
<trkpt lat="50.536222" lon="4.363316"><time>2026-05-02T17:57:44Z</time></trkpt>
<trkpt lat="50.536977" lon="4.363204"><time>2026-05-02T18:07:44Z</time></trkpt>
<trkpt lat="50.537273" lon="4.362357"><time>2026-05-02T18:17:44Z</time></trkpt>
<trkpt lat="50.537282" lon="4.362146"><time>2026-05-02T18:27:44Z</time></trkpt>
<trkpt lat="50.537579" lon="4.361412"><time>2026-05-02T18:37:44Z</time></trkpt>
<trkpt lat="50.538038" lon="4.361482"><time>2026-05-02T18:47:44Z</time></trkpt>
</trkseg>
</trk>
<trk>
<name>hpcbzi2</name>
<cmt>v</cmt>
<desc>Buzet Chemin n°i2 </desc>
<link href="https://chemins.be/buzet/chemin/i2"/><trkseg>
<trkpt lat="50.549473" lon="4.360093"><time>2026-05-02T17:47:44Z</time></trkpt>
<trkpt lat="50.555231" lon="4.357633"><time>2026-05-02T17:57:44Z</time></trkpt>
</trkseg>
</trk>
<trk>
<name>hpclb1</name>
<cmt>r</cmt>
<desc>Liberchies Chemin n°1 chemin de Liberchies vers Mellet</desc>
<link href="https://chemins.be/liberchies/chemin/1"/><trkseg>
<trkpt lat="50.514276" lon="4.424180"><time>2026-05-02T17:47:44Z</time></trkpt>
<trkpt lat="50.514462" lon="4.425365"><time>2026-05-02T17:57:44Z</time></trkpt>
<trkpt lat="50.514156" lon="4.428386"><time>2026-05-02T18:07:44Z</time></trkpt>
<trkpt lat="50.514462" lon="4.429167"><time>2026-05-02T18:17:44Z</time></trkpt>
<trkpt lat="50.515461" lon="4.431579"><time>2026-05-02T18:27:44Z</time></trkpt>
</trkseg></trk>
<trk>
<name>hpclb1</name>
<cmt>v</cmt>
<desc>Liberchies Chemin n°1 chemin de Liberchies vers Mellet</desc>
<link href="https://chemins.be/liberchies/chemin/1"/><trkseg>
<trkpt lat="50.515461" lon="4.431579"><time>2026-05-02T18:27:44Z</time></trkpt>
<trkpt lat="50.515450" lon="4.433570"><time>2026-05-02T18:37:44Z</time></trkpt>
<trkpt lat="50.515111" lon="4.434437"><time>2026-05-02T18:47:44Z</time></trkpt>
<trkpt lat="50.515613" lon="4.437630"><time>2026-05-02T18:57:44Z</time></trkpt>
<trkpt lat="50.514495" lon="4.443544"><time>2026-05-02T19:07:44Z</time></trkpt>
<trkpt lat="50.512737" lon="4.444651"><time>2026-05-02T19:17:44Z</time></trkpt>
<trkpt lat="50.511449" lon="4.447243"><time>2026-05-02T19:27:44Z</time></trkpt>
<trkpt lat="50.510981" lon="4.447739"><time>2026-05-02T19:37:44Z</time></trkpt>
<trkpt lat="50.509009" lon="4.449775"><time>2026-05-02T19:47:44Z</time></trkpt>
</trkseg>
</trk>
<trk>
<name>hpclb14</name>
<cmt>r</cmt>
<desc>Liberchies Chemin n°14 chemin de Rêves à Luttre</desc>
<link href="https://chemins.be/liberchies/chemin/14"/><trkseg>
<trkpt lat="50.531923" lon="4.416563"><time>2026-05-02T17:47:44Z</time></trkpt>
<trkpt lat="50.530306" lon="4.414022"><time>2026-05-02T17:57:44Z</time></trkpt>
<trkpt lat="50.528159" lon="4.411059"><time>2026-05-02T18:07:44Z</time></trkpt>
<trkpt lat="50.527691" lon="4.410677"><time>2026-05-02T18:17:44Z</time></trkpt>
<trkpt lat="50.527098" lon="4.409281"><time>2026-05-02T18:27:44Z</time></trkpt>
<trkpt lat="50.526164" lon="4.407023"><time>2026-05-02T18:37:44Z</time></trkpt>
<trkpt lat="50.525275" lon="4.405711"><time>2026-05-02T18:47:44Z</time></trkpt>
</trkseg>
</trk>
<trk>
<name>hpclb15</name>
<cmt>v</cmt>
<desc>Liberchies Chemin n°15 chemin de Liberchies à Frasnes</desc>
<link href="https://chemins.be/liberchies/chemin/15"/><trkseg>
<trkpt lat="50.517033" lon="4.421849"><time>2026-05-02T17:47:44Z</time></trkpt>
<trkpt lat="50.521059" lon="4.425520"><time>2026-05-02T17:57:44Z</time></trkpt>
</trkseg></trk>
<trk>
<name>hpclb15</name>
<cmt>d</cmt>
<desc>Liberchies Chemin n°15 chemin de Liberchies à Frasnes</desc>
<link href="https://chemins.be/liberchies/chemin/15"/><trkseg>
<trkpt lat="50.521059" lon="4.425520"><time>2026-05-02T17:57:44Z</time></trkpt>
<trkpt lat="50.523423" lon="4.426369"><time>2026-05-02T18:07:44Z</time></trkpt>
</trkseg>
</trk>
<trk>
<name>hpclb17</name>
<cmt>v</cmt>
<desc>Liberchies Chemin n°17 chemin de Vies-ville vers Mallet</desc>
<link href="https://chemins.be/liberchies/chemin/17"/><trkseg>
<trkpt lat="50.502196" lon="4.444851"><time>2026-05-02T17:47:44Z</time></trkpt>
<trkpt lat="50.502999" lon="4.440285"><time>2026-05-02T17:57:44Z</time></trkpt>
</trkseg></trk>
<trk>
<name>hpclb17</name>
<cmt>d</cmt>
<desc>Liberchies Chemin n°17 chemin de Vies-ville vers Mallet</desc>
<link href="https://chemins.be/liberchies/chemin/17"/><trkseg>
<trkpt lat="50.502999" lon="4.440285"><time>2026-05-02T17:57:44Z</time></trkpt>
<trkpt lat="50.501780" lon="4.433673"><time>2026-05-02T18:07:44Z</time></trkpt>
<trkpt lat="50.500678" lon="4.427201"><time>2026-05-02T18:17:44Z</time></trkpt>
</trkseg>
</trk>
<trk>
<name>hpclb18</name>
<cmt>v</cmt>
<desc>Liberchies Chemin n°18 chemin de Vies-ville vers celui de Nivelles à Gosselies</desc>
<link href="https://chemins.be/liberchies/chemin/18"/><trkseg>
<trkpt lat="50.515512" lon="4.405055"><time>2026-05-02T17:47:44Z</time></trkpt>
<trkpt lat="50.514792" lon="4.406295"><time>2026-05-02T17:57:44Z</time></trkpt>
<trkpt lat="50.514037" lon="4.406858"><time>2026-05-02T18:07:44Z</time></trkpt>
<trkpt lat="50.511546" lon="4.407787"><time>2026-05-02T18:17:44Z</time></trkpt>
<trkpt lat="50.510000" lon="4.407785"><time>2026-05-02T18:27:44Z</time></trkpt>
<trkpt lat="50.508957" lon="4.408306"><time>2026-05-02T18:37:44Z</time></trkpt>
</trkseg>
</trk>
<trk>
<name>hpclb19</name>
<cmt>v</cmt>
<desc>Liberchies Chemin n°19 chemin de Rêves à Ondoumont</desc>
<link href="https://chemins.be/liberchies/chemin/19"/><trkseg>
<trkpt lat="50.527170" lon="4.409210"><time>2026-05-02T17:47:44Z</time></trkpt>
<trkpt lat="50.527279" lon="4.407687"><time>2026-05-02T17:57:44Z</time></trkpt>
<trkpt lat="50.527135" lon="4.406150"><time>2026-05-02T18:07:44Z</time></trkpt>
<trkpt lat="50.527406" lon="4.404979"><time>2026-05-02T18:17:44Z</time></trkpt>
<trkpt lat="50.527442" lon="4.404147"><time>2026-05-02T18:27:44Z</time></trkpt>
</trkseg>
</trk>
<trk>
<name>hpclb2</name>
<cmt>s</cmt>
<desc>Liberchies Chemin n°2 chemin de Bavay à Maestricht</desc>
<link href="https://chemins.be/liberchies/chemin/2"/><trkseg>
<trkpt lat="50.502489" lon="4.417801"><time>2026-05-02T17:47:44Z</time></trkpt>
<trkpt lat="50.502776" lon="4.418817"><time>2026-05-02T17:57:44Z</time></trkpt>
</trkseg></trk>
<trk>
<name>hpclb2</name>
<cmt>d</cmt>
<desc>Liberchies Chemin n°2 chemin de Bavay à Maestricht</desc>
<link href="https://chemins.be/liberchies/chemin/2"/><trkseg>
<trkpt lat="50.502776" lon="4.418817"><time>2026-05-02T17:57:44Z</time></trkpt>
<trkpt lat="50.503162" lon="4.420086"><time>2026-05-02T18:07:44Z</time></trkpt>
<trkpt lat="50.503314" lon="4.422722"><time>2026-05-02T18:17:44Z</time></trkpt>
<trkpt lat="50.502846" lon="4.424060"><time>2026-05-02T18:27:44Z</time></trkpt>
</trkseg></trk>
<trk>
<name>hpclb2</name>
<cmt>q</cmt>
<desc>Liberchies Chemin n°2 chemin de Bavay à Maestricht</desc>
<link href="https://chemins.be/liberchies/chemin/2"/><trkseg>
<trkpt lat="50.502846" lon="4.424060"><time>2026-05-02T18:27:44Z</time></trkpt>
<trkpt lat="50.502540" lon="4.424694"><time>2026-05-02T18:37:44Z</time></trkpt>
</trkseg></trk>
<trk>
<name>hpclb2</name>
<cmt>r</cmt>
<desc>Liberchies Chemin n°2 chemin de Bavay à Maestricht</desc>
<link href="https://chemins.be/liberchies/chemin/2"/><trkseg>
<trkpt lat="50.502540" lon="4.424694"><time>2026-05-02T18:37:44Z</time></trkpt>
<trkpt lat="50.503284" lon="4.427895"><time>2026-05-02T18:47:44Z</time></trkpt>
<trkpt lat="50.505168" lon="4.435200"><time>2026-05-02T18:57:44Z</time></trkpt>
<trkpt lat="50.506541" lon="4.440446"><time>2026-05-02T19:07:44Z</time></trkpt>
</trkseg></trk>
<trk>
<name>hpclb2</name>
<cmt>v</cmt>
<desc>Liberchies Chemin n°2 chemin de Bavay à Maestricht</desc>
<link href="https://chemins.be/liberchies/chemin/2"/><trkseg>
<trkpt lat="50.506541" lon="4.440446"><time>2026-05-02T19:07:44Z</time></trkpt>
<trkpt lat="50.507869" lon="4.444663"><time>2026-05-02T19:17:44Z</time></trkpt>
<trkpt lat="50.508982" lon="4.449792"><time>2026-05-02T19:27:44Z</time></trkpt>
</trkseg></trk>
<trk>
<name>hpclb2</name>
<cmt>r</cmt>
<desc>Liberchies Chemin n°2 chemin de Bavay à Maestricht</desc>
<link href="https://chemins.be/liberchies/chemin/2"/><trkseg>
<trkpt lat="50.508982" lon="4.449792"><time>2026-05-02T19:27:44Z</time></trkpt>
<trkpt lat="50.509806" lon="4.452874"><time>2026-05-02T19:37:44Z</time></trkpt>
</trkseg>
</trk>
<trk>
<name>hpclb20</name>
<cmt>v</cmt>
<desc>Liberchies Chemin n°20 chemin de Liberchies vers Mellet</desc>
<link href="https://chemins.be/liberchies/chemin/20"/><trkseg>
<trkpt lat="50.508962" lon="4.449797"><time>2026-05-02T17:47:44Z</time></trkpt>
<trkpt lat="50.506155" lon="4.451878"><time>2026-05-02T17:57:44Z</time></trkpt>
</trkseg>
</trk>
<trk>
<name>hpclb21</name>
<cmt>v</cmt>
<desc>Liberchies Chemin n°21 chemin de Liberchies aux houssières</desc>
<link href="https://chemins.be/liberchies/chemin/21"/><trkseg>
<trkpt lat="50.514931" lon="4.441570"><time>2026-05-02T17:47:44Z</time></trkpt>
<trkpt lat="50.513894" lon="4.441561"><time>2026-05-02T17:57:44Z</time></trkpt>
</trkseg>
</trk>
<trk>
<name>hpclb22</name>
<cmt>v</cmt>
<desc>Liberchies Chemin n°22 chemin de la chaussée Brunehault au Baty Mouneresses</desc>
<link href="https://chemins.be/liberchies/chemin/22"/><trkseg>
<trkpt lat="50.506523" lon="4.440234"><time>2026-05-02T17:47:44Z</time></trkpt>
<trkpt lat="50.504922" lon="4.440486"><time>2026-05-02T17:57:44Z</time></trkpt>
<trkpt lat="50.504653" lon="4.440147"><time>2026-05-02T18:07:44Z</time></trkpt>
<trkpt lat="50.503033" lon="4.440522"><time>2026-05-02T18:17:44Z</time></trkpt>
</trkseg>
</trk>
<trk>
<name>hpclb23</name>
<cmt>v</cmt>
<desc>Liberchies Chemin n°23 chemin de Liberchies au Baty Synonet</desc>
<link href="https://chemins.be/liberchies/chemin/23"/><trkseg>
<trkpt lat="50.512181" lon="4.417121"><time>2026-05-02T17:47:44Z</time></trkpt>
<trkpt lat="50.510294" lon="4.414877"><time>2026-05-02T17:57:44Z</time></trkpt>
</trkseg></trk>
<trk>
<name>hpclb23</name>
<cmt>s</cmt>
<desc>Liberchies Chemin n°23 chemin de Liberchies au Baty Synonet</desc>
<link href="https://chemins.be/liberchies/chemin/23"/><trkseg>
<trkpt lat="50.510294" lon="4.414877"><time>2026-05-02T17:57:44Z</time></trkpt>
<trkpt lat="50.509620" lon="4.414045"><time>2026-05-02T18:07:44Z</time></trkpt>
</trkseg></trk>
<trk>
<name>hpclb23</name>
<cmt>v</cmt>
<desc>Liberchies Chemin n°23 chemin de Liberchies au Baty Synonet</desc>
<link href="https://chemins.be/liberchies/chemin/23"/><trkseg>
<trkpt lat="50.509620" lon="4.414045"><time>2026-05-02T18:07:44Z</time></trkpt>
<trkpt lat="50.509224" lon="4.413311"><time>2026-05-02T18:17:44Z</time></trkpt>
<trkpt lat="50.507389" lon="4.409443"><time>2026-05-02T18:27:44Z</time></trkpt>
</trkseg>
</trk>
<trk>
<name>hpclb24</name>
<cmt>r</cmt>
<desc>Liberchies Chemin n°24 chemin de la maison Ad.Boudart au chemin de Gosselies à Frasnes</desc>
<link href="https://chemins.be/liberchies/chemin/24"/><trkseg>
<trkpt lat="50.505747" lon="4.428406"><time>2026-05-02T17:47:44Z</time></trkpt>
<trkpt lat="50.506295" lon="4.430507"><time>2026-05-02T17:57:44Z</time></trkpt>
<trkpt lat="50.506276" lon="4.431874"><time>2026-05-02T18:07:44Z</time></trkpt>
</trkseg>
</trk>
<trk>
<name>hpclb25</name>
<cmt>r</cmt>
<desc>Liberchies Chemin n°25 chemin de Liberchies aux biens Communaux</desc>
<link href="https://chemins.be/liberchies/chemin/25"/><trkseg>
<trkpt lat="50.520814" lon="4.432000"><time>2026-05-02T17:47:44Z</time></trkpt>
<trkpt lat="50.519619" lon="4.433047"><time>2026-05-02T17:57:44Z</time></trkpt>
<trkpt lat="50.518517" lon="4.436720"><time>2026-05-02T18:07:44Z</time></trkpt>
</trkseg>
</trk>
<trk>
<name>hpclb26</name>
<cmt>v</cmt>
<desc>Liberchies Chemin n°26 chemin de Liberchies au champ des Tranchy</desc>
<link href="https://chemins.be/liberchies/chemin/26"/><trkseg>
<trkpt lat="50.516346" lon="4.411048"><time>2026-05-02T17:47:44Z</time></trkpt>
<trkpt lat="50.518279" lon="4.410218"><time>2026-05-02T17:57:44Z</time></trkpt>
<trkpt lat="50.520751" lon="4.409092"><time>2026-05-02T18:07:44Z</time></trkpt>
<trkpt lat="50.521606" lon="4.407936"><time>2026-05-02T18:17:44Z</time></trkpt>
</trkseg>
</trk>
<trk>
<name>hpclb27</name>
<cmt>q</cmt>
<desc>Liberchies Chemin n°27 chemin du Baty mouneresse aux près deThimeon</desc>
<link href="https://chemins.be/liberchies/chemin/27"/><trkseg>
<trkpt lat="50.501735" lon="4.433673"><time>2026-05-02T17:47:44Z</time></trkpt>
<trkpt lat="50.497886" lon="4.435133"><time>2026-05-02T17:57:44Z</time></trkpt>
</trkseg>
</trk>
<trk>
<name>hpclb28</name>
<cmt>v</cmt>
<desc>Liberchies Chemin n°28 chemin de Rêves au Bois Lagasse</desc>
<link href="https://chemins.be/liberchies/chemin/28"/><trkseg>
<trkpt lat="50.525529" lon="4.422804"><time>2026-05-02T17:47:44Z</time></trkpt>
<trkpt lat="50.529432" lon="4.419748"><time>2026-05-02T17:57:44Z</time></trkpt>
<trkpt lat="50.529989" lon="4.418916"><time>2026-05-02T18:07:44Z</time></trkpt>
<trkpt lat="50.532094" lon="4.416746"><time>2026-05-02T18:17:44Z</time></trkpt>
</trkseg>
</trk>
<trk>
<name>hpclb29</name>
<cmt>d</cmt>
<desc>Liberchies Chemin n°29 chemin de la ferme de la Chaussée au Baty Moineresse</desc>
<link href="https://chemins.be/liberchies/chemin/29"/><trkseg>
<trkpt lat="50.503248" lon="4.428064"><time>2026-05-02T17:47:44Z</time></trkpt>
<trkpt lat="50.502752" lon="4.430953"><time>2026-05-02T17:57:44Z</time></trkpt>
<trkpt lat="50.501825" lon="4.433532"><time>2026-05-02T18:07:44Z</time></trkpt>
</trkseg>
</trk>
<trk>
<name>hpclb30</name>
<cmt>r</cmt>
<desc>Liberchies Chemin n°30 chemin de Liberchies au prés St-Aubert</desc>
<link href="https://chemins.be/liberchies/chemin/30"/><trkseg>
<trkpt lat="50.508196" lon="4.421211"><time>2026-05-02T17:47:44Z</time></trkpt>
<trkpt lat="50.507874" lon="4.420086"><time>2026-05-02T17:57:44Z</time></trkpt>
<trkpt lat="50.506531" lon="4.417254"><time>2026-05-02T18:07:44Z</time></trkpt>
<trkpt lat="50.506313" lon="4.416481"><time>2026-05-02T18:17:44Z</time></trkpt>
</trkseg></trk>
<trk>
<name>hpclb30</name>
<cmt>v</cmt>
<desc>Liberchies Chemin n°30 chemin de Liberchies au prés St-Aubert</desc>
<link href="https://chemins.be/liberchies/chemin/30"/><trkseg>
<trkpt lat="50.506313" lon="4.416481"><time>2026-05-02T18:17:44Z</time></trkpt>
<trkpt lat="50.505290" lon="4.416939"><time>2026-05-02T18:27:44Z</time></trkpt>
<trkpt lat="50.504891" lon="4.416209"><time>2026-05-02T18:37:44Z</time></trkpt>
</trkseg>
</trk>
<trk>
<name>hpclb31</name>
<cmt>v</cmt>
<desc>Liberchies Chemin n°31 chemin de Liberchies aux prés Stournois</desc>
<link href="https://chemins.be/liberchies/chemin/31"/><trkseg>
<trkpt lat="50.514432" lon="4.429221"><time>2026-05-02T17:47:44Z</time></trkpt>
<trkpt lat="50.512749" lon="4.431474"><time>2026-05-02T17:57:44Z</time></trkpt>
<trkpt lat="50.510491" lon="4.434883"><time>2026-05-02T18:07:44Z</time></trkpt>
<trkpt lat="50.509402" lon="4.435939"><time>2026-05-02T18:17:44Z</time></trkpt>
<trkpt lat="50.508610" lon="4.437333"><time>2026-05-02T18:27:44Z</time></trkpt>
<trkpt lat="50.508393" lon="4.439208"><time>2026-05-02T18:37:44Z</time></trkpt>
</trkseg>
</trk>
<trk>
<name>hpclb32</name>
<cmt>v</cmt>
<desc>Liberchies Chemin n°32 chemin de Liberchies à celui du Grand Try</desc>
<link href="https://chemins.be/liberchies/chemin/32"/><trkseg>
<trkpt lat="50.514566" lon="4.428953"><time>2026-05-02T17:47:44Z</time></trkpt>
<trkpt lat="50.515647" lon="4.425711"><time>2026-05-02T17:57:44Z</time></trkpt>
<trkpt lat="50.516205" lon="4.423724"><time>2026-05-02T18:07:44Z</time></trkpt>
<trkpt lat="50.516907" lon="4.421976"><time>2026-05-02T18:17:44Z</time></trkpt>
</trkseg>
</trk>
<trk>
<name>hpclb33</name>
<cmt>v</cmt>
<desc>Liberchies Chemin n°33 chemin de Liberchies aux prés de la Longue Mesure</desc>
<link href="https://chemins.be/liberchies/chemin/33"/><trkseg>
<trkpt lat="50.514149" lon="4.419506"><time>2026-05-02T17:47:44Z</time></trkpt>
<trkpt lat="50.514437" lon="4.418575"><time>2026-05-02T17:57:44Z</time></trkpt>
</trkseg>
</trk>
<trk>
<name>hpclb34</name>
<cmt>v</cmt>
<desc>Liberchies Chemin n°34 chemin de la maison Robert D'Aujeumont à la Chaussée Brunehault</desc>
<link href="https://chemins.be/liberchies/chemin/34"/><trkseg>
<trkpt lat="50.505168" lon="4.435284"><time>2026-05-02T17:47:44Z</time></trkpt>
<trkpt lat="50.504781" lon="4.436228"><time>2026-05-02T17:57:44Z</time></trkpt>
</trkseg>
</trk>
<trk>
<name>hpclb35</name>
<cmt>q</cmt>
<desc>Liberchies Sentier n°35 sentier de Luttre à Rêves</desc>
<link href="https://chemins.be/liberchies/sentier/35"/><trkseg>
<trkpt lat="50.517894" lon="4.404365"><time>2026-05-02T17:47:44Z</time></trkpt>
<trkpt lat="50.518325" lon="4.404888"><time>2026-05-02T17:57:44Z</time></trkpt>
<trkpt lat="50.521040" lon="4.406399"><time>2026-05-02T18:07:44Z</time></trkpt>
<trkpt lat="50.522236" lon="4.407090"><time>2026-05-02T18:17:44Z</time></trkpt>
<trkpt lat="50.527395" lon="4.410268"><time>2026-05-02T18:27:44Z</time></trkpt>
</trkseg>
</trk>
<trk>
<name>hpclb36</name>
<cmt>q</cmt>
<desc>Liberchies Sentier n°36 sentier de Liberchies à Luttre</desc>
<link href="https://chemins.be/liberchies/sentier/36"/><trkseg>
<trkpt lat="50.516139" lon="4.411231"><time>2026-05-02T17:47:44Z</time></trkpt>
<trkpt lat="50.516221" lon="4.406297"><time>2026-05-02T17:57:44Z</time></trkpt>
</trkseg></trk>
<trk>
<name>hpclb36</name>
<cmt>s</cmt>
<desc>Liberchies Sentier n°36 sentier de Liberchies à Luttre</desc>
<link href="https://chemins.be/liberchies/sentier/36"/><trkseg>
<trkpt lat="50.516221" lon="4.406297"><time>2026-05-02T17:57:44Z</time></trkpt>
<trkpt lat="50.516240" lon="4.405168"><time>2026-05-02T18:07:44Z</time></trkpt>
</trkseg>
</trk>
<trk>
<name>hpclb37</name>
<cmt>s</cmt>
<desc>Liberchies Sentier n°37 sentier de Liberchies au Marais de Luttre</desc>
<link href="https://chemins.be/liberchies/sentier/37"/><trkseg>
<trkpt lat="50.514585" lon="4.407987"><time>2026-05-02T17:47:44Z</time></trkpt>
<trkpt lat="50.514619" lon="4.413034"><time>2026-05-02T17:57:44Z</time></trkpt>
</trkseg></trk>
<trk>
<name>hpclb37</name>
<cmt>r</cmt>
<desc>Liberchies Sentier n°37 sentier de Liberchies au Marais de Luttre</desc>
<link href="https://chemins.be/liberchies/sentier/37"/><trkseg>
<trkpt lat="50.514619" lon="4.413034"><time>2026-05-02T17:57:44Z</time></trkpt>
<trkpt lat="50.514277" lon="4.413739"><time>2026-05-02T18:07:44Z</time></trkpt>
<trkpt lat="50.514088" lon="4.414853"><time>2026-05-02T18:17:44Z</time></trkpt>
<trkpt lat="50.513305" lon="4.416290"><time>2026-05-02T18:27:44Z</time></trkpt>
</trkseg></trk>
<trk>
<name>hpclb37</name>
<cmt>q</cmt>
<desc>Liberchies Sentier n°37 sentier de Liberchies au Marais de Luttre</desc>
<link href="https://chemins.be/liberchies/sentier/37"/><trkseg>
<trkpt lat="50.513305" lon="4.416290"><time>2026-05-02T18:27:44Z</time></trkpt>
<trkpt lat="50.512791" lon="4.418630"><time>2026-05-02T18:37:44Z</time></trkpt>
</trkseg>
</trk>
<trk>
<name>hpclb38</name>
<cmt>q</cmt>
<desc>Liberchies Sentier n°38 sentier de Liberchies à l'art Moulin (sous Luttre)</desc>
<link href="https://chemins.be/liberchies/sentier/38"/><trkseg>
<trkpt lat="50.512477" lon="4.417276"><time>2026-05-02T17:47:44Z</time></trkpt>
<trkpt lat="50.512289" lon="4.415612"><time>2026-05-02T17:57:44Z</time></trkpt>
<trkpt lat="50.510953" lon="4.407744"><time>2026-05-02T18:07:44Z</time></trkpt>
</trkseg>
</trk>
<trk>
<name>hpclb40</name>
<cmt>q</cmt>
<desc>Liberchies Sentier n°40 sentier de Liberchies à Rêves</desc>
<link href="https://chemins.be/liberchies/sentier/40"/><trkseg>
<trkpt lat="50.527402" lon="4.413991"><time>2026-05-02T17:47:44Z</time></trkpt>
<trkpt lat="50.527600" lon="4.413653"><time>2026-05-02T17:57:44Z</time></trkpt>
<trkpt lat="50.529812" lon="4.413105"><time>2026-05-02T18:07:44Z</time></trkpt>
<trkpt lat="50.532788" lon="4.412248"><time>2026-05-02T18:17:44Z</time></trkpt>
</trkseg>
</trk>
<trk>
<name>hpclb41</name>
<cmt>q</cmt>
<desc>Liberchies Sentier n°41 sentier de Liberchies à Villers-Pervin</desc>
<link href="https://chemins.be/liberchies/sentier/41"/><trkseg>
<trkpt lat="50.514659" lon="4.423750"><time>2026-05-02T17:47:44Z</time></trkpt>
<trkpt lat="50.515297" lon="4.424329"><time>2026-05-02T17:57:44Z</time></trkpt>
<trkpt lat="50.515602" lon="4.425979"><time>2026-05-02T18:07:44Z</time></trkpt>
<trkpt lat="50.516159" lon="4.427136"><time>2026-05-02T18:17:44Z</time></trkpt>
<trkpt lat="50.516662" lon="4.427729"><time>2026-05-02T18:27:44Z</time></trkpt>
<trkpt lat="50.516850" lon="4.428096"><time>2026-05-02T18:37:44Z</time></trkpt>
<trkpt lat="50.517183" lon="4.428759"><time>2026-05-02T18:47:44Z</time></trkpt>
<trkpt lat="50.518071" lon="4.431270"><time>2026-05-02T18:57:44Z</time></trkpt>
<trkpt lat="50.518518" lon="4.436601"><time>2026-05-02T19:07:44Z</time></trkpt>
</trkseg>
</trk>
<trk>
<name>hpclb42</name>
<cmt>q</cmt>
<desc>Liberchies Sentier n°42 sentier de Liberchies au Rond-bois</desc>
<link href="https://chemins.be/liberchies/sentier/42"/><trkseg>
<trkpt lat="50.515710" lon="4.425838"><time>2026-05-02T17:47:44Z</time></trkpt>
<trkpt lat="50.520897" lon="4.425450"><time>2026-05-02T17:57:44Z</time></trkpt>
</trkseg>
</trk>
<trk>
<name>hpclb43</name>
<cmt>q</cmt>
<desc>Liberchies Sentier n°43 sentier de la Chapelle aux pierres à Frasnes</desc>
<link href="https://chemins.be/liberchies/sentier/43"/><trkseg>
<trkpt lat="50.521950" lon="4.425943"><time>2026-05-02T17:47:44Z</time></trkpt>
<trkpt lat="50.523086" lon="4.427247"><time>2026-05-02T17:57:44Z</time></trkpt>
</trkseg>
</trk>
<trk>
<name>hpclb44</name>
<cmt>v</cmt>
<desc>Liberchies Sentier n°44 sentier de Liberchies à Frasnes</desc>
<link href="https://chemins.be/liberchies/sentier/44"/><trkseg>
<trkpt lat="50.515163" lon="4.422383"><time>2026-05-02T17:47:44Z</time></trkpt>
<trkpt lat="50.516277" lon="4.423456"><time>2026-05-02T17:57:44Z</time></trkpt>
<trkpt lat="50.516241" lon="4.423710"><time>2026-05-02T18:07:44Z</time></trkpt>
<trkpt lat="50.517634" lon="4.425488"><time>2026-05-02T18:17:44Z</time></trkpt>
<trkpt lat="50.518137" lon="4.426194"><time>2026-05-02T18:27:44Z</time></trkpt>
<trkpt lat="50.519080" lon="4.428381"><time>2026-05-02T18:37:44Z</time></trkpt>
</trkseg></trk>
<trk>
<name>hpclb44</name>
<cmt>d</cmt>
<desc>Liberchies Sentier n°44 sentier de Liberchies à Frasnes</desc>
<link href="https://chemins.be/liberchies/sentier/44"/><trkseg>
<trkpt lat="50.519080" lon="4.428381"><time>2026-05-02T18:37:44Z</time></trkpt>
<trkpt lat="50.520768" lon="4.431979"><time>2026-05-02T18:47:44Z</time></trkpt>
</trkseg>
</trk>
<trk>
<name>hpclb45</name>
<cmt>v</cmt>
<desc>Liberchies Sentier n°45 sentier de la chapelle du try au Trou de Frasnes</desc>
<link href="https://chemins.be/liberchies/sentier/45"/><trkseg>
<trkpt lat="50.516919" lon="4.434399"><time>2026-05-02T17:47:44Z</time></trkpt>
<trkpt lat="50.515598" lon="4.433762"><time>2026-05-02T17:57:44Z</time></trkpt>
</trkseg>
</trk>
<trk>
<name>hpclb46</name>
<cmt>q</cmt>
<desc>Liberchies Sentier n°46 sentier de Liberchies à Fleurus</desc>
<link href="https://chemins.be/liberchies/sentier/46"/><trkseg>
<trkpt lat="50.514517" lon="4.443538"><time>2026-05-02T17:47:44Z</time></trkpt>
<trkpt lat="50.514888" lon="4.445156"><time>2026-05-02T17:57:44Z</time></trkpt>
</trkseg>
</trk>
<trk>
<name>hpclb47</name>
<cmt>v</cmt>
<desc>Liberchies Sentier n°47 sentier de Liberchies à Mellet</desc>
<link href="https://chemins.be/liberchies/sentier/47"/><trkseg>
<trkpt lat="50.512898" lon="4.422338"><time>2026-05-02T17:47:44Z</time></trkpt>
<trkpt lat="50.512862" lon="4.422338"><time>2026-05-02T17:57:44Z</time></trkpt>
<trkpt lat="50.512259" lon="4.422887"><time>2026-05-02T18:07:44Z</time></trkpt>
<trkpt lat="50.511890" lon="4.423987"><time>2026-05-02T18:17:44Z</time></trkpt>
<trkpt lat="50.511790" lon="4.425086"><time>2026-05-02T18:27:44Z</time></trkpt>
<trkpt lat="50.511557" lon="4.425213"><time>2026-05-02T18:37:44Z</time></trkpt>
<trkpt lat="50.511736" lon="4.425960"><time>2026-05-02T18:47:44Z</time></trkpt>
<trkpt lat="50.511152" lon="4.426199"><time>2026-05-02T18:57:44Z</time></trkpt>
</trkseg></trk>
<trk>
<name>hpclb47</name>
<cmt>q</cmt>
<desc>Liberchies Sentier n°47 sentier de Liberchies à Mellet</desc>
<link href="https://chemins.be/liberchies/sentier/47"/><trkseg>
<trkpt lat="50.511152" lon="4.426199"><time>2026-05-02T18:57:44Z</time></trkpt>
<trkpt lat="50.510116" lon="4.429948"><time>2026-05-02T19:07:44Z</time></trkpt>
<trkpt lat="50.509195" lon="4.436009"><time>2026-05-02T19:17:44Z</time></trkpt>
<trkpt lat="50.508556" lon="4.438024"><time>2026-05-02T19:27:44Z</time></trkpt>
<trkpt lat="50.508393" lon="4.439321"><time>2026-05-02T19:37:44Z</time></trkpt>
<trkpt lat="50.507214" lon="4.442576"><time>2026-05-02T19:47:44Z</time></trkpt>
<trkpt lat="50.506323" lon="4.443096"><time>2026-05-02T19:57:44Z</time></trkpt>
<trkpt lat="50.505198" lon="4.445701"><time>2026-05-02T20:07:44Z</time></trkpt>
<trkpt lat="50.504143" lon="4.446397"><time>2026-05-02T20:17:44Z</time></trkpt>
</trkseg>
</trk>
<trk>
<name>hpclb48</name>
<cmt>q</cmt>
<desc>Liberchies Sentier n°48 sentier de Liberchies à Mellet</desc>
<link href="https://chemins.be/liberchies/sentier/48"/><trkseg>
<trkpt lat="50.510044" lon="4.430174"><time>2026-05-02T17:47:44Z</time></trkpt>
<trkpt lat="50.509135" lon="4.431258"><time>2026-05-02T17:57:44Z</time></trkpt>
<trkpt lat="50.506706" lon="4.435132"><time>2026-05-02T18:07:44Z</time></trkpt>
<trkpt lat="50.505789" lon="4.435201"><time>2026-05-02T18:17:44Z</time></trkpt>
<trkpt lat="50.505222" lon="4.435397"><time>2026-05-02T18:27:44Z</time></trkpt>
</trkseg></trk>
<trk>
<name>hpclb48</name>
<cmt>v</cmt>
<desc>Liberchies Sentier n°48 sentier de Liberchies à Mellet</desc>
<link href="https://chemins.be/liberchies/sentier/48"/><trkseg>
<trkpt lat="50.505222" lon="4.435397"><time>2026-05-02T18:27:44Z</time></trkpt>
<trkpt lat="50.504808" lon="4.436271"><time>2026-05-02T18:37:44Z</time></trkpt>
</trkseg></trk>
<trk>
<name>hpclb48</name>
<cmt>q</cmt>
<desc>Liberchies Sentier n°48 sentier de Liberchies à Mellet</desc>
<link href="https://chemins.be/liberchies/sentier/48"/><trkseg>
<trkpt lat="50.504808" lon="4.436271"><time>2026-05-02T18:37:44Z</time></trkpt>
<trkpt lat="50.504277" lon="4.436904"><time>2026-05-02T18:47:44Z</time></trkpt>
<trkpt lat="50.503134" lon="4.440201"><time>2026-05-02T18:57:44Z</time></trkpt>
</trkseg>
</trk>
<trk>
<name>hpclb49</name>
<cmt>r</cmt>
<desc>Liberchies Sentier n°49 sentier de Liberchies à Gosselies</desc>
<link href="https://chemins.be/liberchies/sentier/49"/><trkseg>
<trkpt lat="50.511899" lon="4.423987"><time>2026-05-02T17:47:44Z</time></trkpt>
<trkpt lat="50.511449" lon="4.423859"><time>2026-05-02T17:57:44Z</time></trkpt>
</trkseg></trk>
<trk>
<name>hpclb49</name>
<cmt>q</cmt>
<desc>Liberchies Sentier n°49 sentier de Liberchies à Gosselies</desc>
<link href="https://chemins.be/liberchies/sentier/49"/><trkseg>
<trkpt lat="50.511449" lon="4.423859"><time>2026-05-02T17:57:44Z</time></trkpt>
<trkpt lat="50.506425" lon="4.422119"><time>2026-05-02T18:07:44Z</time></trkpt>
</trkseg>
</trk>
<trk>
<name>hpclb5</name>
<cmt>r</cmt>
<desc>Liberchies Chemin n°5 chemin de Liberchies à Brunehault</desc>
<link href="https://chemins.be/liberchies/chemin/5"/><trkseg>
<trkpt lat="50.513084" lon="4.425007"><time>2026-05-02T17:47:44Z</time></trkpt>
<trkpt lat="50.513344" lon="4.425314"><time>2026-05-02T17:57:44Z</time></trkpt>
</trkseg></trk>
<trk>
<name>hpclb5</name>
<cmt>v</cmt>
<desc>Liberchies Chemin n°5 chemin de Liberchies à Brunehault</desc>
<link href="https://chemins.be/liberchies/chemin/5"/><trkseg>
<trkpt lat="50.513344" lon="4.425314"><time>2026-05-02T17:57:44Z</time></trkpt>
<trkpt lat="50.513553" lon="4.425404"><time>2026-05-02T18:07:44Z</time></trkpt>
<trkpt lat="50.513786" lon="4.425328"><time>2026-05-02T18:17:44Z</time></trkpt>
<trkpt lat="50.514263" lon="4.424610"><time>2026-05-02T18:27:44Z</time></trkpt>
</trkseg>
</trk>
<trk>
<name>hpclb50</name>
<cmt>v</cmt>
<desc>Liberchies Sentier n°50 sentier de Liberchies à Vies-Ville</desc>
<link href="https://chemins.be/liberchies/sentier/50"/><trkseg>
<trkpt lat="50.511820" lon="4.419757"><time>2026-05-02T17:47:44Z</time></trkpt>
<trkpt lat="50.510885" lon="4.419643"><time>2026-05-02T17:57:44Z</time></trkpt>
</trkseg></trk>
<trk>
<name>hpclb50</name>
<cmt>q</cmt>
<desc>Liberchies Sentier n°50 sentier de Liberchies à Vies-Ville</desc>
<link href="https://chemins.be/liberchies/sentier/50"/><trkseg>
<trkpt lat="50.510885" lon="4.419643"><time>2026-05-02T17:57:44Z</time></trkpt>
<trkpt lat="50.504485" lon="4.417578"><time>2026-05-02T18:07:44Z</time></trkpt>
</trkseg>
</trk>
<trk>
<name>hpclb51</name>
<cmt>q</cmt>
<desc>Liberchies Sentier n°51 sentier de Liberchies au Champ St-aubert</desc>
<link href="https://chemins.be/liberchies/sentier/51"/><trkseg>
<trkpt lat="50.508503" lon="4.418964"><time>2026-05-02T17:47:44Z</time></trkpt>
<trkpt lat="50.506526" lon="4.417228"><time>2026-05-02T17:57:44Z</time></trkpt>
</trkseg></trk>
<trk>
<name>hpclb51</name>
<cmt>v</cmt>
<desc>Liberchies Sentier n°51 sentier de Liberchies au Champ St-aubert</desc>
<link href="https://chemins.be/liberchies/sentier/51"/><trkseg>
<trkpt lat="50.506526" lon="4.417228"><time>2026-05-02T17:57:44Z</time></trkpt>
<trkpt lat="50.506265" lon="4.416522"><time>2026-05-02T18:07:44Z</time></trkpt>
<trkpt lat="50.505271" lon="4.416986"><time>2026-05-02T18:17:44Z</time></trkpt>
<trkpt lat="50.504913" lon="4.416089"><time>2026-05-02T18:27:44Z</time></trkpt>
<trkpt lat="50.504657" lon="4.415153"><time>2026-05-02T18:37:44Z</time></trkpt>
</trkseg>
</trk>
<trk>
<name>hpclb52</name>
<cmt>r</cmt>
<desc>Liberchies Sentier n°52 sentier de Liberchies au hameau de Brunehault</desc>
<link href="https://chemins.be/liberchies/sentier/52"/><trkseg>
<trkpt lat="50.504406" lon="4.432126"><time>2026-05-02T17:47:44Z</time></trkpt>
<trkpt lat="50.506232" lon="4.430507"><time>2026-05-02T17:57:44Z</time></trkpt>
</trkseg></trk>
<trk>
<name>hpclb52</name>
<cmt>q</cmt>
<desc>Liberchies Sentier n°52 sentier de Liberchies au hameau de Brunehault</desc>
<link href="https://chemins.be/liberchies/sentier/52"/><trkseg>
<trkpt lat="50.506232" lon="4.430507"><time>2026-05-02T17:57:44Z</time></trkpt>
<trkpt lat="50.506960" lon="4.429930"><time>2026-05-02T18:07:44Z</time></trkpt>
<trkpt lat="50.509362" lon="4.426831"><time>2026-05-02T18:17:44Z</time></trkpt>
</trkseg>
</trk>
<trk>
<name>hpclb53</name>
<cmt>q</cmt>
<desc>Liberchies Sentier n°53 sentier de Brunehault à Vies-ville</desc>
<link href="https://chemins.be/liberchies/sentier/53"/><trkseg>
<trkpt lat="50.502525" lon="4.424882"><time>2026-05-02T17:47:44Z</time></trkpt>
<trkpt lat="50.502250" lon="4.424534"><time>2026-05-02T17:57:44Z</time></trkpt>
</trkseg>
</trk>
<trk>
<name>hpclb54</name>
<cmt>q</cmt>
<desc>Liberchies Sentier n°54 sentier de la Maison Bonne Vitaille à Liberchies</desc>
<link href="https://chemins.be/liberchies/sentier/54"/><trkseg>
<trkpt lat="50.506299" lon="4.439247"><time>2026-05-02T17:47:44Z</time></trkpt>
<trkpt lat="50.506470" lon="4.439163"><time>2026-05-02T17:57:44Z</time></trkpt>
<trkpt lat="50.507378" lon="4.439094"><time>2026-05-02T18:07:44Z</time></trkpt>
<trkpt lat="50.508330" lon="4.439208"><time>2026-05-02T18:17:44Z</time></trkpt>
</trkseg>
</trk>
<trk>
<name>hpclb55</name>
<cmt>v</cmt>
<desc>Liberchies Sentier n°55 sentier de la maison Jean d'Aujeumont à la chaussée Brunehault</desc>
<link href="https://chemins.be/liberchies/sentier/55"/><trkseg>
<trkpt lat="50.504799" lon="4.436271"><time>2026-05-02T17:47:44Z</time></trkpt>
<trkpt lat="50.504916" lon="4.436525"><time>2026-05-02T17:57:44Z</time></trkpt>
<trkpt lat="50.504961" lon="4.436933"><time>2026-05-02T18:07:44Z</time></trkpt>
<trkpt lat="50.504924" lon="4.437300"><time>2026-05-02T18:17:44Z</time></trkpt>
</trkseg></trk>
<trk>
<name>hpclb55</name>
<cmt>d</cmt>
<desc>Liberchies Sentier n°55 sentier de la maison Jean d'Aujeumont à la chaussée Brunehault</desc>
<link href="https://chemins.be/liberchies/sentier/55"/><trkseg>
<trkpt lat="50.504924" lon="4.437300"><time>2026-05-02T18:17:44Z</time></trkpt>
<trkpt lat="50.505599" lon="4.436906"><time>2026-05-02T18:27:44Z</time></trkpt>
</trkseg>
</trk>
<trk>
<name>hpclb56</name>
<cmt>q</cmt>
<desc>Liberchies Sentier n°56 sentier de la maison Adrien Boudart à la Chaussée Brunehault</desc>
<link href="https://chemins.be/liberchies/sentier/56"/><trkseg>
<trkpt lat="50.506258" lon="4.432001"><time>2026-05-02T17:47:44Z</time></trkpt>
<trkpt lat="50.505870" lon="4.433777"><time>2026-05-02T17:57:44Z</time></trkpt>
<trkpt lat="50.505546" lon="4.434792"><time>2026-05-02T18:07:44Z</time></trkpt>
<trkpt lat="50.505231" lon="4.435087"><time>2026-05-02T18:17:44Z</time></trkpt>
</trkseg>
</trk>
<trk>
<name>hpclb57</name>
<cmt>b</cmt>
<desc>Liberchies Sentier n°57 sentier de Liberchies aux Petit Prés</desc>
<link href="https://chemins.be/liberchies/sentier/57"/><trkseg>
<trkpt lat="50.514903" lon="4.420000"><time>2026-05-02T17:47:44Z</time></trkpt>
<trkpt lat="50.515236" lon="4.419112"><time>2026-05-02T17:57:44Z</time></trkpt>
</trkseg>
</trk>
<trk>
<name>hpclb58</name>
<cmt>v</cmt>
<desc>Liberchies Sentier n°58 sentier de la maison Rascar au chemin de Liberchies à Luttre</desc>
<link href="https://chemins.be/liberchies/sentier/58"/><trkseg>
<trkpt lat="50.514184" lon="4.420507"><time>2026-05-02T17:47:44Z</time></trkpt>
<trkpt lat="50.514400" lon="4.420817"><time>2026-05-02T17:57:44Z</time></trkpt>
<trkpt lat="50.514633" lon="4.421043"><time>2026-05-02T18:07:44Z</time></trkpt>
<trkpt lat="50.514984" lon="4.421424"><time>2026-05-02T18:17:44Z</time></trkpt>
<trkpt lat="50.515163" lon="4.421636"><time>2026-05-02T18:27:44Z</time></trkpt>
</trkseg></trk>
<trk>
<name>hpclb58</name>
<cmt>b</cmt>
<desc>Liberchies Sentier n°58 sentier de la maison Rascar au chemin de Liberchies à Luttre</desc>
<link href="https://chemins.be/liberchies/sentier/58"/><trkseg>
<trkpt lat="50.515163" lon="4.421636"><time>2026-05-02T18:27:44Z</time></trkpt>
<trkpt lat="50.515226" lon="4.421692"><time>2026-05-02T18:37:44Z</time></trkpt>
</trkseg></trk>
<trk>
<name>hpclb58</name>
<cmt>v</cmt>
<desc>Liberchies Sentier n°58 sentier de la maison Rascar au chemin de Liberchies à Luttre</desc>
<link href="https://chemins.be/liberchies/sentier/58"/><trkseg>
<trkpt lat="50.515226" lon="4.421692"><time>2026-05-02T18:37:44Z</time></trkpt>
<trkpt lat="50.515298" lon="4.421777"><time>2026-05-02T18:47:44Z</time></trkpt>
</trkseg>
</trk>
<trk>
<name>hpclb6</name>
<cmt>v</cmt>
<desc>Liberchies Chemin n°6 chemin de Gosselies à Frasnes</desc>
<link href="https://chemins.be/liberchies/chemin/6"/><trkseg>
<trkpt lat="50.516892" lon="4.434229"><time>2026-05-02T17:47:44Z</time></trkpt>
<trkpt lat="50.515409" lon="4.433607"><time>2026-05-02T17:57:44Z</time></trkpt>
</trkseg></trk>
<trk>
<name>hpclb6</name>
<cmt>d</cmt>
<desc>Liberchies Chemin n°6 chemin de Gosselies à Frasnes</desc>
<link href="https://chemins.be/liberchies/chemin/6"/><trkseg>
<trkpt lat="50.515409" lon="4.433607"><time>2026-05-02T17:57:44Z</time></trkpt>
<trkpt lat="50.514286" lon="4.433211"><time>2026-05-02T18:07:44Z</time></trkpt>
<trkpt lat="50.512785" lon="4.431390"><time>2026-05-02T18:17:44Z</time></trkpt>
<trkpt lat="50.510296" lon="4.429497"><time>2026-05-02T18:27:44Z</time></trkpt>
<trkpt lat="50.507177" lon="4.428520"><time>2026-05-02T18:37:44Z</time></trkpt>
<trkpt lat="50.506593" lon="4.427942"><time>2026-05-02T18:47:44Z</time></trkpt>
</trkseg></trk>
<trk>
<name>hpclb6</name>
<cmt>r</cmt>
<desc>Liberchies Chemin n°6 chemin de Gosselies à Frasnes</desc>
<link href="https://chemins.be/liberchies/chemin/6"/><trkseg>
<trkpt lat="50.506593" lon="4.427942"><time>2026-05-02T18:47:44Z</time></trkpt>
<trkpt lat="50.504884" lon="4.428405"><time>2026-05-02T18:57:44Z</time></trkpt>
<trkpt lat="50.503212" lon="4.427937"><time>2026-05-02T19:07:44Z</time></trkpt>
</trkseg></trk>
<trk>
<name>hpclb6</name>
<cmt>d</cmt>
<desc>Liberchies Chemin n°6 chemin de Gosselies à Frasnes</desc>
<link href="https://chemins.be/liberchies/chemin/6"/><trkseg>
<trkpt lat="50.503212" lon="4.427937"><time>2026-05-02T19:07:44Z</time></trkpt>
<trkpt lat="50.500758" lon="4.427286"><time>2026-05-02T19:17:44Z</time></trkpt>
<trkpt lat="50.500392" lon="4.426295"><time>2026-05-02T19:27:44Z</time></trkpt>
</trkseg>
</trk>
<trk>
<name>hpclb62</name>
<cmt>q</cmt>
<desc>Liberchies Sentier n°62 sentier longeant le grand chemin de Frasnes</desc>
<link href="https://chemins.be/liberchies/sentier/62"/><trkseg>
<trkpt lat="50.506683" lon="4.428012"><time>2026-05-02T17:47:44Z</time></trkpt>
<trkpt lat="50.507231" lon="4.428563"><time>2026-05-02T17:57:44Z</time></trkpt>
<trkpt lat="50.510368" lon="4.429624"><time>2026-05-02T18:07:44Z</time></trkpt>
</trkseg>
</trk>
<trk>
<name>hpclb63</name>
<cmt>v</cmt>
<desc>Liberchies Sentier n°63 sentier longeant le chemin de Rêves</desc>
<link href="https://chemins.be/liberchies/sentier/63"/><trkseg>
<trkpt lat="50.516925" lon="4.421906"><time>2026-05-02T17:47:44Z</time></trkpt>
<trkpt lat="50.517239" lon="4.421037"><time>2026-05-02T17:57:44Z</time></trkpt>
<trkpt lat="50.520514" lon="4.419047"><time>2026-05-02T18:07:44Z</time></trkpt>
</trkseg></trk>
<trk>
<name>hpclb63</name>
<cmt>q</cmt>
<desc>Liberchies Sentier n°63 sentier longeant le chemin de Rêves</desc>
<link href="https://chemins.be/liberchies/sentier/63"/><trkseg>
<trkpt lat="50.520514" lon="4.419047"><time>2026-05-02T18:07:44Z</time></trkpt>
<trkpt lat="50.524371" lon="4.418685"><time>2026-05-02T18:17:44Z</time></trkpt>
<trkpt lat="50.526573" lon="4.419590"><time>2026-05-02T18:27:44Z</time></trkpt>
<trkpt lat="50.528416" lon="4.420396"><time>2026-05-02T18:37:44Z</time></trkpt>
</trkseg>
</trk>
<trk>
<name>hpclb7</name>
<cmt>v</cmt>
<desc>Liberchies Chemin n°7 chemin de Liberchies à Rêves</desc>
<link href="https://chemins.be/liberchies/chemin/7"/><trkseg>
<trkpt lat="50.516970" lon="4.422004"><time>2026-05-02T17:47:44Z</time></trkpt>
<trkpt lat="50.517169" lon="4.421060"><time>2026-05-02T17:57:44Z</time></trkpt>
<trkpt lat="50.520631" lon="4.419033"><time>2026-05-02T18:07:44Z</time></trkpt>
<trkpt lat="50.522601" lon="4.416666"><time>2026-05-02T18:17:44Z</time></trkpt>
<trkpt lat="50.525981" lon="4.415668"><time>2026-05-02T18:27:44Z</time></trkpt>
<trkpt lat="50.527214" lon="4.414118"><time>2026-05-02T18:37:44Z</time></trkpt>
<trkpt lat="50.528499" lon="4.414599"><time>2026-05-02T18:47:44Z</time></trkpt>
<trkpt lat="50.530014" lon="4.418805"><time>2026-05-02T18:57:44Z</time></trkpt>
</trkseg>
</trk>
<trk>
<name>hpclbi1</name>
<cmt>v</cmt>
<desc>Liberchies Chemin n°i1 </desc>
<link href="https://chemins.be/liberchies/chemin/i1"/><trkseg>
<trkpt lat="50.502524" lon="4.417890"><time>2026-05-02T17:47:44Z</time></trkpt>
<trkpt lat="50.505319" lon="4.417066"><time>2026-05-02T17:57:44Z</time></trkpt>
<trkpt lat="50.506411" lon="4.416551"><time>2026-05-02T18:07:44Z</time></trkpt>
<trkpt lat="50.508791" lon="4.415075"><time>2026-05-02T18:17:44Z</time></trkpt>
<trkpt lat="50.509664" lon="4.414114"><time>2026-05-02T18:27:44Z</time></trkpt>
</trkseg>
</trk>
<trk>
<name>hpclbi2</name>
<cmt>q</cmt>
<desc>Liberchies Chemin n°i2 </desc>
<link href="https://chemins.be/liberchies/chemin/i2"/><trkseg>
<trkpt lat="50.511014" lon="4.447616"><time>2026-05-02T17:47:44Z</time></trkpt>
<trkpt lat="50.509759" lon="4.444984"><time>2026-05-02T17:57:44Z</time></trkpt>
</trkseg>
</trk>
<trk>
<name>hpclt1</name>
<cmt>r</cmt>
<desc>Luttre Chemin n°1 Chemin d'Obaix à Viesville</desc>
<link href="https://chemins.be/luttre/chemin/1"/><trkseg>
<trkpt lat="50.512028" lon="4.386822"><time>2026-05-02T17:47:44Z</time></trkpt>
<trkpt lat="50.512972" lon="4.385300"><time>2026-05-02T17:57:44Z</time></trkpt>
<trkpt lat="50.513691" lon="4.384567"><time>2026-05-02T18:07:44Z</time></trkpt>
</trkseg></trk>
<trk>
<name>hpclt1</name>
<cmt>v</cmt>
<desc>Luttre Chemin n°1 Chemin d'Obaix à Viesville</desc>
<link href="https://chemins.be/luttre/chemin/1"/><trkseg>
<trkpt lat="50.513691" lon="4.384567"><time>2026-05-02T18:07:44Z</time></trkpt>
<trkpt lat="50.516074" lon="4.382213"><time>2026-05-02T18:17:44Z</time></trkpt>
<trkpt lat="50.518088" lon="4.379788"><time>2026-05-02T18:27:44Z</time></trkpt>
<trkpt lat="50.518843" lon="4.378674"><time>2026-05-02T18:37:44Z</time></trkpt>
</trkseg>
</trk>
<trk>
<name>hpclt10</name>
<cmt>s</cmt>
<desc>Luttre Chemin n°10 Chemin de la Chaussée Brunehault à Viesville</desc>
<link href="https://chemins.be/luttre/chemin/10"/><trkseg>
<trkpt lat="50.499003" lon="4.399392"><time>2026-05-02T17:47:44Z</time></trkpt>
<trkpt lat="50.498200" lon="4.399847"><time>2026-05-02T17:57:44Z</time></trkpt>
</trkseg>
</trk>
<trk>
<name>hpclt14</name>
<cmt>v</cmt>
<desc>Luttre Chemin n°14 Chemin de celui du Caillou au Bois Loué</desc>
<link href="https://chemins.be/luttre/chemin/14"/><trkseg>
<trkpt lat="50.509192" lon="4.387796"><time>2026-05-02T17:47:44Z</time></trkpt>
<trkpt lat="50.509067" lon="4.387100"><time>2026-05-02T17:57:44Z</time></trkpt>
<trkpt lat="50.509059" lon="4.386442"><time>2026-05-02T18:07:44Z</time></trkpt>
<trkpt lat="50.509153" lon="4.385970"><time>2026-05-02T18:17:44Z</time></trkpt>
<trkpt lat="50.510618" lon="4.382946"><time>2026-05-02T18:27:44Z</time></trkpt>
<trkpt lat="50.510803" lon="4.378964"><time>2026-05-02T18:37:44Z</time></trkpt>
<trkpt lat="50.512321" lon="4.376715"><time>2026-05-02T18:47:44Z</time></trkpt>
</trkseg>
</trk>
<trk>
<name>hpclt15</name>
<cmt>v</cmt>
<desc>Luttre Chemin n°15 Chemin de Pont-à-Celle à Rêves</desc>
<link href="https://chemins.be/luttre/chemin/15"/><trkseg>
<trkpt lat="50.529101" lon="4.377421"><time>2026-05-02T17:47:44Z</time></trkpt>
<trkpt lat="50.527798" lon="4.374953"><time>2026-05-02T17:57:44Z</time></trkpt>
</trkseg>
</trk>
<trk>
<name>hpclt17</name>
<cmt>r</cmt>
<desc>Luttre Chemin n°17 Chemin de la rue Bairiau au Lieu dit Gibet et au Moulin</desc>
<link href="https://chemins.be/luttre/chemin/17"/><trkseg>
<trkpt lat="50.509853" lon="4.393370"><time>2026-05-02T17:47:44Z</time></trkpt>
<trkpt lat="50.509659" lon="4.393284"><time>2026-05-02T17:57:44Z</time></trkpt>
<trkpt lat="50.509236" lon="4.393344"><time>2026-05-02T18:07:44Z</time></trkpt>
</trkseg>
</trk>
<trk>
<name>hpclt19</name>
<cmt>q</cmt>
<desc>Luttre Sentier n°19 Sentier de Pont-à-Celle à Rêves</desc>
<link href="https://chemins.be/luttre/sentier/19"/><trkseg>
<trkpt lat="50.518943" lon="4.378657"><time>2026-05-02T17:47:44Z</time></trkpt>
<trkpt lat="50.523144" lon="4.384513"><time>2026-05-02T17:57:44Z</time></trkpt>
<trkpt lat="50.523181" lon="4.384990"><time>2026-05-02T18:07:44Z</time></trkpt>
<trkpt lat="50.524545" lon="4.387116"><time>2026-05-02T18:17:44Z</time></trkpt>
</trkseg></trk>
<trk>
<name>hpclt19</name>
<cmt>s</cmt>
<desc>Luttre Sentier n°19 Sentier de Pont-à-Celle à Rêves</desc>
<link href="https://chemins.be/luttre/sentier/19"/><trkseg>
<trkpt lat="50.524545" lon="4.387116"><time>2026-05-02T18:17:44Z</time></trkpt>
<trkpt lat="50.524951" lon="4.388261"><time>2026-05-02T18:27:44Z</time></trkpt>
</trkseg>
</trk>
<trk>
<name>hpclt20</name>
<cmt>q</cmt>
<desc>Luttre Sentier n°20 Sentier de Luttre à la ferme Compion</desc>
<link href="https://chemins.be/luttre/sentier/20"/><trkseg>
<trkpt lat="50.512340" lon="4.390122"><time>2026-05-02T17:47:44Z</time></trkpt>
<trkpt lat="50.515971" lon="4.385452"><time>2026-05-02T17:57:44Z</time></trkpt>
<trkpt lat="50.518517" lon="4.385810"><time>2026-05-02T18:07:44Z</time></trkpt>
<trkpt lat="50.519242" lon="4.385193"><time>2026-05-02T18:17:44Z</time></trkpt>
<trkpt lat="50.522098" lon="4.382847"><time>2026-05-02T18:27:44Z</time></trkpt>
</trkseg>
</trk>
<trk>
<name>hpclt21</name>
<cmt>s</cmt>
<desc>Luttre Sentier n°21 Sentier de Pont-à-Celles au hameau du Frumier</desc>
<link href="https://chemins.be/luttre/sentier/21"/><trkseg>
<trkpt lat="50.521511" lon="4.393778"><time>2026-05-02T17:47:44Z</time></trkpt>
<trkpt lat="50.521228" lon="4.392283"><time>2026-05-02T17:57:44Z</time></trkpt>
</trkseg></trk>
<trk>
<name>hpclt21</name>
<cmt>q</cmt>
<desc>Luttre Sentier n°21 Sentier de Pont-à-Celles au hameau du Frumier</desc>
<link href="https://chemins.be/luttre/sentier/21"/><trkseg>
<trkpt lat="50.521228" lon="4.392283"><time>2026-05-02T17:57:44Z</time></trkpt>
<trkpt lat="50.520933" lon="4.390722"><time>2026-05-02T18:07:44Z</time></trkpt>
<trkpt lat="50.520562" lon="4.384938"><time>2026-05-02T18:17:44Z</time></trkpt>
<trkpt lat="50.521009" lon="4.381521"><time>2026-05-02T18:27:44Z</time></trkpt>
</trkseg>
</trk>
<trk>
<name>hpclt22</name>
<cmt>r</cmt>
<desc>Luttre Sentier n°22 Sentier de Pont-à-Celles à Luttre</desc>
<link href="https://chemins.be/luttre/sentier/22"/><trkseg>
<trkpt lat="50.512323" lon="4.390123"><time>2026-05-02T17:47:44Z</time></trkpt>
<trkpt lat="50.512496" lon="4.387794"><time>2026-05-02T17:57:44Z</time></trkpt>
<trkpt lat="50.512905" lon="4.385489"><time>2026-05-02T18:07:44Z</time></trkpt>
</trkseg></trk>
<trk>
<name>hpclt22</name>
<cmt>q</cmt>
<desc>Luttre Sentier n°22 Sentier de Pont-à-Celles à Luttre</desc>
<link href="https://chemins.be/luttre/sentier/22"/><trkseg>
<trkpt lat="50.512905" lon="4.385489"><time>2026-05-02T18:07:44Z</time></trkpt>
<trkpt lat="50.512741" lon="4.379691"><time>2026-05-02T18:17:44Z</time></trkpt>
<trkpt lat="50.512304" lon="4.376683"><time>2026-05-02T18:27:44Z</time></trkpt>
<trkpt lat="50.512806" lon="4.373730"><time>2026-05-02T18:37:44Z</time></trkpt>
<trkpt lat="50.512609" lon="4.371052"><time>2026-05-02T18:47:44Z</time></trkpt>
</trkseg>
</trk>
<trk>
<name>hpclt23</name>
<cmt>q</cmt>
<desc>Luttre Sentier n°23 Sentier de la Ruelle Jean Pottier au Champ de la Saumière (chevauchoire)</desc>
<link href="https://chemins.be/luttre/sentier/23"/><trkseg>
<trkpt lat="50.512159" lon="4.390361"><time>2026-05-02T17:47:44Z</time></trkpt>
<trkpt lat="50.512835" lon="4.391588"><time>2026-05-02T17:57:44Z</time></trkpt>
<trkpt lat="50.513458" lon="4.392078"><time>2026-05-02T18:07:44Z</time></trkpt>
<trkpt lat="50.516863" lon="4.393451"><time>2026-05-02T18:17:44Z</time></trkpt>
<trkpt lat="50.518435" lon="4.393442"><time>2026-05-02T18:27:44Z</time></trkpt>
</trkseg>
</trk>
<trk>
<name>hpclt24</name>
<cmt>v</cmt>
<desc>Luttre Sentier n°24 Sentier de Luttre à Liberchies</desc>
<link href="https://chemins.be/luttre/sentier/24"/><trkseg>
<trkpt lat="50.510647" lon="4.392809"><time>2026-05-02T17:47:44Z</time></trkpt>
<trkpt lat="50.511051" lon="4.393228"><time>2026-05-02T17:57:44Z</time></trkpt>
<trkpt lat="50.511255" lon="4.393232"><time>2026-05-02T18:07:44Z</time></trkpt>
</trkseg></trk>
<trk>
<name>hpclt24</name>
<cmt>q</cmt>
<desc>Luttre Sentier n°24 Sentier de Luttre à Liberchies</desc>
<link href="https://chemins.be/luttre/sentier/24"/><trkseg>
<trkpt lat="50.511255" lon="4.393232"><time>2026-05-02T18:07:44Z</time></trkpt>
<trkpt lat="50.511405" lon="4.393193"><time>2026-05-02T18:17:44Z</time></trkpt>
<trkpt lat="50.511847" lon="4.393099"><time>2026-05-02T18:27:44Z</time></trkpt>
<trkpt lat="50.512419" lon="4.393229"><time>2026-05-02T18:37:44Z</time></trkpt>
</trkseg></trk>
<trk>
<name>hpclt24</name>
<cmt>r</cmt>
<desc>Luttre Sentier n°24 Sentier de Luttre à Liberchies</desc>
<link href="https://chemins.be/luttre/sentier/24"/><trkseg>
<trkpt lat="50.512419" lon="4.393229"><time>2026-05-02T18:37:44Z</time></trkpt>
<trkpt lat="50.514122" lon="4.394877"><time>2026-05-02T18:47:44Z</time></trkpt>
</trkseg></trk>
<trk>
<name>hpclt24</name>
<cmt>q</cmt>
<desc>Luttre Sentier n°24 Sentier de Luttre à Liberchies</desc>
<link href="https://chemins.be/luttre/sentier/24"/><trkseg>
<trkpt lat="50.514122" lon="4.394877"><time>2026-05-02T18:47:44Z</time></trkpt>
<trkpt lat="50.514689" lon="4.397846"><time>2026-05-02T18:57:44Z</time></trkpt>
</trkseg>
</trk>
<trk>
<name>hpclt25</name>
<cmt>q</cmt>
<desc>Luttre Sentier n°25 Sentier du Bien Communal de Luttre à Rêves</desc>
<link href="https://chemins.be/luttre/sentier/25"/><trkseg>
<trkpt lat="50.515726" lon="4.401917"><time>2026-05-02T17:47:44Z</time></trkpt>
<trkpt lat="50.516763" lon="4.402475"><time>2026-05-02T17:57:44Z</time></trkpt>
</trkseg>
</trk>
<trk>
<name>hpclt26</name>
<cmt>d</cmt>
<desc>Luttre Sentier n°26 Sentier des Trois Bonniers de la Cure au lieu dit Marache</desc>
<link href="https://chemins.be/luttre/sentier/26"/><trkseg>
<trkpt lat="50.512448" lon="4.393279"><time>2026-05-02T17:47:44Z</time></trkpt>
<trkpt lat="50.513468" lon="4.392120"><time>2026-05-02T17:57:44Z</time></trkpt>
</trkseg>
</trk>
<trk>
<name>hpclt27</name>
<cmt>q</cmt>
<desc>Luttre Sentier n°27 Sentier de la ferme de l'Arbière au sentier Meunier</desc>
<link href="https://chemins.be/luttre/sentier/27"/><trkseg>
<trkpt lat="50.516042" lon="4.396461"><time>2026-05-02T17:47:44Z</time></trkpt>
<trkpt lat="50.514328" lon="4.395037"><time>2026-05-02T17:57:44Z</time></trkpt>
<trkpt lat="50.514241" lon="4.395073"><time>2026-05-02T18:07:44Z</time></trkpt>
</trkseg>
</trk>
<trk>
<name>hpclt28</name>
<cmt>q</cmt>
<desc>Luttre Sentier n°28 Sentier de Luttre à Pont-à-Celles</desc>
<link href="https://chemins.be/luttre/sentier/28"/><trkseg>
<trkpt lat="50.509845" lon="4.390738"><time>2026-05-02T17:47:44Z</time></trkpt>
<trkpt lat="50.509714" lon="4.389309"><time>2026-05-02T17:57:44Z</time></trkpt>
<trkpt lat="50.509226" lon="4.387824"><time>2026-05-02T18:07:44Z</time></trkpt>
</trkseg>
</trk>
<trk>
<name>hpclt29</name>
<cmt>q</cmt>
<desc>Luttre Sentier n°29 Sentier de l'Ecluse 11 aux Haies Ste-Anne</desc>
<link href="https://chemins.be/luttre/sentier/29"/><trkseg>
<trkpt lat="50.510316" lon="4.387261"><time>2026-05-02T17:47:44Z</time></trkpt>
<trkpt lat="50.511623" lon="4.386874"><time>2026-05-02T17:57:44Z</time></trkpt>
<trkpt lat="50.512039" lon="4.386794"><time>2026-05-02T18:07:44Z</time></trkpt>
<trkpt lat="50.512080" lon="4.386810"><time>2026-05-02T18:17:44Z</time></trkpt>
<trkpt lat="50.512694" lon="4.385919"><time>2026-05-02T18:27:44Z</time></trkpt>
<trkpt lat="50.512697" lon="4.385828"><time>2026-05-02T18:37:44Z</time></trkpt>
</trkseg>
</trk>
<trk>
<name>hpclt3</name>
<cmt>v</cmt>
<desc>Luttre Chemin n°3 Chemin du hameau de Larmoulin à celui de Brunehault</desc>
<link href="https://chemins.be/luttre/chemin/3"/><trkseg>
<trkpt lat="50.498926" lon="4.399220"><time>2026-05-02T17:47:44Z</time></trkpt>
<trkpt lat="50.498926" lon="4.398473"><time>2026-05-02T17:57:44Z</time></trkpt>
</trkseg></trk>
<trk>
<name>hpclt3</name>
<cmt>r</cmt>
<desc>Luttre Chemin n°3 Chemin du hameau de Larmoulin à celui de Brunehault</desc>
<link href="https://chemins.be/luttre/chemin/3"/><trkseg>
<trkpt lat="50.498926" lon="4.398473"><time>2026-05-02T17:57:44Z</time></trkpt>
<trkpt lat="50.499664" lon="4.397304"><time>2026-05-02T18:07:44Z</time></trkpt>
</trkseg></trk>
<trk>
<name>hpclt3</name>
<cmt>s</cmt>
<desc>Luttre Chemin n°3 Chemin du hameau de Larmoulin à celui de Brunehault</desc>
<link href="https://chemins.be/luttre/chemin/3"/><trkseg>
<trkpt lat="50.499664" lon="4.397304"><time>2026-05-02T18:07:44Z</time></trkpt>
<trkpt lat="50.499862" lon="4.396486"><time>2026-05-02T18:17:44Z</time></trkpt>
</trkseg></trk>
<trk>
<name>hpclt3</name>
<cmt>r</cmt>
<desc>Luttre Chemin n°3 Chemin du hameau de Larmoulin à celui de Brunehault</desc>
<link href="https://chemins.be/luttre/chemin/3"/><trkseg>
<trkpt lat="50.499862" lon="4.396486"><time>2026-05-02T18:17:44Z</time></trkpt>
<trkpt lat="50.500249" lon="4.395782"><time>2026-05-02T18:27:44Z</time></trkpt>
<trkpt lat="50.500213" lon="4.392568"><time>2026-05-02T18:37:44Z</time></trkpt>
<trkpt lat="50.500672" lon="4.392089"><time>2026-05-02T18:47:44Z</time></trkpt>
<trkpt lat="50.501212" lon="4.389989"><time>2026-05-02T18:57:44Z</time></trkpt>
</trkseg>
</trk>
<trk>
<name>hpclt30</name>
<cmt>q</cmt>
<desc>Luttre Sentier n°30 Sentier du hameau du Bois à Liberchies</desc>
<link href="https://chemins.be/luttre/sentier/30"/><trkseg>
<trkpt lat="50.507207" lon="4.400267"><time>2026-05-02T17:47:44Z</time></trkpt>
<trkpt lat="50.508854" lon="4.402608"><time>2026-05-02T17:57:44Z</time></trkpt>
<trkpt lat="50.509196" lon="4.403976"><time>2026-05-02T18:07:44Z</time></trkpt>
<trkpt lat="50.509676" lon="4.404644"><time>2026-05-02T18:17:44Z</time></trkpt>
<trkpt lat="50.510952" lon="4.407753"><time>2026-05-02T18:27:44Z</time></trkpt>
</trkseg>
</trk>
<trk>
<name>hpclt31</name>
<cmt>v</cmt>
<desc>Luttre Sentier n°31 Sentier du Lieu dit la Commune au Trieu du Bois</desc>
<link href="https://chemins.be/luttre/sentier/31"/><trkseg>
<trkpt lat="50.509463" lon="4.397296"><time>2026-05-02T17:47:44Z</time></trkpt>
<trkpt lat="50.509355" lon="4.397465"><time>2026-05-02T17:57:44Z</time></trkpt>
<trkpt lat="50.509032" lon="4.397888"><time>2026-05-02T18:07:44Z</time></trkpt>
<trkpt lat="50.508114" lon="4.399015"><time>2026-05-02T18:17:44Z</time></trkpt>
<trkpt lat="50.507521" lon="4.399748"><time>2026-05-02T18:27:44Z</time></trkpt>
<trkpt lat="50.507323" lon="4.400001"><time>2026-05-02T18:37:44Z</time></trkpt>
<trkpt lat="50.507107" lon="4.400269"><time>2026-05-02T18:47:44Z</time></trkpt>
<trkpt lat="50.507035" lon="4.400255"><time>2026-05-02T18:57:44Z</time></trkpt>
</trkseg>
</trk>
<trk>
<name>hpclt32</name>
<cmt>s</cmt>
<desc>Luttre Sentier n°32 Sentier du Bien Communal de Luttre à Viesville</desc>
<link href="https://chemins.be/luttre/sentier/32"/><trkseg>
<trkpt lat="50.500199" lon="4.402397"><time>2026-05-02T17:47:44Z</time></trkpt>
<trkpt lat="50.503184" lon="4.400192"><time>2026-05-02T17:57:44Z</time></trkpt>
<trkpt lat="50.503830" lon="4.399691"><time>2026-05-02T18:07:44Z</time></trkpt>
</trkseg>
</trk>
<trk>
<name>hpclt33</name>
<cmt>q</cmt>
<desc>Luttre Sentier n°33 Sentier de celui du Ploys au Canal</desc>
<link href="https://chemins.be/luttre/sentier/33"/><trkseg>
<trkpt lat="50.503992" lon="4.399891"><time>2026-05-02T17:47:44Z</time></trkpt>
<trkpt lat="50.503832" lon="4.399616"><time>2026-05-02T17:57:44Z</time></trkpt>
<trkpt lat="50.504148" lon="4.398191"><time>2026-05-02T18:07:44Z</time></trkpt>
</trkseg>
</trk>
<trk>
<name>hpclt34</name>
<cmt>r</cmt>
<desc>Luttre Sentier n°34 Sentier du hameau de Beaudoux à Viesville</desc>
<link href="https://chemins.be/luttre/sentier/34"/><trkseg>
<trkpt lat="50.498315" lon="4.399615"><time>2026-05-02T17:47:44Z</time></trkpt>
<trkpt lat="50.498908" lon="4.398516"><time>2026-05-02T17:57:44Z</time></trkpt>
<trkpt lat="50.499637" lon="4.397247"><time>2026-05-02T18:07:44Z</time></trkpt>
</trkseg></trk>
<trk>
<name>hpclt34</name>
<cmt>s</cmt>
<desc>Luttre Sentier n°34 Sentier du hameau de Beaudoux à Viesville</desc>
<link href="https://chemins.be/luttre/sentier/34"/><trkseg>
<trkpt lat="50.499637" lon="4.397247"><time>2026-05-02T18:07:44Z</time></trkpt>
<trkpt lat="50.499799" lon="4.396698"><time>2026-05-02T18:17:44Z</time></trkpt>
</trkseg>
</trk>
<trk>
<name>hpclt35</name>
<cmt>v</cmt>
<desc>Luttre Sentier n°35 Sentier du lieu dit Morois à la Place</desc>
<link href="https://chemins.be/luttre/sentier/35"/><trkseg>
<trkpt lat="50.509881" lon="4.391396"><time>2026-05-02T17:47:44Z</time></trkpt>
<trkpt lat="50.510387" lon="4.392049"><time>2026-05-02T17:57:44Z</time></trkpt>
</trkseg>
</trk>
<trk>
<name>hpclt36</name>
<cmt>r</cmt>
<desc>Luttre Sentier n°36 Sentier de Luttre au lieu dit Commune</desc>
<link href="https://chemins.be/luttre/sentier/36"/><trkseg>
<trkpt lat="50.509982" lon="4.392990"><time>2026-05-02T17:47:44Z</time></trkpt>
<trkpt lat="50.509844" lon="4.393432"><time>2026-05-02T17:57:44Z</time></trkpt>
<trkpt lat="50.509685" lon="4.393906"><time>2026-05-02T18:07:44Z</time></trkpt>
<trkpt lat="50.509233" lon="4.394826"><time>2026-05-02T18:17:44Z</time></trkpt>
</trkseg>
</trk>
<trk>
<name>hpclt37</name>
<cmt>v</cmt>
<desc>Luttre Sentier n°37 Sentier de la 10° Ecluse à la 11° Ecluse</desc>
<link href="https://chemins.be/luttre/sentier/37"/><trkseg>
<trkpt lat="50.499692" lon="4.397326"><time>2026-05-02T17:47:44Z</time></trkpt>
<trkpt lat="50.502044" lon="4.398449"><time>2026-05-02T17:57:44Z</time></trkpt>
<trkpt lat="50.503613" lon="4.398442"><time>2026-05-02T18:07:44Z</time></trkpt>
<trkpt lat="50.504268" lon="4.398129"><time>2026-05-02T18:17:44Z</time></trkpt>
<trkpt lat="50.505419" lon="4.397226"><time>2026-05-02T18:27:44Z</time></trkpt>
<trkpt lat="50.506520" lon="4.395624"><time>2026-05-02T18:37:44Z</time></trkpt>
<trkpt lat="50.507234" lon="4.393435"><time>2026-05-02T18:47:44Z</time></trkpt>
<trkpt lat="50.507484" lon="4.391808"><time>2026-05-02T18:57:44Z</time></trkpt>
<trkpt lat="50.507533" lon="4.390237"><time>2026-05-02T19:07:44Z</time></trkpt>
</trkseg>
</trk>
<trk>
<name>hpclt38</name>
<cmt>q</cmt>
<desc>Luttre Sentier n°38 Sentier du Cheval Blanc à la 11ième Ecluse</desc>
<link href="https://chemins.be/luttre/sentier/38"/><trkseg>
<trkpt lat="50.502213" lon="4.392063"><time>2026-05-02T17:47:44Z</time></trkpt>
<trkpt lat="50.500903" lon="4.392861"><time>2026-05-02T17:57:44Z</time></trkpt>
<trkpt lat="50.500237" lon="4.393642"><time>2026-05-02T18:07:44Z</time></trkpt>
</trkseg>
</trk>
<trk>
<name>hpclt39</name>
<cmt>q</cmt>
<desc>Luttre Sentier n°39 Sentier du hameau Picolom au Trieu du Bois</desc>
<link href="https://chemins.be/luttre/sentier/39"/><trkseg>
<trkpt lat="50.507892" lon="4.396385"><time>2026-05-02T17:47:44Z</time></trkpt>
<trkpt lat="50.507243" lon="4.397482"><time>2026-05-02T17:57:44Z</time></trkpt>
<trkpt lat="50.506834" lon="4.397897"><time>2026-05-02T18:07:44Z</time></trkpt>
<trkpt lat="50.506179" lon="4.398340"><time>2026-05-02T18:17:44Z</time></trkpt>
</trkseg>
</trk>
<trk>
<name>hpclt4</name>
<cmt>s</cmt>
<desc>Luttre Chemin n°4 Chemin de la Prairie de Neuville au hameau de Frumier</desc>
<link href="https://chemins.be/luttre/chemin/4"/><trkseg>
<trkpt lat="50.521601" lon="4.393778"><time>2026-05-02T17:47:44Z</time></trkpt>
<trkpt lat="50.521268" lon="4.393214"><time>2026-05-02T17:57:44Z</time></trkpt>
<trkpt lat="50.520657" lon="4.392579"><time>2026-05-02T18:07:44Z</time></trkpt>
</trkseg></trk>
<trk>
<name>hpclt4</name>
<cmt>v</cmt>
<desc>Luttre Chemin n°4 Chemin de la Prairie de Neuville au hameau de Frumier</desc>
<link href="https://chemins.be/luttre/chemin/4"/><trkseg>
<trkpt lat="50.520657" lon="4.392579"><time>2026-05-02T18:07:44Z</time></trkpt>
<trkpt lat="50.519516" lon="4.390548"><time>2026-05-02T18:17:44Z</time></trkpt>
<trkpt lat="50.518941" lon="4.388094"><time>2026-05-02T18:27:44Z</time></trkpt>
<trkpt lat="50.519229" lon="4.385965"><time>2026-05-02T18:37:44Z</time></trkpt>
<trkpt lat="50.519193" lon="4.384554"><time>2026-05-02T18:47:44Z</time></trkpt>
<trkpt lat="50.518825" lon="4.382622"><time>2026-05-02T18:57:44Z</time></trkpt>
<trkpt lat="50.518073" lon="4.379736"><time>2026-05-02T19:07:44Z</time></trkpt>
<trkpt lat="50.514558" lon="4.376200"><time>2026-05-02T19:17:44Z</time></trkpt>
</trkseg>
</trk>
<trk>
<name>hpclt40</name>
<cmt>q</cmt>
<desc>Luttre Sentier n°40 Sentier du lieu dit la  Commune au Grand chemin de Nivelles</desc>
<link href="https://chemins.be/luttre/sentier/40"/><trkseg>
<trkpt lat="50.514603" lon="4.399808"><time>2026-05-02T17:47:44Z</time></trkpt>
<trkpt lat="50.517070" lon="4.399874"><time>2026-05-02T17:57:44Z</time></trkpt>
<trkpt lat="50.518230" lon="4.400292"><time>2026-05-02T18:07:44Z</time></trkpt>
</trkseg>
</trk>
<trk>
<name>hpclt41</name>
<cmt>q</cmt>
<desc>Luttre Sentier n°41 Sentier du Trieu Nocal au Canal</desc>
<link href="https://chemins.be/luttre/sentier/41"/><trkseg>
<trkpt lat="50.508969" lon="4.393906"><time>2026-05-02T17:47:44Z</time></trkpt>
<trkpt lat="50.508059" lon="4.393791"><time>2026-05-02T17:57:44Z</time></trkpt>
<trkpt lat="50.507895" lon="4.393992"><time>2026-05-02T18:07:44Z</time></trkpt>
</trkseg></trk>
<trk>
<name>hpclt41</name>
<cmt>r</cmt>
<desc>Luttre Sentier n°41 Sentier du Trieu Nocal au Canal</desc>
<link href="https://chemins.be/luttre/sentier/41"/><trkseg>
<trkpt lat="50.507895" lon="4.393992"><time>2026-05-02T18:07:44Z</time></trkpt>
<trkpt lat="50.507405" lon="4.393968"><time>2026-05-02T18:17:44Z</time></trkpt>
</trkseg></trk>
<trk>
<name>hpclt41</name>
<cmt>v</cmt>
<desc>Luttre Sentier n°41 Sentier du Trieu Nocal au Canal</desc>
<link href="https://chemins.be/luttre/sentier/41"/><trkseg>
<trkpt lat="50.507405" lon="4.393968"><time>2026-05-02T18:17:44Z</time></trkpt>
<trkpt lat="50.507118" lon="4.393756"><time>2026-05-02T18:27:44Z</time></trkpt>
</trkseg>
</trk>
<trk>
<name>hpclt42</name>
<cmt>q</cmt>
<desc>Luttre Sentier n°42 Sentier de communication Entre le chemin n°3 par la ferme au hameau de Beaudou</desc>
<link href="https://chemins.be/luttre/sentier/42"/><trkseg>
<trkpt lat="50.499682" lon="4.397445"><time>2026-05-02T17:47:44Z</time></trkpt>
<trkpt lat="50.499897" lon="4.398925"><time>2026-05-02T17:57:44Z</time></trkpt>
<trkpt lat="50.499654" lon="4.400715"><time>2026-05-02T18:07:44Z</time></trkpt>
</trkseg>
</trk>
<trk>
<name>hpclt5</name>
<cmt>r</cmt>
<desc>Luttre Chemin n°5 Chemin de Buzet à Viesville</desc>
<link href="https://chemins.be/luttre/chemin/5"/><trkseg>
<trkpt lat="50.516125" lon="4.396510"><time>2026-05-02T17:47:44Z</time></trkpt>
<trkpt lat="50.516602" lon="4.395791"><time>2026-05-02T17:57:44Z</time></trkpt>
</trkseg></trk>
<trk>
<name>hpclt5</name>
<cmt>v</cmt>
<desc>Luttre Chemin n°5 Chemin de Buzet à Viesville</desc>
<link href="https://chemins.be/luttre/chemin/5"/><trkseg>
<trkpt lat="50.516602" lon="4.395791"><time>2026-05-02T17:57:44Z</time></trkpt>
<trkpt lat="50.517859" lon="4.394179"><time>2026-05-02T18:07:44Z</time></trkpt>
<trkpt lat="50.518436" lon="4.393438"><time>2026-05-02T18:17:44Z</time></trkpt>
<trkpt lat="50.519093" lon="4.393368"><time>2026-05-02T18:27:44Z</time></trkpt>
<trkpt lat="50.520190" lon="4.392959"><time>2026-05-02T18:37:44Z</time></trkpt>
<trkpt lat="50.520682" lon="4.392576"><time>2026-05-02T18:47:44Z</time></trkpt>
<trkpt lat="50.521718" lon="4.391958"><time>2026-05-02T18:57:44Z</time></trkpt>
</trkseg></trk>
<trk>
<name>hpclt5</name>
<cmt>s</cmt>
<desc>Luttre Chemin n°5 Chemin de Buzet à Viesville</desc>
<link href="https://chemins.be/luttre/chemin/5"/><trkseg>
<trkpt lat="50.521718" lon="4.391958"><time>2026-05-02T18:57:44Z</time></trkpt>
<trkpt lat="50.522788" lon="4.391752"><time>2026-05-02T19:07:44Z</time></trkpt>
</trkseg>
</trk>
<trk>
<name>hpclt7</name>
<cmt>r</cmt>
<desc>Luttre Chemin n°7 Chemin du Pont de Quevy au Champ Tassin</desc>
<link href="https://chemins.be/luttre/chemin/7"/><trkseg>
<trkpt lat="50.515090" lon="4.400881"><time>2026-05-02T17:47:44Z</time></trkpt>
<trkpt lat="50.515782" lon="4.401882"><time>2026-05-02T17:57:44Z</time></trkpt>
<trkpt lat="50.516196" lon="4.402644"><time>2026-05-02T18:07:44Z</time></trkpt>
</trkseg></trk>
<trk>
<name>hpclt7</name>
<cmt>v</cmt>
<desc>Luttre Chemin n°7 Chemin du Pont de Quevy au Champ Tassin</desc>
<link href="https://chemins.be/luttre/chemin/7"/><trkseg>
<trkpt lat="50.516196" lon="4.402644"><time>2026-05-02T18:07:44Z</time></trkpt>
<trkpt lat="50.516204" lon="4.403419"><time>2026-05-02T18:17:44Z</time></trkpt>
<trkpt lat="50.515503" lon="4.405040"><time>2026-05-02T18:27:44Z</time></trkpt>
</trkseg>
</trk>
<trk>
<name>hpclti1</name>
<cmt>v</cmt>
<desc>Luttre Sentier n°i1 </desc>
<link href="https://chemins.be/luttre/sentier/i1"/><trkseg>
<trkpt lat="50.507692" lon="4.396844"><time>2026-05-02T17:47:44Z</time></trkpt>
<trkpt lat="50.507602" lon="4.396703"><time>2026-05-02T17:57:44Z</time></trkpt>
<trkpt lat="50.507531" lon="4.396576"><time>2026-05-02T18:07:44Z</time></trkpt>
<trkpt lat="50.507450" lon="4.396421"><time>2026-05-02T18:17:44Z</time></trkpt>
<trkpt lat="50.507387" lon="4.396280"><time>2026-05-02T18:27:44Z</time></trkpt>
<trkpt lat="50.507387" lon="4.396280"><time>2026-05-02T18:37:44Z</time></trkpt>
<trkpt lat="50.507198" lon="4.395871"><time>2026-05-02T18:47:44Z</time></trkpt>
<trkpt lat="50.507144" lon="4.395744"><time>2026-05-02T18:57:44Z</time></trkpt>
<trkpt lat="50.507090" lon="4.395631"><time>2026-05-02T19:07:44Z</time></trkpt>
<trkpt lat="50.507072" lon="4.395560"><time>2026-05-02T19:17:44Z</time></trkpt>
<trkpt lat="50.507090" lon="4.395448"><time>2026-05-02T19:27:44Z</time></trkpt>
<trkpt lat="50.507108" lon="4.395363"><time>2026-05-02T19:37:44Z</time></trkpt>
<trkpt lat="50.507135" lon="4.395236"><time>2026-05-02T19:47:44Z</time></trkpt>
<trkpt lat="50.507144" lon="4.395180"><time>2026-05-02T19:57:44Z</time></trkpt>
<trkpt lat="50.507144" lon="4.395123"><time>2026-05-02T20:07:44Z</time></trkpt>
<trkpt lat="50.507135" lon="4.395025"><time>2026-05-02T20:17:44Z</time></trkpt>
<trkpt lat="50.507090" lon="4.394898"><time>2026-05-02T20:27:44Z</time></trkpt>
<trkpt lat="50.507046" lon="4.394799"><time>2026-05-02T20:37:44Z</time></trkpt>
<trkpt lat="50.507001" lon="4.394729"><time>2026-05-02T20:47:44Z</time></trkpt>
<trkpt lat="50.506965" lon="4.394714"><time>2026-05-02T20:57:44Z</time></trkpt>
<trkpt lat="50.506920" lon="4.394743"><time>2026-05-02T21:07:44Z</time></trkpt>
<trkpt lat="50.506884" lon="4.394728"><time>2026-05-02T21:17:44Z</time></trkpt>
<trkpt lat="50.506848" lon="4.394714"><time>2026-05-02T21:27:44Z</time></trkpt>
</trkseg>
</trk>
<trk>
<name>hpclti2</name>
<cmt>v</cmt>
<desc>Luttre Sentier n°i2 sentier du Petit rouge</desc>
<link href="https://chemins.be/luttre/sentier/i2"/><trkseg>
<trkpt lat="50.508395" lon="4.391642"><time>2026-05-02T17:47:44Z</time></trkpt>
<trkpt lat="50.508125" lon="4.392121"><time>2026-05-02T17:57:44Z</time></trkpt>
<trkpt lat="50.508044" lon="4.392220"><time>2026-05-02T18:07:44Z</time></trkpt>
<trkpt lat="50.507927" lon="4.392276"><time>2026-05-02T18:17:44Z</time></trkpt>
<trkpt lat="50.507684" lon="4.392304"><time>2026-05-02T18:27:44Z</time></trkpt>
<trkpt lat="50.507577" lon="4.392304"><time>2026-05-02T18:37:44Z</time></trkpt>
<trkpt lat="50.507451" lon="4.392234"><time>2026-05-02T18:47:44Z</time></trkpt>
<trkpt lat="50.507397" lon="4.392234"><time>2026-05-02T18:57:44Z</time></trkpt>
</trkseg>
</trk>
<trk>
<name>hpclti3</name>
<cmt>r</cmt>
<desc>Luttre Chemin n°i3 Rue Trieu Du Bois</desc>
<link href="https://chemins.be/luttre/chemin/i3"/><trkseg>
<trkpt lat="50.507107" lon="4.400283"><time>2026-05-02T17:47:44Z</time></trkpt>
<trkpt lat="50.506837" lon="4.400833"><time>2026-05-02T17:57:44Z</time></trkpt>
<trkpt lat="50.506217" lon="4.401114"><time>2026-05-02T18:07:44Z</time></trkpt>
<trkpt lat="50.505794" lon="4.401903"><time>2026-05-02T18:17:44Z</time></trkpt>
</trkseg>
</trk>
<trk>
<name>hpclti4</name>
<cmt>v</cmt>
<desc>Luttre Chemin n°i4 </desc>
<link href="https://chemins.be/luttre/chemin/i4"/><trkseg>
<trkpt lat="50.509330" lon="4.392657"><time>2026-05-02T17:47:44Z</time></trkpt>
<trkpt lat="50.509824" lon="4.392827"><time>2026-05-02T17:57:44Z</time></trkpt>
<trkpt lat="50.510022" lon="4.392827"><time>2026-05-02T18:07:44Z</time></trkpt>
</trkseg>
</trk>
<trk>
<name>hpclti5</name>
<cmt>v</cmt>
<desc>Luttre Sentier n°i5 </desc>
<link href="https://chemins.be/luttre/sentier/i5"/><trkseg>
<trkpt lat="50.512117" lon="4.390361"><time>2026-05-02T17:47:44Z</time></trkpt>
<trkpt lat="50.511560" lon="4.389543"><time>2026-05-02T17:57:44Z</time></trkpt>
<trkpt lat="50.511353" lon="4.389782"><time>2026-05-02T18:07:44Z</time></trkpt>
<trkpt lat="50.510733" lon="4.388950"><time>2026-05-02T18:17:44Z</time></trkpt>
</trkseg>
</trk>
<trk>
<name>hpclti6</name>
<cmt>v</cmt>
<desc>Luttre Sentier n°i6 </desc>
<link href="https://chemins.be/luttre/sentier/i6"/><trkseg>
<trkpt lat="50.507972" lon="4.389805"><time>2026-05-02T17:47:44Z</time></trkpt>
<trkpt lat="50.507628" lon="4.389616"><time>2026-05-02T17:57:44Z</time></trkpt>
</trkseg>
</trk>
<trk>
<name>hpclti7</name>
<cmt>v</cmt>
<desc>Luttre Chemin n°i7 </desc>
<link href="https://chemins.be/luttre/chemin/i7"/><trkseg>
<trkpt lat="50.507533" lon="4.389954"><time>2026-05-02T17:47:44Z</time></trkpt>
<trkpt lat="50.506960" lon="4.389868"><time>2026-05-02T17:57:44Z</time></trkpt>
<trkpt lat="50.506966" lon="4.389739"><time>2026-05-02T18:07:44Z</time></trkpt>
<trkpt lat="50.506848" lon="4.389658"><time>2026-05-02T18:17:44Z</time></trkpt>
</trkseg>
</trk>
<trk>
<name>hpclti8</name>
<cmt>v</cmt>
<desc>Luttre Chemin n°i8 </desc>
<link href="https://chemins.be/luttre/chemin/i8"/><trkseg>
<trkpt lat="50.505997" lon="4.387128"><time>2026-05-02T17:47:44Z</time></trkpt>
<trkpt lat="50.506081" lon="4.386943"><time>2026-05-02T17:57:44Z</time></trkpt>
</trkseg></trk>
<trk>
<name>hpclti8</name>
<cmt>r</cmt>
<desc>Luttre Chemin n°i8 </desc>
<link href="https://chemins.be/luttre/chemin/i8"/><trkseg>
<trkpt lat="50.506081" lon="4.386943"><time>2026-05-02T17:57:44Z</time></trkpt>
<trkpt lat="50.506353" lon="4.386627"><time>2026-05-02T18:07:44Z</time></trkpt>
</trkseg></trk>
<trk>
<name>hpclti8</name>
<cmt>q</cmt>
<desc>Luttre Chemin n°i8 </desc>
<link href="https://chemins.be/luttre/chemin/i8"/><trkseg>
<trkpt lat="50.506353" lon="4.386627"><time>2026-05-02T18:07:44Z</time></trkpt>
<trkpt lat="50.506432" lon="4.386546"><time>2026-05-02T18:17:44Z</time></trkpt>
<trkpt lat="50.506519" lon="4.386444"><time>2026-05-02T18:27:44Z</time></trkpt>
</trkseg>
</trk>
<trk>
<name>hpcob11</name>
<cmt>v</cmt>
<desc>Obaix Chemin n°11 chemin de Rossegnies au bois du Froqueux</desc>
<link href="https://chemins.be/obaix/chemin/11"/><trkseg>
<trkpt lat="50.534424" lon="4.327004"><time>2026-05-02T17:47:44Z</time></trkpt>
<trkpt lat="50.532816" lon="4.325543"><time>2026-05-02T17:57:44Z</time></trkpt>
<trkpt lat="50.530019" lon="4.323331"><time>2026-05-02T18:07:44Z</time></trkpt>
<trkpt lat="50.529731" lon="4.322866"><time>2026-05-02T18:17:44Z</time></trkpt>
<trkpt lat="50.527491" lon="4.320033"><time>2026-05-02T18:27:44Z</time></trkpt>
<trkpt lat="50.526447" lon="4.317313"><time>2026-05-02T18:37:44Z</time></trkpt>
</trkseg>
</trk>
<trk>
<name>hpcob12</name>
<cmt>v</cmt>
<desc>Obaix Chemin n°12 chemin de Rossegnies à Buzet</desc>
<link href="https://chemins.be/obaix/chemin/12"/><trkseg>
<trkpt lat="50.539799" lon="4.354203"><time>2026-05-02T17:47:44Z</time></trkpt>
<trkpt lat="50.538671" lon="4.350334"><time>2026-05-02T17:57:44Z</time></trkpt>
<trkpt lat="50.538375" lon="4.348910"><time>2026-05-02T18:07:44Z</time></trkpt>
<trkpt lat="50.538281" lon="4.346665"><time>2026-05-02T18:17:44Z</time></trkpt>
<trkpt lat="50.537643" lon="4.342909"><time>2026-05-02T18:27:44Z</time></trkpt>
<trkpt lat="50.536596" lon="4.338207"><time>2026-05-02T18:37:44Z</time></trkpt>
<trkpt lat="50.536838" lon="4.336148"><time>2026-05-02T18:47:44Z</time></trkpt>
<trkpt lat="50.536361" lon="4.335005"><time>2026-05-02T18:57:44Z</time></trkpt>
</trkseg>
</trk>
<trk>
<name>hpcob13</name>
<cmt>v</cmt>
<desc>Obaix Chemin n°13 chemin d'Obaix au bois d'Henant</desc>
<link href="https://chemins.be/obaix/chemin/13"/><trkseg>
<trkpt lat="50.526790" lon="4.352710"><time>2026-05-02T17:47:44Z</time></trkpt>
<trkpt lat="50.526310" lon="4.351110"><time>2026-05-02T17:57:44Z</time></trkpt>
<trkpt lat="50.526190" lon="4.347890"><time>2026-05-02T18:07:44Z</time></trkpt>
<trkpt lat="50.525640" lon="4.343790"><time>2026-05-02T18:17:44Z</time></trkpt>
<trkpt lat="50.525440" lon="4.342070"><time>2026-05-02T18:27:44Z</time></trkpt>
<trkpt lat="50.525670" lon="4.336640"><time>2026-05-02T18:37:44Z</time></trkpt>
<trkpt lat="50.526192" lon="4.333183"><time>2026-05-02T18:47:44Z</time></trkpt>
<trkpt lat="50.526260" lon="4.330543"><time>2026-05-02T18:57:44Z</time></trkpt>
<trkpt lat="50.526192" lon="4.327110"><time>2026-05-02T19:07:44Z</time></trkpt>
<trkpt lat="50.526451" lon="4.317218"><time>2026-05-02T19:17:44Z</time></trkpt>
</trkseg>
</trk>
<trk>
<name>hpcob14</name>
<cmt>v</cmt>
<desc>Obaix Chemin n°14 chemin d'Obaix à celui de Fontaine-l'Evêque</desc>
<link href="https://chemins.be/obaix/chemin/14"/><trkseg>
<trkpt lat="50.526812" lon="4.354785"><time>2026-05-02T17:47:44Z</time></trkpt>
<trkpt lat="50.526894" lon="4.352725"><time>2026-05-02T17:57:44Z</time></trkpt>
<trkpt lat="50.529347" lon="4.343795"><time>2026-05-02T18:07:44Z</time></trkpt>
<trkpt lat="50.530947" lon="4.336279"><time>2026-05-02T18:17:44Z</time></trkpt>
<trkpt lat="50.531663" lon="4.334054"><time>2026-05-02T18:27:44Z</time></trkpt>
<trkpt lat="50.533047" lon="4.329756"><time>2026-05-02T18:37:44Z</time></trkpt>
</trkseg>
</trk>
<trk>
<name>hpcob15</name>
<cmt>r</cmt>
<desc>Obaix Chemin n°15 chemin du hameau de Rossegnies à la chapelle Charité</desc>
<link href="https://chemins.be/obaix/chemin/15"/><trkseg>
<trkpt lat="50.543661" lon="4.322337"><time>2026-05-02T17:47:44Z</time></trkpt>
<trkpt lat="50.543531" lon="4.321242"><time>2026-05-02T17:57:44Z</time></trkpt>
<trkpt lat="50.543450" lon="4.320556"><time>2026-05-02T18:07:44Z</time></trkpt>
<trkpt lat="50.543446" lon="4.319354"><time>2026-05-02T18:17:44Z</time></trkpt>
<trkpt lat="50.543668" lon="4.318748"><time>2026-05-02T18:27:44Z</time></trkpt>
<trkpt lat="50.543716" lon="4.318378"><time>2026-05-02T18:37:44Z</time></trkpt>
</trkseg></trk>
<trk>
<name>hpcob15</name>
<cmt>v</cmt>
<desc>Obaix Chemin n°15 chemin du hameau de Rossegnies à la chapelle Charité</desc>
<link href="https://chemins.be/obaix/chemin/15"/><trkseg>
<trkpt lat="50.543716" lon="4.318378"><time>2026-05-02T18:37:44Z</time></trkpt>
<trkpt lat="50.543556" lon="4.316984"><time>2026-05-02T18:47:44Z</time></trkpt>
<trkpt lat="50.543555" lon="4.315305"><time>2026-05-02T18:57:44Z</time></trkpt>
<trkpt lat="50.543429" lon="4.314783"><time>2026-05-02T19:07:44Z</time></trkpt>
<trkpt lat="50.543590" lon="4.313908"><time>2026-05-02T19:17:44Z</time></trkpt>
<trkpt lat="50.543680" lon="4.313428"><time>2026-05-02T19:27:44Z</time></trkpt>
<trkpt lat="50.543761" lon="4.313090"><time>2026-05-02T19:37:44Z</time></trkpt>
</trkseg>
</trk>
<trk>
<name>hpcob17</name>
<cmt>v</cmt>
<desc>Obaix Chemin n°17 chemin d'Obaix vers Luttre</desc>
<link href="https://chemins.be/obaix/chemin/17"/><trkseg>
<trkpt lat="50.518547" lon="4.378251"><time>2026-05-02T17:47:44Z</time></trkpt>
<trkpt lat="50.519257" lon="4.375798"><time>2026-05-02T17:57:44Z</time></trkpt>
<trkpt lat="50.519491" lon="4.373668"><time>2026-05-02T18:07:44Z</time></trkpt>
</trkseg>
</trk>
<trk>
<name>hpcob18</name>
<cmt>r</cmt>
<desc>Obaix Chemin n°18 Rue Commune / Rue du Moulin à vent</desc>
<link href="https://chemins.be/obaix/chemin/18"/><trkseg>
<trkpt lat="50.530144" lon="4.368592"><time>2026-05-02T17:47:44Z</time></trkpt>
<trkpt lat="50.530171" lon="4.366900"><time>2026-05-02T17:57:44Z</time></trkpt>
<trkpt lat="50.530495" lon="4.365602"><time>2026-05-02T18:07:44Z</time></trkpt>
</trkseg></trk>
<trk>
<name>hpcob18</name>
<cmt>v</cmt>
<desc>Obaix Chemin n°18 Rue Commune / Rue du Moulin à vent</desc>
<link href="https://chemins.be/obaix/chemin/18"/><trkseg>
<trkpt lat="50.530495" lon="4.365602"><time>2026-05-02T18:07:44Z</time></trkpt>
<trkpt lat="50.531385" lon="4.363909"><time>2026-05-02T18:17:44Z</time></trkpt>
</trkseg></trk>
<trk>
<name>hpcob18</name>
<cmt>r</cmt>
<desc>Obaix Chemin n°18 Rue Commune / Rue du Moulin à vent</desc>
<link href="https://chemins.be/obaix/chemin/18"/><trkseg>
<trkpt lat="50.531385" lon="4.363909"><time>2026-05-02T18:17:44Z</time></trkpt>
<trkpt lat="50.532617" lon="4.361765"><time>2026-05-02T18:27:44Z</time></trkpt>
<trkpt lat="50.532877" lon="4.359057"><time>2026-05-02T18:37:44Z</time></trkpt>
</trkseg></trk>
<trk>
<name>hpcob18</name>
<cmt>v</cmt>
<desc>Obaix Chemin n°18 Rue Commune / Rue du Moulin à vent</desc>
<link href="https://chemins.be/obaix/chemin/18"/><trkseg>
<trkpt lat="50.532877" lon="4.359057"><time>2026-05-02T18:37:44Z</time></trkpt>
<trkpt lat="50.532967" lon="4.358761"><time>2026-05-02T18:47:44Z</time></trkpt>
<trkpt lat="50.535061" lon="4.354402"><time>2026-05-02T18:57:44Z</time></trkpt>
<trkpt lat="50.536032" lon="4.352934"><time>2026-05-02T19:07:44Z</time></trkpt>
<trkpt lat="50.537488" lon="4.349435"><time>2026-05-02T19:17:44Z</time></trkpt>
<trkpt lat="50.538297" lon="4.346938"><time>2026-05-02T19:27:44Z</time></trkpt>
</trkseg>
</trk>
<trk>
<name>hpcob19</name>
<cmt>v</cmt>
<desc>Obaix Chemin n°19 chemin d'Obaix au bois de Nivelles</desc>
<link href="https://chemins.be/obaix/chemin/19"/><trkseg>
<trkpt lat="50.539864" lon="4.354405"><time>2026-05-02T17:47:44Z</time></trkpt>
<trkpt lat="50.541584" lon="4.349612"><time>2026-05-02T17:57:44Z</time></trkpt>
<trkpt lat="50.542075" lon="4.347226"><time>2026-05-02T18:07:44Z</time></trkpt>
<trkpt lat="50.544235" lon="4.342745"><time>2026-05-02T18:17:44Z</time></trkpt>
<trkpt lat="50.544977" lon="4.339690"><time>2026-05-02T18:27:44Z</time></trkpt>
</trkseg>
</trk>
<trk>
<name>hpcob2</name>
<cmt>v</cmt>
<desc>Obaix Chemin n°2 grand chemin de Fontaine-l'Evêque à Nivelles par le hameau de Rossegnies</desc>
<link href="https://chemins.be/obaix/chemin/2"/><trkseg>
<trkpt lat="50.536583" lon="4.327582"><time>2026-05-02T17:47:44Z</time></trkpt>
<trkpt lat="50.535581" lon="4.327588"><time>2026-05-02T17:57:44Z</time></trkpt>
<trkpt lat="50.534403" lon="4.327055"><time>2026-05-02T18:07:44Z</time></trkpt>
<trkpt lat="50.534032" lon="4.327416"><time>2026-05-02T18:17:44Z</time></trkpt>
<trkpt lat="50.533000" lon="4.329701"><time>2026-05-02T18:27:44Z</time></trkpt>
<trkpt lat="50.529794" lon="4.331246"><time>2026-05-02T18:37:44Z</time></trkpt>
<trkpt lat="50.528779" lon="4.331143"><time>2026-05-02T18:47:44Z</time></trkpt>
<trkpt lat="50.526226" lon="4.327315"><time>2026-05-02T18:57:44Z</time></trkpt>
</trkseg>
</trk>
<trk>
<name>hpcob20</name>
<cmt>d</cmt>
<desc>Obaix Chemin n°20 chemin de celui de Rossegnies au blanc Bonnet à celui de Rossegnies à Arquennes</desc>
<link href="https://chemins.be/obaix/chemin/20"/><trkseg>
<trkpt lat="50.541527" lon="4.317954"><time>2026-05-02T17:47:44Z</time></trkpt>
<trkpt lat="50.540627" lon="4.316677"><time>2026-05-02T17:57:44Z</time></trkpt>
<trkpt lat="50.539794" lon="4.316428"><time>2026-05-02T18:07:44Z</time></trkpt>
</trkseg></trk>
<trk>
<name>hpcob20</name>
<cmt>q</cmt>
<desc>Obaix Chemin n°20 chemin de celui de Rossegnies au blanc Bonnet à celui de Rossegnies à Arquennes</desc>
<link href="https://chemins.be/obaix/chemin/20"/><trkseg>
<trkpt lat="50.539794" lon="4.316428"><time>2026-05-02T18:07:44Z</time></trkpt>
<trkpt lat="50.538977" lon="4.316184"><time>2026-05-02T18:17:44Z</time></trkpt>
<trkpt lat="50.538834" lon="4.314939"><time>2026-05-02T18:27:44Z</time></trkpt>
<trkpt lat="50.538649" lon="4.314778"><time>2026-05-02T18:37:44Z</time></trkpt>
</trkseg>
</trk>
<trk>
<name>hpcob21</name>
<cmt>r</cmt>
<desc>Obaix Chemin n°21 chemin de celui de Rossegnies à Arquennes à la ferme de la clef</desc>
<link href="https://chemins.be/obaix/chemin/21"/><trkseg>
<trkpt lat="50.539184" lon="4.324418"><time>2026-05-02T17:47:44Z</time></trkpt>
<trkpt lat="50.539893" lon="4.325028"><time>2026-05-02T17:57:44Z</time></trkpt>
</trkseg></trk>
<trk>
<name>hpcob21</name>
<cmt>v</cmt>
<desc>Obaix Chemin n°21 chemin de celui de Rossegnies à Arquennes à la ferme de la clef</desc>
<link href="https://chemins.be/obaix/chemin/21"/><trkseg>
<trkpt lat="50.539893" lon="4.325028"><time>2026-05-02T17:57:44Z</time></trkpt>
<trkpt lat="50.540457" lon="4.325522"><time>2026-05-02T18:07:44Z</time></trkpt>
<trkpt lat="50.540592" lon="4.325720"><time>2026-05-02T18:17:44Z</time></trkpt>
<trkpt lat="50.540727" lon="4.326016"><time>2026-05-02T18:27:44Z</time></trkpt>
<trkpt lat="50.540943" lon="4.326594"><time>2026-05-02T18:37:44Z</time></trkpt>
</trkseg>
</trk>
<trk>
<name>hpcob22</name>
<cmt>v</cmt>
<desc>Obaix Chemin n°22 chemin de la ruelle des Mottes au hameau de la Buscaye</desc>
<link href="https://chemins.be/obaix/chemin/22"/><trkseg>
<trkpt lat="50.520992" lon="4.371003"><time>2026-05-02T17:47:44Z</time></trkpt>
<trkpt lat="50.523339" lon="4.372809"><time>2026-05-02T17:57:44Z</time></trkpt>
<trkpt lat="50.524723" lon="4.373345"><time>2026-05-02T18:07:44Z</time></trkpt>
<trkpt lat="50.527133" lon="4.373232"><time>2026-05-02T18:17:44Z</time></trkpt>
<trkpt lat="50.529470" lon="4.372696"><time>2026-05-02T18:27:44Z</time></trkpt>
<trkpt lat="50.529767" lon="4.373007"><time>2026-05-02T18:37:44Z</time></trkpt>
</trkseg>
</trk>
<trk>
<name>hpcob23</name>
<cmt>r</cmt>
<desc>Obaix Chemin n°23 chemin du hameau de la Buscaye à la ferme Campion</desc>
<link href="https://chemins.be/obaix/chemin/23"/><trkseg>
<trkpt lat="50.532455" lon="4.367478"><time>2026-05-02T17:47:44Z</time></trkpt>
<trkpt lat="50.532662" lon="4.368620"><time>2026-05-02T17:57:44Z</time></trkpt>
<trkpt lat="50.532392" lon="4.370059"><time>2026-05-02T18:07:44Z</time></trkpt>
</trkseg></trk>
<trk>
<name>hpcob23</name>
<cmt>v</cmt>
<desc>Obaix Chemin n°23 chemin du hameau de la Buscaye à la ferme Campion</desc>
<link href="https://chemins.be/obaix/chemin/23"/><trkseg>
<trkpt lat="50.532392" lon="4.370059"><time>2026-05-02T18:07:44Z</time></trkpt>
<trkpt lat="50.532491" lon="4.370412"><time>2026-05-02T18:17:44Z</time></trkpt>
<trkpt lat="50.532257" lon="4.371032"><time>2026-05-02T18:27:44Z</time></trkpt>
<trkpt lat="50.531259" lon="4.372062"><time>2026-05-02T18:37:44Z</time></trkpt>
<trkpt lat="50.529821" lon="4.373120"><time>2026-05-02T18:47:44Z</time></trkpt>
</trkseg></trk>
<trk>
<name>hpcob23</name>
<cmt>d</cmt>
<desc>Obaix Chemin n°23 chemin du hameau de la Buscaye à la ferme Campion</desc>
<link href="https://chemins.be/obaix/chemin/23"/><trkseg>
<trkpt lat="50.529821" lon="4.373120"><time>2026-05-02T18:47:44Z</time></trkpt>
<trkpt lat="50.528940" lon="4.373585"><time>2026-05-02T18:57:44Z</time></trkpt>
<trkpt lat="50.527825" lon="4.374755"><time>2026-05-02T19:07:44Z</time></trkpt>
</trkseg></trk>
<trk>
<name>hpcob23</name>
<cmt>v</cmt>
<desc>Obaix Chemin n°23 chemin du hameau de la Buscaye à la ferme Campion</desc>
<link href="https://chemins.be/obaix/chemin/23"/><trkseg>
<trkpt lat="50.527825" lon="4.374755"><time>2026-05-02T19:07:44Z</time></trkpt>
<trkpt lat="50.527187" lon="4.373147"><time>2026-05-02T19:17:44Z</time></trkpt>
</trkseg>
</trk>
<trk>
<name>hpcob24</name>
<cmt>v</cmt>
<desc>Obaix Chemin n°24 chemin de Pont-à-Celles à Rossegnies</desc>
<link href="https://chemins.be/obaix/chemin/24"/><trkseg>
<trkpt lat="50.526178" lon="4.333300"><time>2026-05-02T17:47:44Z</time></trkpt>
<trkpt lat="50.528736" lon="4.332313"><time>2026-05-02T17:57:44Z</time></trkpt>
<trkpt lat="50.529841" lon="4.331316"><time>2026-05-02T18:07:44Z</time></trkpt>
</trkseg>
</trk>
<trk>
<name>hpcob25</name>
<cmt>q</cmt>
<desc>Obaix Chemin n°25 chemin de celui des Morts à celui dit du Poirier</desc>
<link href="https://chemins.be/obaix/chemin/25"/><trkseg>
<trkpt lat="50.531776" lon="4.355093"><time>2026-05-02T17:47:44Z</time></trkpt>
<trkpt lat="50.532272" lon="4.354750"><time>2026-05-02T17:57:44Z</time></trkpt>
<trkpt lat="50.535071" lon="4.354321"><time>2026-05-02T18:07:44Z</time></trkpt>
</trkseg>
</trk>
<trk>
<name>hpcob26</name>
<cmt>v</cmt>
<desc>Obaix Sentier n°26 chemin de la maison Placemon vers Buzet</desc>
<link href="https://chemins.be/obaix/sentier/26"/><trkseg>
<trkpt lat="50.521983" lon="4.375580"><time>2026-05-02T17:47:44Z</time></trkpt>
<trkpt lat="50.524299" lon="4.373530"><time>2026-05-02T17:57:44Z</time></trkpt>
<trkpt lat="50.524772" lon="4.373358"><time>2026-05-02T18:07:44Z</time></trkpt>
</trkseg>
</trk>
<trk>
<name>hpcob27</name>
<cmt>r</cmt>
<desc>Obaix Chemin n°27 chemin du hameau de Rossegnies à la campagne des Buscayens</desc>
<link href="https://chemins.be/obaix/chemin/27"/><trkseg>
<trkpt lat="50.538366" lon="4.320737"><time>2026-05-02T17:47:44Z</time></trkpt>
<trkpt lat="50.536939" lon="4.320069"><time>2026-05-02T17:57:44Z</time></trkpt>
</trkseg></trk>
<trk>
<name>hpcob27</name>
<cmt>v</cmt>
<desc>Obaix Chemin n°27 chemin du hameau de Rossegnies à la campagne des Buscayens</desc>
<link href="https://chemins.be/obaix/chemin/27"/><trkseg>
<trkpt lat="50.536939" lon="4.320069"><time>2026-05-02T17:57:44Z</time></trkpt>
<trkpt lat="50.536414" lon="4.319800"><time>2026-05-02T18:07:44Z</time></trkpt>
<trkpt lat="50.535499" lon="4.319331"><time>2026-05-02T18:17:44Z</time></trkpt>
</trkseg>
</trk>
<trk>
<name>hpcob29</name>
<cmt>d</cmt>
<desc>Obaix Sentier n°29 </desc>
<link href="https://chemins.be/obaix/sentier/29"/><trkseg>
<trkpt lat="50.538337" lon="4.346616"><time>2026-05-02T17:47:44Z</time></trkpt>
<trkpt lat="50.541773" lon="4.340608"><time>2026-05-02T17:57:44Z</time></trkpt>
</trkseg>
</trk>
<trk>
<name>hpcob30</name>
<cmt>v</cmt>
<desc>Obaix Sentier n°30 sentier d'Obaix à Buzet</desc>
<link href="https://chemins.be/obaix/sentier/30"/><trkseg>
<trkpt lat="50.528724" lon="4.363204"><time>2026-05-02T17:47:44Z</time></trkpt>
<trkpt lat="50.531466" lon="4.363923"><time>2026-05-02T17:57:44Z</time></trkpt>
</trkseg></trk>
<trk>
<name>hpcob30</name>
<cmt>q</cmt>
<desc>Obaix Sentier n°30 sentier d'Obaix à Buzet</desc>
<link href="https://chemins.be/obaix/sentier/30"/><trkseg>
<trkpt lat="50.531466" lon="4.363923"><time>2026-05-02T17:57:44Z</time></trkpt>
<trkpt lat="50.531735" lon="4.364308"><time>2026-05-02T18:07:44Z</time></trkpt>
</trkseg></trk>
<trk>
<name>hpcob30</name>
<cmt>s</cmt>
<desc>Obaix Sentier n°30 sentier d'Obaix à Buzet</desc>
<link href="https://chemins.be/obaix/sentier/30"/><trkseg>
<trkpt lat="50.531735" lon="4.364308"><time>2026-05-02T18:07:44Z</time></trkpt>
<trkpt lat="50.532433" lon="4.364926"><time>2026-05-02T18:17:44Z</time></trkpt>
<trkpt lat="50.535431" lon="4.365137"><time>2026-05-02T18:27:44Z</time></trkpt>
</trkseg>
</trk>
<trk>
<name>hpcob31</name>
<cmt>v</cmt>
<desc>Obaix Sentier n°31 sentier de la chapelle Notre-Dame de Hal au grand chemin de Nivelles</desc>
<link href="https://chemins.be/obaix/sentier/31"/><trkseg>
<trkpt lat="50.528697" lon="4.363204"><time>2026-05-02T17:47:44Z</time></trkpt>
<trkpt lat="50.532706" lon="4.361159"><time>2026-05-02T17:57:44Z</time></trkpt>
</trkseg></trk>
<trk>
<name>hpcob31</name>
<cmt>s</cmt>
<desc>Obaix Sentier n°31 sentier de la chapelle Notre-Dame de Hal au grand chemin de Nivelles</desc>
<link href="https://chemins.be/obaix/sentier/31"/><trkseg>
<trkpt lat="50.532706" lon="4.361159"><time>2026-05-02T17:57:44Z</time></trkpt>
<trkpt lat="50.535017" lon="4.359423"><time>2026-05-02T18:07:44Z</time></trkpt>
</trkseg>
</trk>
<trk>
<name>hpcob32</name>
<cmt>q</cmt>
<desc>Obaix Sentier n°32 sentier de l'église au hameau de la commune</desc>
<link href="https://chemins.be/obaix/sentier/32"/><trkseg>
<trkpt lat="50.528760" lon="4.367986"><time>2026-05-02T17:47:44Z</time></trkpt>
<trkpt lat="50.528850" lon="4.367083"><time>2026-05-02T17:57:44Z</time></trkpt>
<trkpt lat="50.528728" lon="4.365534"><time>2026-05-02T18:07:44Z</time></trkpt>
</trkseg></trk>
<trk>
<name>hpcob32</name>
<cmt>s</cmt>
<desc>Obaix Sentier n°32 sentier de l'église au hameau de la commune</desc>
<link href="https://chemins.be/obaix/sentier/32"/><trkseg>
<trkpt lat="50.528728" lon="4.365534"><time>2026-05-02T18:07:44Z</time></trkpt>
<trkpt lat="50.528562" lon="4.364894"><time>2026-05-02T18:17:44Z</time></trkpt>
</trkseg></trk>
<trk>
<name>hpcob32</name>
<cmt>q</cmt>
<desc>Obaix Sentier n°32 sentier de l'église au hameau de la commune</desc>
<link href="https://chemins.be/obaix/sentier/32"/><trkseg>
<trkpt lat="50.528562" lon="4.364894"><time>2026-05-02T18:17:44Z</time></trkpt>
<trkpt lat="50.527836" lon="4.363816"><time>2026-05-02T18:27:44Z</time></trkpt>
<trkpt lat="50.527709" lon="4.363280"><time>2026-05-02T18:37:44Z</time></trkpt>
<trkpt lat="50.527573" lon="4.363115"><time>2026-05-02T18:47:44Z</time></trkpt>
<trkpt lat="50.527485" lon="4.362383"><time>2026-05-02T18:57:44Z</time></trkpt>
</trkseg>
</trk>
<trk>
<name>hpcob33</name>
<cmt>v</cmt>
<desc>Obaix Sentier n°33 sentier du hameau de la Buscaye au hameau de la commune</desc>
<link href="https://chemins.be/obaix/sentier/33"/><trkseg>
<trkpt lat="50.532309" lon="4.370080"><time>2026-05-02T17:47:44Z</time></trkpt>
<trkpt lat="50.532069" lon="4.370223"><time>2026-05-02T17:57:44Z</time></trkpt>
<trkpt lat="50.531781" lon="4.370376"><time>2026-05-02T18:07:44Z</time></trkpt>
</trkseg></trk>
<trk>
<name>hpcob33</name>
<cmt>r</cmt>
<desc>Obaix Sentier n°33 sentier du hameau de la Buscaye au hameau de la commune</desc>
<link href="https://chemins.be/obaix/sentier/33"/><trkseg>
<trkpt lat="50.531781" lon="4.370376"><time>2026-05-02T18:07:44Z</time></trkpt>
<trkpt lat="50.530892" lon="4.369225"><time>2026-05-02T18:17:44Z</time></trkpt>
</trkseg>
</trk>
<trk>
<name>hpcob34</name>
<cmt>q</cmt>
<desc>Obaix Sentier n°34 sentier du hameau de la Buscaye au chemin de la croix</desc>
<link href="https://chemins.be/obaix/sentier/34"/><trkseg>
<trkpt lat="50.531790" lon="4.370401"><time>2026-05-02T17:47:44Z</time></trkpt>
<trkpt lat="50.530826" lon="4.371375"><time>2026-05-02T17:57:44Z</time></trkpt>
<trkpt lat="50.529520" lon="4.372661"><time>2026-05-02T18:07:44Z</time></trkpt>
</trkseg>
</trk>
<trk>
<name>hpcob35</name>
<cmt>q</cmt>
<desc>Obaix Sentier n°35 sentier du hameau de la commune à la ferme Campion</desc>
<link href="https://chemins.be/obaix/sentier/35"/><trkseg>
<trkpt lat="50.530507" lon="4.372602"><time>2026-05-02T17:47:44Z</time></trkpt>
<trkpt lat="50.530814" lon="4.371406"><time>2026-05-02T17:57:44Z</time></trkpt>
<trkpt lat="50.531002" lon="4.369432"><time>2026-05-02T18:07:44Z</time></trkpt>
</trkseg>
</trk>
<trk>
<name>hpcob36</name>
<cmt>q</cmt>
<desc>Obaix Sentier n°36 sentier d'Obaix à Buzet</desc>
<link href="https://chemins.be/obaix/sentier/36"/><trkseg>
<trkpt lat="50.535485" lon="4.364995"><time>2026-05-02T17:47:44Z</time></trkpt>
<trkpt lat="50.534684" lon="4.363980"><time>2026-05-02T17:57:44Z</time></trkpt>
</trkseg></trk>
<trk>
<name>hpcob36</name>
<cmt>s</cmt>
<desc>Obaix Sentier n°36 sentier d'Obaix à Buzet</desc>
<link href="https://chemins.be/obaix/sentier/36"/><trkseg>
<trkpt lat="50.534684" lon="4.363980"><time>2026-05-02T17:57:44Z</time></trkpt>
<trkpt lat="50.534478" lon="4.363683"><time>2026-05-02T18:07:44Z</time></trkpt>
</trkseg></trk>
<trk>
<name>hpcob36</name>
<cmt>v</cmt>
<desc>Obaix Sentier n°36 sentier d'Obaix à Buzet</desc>
<link href="https://chemins.be/obaix/sentier/36"/><trkseg>
<trkpt lat="50.534478" lon="4.363683"><time>2026-05-02T18:07:44Z</time></trkpt>
<trkpt lat="50.534388" lon="4.363599"><time>2026-05-02T18:17:44Z</time></trkpt>
<trkpt lat="50.534145" lon="4.363303"><time>2026-05-02T18:27:44Z</time></trkpt>
<trkpt lat="50.533695" lon="4.362767"><time>2026-05-02T18:37:44Z</time></trkpt>
<trkpt lat="50.533426" lon="4.362442"><time>2026-05-02T18:47:44Z</time></trkpt>
<trkpt lat="50.533318" lon="4.362315"><time>2026-05-02T18:57:44Z</time></trkpt>
<trkpt lat="50.533237" lon="4.362160"><time>2026-05-02T19:07:44Z</time></trkpt>
<trkpt lat="50.533057" lon="4.361751"><time>2026-05-02T19:17:44Z</time></trkpt>
<trkpt lat="50.532895" lon="4.361441"><time>2026-05-02T19:27:44Z</time></trkpt>
<trkpt lat="50.532724" lon="4.361173"><time>2026-05-02T19:37:44Z</time></trkpt>
<trkpt lat="50.530827" lon="4.358028"><time>2026-05-02T19:47:44Z</time></trkpt>
</trkseg>
</trk>
<trk>
<name>hpcob37</name>
<cmt>q</cmt>
<desc>Obaix Sentier n°37 sentier du hameau de la commune à Luttre</desc>
<link href="https://chemins.be/obaix/sentier/37"/><trkseg>
<trkpt lat="50.527843" lon="4.367788"><time>2026-05-02T17:47:44Z</time></trkpt>
<trkpt lat="50.524786" lon="4.373331"><time>2026-05-02T17:57:44Z</time></trkpt>
</trkseg>
</trk>
<trk>
<name>hpcob38</name>
<cmt>q</cmt>
<desc>Obaix Sentier n°38 sentier d'Obaix au hameau de Fromiée</desc>
<link href="https://chemins.be/obaix/sentier/38"/><trkseg>
<trkpt lat="50.521022" lon="4.381529"><time>2026-05-02T17:47:44Z</time></trkpt>
<trkpt lat="50.521529" lon="4.376044"><time>2026-05-02T17:57:44Z</time></trkpt>
</trkseg>
</trk>
<trk>
<name>hpcob39</name>
<cmt>d</cmt>
<desc>Obaix Sentier n°39 sentier de Pont-à-Celles à Rèves</desc>
<link href="https://chemins.be/obaix/sentier/39"/><trkseg>
<trkpt lat="50.518933" lon="4.378632"><time>2026-05-02T17:47:44Z</time></trkpt>
<trkpt lat="50.518563" lon="4.376000"><time>2026-05-02T17:57:44Z</time></trkpt>
</trkseg>
</trk>
<trk>
<name>hpcob4</name>
<cmt>r</cmt>
<desc>Obaix Chemin n°4 chemin d'Obaix à Luttre</desc>
<link href="https://chemins.be/obaix/chemin/4"/><trkseg>
<trkpt lat="50.526917" lon="4.362161"><time>2026-05-02T17:47:44Z</time></trkpt>
<trkpt lat="50.526467" lon="4.362542"><time>2026-05-02T17:57:44Z</time></trkpt>
<trkpt lat="50.525766" lon="4.362965"><time>2026-05-02T18:07:44Z</time></trkpt>
<trkpt lat="50.525640" lon="4.363191"><time>2026-05-02T18:17:44Z</time></trkpt>
<trkpt lat="50.525739" lon="4.364389"><time>2026-05-02T18:27:44Z</time></trkpt>
<trkpt lat="50.526081" lon="4.365659"><time>2026-05-02T18:37:44Z</time></trkpt>
<trkpt lat="50.526476" lon="4.366237"><time>2026-05-02T18:47:44Z</time></trkpt>
</trkseg></trk>
<trk>
<name>hpcob4</name>
<cmt>v</cmt>
<desc>Obaix Chemin n°4 chemin d'Obaix à Luttre</desc>
<link href="https://chemins.be/obaix/chemin/4"/><trkseg>
<trkpt lat="50.526476" lon="4.366237"><time>2026-05-02T18:47:44Z</time></trkpt>
<trkpt lat="50.525200" lon="4.368127"><time>2026-05-02T18:57:44Z</time></trkpt>
<trkpt lat="50.524741" lon="4.370679"><time>2026-05-02T19:07:44Z</time></trkpt>
<trkpt lat="50.524526" lon="4.371116"><time>2026-05-02T19:17:44Z</time></trkpt>
<trkpt lat="50.523321" lon="4.372936"><time>2026-05-02T19:27:44Z</time></trkpt>
<trkpt lat="50.521972" lon="4.375558"><time>2026-05-02T19:37:44Z</time></trkpt>
<trkpt lat="50.520057" lon="4.377307"><time>2026-05-02T19:47:44Z</time></trkpt>
<trkpt lat="50.518969" lon="4.378576"><time>2026-05-02T19:57:44Z</time></trkpt>
</trkseg>
</trk>
<trk>
<name>hpcob40</name>
<cmt>v</cmt>
<desc>Obaix Sentier n°40 sentier d'Obaix à Rossignies</desc>
<link href="https://chemins.be/obaix/sentier/40"/><trkseg>
<trkpt lat="50.527213" lon="4.362274"><time>2026-05-02T17:47:44Z</time></trkpt>
<trkpt lat="50.527456" lon="4.361639"><time>2026-05-02T17:57:44Z</time></trkpt>
<trkpt lat="50.527636" lon="4.361385"><time>2026-05-02T18:07:44Z</time></trkpt>
<trkpt lat="50.527681" lon="4.360835"><time>2026-05-02T18:17:44Z</time></trkpt>
<trkpt lat="50.527537" lon="4.360341"><time>2026-05-02T18:27:44Z</time></trkpt>
<trkpt lat="50.527762" lon="4.359340"><time>2026-05-02T18:37:44Z</time></trkpt>
<trkpt lat="50.527780" lon="4.359255"><time>2026-05-02T18:47:44Z</time></trkpt>
<trkpt lat="50.528049" lon="4.358437"><time>2026-05-02T18:57:44Z</time></trkpt>
<trkpt lat="50.528337" lon="4.357394"><time>2026-05-02T19:07:44Z</time></trkpt>
<trkpt lat="50.528499" lon="4.356533"><time>2026-05-02T19:17:44Z</time></trkpt>
<trkpt lat="50.528588" lon="4.356181"><time>2026-05-02T19:27:44Z</time></trkpt>
</trkseg></trk>
<trk>
<name>hpcob40</name>
<cmt>d</cmt>
<desc>Obaix Sentier n°40 sentier d'Obaix à Rossignies</desc>
<link href="https://chemins.be/obaix/sentier/40"/><trkseg>
<trkpt lat="50.528588" lon="4.356181"><time>2026-05-02T19:27:44Z</time></trkpt>
<trkpt lat="50.532265" lon="4.349155"><time>2026-05-02T19:37:44Z</time></trkpt>
<trkpt lat="50.533028" lon="4.345234"><time>2026-05-02T19:47:44Z</time></trkpt>
</trkseg>
</trk>
<trk>
<name>hpcob41</name>
<cmt>q</cmt>
<desc>Obaix Sentier n°41 sentier d'Obaix à Pont-à-Celles</desc>
<link href="https://chemins.be/obaix/sentier/41"/><trkseg>
<trkpt lat="50.527090" lon="4.356411"><time>2026-05-02T17:47:44Z</time></trkpt>
<trkpt lat="50.526239" lon="4.356945"><time>2026-05-02T17:57:44Z</time></trkpt>
</trkseg>
</trk>
<trk>
<name>hpcob42</name>
<cmt>v</cmt>
<desc>Obaix Sentier n°42 sentier du hameau de Rossegnies à Pont-à-Celles</desc>
<link href="https://chemins.be/obaix/sentier/42"/><trkseg>
<trkpt lat="50.539055" lon="4.324790"><time>2026-05-02T17:47:44Z</time></trkpt>
<trkpt lat="50.537865" lon="4.324867"><time>2026-05-02T17:57:44Z</time></trkpt>
</trkseg></trk>
<trk>
<name>hpcob42</name>
<cmt>b</cmt>
<desc>Obaix Sentier n°42 sentier du hameau de Rossegnies à Pont-à-Celles</desc>
<link href="https://chemins.be/obaix/sentier/42"/><trkseg>
<trkpt lat="50.537865" lon="4.324867"><time>2026-05-02T17:57:44Z</time></trkpt>
<trkpt lat="50.537063" lon="4.325041"><time>2026-05-02T18:07:44Z</time></trkpt>
</trkseg></trk>
<trk>
<name>hpcob42</name>
<cmt>d</cmt>
<desc>Obaix Sentier n°42 sentier du hameau de Rossegnies à Pont-à-Celles</desc>
<link href="https://chemins.be/obaix/sentier/42"/><trkseg>
<trkpt lat="50.537063" lon="4.325041"><time>2026-05-02T18:07:44Z</time></trkpt>
<trkpt lat="50.535780" lon="4.325352"><time>2026-05-02T18:17:44Z</time></trkpt>
<trkpt lat="50.535052" lon="4.325209"><time>2026-05-02T18:27:44Z</time></trkpt>
</trkseg></trk>
<trk>
<name>hpcob42</name>
<cmt>s</cmt>
<desc>Obaix Sentier n°42 sentier du hameau de Rossegnies à Pont-à-Celles</desc>
<link href="https://chemins.be/obaix/sentier/42"/><trkseg>
<trkpt lat="50.535052" lon="4.325209"><time>2026-05-02T18:27:44Z</time></trkpt>
<trkpt lat="50.532991" lon="4.325781"><time>2026-05-02T18:37:44Z</time></trkpt>
</trkseg></trk>
<trk>
<name>hpcob42</name>
<cmt>d</cmt>
<desc>Obaix Sentier n°42 sentier du hameau de Rossegnies à Pont-à-Celles</desc>
<link href="https://chemins.be/obaix/sentier/42"/><trkseg>
<trkpt lat="50.532991" lon="4.325781"><time>2026-05-02T18:37:44Z</time></trkpt>
<trkpt lat="50.526177" lon="4.327036"><time>2026-05-02T18:47:44Z</time></trkpt>
</trkseg>
</trk>
<trk>
<name>hpcob43</name>
<cmt>d</cmt>
<desc>Obaix Sentier n°43 sentier de la maison Lesoigne au sentier dit d'Elsaut</desc>
<link href="https://chemins.be/obaix/sentier/43"/><trkseg>
<trkpt lat="50.534853" lon="4.327298"><time>2026-05-02T17:47:44Z</time></trkpt>
<trkpt lat="50.535175" lon="4.325224"><time>2026-05-02T17:57:44Z</time></trkpt>
</trkseg>
</trk>
<trk>
<name>hpcob44</name>
<cmt>q</cmt>
<desc>Obaix Sentier n°44 sentier du chemin de Fontaine-l'Evêque à celui dit des Haies du Roeulx</desc>
<link href="https://chemins.be/obaix/sentier/44"/><trkseg>
<trkpt lat="50.536266" lon="4.327684"><time>2026-05-02T17:47:44Z</time></trkpt>
<trkpt lat="50.533053" lon="4.329639"><time>2026-05-02T17:57:44Z</time></trkpt>
</trkseg>
</trk>
<trk>
<name>hpcob45</name>
<cmt>v</cmt>
<desc>Obaix Sentier n°45 sentier du chemin dit ruelle du Râle au bois d'Hernisart</desc>
<link href="https://chemins.be/obaix/sentier/45"/><trkseg>
<trkpt lat="50.535492" lon="4.319348"><time>2026-05-02T17:47:44Z</time></trkpt>
<trkpt lat="50.534800" lon="4.318460"><time>2026-05-02T17:57:44Z</time></trkpt>
<trkpt lat="50.533819" lon="4.317389"><time>2026-05-02T18:07:44Z</time></trkpt>
<trkpt lat="50.532443" lon="4.315938"><time>2026-05-02T18:17:44Z</time></trkpt>
</trkseg>
</trk>
<trk>
<name>hpcob46</name>
<cmt>q</cmt>
<desc>Obaix Sentier n°46 sentier de la ferme Poulet au bois d'Hernisart</desc>
<link href="https://chemins.be/obaix/sentier/46"/><trkseg>
<trkpt lat="50.537861" lon="4.309133"><time>2026-05-02T17:47:44Z</time></trkpt>
<trkpt lat="50.538616" lon="4.308821"><time>2026-05-02T17:57:44Z</time></trkpt>
<trkpt lat="50.539649" lon="4.307804"><time>2026-05-02T18:07:44Z</time></trkpt>
</trkseg>
</trk>
<trk>
<name>hpcob47</name>
<cmt>q</cmt>
<desc>Obaix Sentier n°47 sentier longeant le chemin de Rossegnies au Blanc Bonnet</desc>
<link href="https://chemins.be/obaix/sentier/47"/><trkseg>
<trkpt lat="50.538140" lon="4.309894"><time>2026-05-02T17:47:44Z</time></trkpt>
<trkpt lat="50.537942" lon="4.309006"><time>2026-05-02T17:57:44Z</time></trkpt>
<trkpt lat="50.537591" lon="4.308117"><time>2026-05-02T18:07:44Z</time></trkpt>
</trkseg>
</trk>
<trk>
<name>hpcob48</name>
<cmt>q</cmt>
<desc>Obaix Sentier n°48 sentier du hameau de Rossegnies au chemin dit des Morts</desc>
<link href="https://chemins.be/obaix/sentier/48"/><trkseg>
<trkpt lat="50.541039" lon="4.326611"><time>2026-05-02T17:47:44Z</time></trkpt>
<trkpt lat="50.540690" lon="4.328017"><time>2026-05-02T17:57:44Z</time></trkpt>
<trkpt lat="50.539094" lon="4.328983"><time>2026-05-02T18:07:44Z</time></trkpt>
<trkpt lat="50.538784" lon="4.328755"><time>2026-05-02T18:17:44Z</time></trkpt>
<trkpt lat="50.536281" lon="4.334812"><time>2026-05-02T18:27:44Z</time></trkpt>
</trkseg>
</trk>
<trk>
<name>hpcob49</name>
<cmt>q</cmt>
<desc>Obaix Sentier n°49 sentier du hameau de Rossegnies au chemin dit Pachy du bois</desc>
<link href="https://chemins.be/obaix/sentier/49"/><trkseg>
<trkpt lat="50.541022" lon="4.326655"><time>2026-05-02T17:47:44Z</time></trkpt>
<trkpt lat="50.542154" lon="4.329788"><time>2026-05-02T17:57:44Z</time></trkpt>
<trkpt lat="50.542154" lon="4.330389"><time>2026-05-02T18:07:44Z</time></trkpt>
<trkpt lat="50.542727" lon="4.332127"><time>2026-05-02T18:17:44Z</time></trkpt>
<trkpt lat="50.541328" lon="4.335396"><time>2026-05-02T18:27:44Z</time></trkpt>
<trkpt lat="50.540675" lon="4.336923"><time>2026-05-02T18:37:44Z</time></trkpt>
<trkpt lat="50.541800" lon="4.340689"><time>2026-05-02T18:47:44Z</time></trkpt>
</trkseg>
</trk>
<trk>
<name>hpcob5</name>
<cmt>v</cmt>
<desc>Obaix Chemin n°5 chemin d'Obaix au hameau de Rossegnies</desc>
<link href="https://chemins.be/obaix/chemin/5"/><trkseg>
<trkpt lat="50.533955" lon="4.349648"><time>2026-05-02T17:47:44Z</time></trkpt>
<trkpt lat="50.533568" lon="4.347617"><time>2026-05-02T17:57:44Z</time></trkpt>
<trkpt lat="50.533046" lon="4.345051"><time>2026-05-02T18:07:44Z</time></trkpt>
<trkpt lat="50.533073" lon="4.344712"><time>2026-05-02T18:17:44Z</time></trkpt>
<trkpt lat="50.533998" lon="4.342130"><time>2026-05-02T18:27:44Z</time></trkpt>
<trkpt lat="50.534430" lon="4.340931"><time>2026-05-02T18:37:44Z</time></trkpt>
<trkpt lat="50.535714" lon="4.337559"><time>2026-05-02T18:47:44Z</time></trkpt>
<trkpt lat="50.536190" lon="4.335076"><time>2026-05-02T18:57:44Z</time></trkpt>
</trkseg>
</trk>
<trk>
<name>hpcob50</name>
<cmt>q</cmt>
<desc>Obaix Sentier n°50 sentier longeant le chemin des Morts</desc>
<link href="https://chemins.be/obaix/sentier/50"/><trkseg>
<trkpt lat="50.536319" lon="4.334513"><time>2026-05-02T17:47:44Z</time></trkpt>
<trkpt lat="50.536269" lon="4.334467"><time>2026-05-02T17:57:44Z</time></trkpt>
<trkpt lat="50.536878" lon="4.329807"><time>2026-05-02T18:07:44Z</time></trkpt>
<trkpt lat="50.536958" lon="4.329671"><time>2026-05-02T18:17:44Z</time></trkpt>
</trkseg>
</trk>
<trk>
<name>hpcob51</name>
<cmt>q</cmt>
<desc>Obaix Sentier n°51 sentier de celui du pré du bois au bois de Nivelles</desc>
<link href="https://chemins.be/obaix/sentier/51"/><trkseg>
<trkpt lat="50.542161" lon="4.329831"><time>2026-05-02T17:47:44Z</time></trkpt>
<trkpt lat="50.542400" lon="4.330303"><time>2026-05-02T17:57:44Z</time></trkpt>
<trkpt lat="50.543579" lon="4.331397"><time>2026-05-02T18:07:44Z</time></trkpt>
</trkseg>
</trk>
<trk>
<name>hpcob52</name>
<cmt>q</cmt>
<desc>Obaix Sentier n°52 sentier de la maison Quenique au chemin du moulin</desc>
<link href="https://chemins.be/obaix/sentier/52"/><trkseg>
<trkpt lat="50.539652" lon="4.322924"><time>2026-05-02T17:47:44Z</time></trkpt>
<trkpt lat="50.538946" lon="4.322350"><time>2026-05-02T17:57:44Z</time></trkpt>
<trkpt lat="50.538738" lon="4.323203"><time>2026-05-02T18:07:44Z</time></trkpt>
<trkpt lat="50.538308" lon="4.323563"><time>2026-05-02T18:17:44Z</time></trkpt>
<trkpt lat="50.537896" lon="4.324925"><time>2026-05-02T18:27:44Z</time></trkpt>
</trkseg>
</trk>
<trk>
<name>hpcob53</name>
<cmt>q</cmt>
<desc>Obaix Sentier n°53 sentier longeant le chemin dit de Seneffe</desc>
<link href="https://chemins.be/obaix/sentier/53"/><trkseg>
<trkpt lat="50.537835" lon="4.325326"><time>2026-05-02T17:47:44Z</time></trkpt>
<trkpt lat="50.537776" lon="4.325369"><time>2026-05-02T17:57:44Z</time></trkpt>
<trkpt lat="50.537808" lon="4.326545"><time>2026-05-02T18:07:44Z</time></trkpt>
<trkpt lat="50.537853" lon="4.326685"><time>2026-05-02T18:17:44Z</time></trkpt>
</trkseg>
</trk>
<trk>
<name>hpcob54</name>
<cmt>q</cmt>
<desc>Obaix Sentier n°54 sentier de celui de la charité au chemin dit du moulin</desc>
<link href="https://chemins.be/obaix/sentier/54"/><trkseg>
<trkpt lat="50.540702" lon="4.320097"><time>2026-05-02T17:47:44Z</time></trkpt>
<trkpt lat="50.540511" lon="4.319829"><time>2026-05-02T17:57:44Z</time></trkpt>
<trkpt lat="50.539918" lon="4.319813"><time>2026-05-02T18:07:44Z</time></trkpt>
</trkseg>
</trk>
<trk>
<name>hpcob55</name>
<cmt>q</cmt>
<desc>Obaix Sentier n°55 sentier de la chapelle charité au chemin ruelle du Râle</desc>
<link href="https://chemins.be/obaix/sentier/55"/><trkseg>
<trkpt lat="50.539229" lon="4.321465"><time>2026-05-02T17:47:44Z</time></trkpt>
<trkpt lat="50.539979" lon="4.319620"><time>2026-05-02T17:57:44Z</time></trkpt>
<trkpt lat="50.539870" lon="4.319239"><time>2026-05-02T18:07:44Z</time></trkpt>
<trkpt lat="50.540255" lon="4.317951"><time>2026-05-02T18:17:44Z</time></trkpt>
<trkpt lat="50.539782" lon="4.316350"><time>2026-05-02T18:27:44Z</time></trkpt>
<trkpt lat="50.540027" lon="4.314269"><time>2026-05-02T18:37:44Z</time></trkpt>
<trkpt lat="50.540777" lon="4.313196"><time>2026-05-02T18:47:44Z</time></trkpt>
<trkpt lat="50.542018" lon="4.312617"><time>2026-05-02T18:57:44Z</time></trkpt>
<trkpt lat="50.543191" lon="4.309698"><time>2026-05-02T19:07:44Z</time></trkpt>
</trkseg>
</trk>
<trk>
<name>hpcob57</name>
<cmt>q</cmt>
<desc>Obaix Sentier n°57 sentier de Rossegnies à Nivelles</desc>
<link href="https://chemins.be/obaix/sentier/57"/><trkseg>
<trkpt lat="50.541980" lon="4.312649"><time>2026-05-02T17:47:44Z</time></trkpt>
<trkpt lat="50.543419" lon="4.314773"><time>2026-05-02T17:57:44Z</time></trkpt>
</trkseg></trk>
<trk>
<name>hpcob57</name>
<cmt>v</cmt>
<desc>Obaix Sentier n°57 sentier de Rossegnies à Nivelles</desc>
<link href="https://chemins.be/obaix/sentier/57"/><trkseg>
<trkpt lat="50.543419" lon="4.314773"><time>2026-05-02T17:57:44Z</time></trkpt>
<trkpt lat="50.543559" lon="4.315234"><time>2026-05-02T18:07:44Z</time></trkpt>
</trkseg></trk>
<trk>
<name>hpcob57</name>
<cmt>q</cmt>
<desc>Obaix Sentier n°57 sentier de Rossegnies à Nivelles</desc>
<link href="https://chemins.be/obaix/sentier/57"/><trkseg>
<trkpt lat="50.543559" lon="4.315234"><time>2026-05-02T18:07:44Z</time></trkpt>
<trkpt lat="50.544309" lon="4.315728"><time>2026-05-02T18:17:44Z</time></trkpt>
<trkpt lat="50.546573" lon="4.319805"><time>2026-05-02T18:27:44Z</time></trkpt>
<trkpt lat="50.546832" lon="4.321243"><time>2026-05-02T18:37:44Z</time></trkpt>
<trkpt lat="50.547759" lon="4.323195"><time>2026-05-02T18:47:44Z</time></trkpt>
<trkpt lat="50.549124" lon="4.325486"><time>2026-05-02T18:57:44Z</time></trkpt>
</trkseg>
</trk>
<trk>
<name>hpcob58</name>
<cmt>q</cmt>
<desc>Obaix Sentier n°58 sentier de Rossegnies au Petit-Roeulx</desc>
<link href="https://chemins.be/obaix/sentier/58"/><trkseg>
<trkpt lat="50.543573" lon="4.315535"><time>2026-05-02T17:47:44Z</time></trkpt>
<trkpt lat="50.544432" lon="4.313475"><time>2026-05-02T17:57:44Z</time></trkpt>
<trkpt lat="50.546504" lon="4.310278"><time>2026-05-02T18:07:44Z</time></trkpt>
<trkpt lat="50.547652" lon="4.309572"><time>2026-05-02T18:17:44Z</time></trkpt>
<trkpt lat="50.547849" lon="4.309289"><time>2026-05-02T18:27:44Z</time></trkpt>
</trkseg>
</trk>
<trk>
<name>hpcob59</name>
<cmt>q</cmt>
<desc>Obaix Sentier n°59 sentier de Rossegnies à Arquennes</desc>
<link href="https://chemins.be/obaix/sentier/59"/><trkseg>
<trkpt lat="50.545454" lon="4.309553"><time>2026-05-02T17:47:44Z</time></trkpt>
<trkpt lat="50.545331" lon="4.310229"><time>2026-05-02T17:57:44Z</time></trkpt>
<trkpt lat="50.544002" lon="4.311710"><time>2026-05-02T18:07:44Z</time></trkpt>
</trkseg>
</trk>
<trk>
<name>hpcob6</name>
<cmt>v</cmt>
<desc>Obaix Chemin n°6 chemin du hameau de Rossegnies au Petit-Roeulx</desc>
<link href="https://chemins.be/obaix/chemin/6"/><trkseg>
<trkpt lat="50.543709" lon="4.322380"><time>2026-05-02T17:47:44Z</time></trkpt>
<trkpt lat="50.546832" lon="4.321178"><time>2026-05-02T17:57:44Z</time></trkpt>
<trkpt lat="50.548536" lon="4.320492"><time>2026-05-02T18:07:44Z</time></trkpt>
<trkpt lat="50.549109" lon="4.320835"><time>2026-05-02T18:17:44Z</time></trkpt>
</trkseg>
</trk>
<trk>
<name>hpcob60</name>
<cmt>q</cmt>
<desc>Obaix Sentier n°60 sentier de Rossegnies à Arquennes à celui de Rossegnies au Petit-Roeulx</desc>
<link href="https://chemins.be/obaix/sentier/60"/><trkseg>
<trkpt lat="50.545379" lon="4.309457"><time>2026-05-02T17:47:44Z</time></trkpt>
<trkpt lat="50.546606" lon="4.310219"><time>2026-05-02T17:57:44Z</time></trkpt>
</trkseg>
</trk>
<trk>
<name>hpcob62</name>
<cmt>d</cmt>
<desc>Obaix Sentier n°62 sentier du chemin dit Laublemont à la maison Pilette</desc>
<link href="https://chemins.be/obaix/sentier/62"/><trkseg>
<trkpt lat="50.542038" lon="4.322214"><time>2026-05-02T17:47:44Z</time></trkpt>
<trkpt lat="50.542843" lon="4.320829"><time>2026-05-02T17:57:44Z</time></trkpt>
<trkpt lat="50.543184" lon="4.318126"><time>2026-05-02T18:07:44Z</time></trkpt>
<trkpt lat="50.542938" lon="4.315669"><time>2026-05-02T18:17:44Z</time></trkpt>
<trkpt lat="50.543231" lon="4.314306"><time>2026-05-02T18:27:44Z</time></trkpt>
<trkpt lat="50.543566" lon="4.313620"><time>2026-05-02T18:37:44Z</time></trkpt>
<trkpt lat="50.543647" lon="4.313545"><time>2026-05-02T18:47:44Z</time></trkpt>
</trkseg>
</trk>
<trk>
<name>hpcob64</name>
<cmt>v</cmt>
<desc>Obaix Sentier n°64 sentier du Petit-Roeulx au chemin de Nivelles</desc>
<link href="https://chemins.be/obaix/sentier/64"/><trkseg>
<trkpt lat="50.550462" lon="4.319030"><time>2026-05-02T17:47:44Z</time></trkpt>
<trkpt lat="50.549726" lon="4.319931"><time>2026-05-02T17:57:44Z</time></trkpt>
<trkpt lat="50.549170" lon="4.320860"><time>2026-05-02T18:07:44Z</time></trkpt>
</trkseg></trk>
<trk>
<name>hpcob64</name>
<cmt>q</cmt>
<desc>Obaix Sentier n°64 sentier du Petit-Roeulx au chemin de Nivelles</desc>
<link href="https://chemins.be/obaix/sentier/64"/><trkseg>
<trkpt lat="50.549170" lon="4.320860"><time>2026-05-02T18:07:44Z</time></trkpt>
<trkpt lat="50.547779" lon="4.323184"><time>2026-05-02T18:17:44Z</time></trkpt>
</trkseg>
</trk>
<trk>
<name>hpcob65</name>
<cmt>q</cmt>
<desc>Obaix Sentier n°65 sentier longeant le chemin de Rossegnies à Arquennes</desc>
<link href="https://chemins.be/obaix/sentier/65"/><trkseg>
<trkpt lat="50.543078" lon="4.322710"><time>2026-05-02T17:47:44Z</time></trkpt>
<trkpt lat="50.543528" lon="4.321283"><time>2026-05-02T17:57:44Z</time></trkpt>
</trkseg>
</trk>
<trk>
<name>hpcob66</name>
<cmt>q</cmt>
<desc>Obaix Sentier n°66 sentier de celui dit de la charité à la maison Aluon</desc>
<link href="https://chemins.be/obaix/sentier/66"/><trkseg>
<trkpt lat="50.541343" lon="4.318665"><time>2026-05-02T17:47:44Z</time></trkpt>
<trkpt lat="50.540241" lon="4.317957"><time>2026-05-02T17:57:44Z</time></trkpt>
</trkseg>
</trk>
<trk>
<name>hpcob67</name>
<cmt>b</cmt>
<desc>Obaix Sentier n°67 sentier de Rossignies au Petit-Roeulx / Sentier n°67 (Entravé) / Sentier communal n°67</desc>
<link href="https://chemins.be/obaix/sentier/67"/><trkseg>
<trkpt lat="50.540559" lon="4.325647"><time>2026-05-02T17:47:44Z</time></trkpt>
<trkpt lat="50.541076" lon="4.325029"><time>2026-05-02T17:57:44Z</time></trkpt>
<trkpt lat="50.541280" lon="4.324780"><time>2026-05-02T18:07:44Z</time></trkpt>
<trkpt lat="50.541529" lon="4.324519"><time>2026-05-02T18:17:44Z</time></trkpt>
<trkpt lat="50.541728" lon="4.324253"><time>2026-05-02T18:27:44Z</time></trkpt>
</trkseg></trk>
<trk>
<name>hpcob67</name>
<cmt>v</cmt>
<desc>Obaix Sentier n°67 sentier de Rossignies au Petit-Roeulx / Sentier n°67 (Entravé) / Sentier communal n°67</desc>
<link href="https://chemins.be/obaix/sentier/67"/><trkseg>
<trkpt lat="50.541728" lon="4.324253"><time>2026-05-02T18:27:44Z</time></trkpt>
<trkpt lat="50.542018" lon="4.323876"><time>2026-05-02T18:37:44Z</time></trkpt>
</trkseg></trk>
<trk>
<name>hpcob67</name>
<cmt>b</cmt>
<desc>Obaix Sentier n°67 sentier de Rossignies au Petit-Roeulx / Sentier n°67 (Entravé) / Sentier communal n°67</desc>
<link href="https://chemins.be/obaix/sentier/67"/><trkseg>
<trkpt lat="50.542018" lon="4.323876"><time>2026-05-02T18:37:44Z</time></trkpt>
<trkpt lat="50.542377" lon="4.323587"><time>2026-05-02T18:47:44Z</time></trkpt>
<trkpt lat="50.542868" lon="4.323246"><time>2026-05-02T18:57:44Z</time></trkpt>
</trkseg>
</trk>
<trk>
<name>hpcob68</name>
<cmt>r</cmt>
<desc>Obaix Sentier n°68 Rue du Sabotier / Sentier communal n°68</desc>
<link href="https://chemins.be/obaix/sentier/68"/><trkseg>
<trkpt lat="50.539938" lon="4.325089"><time>2026-05-02T17:47:44Z</time></trkpt>
<trkpt lat="50.540572" lon="4.323984"><time>2026-05-02T17:57:44Z</time></trkpt>
<trkpt lat="50.541159" lon="4.323866"><time>2026-05-02T18:07:44Z</time></trkpt>
<trkpt lat="50.541354" lon="4.323615"><time>2026-05-02T18:17:44Z</time></trkpt>
</trkseg></trk>
<trk>
<name>hpcob68</name>
<cmt>v</cmt>
<desc>Obaix Sentier n°68 Rue du Sabotier / Sentier communal n°68</desc>
<link href="https://chemins.be/obaix/sentier/68"/><trkseg>
<trkpt lat="50.541354" lon="4.323615"><time>2026-05-02T18:17:44Z</time></trkpt>
<trkpt lat="50.541528" lon="4.323402"><time>2026-05-02T18:27:44Z</time></trkpt>
</trkseg></trk>
<trk>
<name>hpcob68</name>
<cmt>b</cmt>
<desc>Obaix Sentier n°68 Rue du Sabotier / Sentier communal n°68</desc>
<link href="https://chemins.be/obaix/sentier/68"/><trkseg>
<trkpt lat="50.541528" lon="4.323402"><time>2026-05-02T18:27:44Z</time></trkpt>
<trkpt lat="50.541681" lon="4.323173"><time>2026-05-02T18:37:44Z</time></trkpt>
<trkpt lat="50.541780" lon="4.322862"><time>2026-05-02T18:47:44Z</time></trkpt>
<trkpt lat="50.541935" lon="4.322592"><time>2026-05-02T18:57:44Z</time></trkpt>
<trkpt lat="50.542039" lon="4.322206"><time>2026-05-02T19:07:44Z</time></trkpt>
</trkseg>
</trk>
<trk>
<name>hpcob69</name>
<cmt>q</cmt>
<desc>Obaix Sentier n°69 Sentier communal n°69</desc>
<link href="https://chemins.be/obaix/sentier/69"/><trkseg>
<trkpt lat="50.541339" lon="4.326346"><time>2026-05-02T17:47:44Z</time></trkpt>
<trkpt lat="50.541449" lon="4.325401"><time>2026-05-02T17:57:44Z</time></trkpt>
<trkpt lat="50.541554" lon="4.324503"><time>2026-05-02T18:07:44Z</time></trkpt>
<trkpt lat="50.541612" lon="4.324049"><time>2026-05-02T18:17:44Z</time></trkpt>
</trkseg></trk>
<trk>
<name>hpcob69</name>
<cmt>b</cmt>
<desc>Obaix Sentier n°69 Sentier communal n°69</desc>
<link href="https://chemins.be/obaix/sentier/69"/><trkseg>
<trkpt lat="50.541612" lon="4.324049"><time>2026-05-02T18:17:44Z</time></trkpt>
<trkpt lat="50.541676" lon="4.323343"><time>2026-05-02T18:27:44Z</time></trkpt>
<trkpt lat="50.541664" lon="4.323182"><time>2026-05-02T18:37:44Z</time></trkpt>
</trkseg>
</trk>
<trk>
<name>hpcob70</name>
<cmt>v</cmt>
<desc>Obaix Sentier n°70 sentier de la chapelle de Rossegnies à la maison Lesoigne</desc>
<link href="https://chemins.be/obaix/sentier/70"/><trkseg>
<trkpt lat="50.540050" lon="4.321956"><time>2026-05-02T17:47:44Z</time></trkpt>
<trkpt lat="50.540281" lon="4.322068"><time>2026-05-02T17:57:44Z</time></trkpt>
<trkpt lat="50.540236" lon="4.322255"><time>2026-05-02T18:07:44Z</time></trkpt>
<trkpt lat="50.540542" lon="4.322334"><time>2026-05-02T18:17:44Z</time></trkpt>
</trkseg></trk>
<trk>
<name>hpcob70</name>
<cmt>b</cmt>
<desc>Obaix Sentier n°70 sentier de la chapelle de Rossegnies à la maison Lesoigne</desc>
<link href="https://chemins.be/obaix/sentier/70"/><trkseg>
<trkpt lat="50.540542" lon="4.322334"><time>2026-05-02T18:17:44Z</time></trkpt>
<trkpt lat="50.540606" lon="4.322484"><time>2026-05-02T18:27:44Z</time></trkpt>
<trkpt lat="50.540882" lon="4.322659"><time>2026-05-02T18:37:44Z</time></trkpt>
<trkpt lat="50.541673" lon="4.323155"><time>2026-05-02T18:47:44Z</time></trkpt>
<trkpt lat="50.542031" lon="4.323901"><time>2026-05-02T18:57:44Z</time></trkpt>
</trkseg>
</trk>
<trk>
<name>hpcob71</name>
<cmt>q</cmt>
<desc>Obaix Sentier n°71 </desc>
<link href="https://chemins.be/obaix/sentier/71"/><trkseg>
<trkpt lat="50.539693" lon="4.323037"><time>2026-05-02T17:47:44Z</time></trkpt>
<trkpt lat="50.539977" lon="4.323604"><time>2026-05-02T17:57:44Z</time></trkpt>
<trkpt lat="50.540334" lon="4.324314"><time>2026-05-02T18:07:44Z</time></trkpt>
</trkseg>
</trk>
<trk>
<name>hpcob72</name>
<cmt>b</cmt>
<desc>Obaix Sentier n°72 sentier du chemin dit Laublemont au sentier dit Rendoux</desc>
<link href="https://chemins.be/obaix/sentier/72"/><trkseg>
<trkpt lat="50.541148" lon="4.320961"><time>2026-05-02T17:47:44Z</time></trkpt>
<trkpt lat="50.540972" lon="4.321390"><time>2026-05-02T17:57:44Z</time></trkpt>
<trkpt lat="50.540543" lon="4.322332"><time>2026-05-02T18:07:44Z</time></trkpt>
<trkpt lat="50.539982" lon="4.323600"><time>2026-05-02T18:17:44Z</time></trkpt>
</trkseg>
</trk>
<trk>
<name>hpcob73</name>
<cmt>b</cmt>
<desc>Obaix Sentier n°73 </desc>
<link href="https://chemins.be/obaix/sentier/73"/><trkseg>
<trkpt lat="50.541912" lon="4.325859"><time>2026-05-02T17:47:44Z</time></trkpt>
<trkpt lat="50.540576" lon="4.325687"><time>2026-05-02T17:57:44Z</time></trkpt>
</trkseg>
</trk>
<trk>
<name>hpcob74</name>
<cmt>b</cmt>
<desc>Obaix Sentier n°74 </desc>
<link href="https://chemins.be/obaix/sentier/74"/><trkseg>
<trkpt lat="50.541881" lon="4.325853"><time>2026-05-02T17:47:44Z</time></trkpt>
<trkpt lat="50.541653" lon="4.325451"><time>2026-05-02T17:57:44Z</time></trkpt>
<trkpt lat="50.541564" lon="4.324593"><time>2026-05-02T18:07:44Z</time></trkpt>
</trkseg>
</trk>
<trk>
<name>hpcob75</name>
<cmt>q</cmt>
<desc>Obaix Sentier n°75 </desc>
<link href="https://chemins.be/obaix/sentier/75"/><trkseg>
<trkpt lat="50.527771" lon="4.374958"><time>2026-05-02T17:47:44Z</time></trkpt>
<trkpt lat="50.525534" lon="4.377619"><time>2026-05-02T17:57:44Z</time></trkpt>
<trkpt lat="50.524288" lon="4.380738"><time>2026-05-02T18:07:44Z</time></trkpt>
<trkpt lat="50.522824" lon="4.382526"><time>2026-05-02T18:17:44Z</time></trkpt>
<trkpt lat="50.522169" lon="4.382797"><time>2026-05-02T18:27:44Z</time></trkpt>
</trkseg>
</trk>
<trk>
<name>hpcob9</name>
<cmt>v</cmt>
<desc>Obaix Chemin n°9 chemin du blanc bonnet à celui dit de Binche</desc>
<link href="https://chemins.be/obaix/chemin/9"/><trkseg>
<trkpt lat="50.529730" lon="4.322849"><time>2026-05-02T17:47:44Z</time></trkpt>
<trkpt lat="50.530550" lon="4.320399"><time>2026-05-02T17:57:44Z</time></trkpt>
<trkpt lat="50.531010" lon="4.319499"><time>2026-05-02T18:07:44Z</time></trkpt>
<trkpt lat="50.531440" lon="4.318079"><time>2026-05-02T18:17:44Z</time></trkpt>
<trkpt lat="50.533730" lon="4.313179"><time>2026-05-02T18:27:44Z</time></trkpt>
<trkpt lat="50.536338" lon="4.310931"><time>2026-05-02T18:37:44Z</time></trkpt>
<trkpt lat="50.537690" lon="4.309339"><time>2026-05-02T18:47:44Z</time></trkpt>
</trkseg>
</trk>
<trk>
<name>hpcobi1</name>
<cmt>v</cmt>
<desc>Obaix Sentier n°i1 </desc>
<link href="https://chemins.be/obaix/sentier/i1"/><trkseg>
<trkpt lat="50.535502" lon="4.363345"><time>2026-05-02T17:47:44Z</time></trkpt>
<trkpt lat="50.534496" lon="4.363697"><time>2026-05-02T17:57:44Z</time></trkpt>
</trkseg>
</trk>
<trk>
<name>hpcobi2</name>
<cmt>v</cmt>
<desc>Obaix Chemin n°i2 </desc>
<link href="https://chemins.be/obaix/chemin/i2"/><trkseg>
<trkpt lat="50.535916" lon="4.363979"><time>2026-05-02T17:47:44Z</time></trkpt>
<trkpt lat="50.534810" lon="4.364219"><time>2026-05-02T17:57:44Z</time></trkpt>
</trkseg>
</trk>
<trk>
<name>hpcobi3</name>
<cmt>v</cmt>
<desc>Obaix Sentier n°i3 </desc>
<link href="https://chemins.be/obaix/sentier/i3"/><trkseg>
<trkpt lat="50.532895" lon="4.366688"><time>2026-05-02T17:47:44Z</time></trkpt>
<trkpt lat="50.532653" lon="4.366124"><time>2026-05-02T17:57:44Z</time></trkpt>
<trkpt lat="50.532626" lon="4.365531"><time>2026-05-02T18:07:44Z</time></trkpt>
</trkseg>
</trk>
<trk>
<name>hpcobi4</name>
<cmt>v</cmt>
<desc>Obaix Sentier n°i4 </desc>
<link href="https://chemins.be/obaix/sentier/i4"/><trkseg>
<trkpt lat="50.541357" lon="4.323624"><time>2026-05-02T17:47:44Z</time></trkpt>
<trkpt lat="50.541604" lon="4.324049"><time>2026-05-02T17:57:44Z</time></trkpt>
<trkpt lat="50.541720" lon="4.324244"><time>2026-05-02T18:07:44Z</time></trkpt>
</trkseg>
</trk>
<trk>
<name>hpcobi5</name>
<cmt>v</cmt>
<desc>Obaix Chemin n°i5 </desc>
<link href="https://chemins.be/obaix/chemin/i5"/><trkseg>
<trkpt lat="50.536633" lon="4.332330"><time>2026-05-02T17:47:44Z</time></trkpt>
<trkpt lat="50.542612" lon="4.336175"><time>2026-05-02T17:57:44Z</time></trkpt>
<trkpt lat="50.544161" lon="4.335591"><time>2026-05-02T18:07:44Z</time></trkpt>
</trkseg>
</trk>
<trk>
<name>hpcpc12</name>
<cmt>v</cmt>
<desc>Pont-à-Celles Chemin n°12 Chemin de la Ferme du Cheval Blanc à Gouy-le-Piéton</desc>
<link href="https://chemins.be/pontacelles/chemin/12"/><trkseg>
<trkpt lat="50.499117" lon="4.391595"><time>2026-05-02T17:47:44Z</time></trkpt>
<trkpt lat="50.498479" lon="4.390340"><time>2026-05-02T17:57:44Z</time></trkpt>
<trkpt lat="50.498137" lon="4.389156"><time>2026-05-02T18:07:44Z</time></trkpt>
<trkpt lat="50.497706" lon="4.388212"><time>2026-05-02T18:17:44Z</time></trkpt>
</trkseg></trk>
<trk>
<name>hpcpc12</name>
<cmt>r</cmt>
<desc>Pont-à-Celles Chemin n°12 Chemin de la Ferme du Cheval Blanc à Gouy-le-Piéton</desc>
<link href="https://chemins.be/pontacelles/chemin/12"/><trkseg>
<trkpt lat="50.497706" lon="4.388212"><time>2026-05-02T18:17:44Z</time></trkpt>
<trkpt lat="50.497149" lon="4.384786"><time>2026-05-02T18:27:44Z</time></trkpt>
<trkpt lat="50.496377" lon="4.380135"><time>2026-05-02T18:37:44Z</time></trkpt>
<trkpt lat="50.496053" lon="4.377725"><time>2026-05-02T18:47:44Z</time></trkpt>
</trkseg></trk>
<trk>
<name>hpcpc12</name>
<cmt>v</cmt>
<desc>Pont-à-Celles Chemin n°12 Chemin de la Ferme du Cheval Blanc à Gouy-le-Piéton</desc>
<link href="https://chemins.be/pontacelles/chemin/12"/><trkseg>
<trkpt lat="50.496053" lon="4.377725"><time>2026-05-02T18:47:44Z</time></trkpt>
<trkpt lat="50.495577" lon="4.372327"><time>2026-05-02T18:57:44Z</time></trkpt>
<trkpt lat="50.494624" lon="4.366562"><time>2026-05-02T19:07:44Z</time></trkpt>
<trkpt lat="50.494965" lon="4.365132"><time>2026-05-02T19:17:44Z</time></trkpt>
<trkpt lat="50.494534" lon="4.362870"><time>2026-05-02T19:27:44Z</time></trkpt>
</trkseg></trk>
<trk>
<name>hpcpc12</name>
<cmt>d</cmt>
<desc>Pont-à-Celles Chemin n°12 Chemin de la Ferme du Cheval Blanc à Gouy-le-Piéton</desc>
<link href="https://chemins.be/pontacelles/chemin/12"/><trkseg>
<trkpt lat="50.494534" lon="4.362870"><time>2026-05-02T19:27:44Z</time></trkpt>
<trkpt lat="50.494498" lon="4.362475"><time>2026-05-02T19:37:44Z</time></trkpt>
<trkpt lat="50.495064" lon="4.360460"><time>2026-05-02T19:47:44Z</time></trkpt>
</trkseg></trk>
<trk>
<name>hpcpc12</name>
<cmt>r</cmt>
<desc>Pont-à-Celles Chemin n°12 Chemin de la Ferme du Cheval Blanc à Gouy-le-Piéton</desc>
<link href="https://chemins.be/pontacelles/chemin/12"/><trkseg>
<trkpt lat="50.495064" lon="4.360460"><time>2026-05-02T19:47:44Z</time></trkpt>
<trkpt lat="50.495145" lon="4.360164"><time>2026-05-02T19:57:44Z</time></trkpt>
</trkseg></trk>
<trk>
<name>hpcpc12</name>
<cmt>q</cmt>
<desc>Pont-à-Celles Chemin n°12 Chemin de la Ferme du Cheval Blanc à Gouy-le-Piéton</desc>
<link href="https://chemins.be/pontacelles/chemin/12"/><trkseg>
<trkpt lat="50.495145" lon="4.360164"><time>2026-05-02T19:57:44Z</time></trkpt>
<trkpt lat="50.495037" lon="4.358472"><time>2026-05-02T20:07:44Z</time></trkpt>
<trkpt lat="50.493464" lon="4.354386"><time>2026-05-02T20:17:44Z</time></trkpt>
</trkseg>
</trk>
<trk>
<name>hpcpc14</name>
<cmt>r</cmt>
<desc>Pont-à-Celles Chemin n°14 Chemin de Luttre à Obaix</desc>
<link href="https://chemins.be/pontacelles/chemin/14"/><trkseg>
<trkpt lat="50.525212" lon="4.362739"><time>2026-05-02T17:47:44Z</time></trkpt>
<trkpt lat="50.523814" lon="4.364724"><time>2026-05-02T17:57:44Z</time></trkpt>
<trkpt lat="50.523071" lon="4.366344"><time>2026-05-02T18:07:44Z</time></trkpt>
</trkseg></trk>
<trk>
<name>hpcpc14</name>
<cmt>s</cmt>
<desc>Pont-à-Celles Chemin n°14 Chemin de Luttre à Obaix</desc>
<link href="https://chemins.be/pontacelles/chemin/14"/><trkseg>
<trkpt lat="50.523071" lon="4.366344"><time>2026-05-02T18:07:44Z</time></trkpt>
<trkpt lat="50.522400" lon="4.367421"><time>2026-05-02T18:17:44Z</time></trkpt>
</trkseg></trk>
<trk>
<name>hpcpc14</name>
<cmt>v</cmt>
<desc>Pont-à-Celles Chemin n°14 Chemin de Luttre à Obaix</desc>
<link href="https://chemins.be/pontacelles/chemin/14"/><trkseg>
<trkpt lat="50.522400" lon="4.367421"><time>2026-05-02T18:17:44Z</time></trkpt>
<trkpt lat="50.522400" lon="4.367421"><time>2026-05-02T18:27:44Z</time></trkpt>
<trkpt lat="50.522000" lon="4.367871"><time>2026-05-02T18:37:44Z</time></trkpt>
<trkpt lat="50.520890" lon="4.370931"><time>2026-05-02T18:47:44Z</time></trkpt>
<trkpt lat="50.519530" lon="4.373511"><time>2026-05-02T18:57:44Z</time></trkpt>
</trkseg>
</trk>
<trk>
<name>hpcpc16</name>
<cmt>v</cmt>
<desc>Pont-à-Celles Chemin n°16 Chemin de Seneffe à Gouy-le-Piéton</desc>
<link href="https://chemins.be/pontacelles/chemin/16"/><trkseg>
<trkpt lat="50.523774" lon="4.310307"><time>2026-05-02T17:47:44Z</time></trkpt>
<trkpt lat="50.523028" lon="4.310646"><time>2026-05-02T17:57:44Z</time></trkpt>
</trkseg>
</trk>
<trk>
<name>hpcpc17</name>
<cmt>v</cmt>
<desc>Pont-à-Celles Chemin n°17 Chemin de Nivelles à Gouy-le-Pieton</desc>
<link href="https://chemins.be/pontacelles/chemin/17"/><trkseg>
<trkpt lat="50.515269" lon="4.317563"><time>2026-05-02T17:47:44Z</time></trkpt>
<trkpt lat="50.515842" lon="4.317477"><time>2026-05-02T17:57:44Z</time></trkpt>
<trkpt lat="50.516333" lon="4.318335"><time>2026-05-02T18:07:44Z</time></trkpt>
<trkpt lat="50.518884" lon="4.319665"><time>2026-05-02T18:17:44Z</time></trkpt>
<trkpt lat="50.520460" lon="4.320423"><time>2026-05-02T18:27:44Z</time></trkpt>
<trkpt lat="50.521203" lon="4.320198"><time>2026-05-02T18:37:44Z</time></trkpt>
<trkpt lat="50.521817" lon="4.320327"><time>2026-05-02T18:47:44Z</time></trkpt>
<trkpt lat="50.523170" lon="4.321079"><time>2026-05-02T18:57:44Z</time></trkpt>
<trkpt lat="50.525240" lon="4.324489"><time>2026-05-02T19:07:44Z</time></trkpt>
<trkpt lat="50.526070" lon="4.327049"><time>2026-05-02T19:17:44Z</time></trkpt>
</trkseg>
</trk>
<trk>
<name>hpcpc18</name>
<cmt>v</cmt>
<desc>Pont-à-Celles Chemin n°18 Chemin de Nivelles à Gouy-le-Pieton</desc>
<link href="https://chemins.be/pontacelles/chemin/18"/><trkseg>
<trkpt lat="50.526060" lon="4.326939"><time>2026-05-02T17:47:44Z</time></trkpt>
<trkpt lat="50.523800" lon="4.325569"><time>2026-05-02T17:57:44Z</time></trkpt>
<trkpt lat="50.521990" lon="4.323759"><time>2026-05-02T18:07:44Z</time></trkpt>
<trkpt lat="50.519810" lon="4.323519"><time>2026-05-02T18:17:44Z</time></trkpt>
<trkpt lat="50.519233" lon="4.323887"><time>2026-05-02T18:27:44Z</time></trkpt>
<trkpt lat="50.518356" lon="4.323954"><time>2026-05-02T18:37:44Z</time></trkpt>
<trkpt lat="50.516700" lon="4.324279"><time>2026-05-02T18:47:44Z</time></trkpt>
<trkpt lat="50.514429" lon="4.323279"><time>2026-05-02T18:57:44Z</time></trkpt>
<trkpt lat="50.513783" lon="4.323413"><time>2026-05-02T19:07:44Z</time></trkpt>
</trkseg>
</trk>
<trk>
<name>hpcpc19</name>
<cmt>v</cmt>
<desc>Pont-à-Celles Chemin n°19 Chemin de celui de Bernimont au Canal</desc>
<link href="https://chemins.be/pontacelles/chemin/19"/><trkseg>
<trkpt lat="50.513764" lon="4.323422"><time>2026-05-02T17:47:44Z</time></trkpt>
<trkpt lat="50.510568" lon="4.324349"><time>2026-05-02T17:57:44Z</time></trkpt>
<trkpt lat="50.508895" lon="4.326186"><time>2026-05-02T18:07:44Z</time></trkpt>
<trkpt lat="50.508311" lon="4.327336"><time>2026-05-02T18:17:44Z</time></trkpt>
<trkpt lat="50.507681" lon="4.328276"><time>2026-05-02T18:27:44Z</time></trkpt>
</trkseg></trk>
<trk>
<name>hpcpc19</name>
<cmt>d</cmt>
<desc>Pont-à-Celles Chemin n°19 Chemin de celui de Bernimont au Canal</desc>
<link href="https://chemins.be/pontacelles/chemin/19"/><trkseg>
<trkpt lat="50.507681" lon="4.328276"><time>2026-05-02T18:27:44Z</time></trkpt>
<trkpt lat="50.507334" lon="4.329160"><time>2026-05-02T18:37:44Z</time></trkpt>
</trkseg>
</trk>
<trk>
<name>hpcpc2</name>
<cmt>v</cmt>
<desc>Pont-à-Celles Chemin n°2 Chemin de Fontaine-l'Evêque à Nivelles</desc>
<link href="https://chemins.be/pontacelles/chemin/2"/><trkseg>
<trkpt lat="50.515220" lon="4.355352"><time>2026-05-02T17:47:44Z</time></trkpt>
<trkpt lat="50.514429" lon="4.355409"><time>2026-05-02T17:57:44Z</time></trkpt>
</trkseg></trk>
<trk>
<name>hpcpc2</name>
<cmt>r</cmt>
<desc>Pont-à-Celles Chemin n°2 Chemin de Fontaine-l'Evêque à Nivelles</desc>
<link href="https://chemins.be/pontacelles/chemin/2"/><trkseg>
<trkpt lat="50.514429" lon="4.355409"><time>2026-05-02T17:57:44Z</time></trkpt>
<trkpt lat="50.513799" lon="4.354690"><time>2026-05-02T18:07:44Z</time></trkpt>
<trkpt lat="50.513188" lon="4.354591"><time>2026-05-02T18:17:44Z</time></trkpt>
<trkpt lat="50.512900" lon="4.354239"><time>2026-05-02T18:27:44Z</time></trkpt>
<trkpt lat="50.512343" lon="4.353365"><time>2026-05-02T18:37:44Z</time></trkpt>
<trkpt lat="50.511525" lon="4.352477"><time>2026-05-02T18:47:44Z</time></trkpt>
<trkpt lat="50.510751" lon="4.351688"><time>2026-05-02T18:57:44Z</time></trkpt>
<trkpt lat="50.509996" lon="4.351054"><time>2026-05-02T19:07:44Z</time></trkpt>
<trkpt lat="50.508701" lon="4.350222"><time>2026-05-02T19:17:44Z</time></trkpt>
<trkpt lat="50.508216" lon="4.349799"><time>2026-05-02T19:27:44Z</time></trkpt>
<trkpt lat="50.507155" lon="4.348686"><time>2026-05-02T19:37:44Z</time></trkpt>
<trkpt lat="50.504331" lon="4.345685"><time>2026-05-02T19:47:44Z</time></trkpt>
<trkpt lat="50.503972" lon="4.345304"><time>2026-05-02T19:57:44Z</time></trkpt>
<trkpt lat="50.503073" lon="4.344684"><time>2026-05-02T20:07:44Z</time></trkpt>
<trkpt lat="50.502641" lon="4.344375"><time>2026-05-02T20:17:44Z</time></trkpt>
<trkpt lat="50.500564" lon="4.343558"><time>2026-05-02T20:27:44Z</time></trkpt>
</trkseg>
</trk>
<trk>
<name>hpcpc20</name>
<cmt>v</cmt>
<desc>Pont-à-Celles Chemin n°20 Chemin du hameau de Maillemont à celui de Bernimont</desc>
<link href="https://chemins.be/pontacelles/chemin/20"/><trkseg>
<trkpt lat="50.523698" lon="4.353643"><time>2026-05-02T17:47:44Z</time></trkpt>
<trkpt lat="50.522688" lon="4.348665"><time>2026-05-02T17:57:44Z</time></trkpt>
<trkpt lat="50.521897" lon="4.346691"><time>2026-05-02T18:07:44Z</time></trkpt>
<trkpt lat="50.522033" lon="4.342657"><time>2026-05-02T18:17:44Z</time></trkpt>
<trkpt lat="50.523807" lon="4.335833"><time>2026-05-02T18:27:44Z</time></trkpt>
<trkpt lat="50.524020" lon="4.334900"><time>2026-05-02T18:37:44Z</time></trkpt>
<trkpt lat="50.523970" lon="4.332980"><time>2026-05-02T18:47:44Z</time></trkpt>
<trkpt lat="50.524090" lon="4.331090"><time>2026-05-02T18:57:44Z</time></trkpt>
<trkpt lat="50.524370" lon="4.329660"><time>2026-05-02T19:07:44Z</time></trkpt>
<trkpt lat="50.523790" lon="4.325599"><time>2026-05-02T19:17:44Z</time></trkpt>
</trkseg>
</trk>
<trk>
<name>hpcpc21</name>
<cmt>v</cmt>
<desc>Pont-à-Celles Chemin n°21 Chemin du hameau de Heriamont au Vieux Chemin de Namur</desc>
<link href="https://chemins.be/pontacelles/chemin/21"/><trkseg>
<trkpt lat="50.517206" lon="4.338350"><time>2026-05-02T17:47:44Z</time></trkpt>
<trkpt lat="50.521715" lon="4.332663"><time>2026-05-02T17:57:44Z</time></trkpt>
<trkpt lat="50.523327" lon="4.331255"><time>2026-05-02T18:07:44Z</time></trkpt>
<trkpt lat="50.524132" lon="4.331105"><time>2026-05-02T18:17:44Z</time></trkpt>
<trkpt lat="50.524357" lon="4.329721"><time>2026-05-02T18:27:44Z</time></trkpt>
<trkpt lat="50.526089" lon="4.327114"><time>2026-05-02T18:37:44Z</time></trkpt>
</trkseg>
</trk>
<trk>
<name>hpcpc22</name>
<cmt>v</cmt>
<desc>Pont-à-Celles Chemin n°22 Chemin du hameau de Heriamont au Chemin de Zaiwis</desc>
<link href="https://chemins.be/pontacelles/chemin/22"/><trkseg>
<trkpt lat="50.515820" lon="4.341181"><time>2026-05-02T17:47:44Z</time></trkpt>
<trkpt lat="50.515847" lon="4.342112"><time>2026-05-02T17:57:44Z</time></trkpt>
<trkpt lat="50.515890" lon="4.342239"><time>2026-05-02T18:07:44Z</time></trkpt>
<trkpt lat="50.516054" lon="4.342366"><time>2026-05-02T18:17:44Z</time></trkpt>
<trkpt lat="50.517340" lon="4.342379"><time>2026-05-02T18:27:44Z</time></trkpt>
<trkpt lat="50.518373" lon="4.341955"><time>2026-05-02T18:37:44Z</time></trkpt>
<trkpt lat="50.520576" lon="4.342659"><time>2026-05-02T18:47:44Z</time></trkpt>
<trkpt lat="50.522006" lon="4.342715"><time>2026-05-02T18:57:44Z</time></trkpt>
</trkseg>
</trk>
<trk>
<name>hpcpc23</name>
<cmt>r</cmt>
<desc>Pont-à-Celles Chemin n°23 Chemin de Pont-à-Celles au hameau de Navare</desc>
<link href="https://chemins.be/pontacelles/chemin/23"/><trkseg>
<trkpt lat="50.508742" lon="4.350340"><time>2026-05-02T17:47:44Z</time></trkpt>
<trkpt lat="50.508436" lon="4.349001"><time>2026-05-02T17:57:44Z</time></trkpt>
<trkpt lat="50.507328" lon="4.343561"><time>2026-05-02T18:07:44Z</time></trkpt>
<trkpt lat="50.504936" lon="4.340054"><time>2026-05-02T18:17:44Z</time></trkpt>
<trkpt lat="50.504752" lon="4.339784"><time>2026-05-02T18:27:44Z</time></trkpt>
<trkpt lat="50.504752" lon="4.337518"><time>2026-05-02T18:37:44Z</time></trkpt>
<trkpt lat="50.504988" lon="4.336143"><time>2026-05-02T18:47:44Z</time></trkpt>
<trkpt lat="50.505221" lon="4.334788"><time>2026-05-02T18:57:44Z</time></trkpt>
<trkpt lat="50.505947" lon="4.332702"><time>2026-05-02T19:07:44Z</time></trkpt>
</trkseg></trk>
<trk>
<name>hpcpc23</name>
<cmt>v</cmt>
<desc>Pont-à-Celles Chemin n°23 Chemin de Pont-à-Celles au hameau de Navare</desc>
<link href="https://chemins.be/pontacelles/chemin/23"/><trkseg>
<trkpt lat="50.505947" lon="4.332702"><time>2026-05-02T19:07:44Z</time></trkpt>
<trkpt lat="50.506704" lon="4.331108"><time>2026-05-02T19:17:44Z</time></trkpt>
</trkseg></trk>
<trk>
<name>hpcpc23</name>
<cmt>s</cmt>
<desc>Pont-à-Celles Chemin n°23 Chemin de Pont-à-Celles au hameau de Navare</desc>
<link href="https://chemins.be/pontacelles/chemin/23"/><trkseg>
<trkpt lat="50.506704" lon="4.331108"><time>2026-05-02T19:17:44Z</time></trkpt>
<trkpt lat="50.507086" lon="4.330177"><time>2026-05-02T19:27:44Z</time></trkpt>
</trkseg>
</trk>
<trk>
<name>hpcpc24</name>
<cmt>v</cmt>
<desc>Pont-à-Celles Chemin n°24 Chemin de la Ferme de L'Aunois à celles de Courriaux</desc>
<link href="https://chemins.be/pontacelles/chemin/24"/><trkseg>
<trkpt lat="50.496412" lon="4.355287"><time>2026-05-02T17:47:44Z</time></trkpt>
<trkpt lat="50.496691" lon="4.354540"><time>2026-05-02T17:57:44Z</time></trkpt>
<trkpt lat="50.497015" lon="4.353299"><time>2026-05-02T18:07:44Z</time></trkpt>
<trkpt lat="50.497590" lon="4.351227"><time>2026-05-02T18:17:44Z</time></trkpt>
<trkpt lat="50.498425" lon="4.349254"><time>2026-05-02T18:27:44Z</time></trkpt>
<trkpt lat="50.501787" lon="4.344093"><time>2026-05-02T18:37:44Z</time></trkpt>
</trkseg></trk>
<trk>
<name>hpcpc24</name>
<cmt>r</cmt>
<desc>Pont-à-Celles Chemin n°24 Chemin de la Ferme de L'Aunois à celles de Courriaux</desc>
<link href="https://chemins.be/pontacelles/chemin/24"/><trkseg>
<trkpt lat="50.501787" lon="4.344093"><time>2026-05-02T18:37:44Z</time></trkpt>
<trkpt lat="50.503018" lon="4.341865"><time>2026-05-02T18:47:44Z</time></trkpt>
<trkpt lat="50.505008" lon="4.339938"><time>2026-05-02T18:57:44Z</time></trkpt>
</trkseg></trk>
<trk>
<name>hpcpc24</name>
<cmt>v</cmt>
<desc>Pont-à-Celles Chemin n°24 Chemin de la Ferme de L'Aunois à celles de Courriaux</desc>
<link href="https://chemins.be/pontacelles/chemin/24"/><trkseg>
<trkpt lat="50.505008" lon="4.339938"><time>2026-05-02T18:57:44Z</time></trkpt>
<trkpt lat="50.505827" lon="4.339251"><time>2026-05-02T19:07:44Z</time></trkpt>
<trkpt lat="50.506111" lon="4.339388"><time>2026-05-02T19:17:44Z</time></trkpt>
</trkseg>
</trk>
<trk>
<name>hpcpc25</name>
<cmt>v</cmt>
<desc>Pont-à-Celles Chemin n°25 Chemin des Haies Ste-Anne au lieu dit Closière de la Neuvilles</desc>
<link href="https://chemins.be/pontacelles/chemin/25"/><trkseg>
<trkpt lat="50.518160" lon="4.379719"><time>2026-05-02T17:47:44Z</time></trkpt>
<trkpt lat="50.514526" lon="4.376234"><time>2026-05-02T17:57:44Z</time></trkpt>
</trkseg>
</trk>
<trk>
<name>hpcpc26</name>
<cmt>r</cmt>
<desc>Pont-à-Celles Chemin n°26 Chemin de la Chaussée Brunehault à la Maison Bioux</desc>
<link href="https://chemins.be/pontacelles/chemin/26"/><trkseg>
<trkpt lat="50.490038" lon="4.380317"><time>2026-05-02T17:47:44Z</time></trkpt>
<trkpt lat="50.490443" lon="4.380951"><time>2026-05-02T17:57:44Z</time></trkpt>
<trkpt lat="50.490704" lon="4.381529"><time>2026-05-02T18:07:44Z</time></trkpt>
<trkpt lat="50.490758" lon="4.381825"><time>2026-05-02T18:17:44Z</time></trkpt>
</trkseg></trk>
<trk>
<name>hpcpc26</name>
<cmt>v</cmt>
<desc>Pont-à-Celles Chemin n°26 Chemin de la Chaussée Brunehault à la Maison Bioux</desc>
<link href="https://chemins.be/pontacelles/chemin/26"/><trkseg>
<trkpt lat="50.490758" lon="4.381825"><time>2026-05-02T18:17:44Z</time></trkpt>
<trkpt lat="50.490820" lon="4.382247"><time>2026-05-02T18:27:44Z</time></trkpt>
</trkseg>
</trk>
<trk>
<name>hpcpc28</name>
<cmt>v</cmt>
<desc>Pont-à-Celles Chemin n°28 Chemin des Prairies de Courriaux au Chemin de Courriaux</desc>
<link href="https://chemins.be/pontacelles/chemin/28"/><trkseg>
<trkpt lat="50.496404" lon="4.379924"><time>2026-05-02T17:47:44Z</time></trkpt>
<trkpt lat="50.497707" lon="4.378571"><time>2026-05-02T17:57:44Z</time></trkpt>
<trkpt lat="50.498175" lon="4.377894"><time>2026-05-02T18:07:44Z</time></trkpt>
</trkseg></trk>
<trk>
<name>hpcpc28</name>
<cmt>r</cmt>
<desc>Pont-à-Celles Chemin n°28 Chemin des Prairies de Courriaux au Chemin de Courriaux</desc>
<link href="https://chemins.be/pontacelles/chemin/28"/><trkseg>
<trkpt lat="50.498175" lon="4.377894"><time>2026-05-02T18:07:44Z</time></trkpt>
<trkpt lat="50.499326" lon="4.375682"><time>2026-05-02T18:17:44Z</time></trkpt>
<trkpt lat="50.499820" lon="4.375541"><time>2026-05-02T18:27:44Z</time></trkpt>
<trkpt lat="50.500162" lon="4.375174"><time>2026-05-02T18:37:44Z</time></trkpt>
</trkseg>
</trk>
<trk>
<name>hpcpc3</name>
<cmt>v</cmt>
<desc>Pont-à-Celles Chemin n°3 Chemin de Bavay à Maestricht</desc>
<link href="https://chemins.be/pontacelles/chemin/3"/><trkseg>
<trkpt lat="50.487378" lon="4.367281"><time>2026-05-02T17:47:44Z</time></trkpt>
<trkpt lat="50.486092" lon="4.362251"><time>2026-05-02T17:57:44Z</time></trkpt>
</trkseg>
</trk>
<trk>
<name>hpcpc30</name>
<cmt>r</cmt>
<desc>Pont-à-Celles Chemin n°30 Chemin de la Chapelle de Notre Dame de Grâce au Chemin du Poirier</desc>
<link href="https://chemins.be/pontacelles/chemin/30"/><trkseg>
<trkpt lat="50.507179" lon="4.356395"><time>2026-05-02T17:47:44Z</time></trkpt>
<trkpt lat="50.506043" lon="4.356395"><time>2026-05-02T17:57:44Z</time></trkpt>
</trkseg></trk>
<trk>
<name>hpcpc30</name>
<cmt>v</cmt>
<desc>Pont-à-Celles Chemin n°30 Chemin de la Chapelle de Notre Dame de Grâce au Chemin du Poirier</desc>
<link href="https://chemins.be/pontacelles/chemin/30"/><trkseg>
<trkpt lat="50.506043" lon="4.356395"><time>2026-05-02T17:57:44Z</time></trkpt>
<trkpt lat="50.504777" lon="4.356789"><time>2026-05-02T18:07:44Z</time></trkpt>
<trkpt lat="50.503183" lon="4.357012"><time>2026-05-02T18:17:44Z</time></trkpt>
<trkpt lat="50.502419" lon="4.357836"><time>2026-05-02T18:27:44Z</time></trkpt>
</trkseg>
</trk>
<trk>
<name>hpcpc31</name>
<cmt>r</cmt>
<desc>Pont-à-Celles Chemin n°31 Chemin de la Chapelle de Notre Dame de Grace au Chemin de l'Aunois</desc>
<link href="https://chemins.be/pontacelles/chemin/31"/><trkseg>
<trkpt lat="50.508414" lon="4.349010"><time>2026-05-02T17:47:44Z</time></trkpt>
<trkpt lat="50.508252" lon="4.349842"><time>2026-05-02T17:57:44Z</time></trkpt>
</trkseg></trk>
<trk>
<name>hpcpc31</name>
<cmt>v</cmt>
<desc>Pont-à-Celles Chemin n°31 Chemin de la Chapelle de Notre Dame de Grace au Chemin de l'Aunois</desc>
<link href="https://chemins.be/pontacelles/chemin/31"/><trkseg>
<trkpt lat="50.508252" lon="4.349842"><time>2026-05-02T17:57:44Z</time></trkpt>
<trkpt lat="50.507785" lon="4.351181"><time>2026-05-02T18:07:44Z</time></trkpt>
<trkpt lat="50.507524" lon="4.352887"><time>2026-05-02T18:17:44Z</time></trkpt>
<trkpt lat="50.507219" lon="4.354776"><time>2026-05-02T18:27:44Z</time></trkpt>
</trkseg>
</trk>
<trk>
<name>hpcpc35</name>
<cmt>r</cmt>
<desc>Pont-à-Celles Chemin n°35 Chemin du hameau de l'Arnimont au chemin de Fontaine-l'Evêque</desc>
<link href="https://chemins.be/pontacelles/chemin/35"/><trkseg>
<trkpt lat="50.513941" lon="4.354905"><time>2026-05-02T17:47:44Z</time></trkpt>
<trkpt lat="50.513939" lon="4.355052"><time>2026-05-02T17:57:44Z</time></trkpt>
<trkpt lat="50.514258" lon="4.356008"><time>2026-05-02T18:07:44Z</time></trkpt>
<trkpt lat="50.513995" lon="4.356243"><time>2026-05-02T18:17:44Z</time></trkpt>
</trkseg></trk>
<trk>
<name>hpcpc35</name>
<cmt>s</cmt>
<desc>Pont-à-Celles Chemin n°35 Chemin du hameau de l'Arnimont au chemin de Fontaine-l'Evêque</desc>
<link href="https://chemins.be/pontacelles/chemin/35"/><trkseg>
<trkpt lat="50.513995" lon="4.356243"><time>2026-05-02T18:17:44Z</time></trkpt>
<trkpt lat="50.513784" lon="4.356348"><time>2026-05-02T18:27:44Z</time></trkpt>
</trkseg>
</trk>
<trk>
<name>hpcpc37</name>
<cmt>v</cmt>
<desc>Pont-à-Celles Chemin n°37 Chemin de la maison Donat Bouvart aux Prairies de L'Objou(servitude)</desc>
<link href="https://chemins.be/pontacelles/chemin/37"/><trkseg>
<trkpt lat="50.518329" lon="4.359534"><time>2026-05-02T17:47:44Z</time></trkpt>
<trkpt lat="50.518853" lon="4.360251"><time>2026-05-02T17:57:44Z</time></trkpt>
</trkseg>
</trk>
<trk>
<name>hpcpc38</name>
<cmt>v</cmt>
<desc>Pont-à-Celles Chemin n°38 Chemin du hameau des quatre Chemins à celui de Rosignies</desc>
<link href="https://chemins.be/pontacelles/chemin/38"/><trkseg>
<trkpt lat="50.523810" lon="4.335770"><time>2026-05-02T17:47:44Z</time></trkpt>
<trkpt lat="50.525280" lon="4.334160"><time>2026-05-02T17:57:44Z</time></trkpt>
<trkpt lat="50.526083" lon="4.333397"><time>2026-05-02T18:07:44Z</time></trkpt>
</trkseg>
</trk>
<trk>
<name>hpcpc39</name>
<cmt>v</cmt>
<desc>Pont-à-Celles Chemin n°39 Chemin de la maison Briant aux prés D'Heriamont</desc>
<link href="https://chemins.be/pontacelles/chemin/39"/><trkseg>
<trkpt lat="50.513752" lon="4.342451"><time>2026-05-02T17:47:44Z</time></trkpt>
<trkpt lat="50.513258" lon="4.342142"><time>2026-05-02T17:57:44Z</time></trkpt>
<trkpt lat="50.513060" lon="4.341747"><time>2026-05-02T18:07:44Z</time></trkpt>
<trkpt lat="50.512844" lon="4.341310"><time>2026-05-02T18:17:44Z</time></trkpt>
</trkseg></trk>
<trk>
<name>hpcpc39</name>
<cmt>q</cmt>
<desc>Pont-à-Celles Chemin n°39 Chemin de la maison Briant aux prés D'Heriamont</desc>
<link href="https://chemins.be/pontacelles/chemin/39"/><trkseg>
<trkpt lat="50.512844" lon="4.341310"><time>2026-05-02T18:17:44Z</time></trkpt>
<trkpt lat="50.512494" lon="4.341564"><time>2026-05-02T18:27:44Z</time></trkpt>
</trkseg></trk>
<trk>
<name>hpcpc39</name>
<cmt>v</cmt>
<desc>Pont-à-Celles Chemin n°39 Chemin de la maison Briant aux prés D'Heriamont</desc>
<link href="https://chemins.be/pontacelles/chemin/39"/><trkseg>
<trkpt lat="50.512494" lon="4.341564"><time>2026-05-02T18:27:44Z</time></trkpt>
<trkpt lat="50.511990" lon="4.341226"><time>2026-05-02T18:37:44Z</time></trkpt>
<trkpt lat="50.511837" lon="4.340930"><time>2026-05-02T18:47:44Z</time></trkpt>
</trkseg>
</trk>
<trk>
<name>hpcpc4</name>
<cmt>v</cmt>
<desc>Pont-à-Celles Chemin n°4 Chemin de Nivelles à Courcelles</desc>
<link href="https://chemins.be/pontacelles/chemin/4"/><trkseg>
<trkpt lat="50.507210" lon="4.356553"><time>2026-05-02T17:47:44Z</time></trkpt>
<trkpt lat="50.506500" lon="4.358230"><time>2026-05-02T17:57:44Z</time></trkpt>
<trkpt lat="50.505871" lon="4.359260"><time>2026-05-02T18:07:44Z</time></trkpt>
<trkpt lat="50.505394" lon="4.359302"><time>2026-05-02T18:17:44Z</time></trkpt>
<trkpt lat="50.503686" lon="4.358358"><time>2026-05-02T18:27:44Z</time></trkpt>
<trkpt lat="50.502409" lon="4.357851"><time>2026-05-02T18:37:44Z</time></trkpt>
</trkseg></trk>
<trk>
<name>hpcpc4</name>
<cmt>r</cmt>
<desc>Pont-à-Celles Chemin n°4 Chemin de Nivelles à Courcelles</desc>
<link href="https://chemins.be/pontacelles/chemin/4"/><trkseg>
<trkpt lat="50.502409" lon="4.357851"><time>2026-05-02T18:37:44Z</time></trkpt>
<trkpt lat="50.500719" lon="4.358443"><time>2026-05-02T18:47:44Z</time></trkpt>
<trkpt lat="50.498570" lon="4.358866"><time>2026-05-02T18:57:44Z</time></trkpt>
<trkpt lat="50.497609" lon="4.358768"><time>2026-05-02T19:07:44Z</time></trkpt>
<trkpt lat="50.496134" lon="4.359994"><time>2026-05-02T19:17:44Z</time></trkpt>
<trkpt lat="50.495118" lon="4.360220"><time>2026-05-02T19:27:44Z</time></trkpt>
<trkpt lat="50.491711" lon="4.362489"><time>2026-05-02T19:37:44Z</time></trkpt>
<trkpt lat="50.490543" lon="4.363941"><time>2026-05-02T19:47:44Z</time></trkpt>
<trkpt lat="50.488682" lon="4.364674"><time>2026-05-02T19:57:44Z</time></trkpt>
<trkpt lat="50.487387" lon="4.367267"><time>2026-05-02T20:07:44Z</time></trkpt>
</trkseg>
</trk>
<trk>
<name>hpcpc41</name>
<cmt>r</cmt>
<desc>Pont-à-Celles Chemin n°41 Chemin de la ferme de l'Aunois au chemin de Navare</desc>
<link href="https://chemins.be/pontacelles/chemin/41"/><trkseg>
<trkpt lat="50.504728" lon="4.337992"><time>2026-05-02T17:47:44Z</time></trkpt>
<trkpt lat="50.505052" lon="4.338073"><time>2026-05-02T17:57:44Z</time></trkpt>
<trkpt lat="50.505312" lon="4.338374"><time>2026-05-02T18:07:44Z</time></trkpt>
<trkpt lat="50.505847" lon="4.338172"><time>2026-05-02T18:17:44Z</time></trkpt>
</trkseg>
</trk>
<trk>
<name>hpcpc42</name>
<cmt>r</cmt>
<desc>Pont-à-Celles Chemin n°42 Chemin de la ferme de Bernimont à la maison Bacq</desc>
<link href="https://chemins.be/pontacelles/chemin/42"/><trkseg>
<trkpt lat="50.521795" lon="4.320370"><time>2026-05-02T17:47:44Z</time></trkpt>
<trkpt lat="50.521433" lon="4.322151"><time>2026-05-02T17:57:44Z</time></trkpt>
<trkpt lat="50.520089" lon="4.323074"><time>2026-05-02T18:07:44Z</time></trkpt>
<trkpt lat="50.519803" lon="4.323524"><time>2026-05-02T18:17:44Z</time></trkpt>
</trkseg>
</trk>
<trk>
<name>hpcpc43</name>
<cmt>d</cmt>
<desc>Pont-à-Celles Chemin n°43 Chemin de la maison Bacq au hameau de la Bêterefaite</desc>
<link href="https://chemins.be/pontacelles/chemin/43"/><trkseg>
<trkpt lat="50.521081" lon="4.320245"><time>2026-05-02T17:47:44Z</time></trkpt>
<trkpt lat="50.520569" lon="4.318217"><time>2026-05-02T17:57:44Z</time></trkpt>
<trkpt lat="50.520330" lon="4.315428"><time>2026-05-02T18:07:44Z</time></trkpt>
</trkseg>
</trk>
<trk>
<name>hpcpc44</name>
<cmt>r</cmt>
<desc>Pont-à-Celles Chemin n°44 Chemin de celui du Courriaux au Bois de Messe (servitude)</desc>
<link href="https://chemins.be/pontacelles/chemin/44"/><trkseg>
<trkpt lat="50.496030" lon="4.377848"><time>2026-05-02T17:47:44Z</time></trkpt>
<trkpt lat="50.494914" lon="4.377869"><time>2026-05-02T17:57:44Z</time></trkpt>
</trkseg>
</trk>
<trk>
<name>hpcpc46</name>
<cmt>q</cmt>
<desc>Pont-à-Celles Sentier n°46 Sentier d'Heriamont à Morinmont</desc>
<link href="https://chemins.be/pontacelles/sentier/46"/><trkseg>
<trkpt lat="50.512004" lon="4.331795"><time>2026-05-02T17:47:44Z</time></trkpt>
<trkpt lat="50.510967" lon="4.330542"><time>2026-05-02T17:57:44Z</time></trkpt>
<trkpt lat="50.511087" lon="4.325787"><time>2026-05-02T18:07:44Z</time></trkpt>
<trkpt lat="50.510487" lon="4.324483"><time>2026-05-02T18:17:44Z</time></trkpt>
</trkseg>
</trk>
<trk>
<name>hpcpc47</name>
<cmt>q</cmt>
<desc>Pont-à-Celles Sentier n°47 Sentier du hameau de la Chaussée à la ferme du Grand Hamal</desc>
<link href="https://chemins.be/pontacelles/sentier/47"/><trkseg>
<trkpt lat="50.490012" lon="4.380246"><time>2026-05-02T17:47:44Z</time></trkpt>
<trkpt lat="50.489400" lon="4.379739"><time>2026-05-02T17:57:44Z</time></trkpt>
<trkpt lat="50.488555" lon="4.379358"><time>2026-05-02T18:07:44Z</time></trkpt>
<trkpt lat="50.487395" lon="4.379217"><time>2026-05-02T18:17:44Z</time></trkpt>
<trkpt lat="50.486739" lon="4.379498"><time>2026-05-02T18:27:44Z</time></trkpt>
<trkpt lat="50.485139" lon="4.379371"><time>2026-05-02T18:37:44Z</time></trkpt>
<trkpt lat="50.483575" lon="4.379286"><time>2026-05-02T18:47:44Z</time></trkpt>
</trkseg>
</trk>
<trk>
<name>hpcpc48</name>
<cmt>q</cmt>
<desc>Pont-à-Celles Sentier n°48 Sentier du hameau de la Chaussée à la maison Bizet</desc>
<link href="https://chemins.be/pontacelles/sentier/48"/><trkseg>
<trkpt lat="50.490605" lon="4.379528"><time>2026-05-02T17:47:44Z</time></trkpt>
<trkpt lat="50.485876" lon="4.376680"><time>2026-05-02T17:57:44Z</time></trkpt>
<trkpt lat="50.485049" lon="4.375412"><time>2026-05-02T18:07:44Z</time></trkpt>
</trkseg>
</trk>
<trk>
<name>hpcpc49</name>
<cmt>q</cmt>
<desc>Pont-à-Celles Sentier n°49 Sentier du chemin de Courcelles à la maison Jacob</desc>
<link href="https://chemins.be/pontacelles/sentier/49"/><trkseg>
<trkpt lat="50.484483" lon="4.371610"><time>2026-05-02T17:47:44Z</time></trkpt>
<trkpt lat="50.484030" lon="4.372048"><time>2026-05-02T17:57:44Z</time></trkpt>
<trkpt lat="50.483751" lon="4.372619"><time>2026-05-02T18:07:44Z</time></trkpt>
<trkpt lat="50.483795" lon="4.372915"><time>2026-05-02T18:17:44Z</time></trkpt>
</trkseg>
</trk>
<trk>
<name>hpcpc50</name>
<cmt>q</cmt>
<desc>Pont-à-Celles Sentier n°50 Sentier du Château de Belle-vue à Gouy-le-Pieton</desc>
<link href="https://chemins.be/pontacelles/sentier/50"/><trkseg>
<trkpt lat="50.487414" lon="4.367182"><time>2026-05-02T17:47:44Z</time></trkpt>
<trkpt lat="50.487953" lon="4.360841"><time>2026-05-02T17:57:44Z</time></trkpt>
</trkseg>
</trk>
<trk>
<name>hpcpc51</name>
<cmt>v</cmt>
<desc>Pont-à-Celles Sentier n°51 Sentier du chemin de la Chaussée à la ruelle Davin</desc>
<link href="https://chemins.be/pontacelles/sentier/51"/><trkseg>
<trkpt lat="50.490820" lon="4.382247"><time>2026-05-02T17:47:44Z</time></trkpt>
<trkpt lat="50.491198" lon="4.382600"><time>2026-05-02T17:57:44Z</time></trkpt>
<trkpt lat="50.491414" lon="4.382558"><time>2026-05-02T18:07:44Z</time></trkpt>
</trkseg></trk>
<trk>
<name>hpcpc51</name>
<cmt>r</cmt>
<desc>Pont-à-Celles Sentier n°51 Sentier du chemin de la Chaussée à la ruelle Davin</desc>
<link href="https://chemins.be/pontacelles/sentier/51"/><trkseg>
<trkpt lat="50.491414" lon="4.382558"><time>2026-05-02T18:07:44Z</time></trkpt>
<trkpt lat="50.491602" lon="4.383107"><time>2026-05-02T18:17:44Z</time></trkpt>
</trkseg></trk>
<trk>
<name>hpcpc51</name>
<cmt>q</cmt>
<desc>Pont-à-Celles Sentier n°51 Sentier du chemin de la Chaussée à la ruelle Davin</desc>
<link href="https://chemins.be/pontacelles/sentier/51"/><trkseg>
<trkpt lat="50.491602" lon="4.383107"><time>2026-05-02T18:17:44Z</time></trkpt>
<trkpt lat="50.493535" lon="4.382699"><time>2026-05-02T18:27:44Z</time></trkpt>
<trkpt lat="50.495405" lon="4.383757"><time>2026-05-02T18:37:44Z</time></trkpt>
<trkpt lat="50.495711" lon="4.383954"><time>2026-05-02T18:47:44Z</time></trkpt>
<trkpt lat="50.496250" lon="4.386125"><time>2026-05-02T18:57:44Z</time></trkpt>
<trkpt lat="50.496591" lon="4.387055"><time>2026-05-02T19:07:44Z</time></trkpt>
<trkpt lat="50.497086" lon="4.387507"><time>2026-05-02T19:17:44Z</time></trkpt>
<trkpt lat="50.497346" lon="4.388507"><time>2026-05-02T19:27:44Z</time></trkpt>
</trkseg>
</trk>
<trk>
<name>hpcpc52</name>
<cmt>q</cmt>
<desc>Pont-à-Celles Sentier n°52 Sentier de la ferme Courriaux à la Neuvième Ecluse</desc>
<link href="https://chemins.be/pontacelles/sentier/52"/><trkseg>
<trkpt lat="50.490476" lon="4.378865"><time>2026-05-02T17:47:44Z</time></trkpt>
<trkpt lat="50.490712" lon="4.378479"><time>2026-05-02T17:57:44Z</time></trkpt>
<trkpt lat="50.492385" lon="4.374032"><time>2026-05-02T18:07:44Z</time></trkpt>
<trkpt lat="50.493554" lon="4.368817"><time>2026-05-02T18:17:44Z</time></trkpt>
<trkpt lat="50.494653" lon="4.366956"><time>2026-05-02T18:27:44Z</time></trkpt>
<trkpt lat="50.496536" lon="4.363630"><time>2026-05-02T18:37:44Z</time></trkpt>
<trkpt lat="50.497405" lon="4.362708"><time>2026-05-02T18:47:44Z</time></trkpt>
</trkseg>
</trk>
<trk>
<name>hpcpc52bis</name>
<cmt>q</cmt>
<desc>Pont-à-Celles Sentier n°52bis </desc>
<link href="https://chemins.be/pontacelles/sentier/52bis"/><trkseg>
<trkpt lat="50.490815" lon="4.382241"><time>2026-05-02T17:47:44Z</time></trkpt>
<trkpt lat="50.490528" lon="4.383636"><time>2026-05-02T17:57:44Z</time></trkpt>
</trkseg>
</trk>
<trk>
<name>hpcpc53</name>
<cmt>q</cmt>
<desc>Pont-à-Celles Sentier n°53 Sentier de la ferme Chantraine aux puits Courcelles Nord</desc>
<link href="https://chemins.be/pontacelles/sentier/53"/><trkseg>
<trkpt lat="50.505556" lon="4.366646"><time>2026-05-02T17:47:44Z</time></trkpt>
<trkpt lat="50.502985" lon="4.365646"><time>2026-05-02T17:57:44Z</time></trkpt>
</trkseg></trk>
<trk>
<name>hpcpc53</name>
<cmt>r</cmt>
<desc>Pont-à-Celles Sentier n°53 Sentier de la ferme Chantraine aux puits Courcelles Nord</desc>
<link href="https://chemins.be/pontacelles/sentier/53"/><trkseg>
<trkpt lat="50.502985" lon="4.365646"><time>2026-05-02T17:57:44Z</time></trkpt>
<trkpt lat="50.501987" lon="4.364476"><time>2026-05-02T18:07:44Z</time></trkpt>
</trkseg></trk>
<trk>
<name>hpcpc53</name>
<cmt>q</cmt>
<desc>Pont-à-Celles Sentier n°53 Sentier de la ferme Chantraine aux puits Courcelles Nord</desc>
<link href="https://chemins.be/pontacelles/sentier/53"/><trkseg>
<trkpt lat="50.501987" lon="4.364476"><time>2026-05-02T18:07:44Z</time></trkpt>
<trkpt lat="50.497177" lon="4.362207"><time>2026-05-02T18:17:44Z</time></trkpt>
<trkpt lat="50.496233" lon="4.360022"><time>2026-05-02T18:27:44Z</time></trkpt>
</trkseg></trk>
<trk>
<name>hpcpc53</name>
<cmt>r</cmt>
<desc>Pont-à-Celles Sentier n°53 Sentier de la ferme Chantraine aux puits Courcelles Nord</desc>
<link href="https://chemins.be/pontacelles/sentier/53"/><trkseg>
<trkpt lat="50.496233" lon="4.360022"><time>2026-05-02T18:27:44Z</time></trkpt>
<trkpt lat="50.495163" lon="4.360333"><time>2026-05-02T18:37:44Z</time></trkpt>
<trkpt lat="50.494120" lon="4.360953"><time>2026-05-02T18:47:44Z</time></trkpt>
</trkseg></trk>
<trk>
<name>hpcpc53</name>
<cmt>q</cmt>
<desc>Pont-à-Celles Sentier n°53 Sentier de la ferme Chantraine aux puits Courcelles Nord</desc>
<link href="https://chemins.be/pontacelles/sentier/53"/><trkseg>
<trkpt lat="50.494120" lon="4.360953"><time>2026-05-02T18:47:44Z</time></trkpt>
<trkpt lat="50.492430" lon="4.359403"><time>2026-05-02T18:57:44Z</time></trkpt>
<trkpt lat="50.490461" lon="4.358769"><time>2026-05-02T19:07:44Z</time></trkpt>
</trkseg>
</trk>
<trk>
<name>hpcpc54</name>
<cmt>v</cmt>
<desc>Pont-à-Celles Sentier n°54 Sentier de Luttre à Gouy-le-Pieton</desc>
<link href="https://chemins.be/pontacelles/sentier/54"/><trkseg>
<trkpt lat="50.504180" lon="4.381039"><time>2026-05-02T17:47:44Z</time></trkpt>
<trkpt lat="50.502940" lon="4.379108"><time>2026-05-02T17:57:44Z</time></trkpt>
<trkpt lat="50.503056" lon="4.378967"><time>2026-05-02T18:07:44Z</time></trkpt>
</trkseg></trk>
<trk>
<name>hpcpc54</name>
<cmt>r</cmt>
<desc>Pont-à-Celles Sentier n°54 Sentier de Luttre à Gouy-le-Pieton</desc>
<link href="https://chemins.be/pontacelles/sentier/54"/><trkseg>
<trkpt lat="50.503056" lon="4.378967"><time>2026-05-02T18:07:44Z</time></trkpt>
<trkpt lat="50.502436" lon="4.377698"><time>2026-05-02T18:17:44Z</time></trkpt>
<trkpt lat="50.501825" lon="4.376683"><time>2026-05-02T18:27:44Z</time></trkpt>
<trkpt lat="50.500674" lon="4.374413"><time>2026-05-02T18:37:44Z</time></trkpt>
</trkseg></trk>
<trk>
<name>hpcpc54</name>
<cmt>q</cmt>
<desc>Pont-à-Celles Sentier n°54 Sentier de Luttre à Gouy-le-Pieton</desc>
<link href="https://chemins.be/pontacelles/sentier/54"/><trkseg>
<trkpt lat="50.500674" lon="4.374413"><time>2026-05-02T18:37:44Z</time></trkpt>
<trkpt lat="50.500000" lon="4.373455"><time>2026-05-02T18:47:44Z</time></trkpt>
<trkpt lat="50.499497" lon="4.370621"><time>2026-05-02T18:57:44Z</time></trkpt>
<trkpt lat="50.498265" lon="4.365026"><time>2026-05-02T19:07:44Z</time></trkpt>
<trkpt lat="50.497339" lon="4.362559"><time>2026-05-02T19:17:44Z</time></trkpt>
<trkpt lat="50.496179" lon="4.360065"><time>2026-05-02T19:27:44Z</time></trkpt>
<trkpt lat="50.495010" lon="4.358740"><time>2026-05-02T19:37:44Z</time></trkpt>
</trkseg>
</trk>
<trk>
<name>hpcpc55</name>
<cmt>q</cmt>
<desc>Pont-à-Celles Sentier n°55 Sentier de la ferme de Courriaux à celle de l'Aunois</desc>
<link href="https://chemins.be/pontacelles/sentier/55"/><trkseg>
<trkpt lat="50.496421" lon="4.355470"><time>2026-05-02T17:47:44Z</time></trkpt>
<trkpt lat="50.495298" lon="4.357133"><time>2026-05-02T17:57:44Z</time></trkpt>
<trkpt lat="50.495001" lon="4.358740"><time>2026-05-02T18:07:44Z</time></trkpt>
</trkseg>
</trk>
<trk>
<name>hpcpc56</name>
<cmt>v</cmt>
<desc>Pont-à-Celles Sentier n°56 Sentier du Bois Renaut à la Chaussée</desc>
<link href="https://chemins.be/pontacelles/sentier/56"/><trkseg>
<trkpt lat="50.502517" lon="4.377867"><time>2026-05-02T17:47:44Z</time></trkpt>
<trkpt lat="50.501978" lon="4.378473"><time>2026-05-02T17:57:44Z</time></trkpt>
<trkpt lat="50.501843" lon="4.378515"><time>2026-05-02T18:07:44Z</time></trkpt>
<trkpt lat="50.501258" lon="4.378952"><time>2026-05-02T18:17:44Z</time></trkpt>
<trkpt lat="50.497662" lon="4.378585"><time>2026-05-02T18:27:44Z</time></trkpt>
</trkseg></trk>
<trk>
<name>hpcpc56</name>
<cmt>q</cmt>
<desc>Pont-à-Celles Sentier n°56 Sentier du Bois Renaut à la Chaussée</desc>
<link href="https://chemins.be/pontacelles/sentier/56"/><trkseg>
<trkpt lat="50.497662" lon="4.378585"><time>2026-05-02T18:27:44Z</time></trkpt>
<trkpt lat="50.496044" lon="4.377838"><time>2026-05-02T18:37:44Z</time></trkpt>
</trkseg></trk>
<trk>
<name>hpcpc56</name>
<cmt>r</cmt>
<desc>Pont-à-Celles Sentier n°56 Sentier du Bois Renaut à la Chaussée</desc>
<link href="https://chemins.be/pontacelles/sentier/56"/><trkseg>
<trkpt lat="50.496044" lon="4.377838"><time>2026-05-02T18:37:44Z</time></trkpt>
<trkpt lat="50.494956" lon="4.377823"><time>2026-05-02T18:47:44Z</time></trkpt>
<trkpt lat="50.493473" lon="4.379021"><time>2026-05-02T18:57:44Z</time></trkpt>
</trkseg></trk>
<trk>
<name>hpcpc56</name>
<cmt>q</cmt>
<desc>Pont-à-Celles Sentier n°56 Sentier du Bois Renaut à la Chaussée</desc>
<link href="https://chemins.be/pontacelles/sentier/56"/><trkseg>
<trkpt lat="50.493473" lon="4.379021"><time>2026-05-02T18:57:44Z</time></trkpt>
<trkpt lat="50.492538" lon="4.379303"><time>2026-05-02T19:07:44Z</time></trkpt>
<trkpt lat="50.491522" lon="4.379697"><time>2026-05-02T19:17:44Z</time></trkpt>
<trkpt lat="50.490731" lon="4.380007"><time>2026-05-02T19:27:44Z</time></trkpt>
</trkseg>
</trk>
<trk>
<name>hpcpc57</name>
<cmt>r</cmt>
<desc>Pont-à-Celles Sentier n°57 Sentier du Bois Renaut au hameau de l'Armoulin</desc>
<link href="https://chemins.be/pontacelles/sentier/57"/><trkseg>
<trkpt lat="50.496537" lon="4.388859"><time>2026-05-02T17:47:44Z</time></trkpt>
<trkpt lat="50.496771" lon="4.388620"><time>2026-05-02T17:57:44Z</time></trkpt>
</trkseg></trk>
<trk>
<name>hpcpc57</name>
<cmt>v</cmt>
<desc>Pont-à-Celles Sentier n°57 Sentier du Bois Renaut au hameau de l'Armoulin</desc>
<link href="https://chemins.be/pontacelles/sentier/57"/><trkseg>
<trkpt lat="50.496771" lon="4.388620"><time>2026-05-02T17:57:44Z</time></trkpt>
<trkpt lat="50.497149" lon="4.388832"><time>2026-05-02T18:07:44Z</time></trkpt>
<trkpt lat="50.497337" lon="4.388536"><time>2026-05-02T18:17:44Z</time></trkpt>
<trkpt lat="50.497742" lon="4.388071"><time>2026-05-02T18:27:44Z</time></trkpt>
<trkpt lat="50.499406" lon="4.386168"><time>2026-05-02T18:37:44Z</time></trkpt>
</trkseg></trk>
<trk>
<name>hpcpc57</name>
<cmt>r</cmt>
<desc>Pont-à-Celles Sentier n°57 Sentier du Bois Renaut au hameau de l'Armoulin</desc>
<link href="https://chemins.be/pontacelles/sentier/57"/><trkseg>
<trkpt lat="50.499406" lon="4.386168"><time>2026-05-02T18:37:44Z</time></trkpt>
<trkpt lat="50.500242" lon="4.385027"><time>2026-05-02T18:47:44Z</time></trkpt>
</trkseg></trk>
<trk>
<name>hpcpc57</name>
<cmt>v</cmt>
<desc>Pont-à-Celles Sentier n°57 Sentier du Bois Renaut au hameau de l'Armoulin</desc>
<link href="https://chemins.be/pontacelles/sentier/57"/><trkseg>
<trkpt lat="50.500242" lon="4.385027"><time>2026-05-02T18:47:44Z</time></trkpt>
<trkpt lat="50.501258" lon="4.383914"><time>2026-05-02T18:57:44Z</time></trkpt>
<trkpt lat="50.501914" lon="4.382575"><time>2026-05-02T19:07:44Z</time></trkpt>
<trkpt lat="50.502301" lon="4.379798"><time>2026-05-02T19:17:44Z</time></trkpt>
<trkpt lat="50.502949" lon="4.379079"><time>2026-05-02T19:27:44Z</time></trkpt>
</trkseg>
</trk>
<trk>
<name>hpcpc58</name>
<cmt>v</cmt>
<desc>Pont-à-Celles Sentier n°58 Sentier de Pont-à-Celles à la Neuvième Ecluse</desc>
<link href="https://chemins.be/pontacelles/sentier/58"/><trkseg>
<trkpt lat="50.510051" lon="4.365716"><time>2026-05-02T17:47:44Z</time></trkpt>
<trkpt lat="50.509602" lon="4.365053"><time>2026-05-02T17:57:44Z</time></trkpt>
<trkpt lat="50.508046" lon="4.365279"><time>2026-05-02T18:07:44Z</time></trkpt>
<trkpt lat="50.507192" lon="4.365589"><time>2026-05-02T18:17:44Z</time></trkpt>
<trkpt lat="50.505583" lon="4.366773"><time>2026-05-02T18:27:44Z</time></trkpt>
</trkseg></trk>
<trk>
<name>hpcpc58</name>
<cmt>r</cmt>
<desc>Pont-à-Celles Sentier n°58 Sentier de Pont-à-Celles à la Neuvième Ecluse</desc>
<link href="https://chemins.be/pontacelles/sentier/58"/><trkseg>
<trkpt lat="50.505583" lon="4.366773"><time>2026-05-02T18:27:44Z</time></trkpt>
<trkpt lat="50.505260" lon="4.367168"><time>2026-05-02T18:37:44Z</time></trkpt>
<trkpt lat="50.504612" lon="4.368070"><time>2026-05-02T18:47:44Z</time></trkpt>
<trkpt lat="50.504001" lon="4.369156"><time>2026-05-02T18:57:44Z</time></trkpt>
<trkpt lat="50.503381" lon="4.370227"><time>2026-05-02T19:07:44Z</time></trkpt>
<trkpt lat="50.502643" lon="4.370988"><time>2026-05-02T19:17:44Z</time></trkpt>
<trkpt lat="50.500980" lon="4.373864"><time>2026-05-02T19:27:44Z</time></trkpt>
<trkpt lat="50.500189" lon="4.375118"><time>2026-05-02T19:37:44Z</time></trkpt>
<trkpt lat="50.499937" lon="4.375428"><time>2026-05-02T19:47:44Z</time></trkpt>
<trkpt lat="50.499371" lon="4.375738"><time>2026-05-02T19:57:44Z</time></trkpt>
<trkpt lat="50.498166" lon="4.377908"><time>2026-05-02T20:07:44Z</time></trkpt>
<trkpt lat="50.497689" lon="4.378571"><time>2026-05-02T20:17:44Z</time></trkpt>
<trkpt lat="50.496341" lon="4.379994"><time>2026-05-02T20:27:44Z</time></trkpt>
</trkseg></trk>
<trk>
<name>hpcpc58</name>
<cmt>q</cmt>
<desc>Pont-à-Celles Sentier n°58 Sentier de Pont-à-Celles à la Neuvième Ecluse</desc>
<link href="https://chemins.be/pontacelles/sentier/58"/><trkseg>
<trkpt lat="50.496341" lon="4.379994"><time>2026-05-02T20:27:44Z</time></trkpt>
<trkpt lat="50.494300" lon="4.383136"><time>2026-05-02T20:37:44Z</time></trkpt>
<trkpt lat="50.492825" lon="4.385673"><time>2026-05-02T20:47:44Z</time></trkpt>
</trkseg>
</trk>
<trk>
<name>hpcpc59</name>
<cmt>v</cmt>
<desc>Pont-à-Celles Sentier n°59 Sentier du Marais Roseau à la maison Chantraine</desc>
<link href="https://chemins.be/pontacelles/sentier/59"/><trkseg>
<trkpt lat="50.511031" lon="4.360668"><time>2026-05-02T17:47:44Z</time></trkpt>
<trkpt lat="50.510671" lon="4.361247"><time>2026-05-02T17:57:44Z</time></trkpt>
<trkpt lat="50.510330" lon="4.360711"><time>2026-05-02T18:07:44Z</time></trkpt>
</trkseg></trk>
<trk>
<name>hpcpc59</name>
<cmt>q</cmt>
<desc>Pont-à-Celles Sentier n°59 Sentier du Marais Roseau à la maison Chantraine</desc>
<link href="https://chemins.be/pontacelles/sentier/59"/><trkseg>
<trkpt lat="50.510330" lon="4.360711"><time>2026-05-02T18:07:44Z</time></trkpt>
<trkpt lat="50.507822" lon="4.363221"><time>2026-05-02T18:17:44Z</time></trkpt>
<trkpt lat="50.507219" lon="4.364151"><time>2026-05-02T18:27:44Z</time></trkpt>
<trkpt lat="50.507165" lon="4.365561"><time>2026-05-02T18:37:44Z</time></trkpt>
</trkseg>
</trk>
<trk>
<name>hpcpc6</name>
<cmt>v</cmt>
<desc>Pont-à-Celles Chemin n°6 Chemin de la Genappe à Gouy-le-Pieton</desc>
<link href="https://chemins.be/pontacelles/chemin/6"/><trkseg>
<trkpt lat="50.502884" lon="4.344670"><time>2026-05-02T17:47:44Z</time></trkpt>
<trkpt lat="50.503522" lon="4.346207"><time>2026-05-02T17:57:44Z</time></trkpt>
<trkpt lat="50.506544" lon="4.352902"><time>2026-05-02T18:07:44Z</time></trkpt>
<trkpt lat="50.507201" lon="4.354692"><time>2026-05-02T18:17:44Z</time></trkpt>
</trkseg></trk>
<trk>
<name>hpcpc6</name>
<cmt>r</cmt>
<desc>Pont-à-Celles Chemin n°6 Chemin de la Genappe à Gouy-le-Pieton</desc>
<link href="https://chemins.be/pontacelles/chemin/6"/><trkseg>
<trkpt lat="50.507201" lon="4.354692"><time>2026-05-02T18:17:44Z</time></trkpt>
<trkpt lat="50.507399" lon="4.356693"><time>2026-05-02T18:27:44Z</time></trkpt>
<trkpt lat="50.509296" lon="4.358117"><time>2026-05-02T18:37:44Z</time></trkpt>
<trkpt lat="50.511220" lon="4.360767"><time>2026-05-02T18:47:44Z</time></trkpt>
<trkpt lat="50.512515" lon="4.362910"><time>2026-05-02T18:57:44Z</time></trkpt>
</trkseg></trk>
<trk>
<name>hpcpc6</name>
<cmt>v</cmt>
<desc>Pont-à-Celles Chemin n°6 Chemin de la Genappe à Gouy-le-Pieton</desc>
<link href="https://chemins.be/pontacelles/chemin/6"/><trkseg>
<trkpt lat="50.512515" lon="4.362910"><time>2026-05-02T18:57:44Z</time></trkpt>
<trkpt lat="50.513523" lon="4.363439"><time>2026-05-02T19:07:44Z</time></trkpt>
</trkseg></trk>
<trk>
<name>hpcpc6</name>
<cmt>r</cmt>
<desc>Pont-à-Celles Chemin n°6 Chemin de la Genappe à Gouy-le-Pieton</desc>
<link href="https://chemins.be/pontacelles/chemin/6"/><trkseg>
<trkpt lat="50.513523" lon="4.363439"><time>2026-05-02T19:07:44Z</time></trkpt>
<trkpt lat="50.513645" lon="4.363267"><time>2026-05-02T19:17:44Z</time></trkpt>
<trkpt lat="50.514825" lon="4.363615"><time>2026-05-02T19:27:44Z</time></trkpt>
<trkpt lat="50.517972" lon="4.365645"><time>2026-05-02T19:37:44Z</time></trkpt>
<trkpt lat="50.518907" lon="4.367125"><time>2026-05-02T19:47:44Z</time></trkpt>
<trkpt lat="50.519185" lon="4.368409"><time>2026-05-02T19:57:44Z</time></trkpt>
</trkseg></trk>
<trk>
<name>hpcpc6</name>
<cmt>v</cmt>
<desc>Pont-à-Celles Chemin n°6 Chemin de la Genappe à Gouy-le-Pieton</desc>
<link href="https://chemins.be/pontacelles/chemin/6"/><trkseg>
<trkpt lat="50.519185" lon="4.368409"><time>2026-05-02T19:57:44Z</time></trkpt>
<trkpt lat="50.519815" lon="4.368564"><time>2026-05-02T20:07:44Z</time></trkpt>
<trkpt lat="50.520174" lon="4.369382"><time>2026-05-02T20:17:44Z</time></trkpt>
<trkpt lat="50.520849" lon="4.370862"><time>2026-05-02T20:27:44Z</time></trkpt>
</trkseg>
</trk>
<trk>
<name>hpcpc60</name>
<cmt>v</cmt>
<desc>Pont-à-Celles Sentier n°60 Sentier du Marais Roseau à Neuvilles</desc>
<link href="https://chemins.be/pontacelles/sentier/60"/><trkseg>
<trkpt lat="50.510968" lon="4.364137"><time>2026-05-02T17:47:44Z</time></trkpt>
<trkpt lat="50.510276" lon="4.363051"><time>2026-05-02T17:57:44Z</time></trkpt>
<trkpt lat="50.510869" lon="4.361937"><time>2026-05-02T18:07:44Z</time></trkpt>
<trkpt lat="50.510968" lon="4.361754"><time>2026-05-02T18:17:44Z</time></trkpt>
</trkseg></trk>
<trk>
<name>hpcpc60</name>
<cmt>q</cmt>
<desc>Pont-à-Celles Sentier n°60 Sentier du Marais Roseau à Neuvilles</desc>
<link href="https://chemins.be/pontacelles/sentier/60"/><trkseg>
<trkpt lat="50.510968" lon="4.361754"><time>2026-05-02T18:17:44Z</time></trkpt>
<trkpt lat="50.511337" lon="4.361246"><time>2026-05-02T18:27:44Z</time></trkpt>
</trkseg>
</trk>
<trk>
<name>hpcpc61</name>
<cmt>q</cmt>
<desc>Pont-à-Celles Sentier n°61 Sentier de la Pâture Demaret au chemin du Poirier</desc>
<link href="https://chemins.be/pontacelles/sentier/61"/><trkseg>
<trkpt lat="50.510276" lon="4.360654"><time>2026-05-02T17:47:44Z</time></trkpt>
<trkpt lat="50.507660" lon="4.360472"><time>2026-05-02T17:57:44Z</time></trkpt>
<trkpt lat="50.505853" lon="4.359231"><time>2026-05-02T18:07:44Z</time></trkpt>
</trkseg>
</trk>
<trk>
<name>hpcpc62</name>
<cmt>v</cmt>
<desc>Pont-à-Celles Sentier n°62 Sentier de l'église à la Chapelle Notre Dame</desc>
<link href="https://chemins.be/pontacelles/sentier/62"/><trkseg>
<trkpt lat="50.511517" lon="4.363037"><time>2026-05-02T17:47:44Z</time></trkpt>
<trkpt lat="50.511175" lon="4.362487"><time>2026-05-02T17:57:44Z</time></trkpt>
<trkpt lat="50.510914" lon="4.361923"><time>2026-05-02T18:07:44Z</time></trkpt>
<trkpt lat="50.510995" lon="4.361754"><time>2026-05-02T18:17:44Z</time></trkpt>
<trkpt lat="50.510330" lon="4.360697"><time>2026-05-02T18:27:44Z</time></trkpt>
<trkpt lat="50.509494" lon="4.359513"><time>2026-05-02T18:37:44Z</time></trkpt>
<trkpt lat="50.509359" lon="4.359499"><time>2026-05-02T18:47:44Z</time></trkpt>
<trkpt lat="50.509053" lon="4.358935"><time>2026-05-02T18:57:44Z</time></trkpt>
</trkseg></trk>
<trk>
<name>hpcpc62</name>
<cmt>q</cmt>
<desc>Pont-à-Celles Sentier n°62 Sentier de l'église à la Chapelle Notre Dame</desc>
<link href="https://chemins.be/pontacelles/sentier/62"/><trkseg>
<trkpt lat="50.509053" lon="4.358935"><time>2026-05-02T18:57:44Z</time></trkpt>
<trkpt lat="50.508082" lon="4.357271"><time>2026-05-02T19:07:44Z</time></trkpt>
</trkseg>
</trk>
<trk>
<name>hpcpc63</name>
<cmt>v</cmt>
<desc>Pont-à-Celles Sentier n°63 Sentier de la Pâture Demaret aux Prés d'Hériamont</desc>
<link href="https://chemins.be/pontacelles/sentier/63"/><trkseg>
<trkpt lat="50.509071" lon="4.358864"><time>2026-05-02T17:47:44Z</time></trkpt>
<trkpt lat="50.509323" lon="4.358272"><time>2026-05-02T17:57:44Z</time></trkpt>
<trkpt lat="50.509242" lon="4.358187"><time>2026-05-02T18:07:44Z</time></trkpt>
</trkseg></trk>
<trk>
<name>hpcpc63</name>
<cmt>r</cmt>
<desc>Pont-à-Celles Sentier n°63 Sentier de la Pâture Demaret aux Prés d'Hériamont</desc>
<link href="https://chemins.be/pontacelles/sentier/63"/><trkseg>
<trkpt lat="50.509242" lon="4.358187"><time>2026-05-02T18:07:44Z</time></trkpt>
<trkpt lat="50.509637" lon="4.357017"><time>2026-05-02T18:17:44Z</time></trkpt>
</trkseg></trk>
<trk>
<name>hpcpc63</name>
<cmt>v</cmt>
<desc>Pont-à-Celles Sentier n°63 Sentier de la Pâture Demaret aux Prés d'Hériamont</desc>
<link href="https://chemins.be/pontacelles/sentier/63"/><trkseg>
<trkpt lat="50.509637" lon="4.357017"><time>2026-05-02T18:17:44Z</time></trkpt>
<trkpt lat="50.510221" lon="4.355664"><time>2026-05-02T18:27:44Z</time></trkpt>
<trkpt lat="50.510203" lon="4.355424"><time>2026-05-02T18:37:44Z</time></trkpt>
</trkseg></trk>
<trk>
<name>hpcpc63</name>
<cmt>r</cmt>
<desc>Pont-à-Celles Sentier n°63 Sentier de la Pâture Demaret aux Prés d'Hériamont</desc>
<link href="https://chemins.be/pontacelles/sentier/63"/><trkseg>
<trkpt lat="50.510203" lon="4.355424"><time>2026-05-02T18:37:44Z</time></trkpt>
<trkpt lat="50.510878" lon="4.355255"><time>2026-05-02T18:47:44Z</time></trkpt>
</trkseg></trk>
<trk>
<name>hpcpc63</name>
<cmt>v</cmt>
<desc>Pont-à-Celles Sentier n°63 Sentier de la Pâture Demaret aux Prés d'Hériamont</desc>
<link href="https://chemins.be/pontacelles/sentier/63"/><trkseg>
<trkpt lat="50.510878" lon="4.355255"><time>2026-05-02T18:47:44Z</time></trkpt>
<trkpt lat="50.510887" lon="4.355029"><time>2026-05-02T18:57:44Z</time></trkpt>
<trkpt lat="50.511498" lon="4.354676"><time>2026-05-02T19:07:44Z</time></trkpt>
<trkpt lat="50.512289" lon="4.353464"><time>2026-05-02T19:17:44Z</time></trkpt>
</trkseg></trk>
<trk>
<name>hpcpc63</name>
<cmt>r</cmt>
<desc>Pont-à-Celles Sentier n°63 Sentier de la Pâture Demaret aux Prés d'Hériamont</desc>
<link href="https://chemins.be/pontacelles/sentier/63"/><trkseg>
<trkpt lat="50.512289" lon="4.353464"><time>2026-05-02T19:17:44Z</time></trkpt>
<trkpt lat="50.511480" lon="4.352674"><time>2026-05-02T19:27:44Z</time></trkpt>
<trkpt lat="50.512028" lon="4.352138"><time>2026-05-02T19:37:44Z</time></trkpt>
</trkseg></trk>
<trk>
<name>hpcpc63</name>
<cmt>v</cmt>
<desc>Pont-à-Celles Sentier n°63 Sentier de la Pâture Demaret aux Prés d'Hériamont</desc>
<link href="https://chemins.be/pontacelles/sentier/63"/><trkseg>
<trkpt lat="50.512028" lon="4.352138"><time>2026-05-02T19:37:44Z</time></trkpt>
<trkpt lat="50.512891" lon="4.351475"><time>2026-05-02T19:47:44Z</time></trkpt>
</trkseg>
</trk>
<trk>
<name>hpcpc64</name>
<cmt>s</cmt>
<desc>Pont-à-Celles Sentier n°64 Sentier de la ferme de Neuvilles au Bassin du Canal</desc>
<link href="https://chemins.be/pontacelles/sentier/64"/><trkseg>
<trkpt lat="50.508245" lon="4.368809"><time>2026-05-02T17:47:44Z</time></trkpt>
<trkpt lat="50.508590" lon="4.371119"><time>2026-05-02T17:57:44Z</time></trkpt>
</trkseg></trk>
<trk>
<name>hpcpc64</name>
<cmt>q</cmt>
<desc>Pont-à-Celles Sentier n°64 Sentier de la ferme de Neuvilles au Bassin du Canal</desc>
<link href="https://chemins.be/pontacelles/sentier/64"/><trkseg>
<trkpt lat="50.508590" lon="4.371119"><time>2026-05-02T17:57:44Z</time></trkpt>
<trkpt lat="50.509323" lon="4.372879"><time>2026-05-02T18:07:44Z</time></trkpt>
</trkseg></trk>
<trk>
<name>hpcpc64</name>
<cmt>s</cmt>
<desc>Pont-à-Celles Sentier n°64 Sentier de la ferme de Neuvilles au Bassin du Canal</desc>
<link href="https://chemins.be/pontacelles/sentier/64"/><trkseg>
<trkpt lat="50.509323" lon="4.372879"><time>2026-05-02T18:07:44Z</time></trkpt>
<trkpt lat="50.509814" lon="4.373844"><time>2026-05-02T18:17:44Z</time></trkpt>
</trkseg>
</trk>
<trk>
<name>hpcpc66</name>
<cmt>q</cmt>
<desc>Pont-à-Celles Sentier n°66 Sentier de la maison Tordeur à celle Semal</desc>
<link href="https://chemins.be/pontacelles/sentier/66"/><trkseg>
<trkpt lat="50.505631" lon="4.338232"><time>2026-05-02T17:47:44Z</time></trkpt>
<trkpt lat="50.505694" lon="4.338700"><time>2026-05-02T17:57:44Z</time></trkpt>
<trkpt lat="50.505798" lon="4.338773"><time>2026-05-02T18:07:44Z</time></trkpt>
<trkpt lat="50.505849" lon="4.339288"><time>2026-05-02T18:17:44Z</time></trkpt>
</trkseg>
</trk>
<trk>
<name>hpcpc67</name>
<cmt>v</cmt>
<desc>Pont-à-Celles Sentier n°67 Sentier du chemin Manchette à celui de l'Aunois</desc>
<link href="https://chemins.be/pontacelles/sentier/67"/><trkseg>
<trkpt lat="50.510212" lon="4.355452"><time>2026-05-02T17:47:44Z</time></trkpt>
<trkpt lat="50.510428" lon="4.357313"><time>2026-05-02T17:57:44Z</time></trkpt>
</trkseg>
</trk>
<trk>
<name>hpcpc68</name>
<cmt>v</cmt>
<desc>Pont-à-Celles Sentier n°68 Sentier du hameau de Fichaux à la maison Simon</desc>
<link href="https://chemins.be/pontacelles/sentier/68"/><trkseg>
<trkpt lat="50.510905" lon="4.355240"><time>2026-05-02T17:47:44Z</time></trkpt>
<trkpt lat="50.510986" lon="4.355128"><time>2026-05-02T17:57:44Z</time></trkpt>
<trkpt lat="50.511624" lon="4.355057"><time>2026-05-02T18:07:44Z</time></trkpt>
<trkpt lat="50.511912" lon="4.355325"><time>2026-05-02T18:17:44Z</time></trkpt>
</trkseg>
</trk>
<trk>
<name>hpcpc69</name>
<cmt>v</cmt>
<desc>Pont-à-Celles Sentier n°69 Sentier du Vieux Pont au hameau de Fichaux</desc>
<link href="https://chemins.be/pontacelles/sentier/69"/><trkseg>
<trkpt lat="50.512693" lon="4.354879"><time>2026-05-02T17:47:44Z</time></trkpt>
<trkpt lat="50.513162" lon="4.355908"><time>2026-05-02T17:57:44Z</time></trkpt>
</trkseg></trk>
<trk>
<name>hpcpc69</name>
<cmt>r</cmt>
<desc>Pont-à-Celles Sentier n°69 Sentier du Vieux Pont au hameau de Fichaux</desc>
<link href="https://chemins.be/pontacelles/sentier/69"/><trkseg>
<trkpt lat="50.513162" lon="4.355908"><time>2026-05-02T17:57:44Z</time></trkpt>
<trkpt lat="50.513024" lon="4.357669"><time>2026-05-02T18:07:44Z</time></trkpt>
<trkpt lat="50.512993" lon="4.358063"><time>2026-05-02T18:17:44Z</time></trkpt>
<trkpt lat="50.512693" lon="4.358664"><time>2026-05-02T18:27:44Z</time></trkpt>
<trkpt lat="50.512305" lon="4.360432"><time>2026-05-02T18:37:44Z</time></trkpt>
<trkpt lat="50.512365" lon="4.361170"><time>2026-05-02T18:47:44Z</time></trkpt>
<trkpt lat="50.512730" lon="4.361585"><time>2026-05-02T18:57:44Z</time></trkpt>
</trkseg></trk>
<trk>
<name>hpcpc69</name>
<cmt>q</cmt>
<desc>Pont-à-Celles Sentier n°69 Sentier du Vieux Pont au hameau de Fichaux</desc>
<link href="https://chemins.be/pontacelles/sentier/69"/><trkseg>
<trkpt lat="50.512730" lon="4.361585"><time>2026-05-02T18:57:44Z</time></trkpt>
<trkpt lat="50.512730" lon="4.361937"><time>2026-05-02T19:07:44Z</time></trkpt>
<trkpt lat="50.512434" lon="4.362854"><time>2026-05-02T19:17:44Z</time></trkpt>
</trkseg>
</trk>
<trk>
<name>hpcpc7</name>
<cmt>v</cmt>
<desc>Pont-à-Celles Chemin n°7 Chemin de Luttre au hameau de la Bêterefaite </desc>
<link href="https://chemins.be/pontacelles/chemin/7"/><trkseg>
<trkpt lat="50.513759" lon="4.323559"><time>2026-05-02T17:47:44Z</time></trkpt>
<trkpt lat="50.514639" lon="4.328010"><time>2026-05-02T17:57:44Z</time></trkpt>
<trkpt lat="50.512019" lon="4.331730"><time>2026-05-02T18:07:44Z</time></trkpt>
</trkseg></trk>
<trk>
<name>hpcpc7</name>
<cmt>r</cmt>
<desc>Pont-à-Celles Chemin n°7 Chemin de Luttre au hameau de la Bêterefaite </desc>
<link href="https://chemins.be/pontacelles/chemin/7"/><trkseg>
<trkpt lat="50.512019" lon="4.331730"><time>2026-05-02T18:07:44Z</time></trkpt>
<trkpt lat="50.512019" lon="4.331740"><time>2026-05-02T18:17:44Z</time></trkpt>
<trkpt lat="50.513099" lon="4.336530"><time>2026-05-02T18:27:44Z</time></trkpt>
<trkpt lat="50.512609" lon="4.340460"><time>2026-05-02T18:37:44Z</time></trkpt>
<trkpt lat="50.512529" lon="4.341590"><time>2026-05-02T18:47:44Z</time></trkpt>
<trkpt lat="50.512819" lon="4.343410"><time>2026-05-02T18:57:44Z</time></trkpt>
<trkpt lat="50.513640" lon="4.345000"><time>2026-05-02T19:07:44Z</time></trkpt>
<trkpt lat="50.515020" lon="4.349450"><time>2026-05-02T19:17:44Z</time></trkpt>
<trkpt lat="50.516270" lon="4.352351"><time>2026-05-02T19:27:44Z</time></trkpt>
<trkpt lat="50.516850" lon="4.354451"><time>2026-05-02T19:37:44Z</time></trkpt>
<trkpt lat="50.517180" lon="4.354481"><time>2026-05-02T19:47:44Z</time></trkpt>
<trkpt lat="50.517650" lon="4.356141"><time>2026-05-02T19:57:44Z</time></trkpt>
<trkpt lat="50.517780" lon="4.357041"><time>2026-05-02T20:07:44Z</time></trkpt>
<trkpt lat="50.517710" lon="4.358061"><time>2026-05-02T20:17:44Z</time></trkpt>
<trkpt lat="50.518380" lon="4.359501"><time>2026-05-02T20:27:44Z</time></trkpt>
<trkpt lat="50.518340" lon="4.361041"><time>2026-05-02T20:37:44Z</time></trkpt>
<trkpt lat="50.518830" lon="4.362891"><time>2026-05-02T20:47:44Z</time></trkpt>
<trkpt lat="50.518790" lon="4.363571"><time>2026-05-02T20:57:44Z</time></trkpt>
<trkpt lat="50.519160" lon="4.366221"><time>2026-05-02T21:07:44Z</time></trkpt>
<trkpt lat="50.518940" lon="4.367141"><time>2026-05-02T21:17:44Z</time></trkpt>
<trkpt lat="50.519160" lon="4.368391"><time>2026-05-02T21:27:44Z</time></trkpt>
</trkseg></trk>
<trk>
<name>hpcpc7</name>
<cmt>v</cmt>
<desc>Pont-à-Celles Chemin n°7 Chemin de Luttre au hameau de la Bêterefaite </desc>
<link href="https://chemins.be/pontacelles/chemin/7"/><trkseg>
<trkpt lat="50.519160" lon="4.368391"><time>2026-05-02T21:27:44Z</time></trkpt>
<trkpt lat="50.519140" lon="4.368391"><time>2026-05-02T21:37:44Z</time></trkpt>
<trkpt lat="50.518680" lon="4.369111"><time>2026-05-02T21:47:44Z</time></trkpt>
<trkpt lat="50.518910" lon="4.370751"><time>2026-05-02T21:57:44Z</time></trkpt>
<trkpt lat="50.519260" lon="4.372241"><time>2026-05-02T22:07:44Z</time></trkpt>
<trkpt lat="50.519523" lon="4.373631"><time>2026-05-02T22:17:44Z</time></trkpt>
<trkpt lat="50.519018" lon="4.376656"><time>2026-05-02T22:27:44Z</time></trkpt>
<trkpt lat="50.518541" lon="4.378180"><time>2026-05-02T22:37:44Z</time></trkpt>
<trkpt lat="50.518090" lon="4.379682"><time>2026-05-02T22:47:44Z</time></trkpt>
</trkseg>
</trk>
<trk>
<name>hpcpc70</name>
<cmt>v</cmt>
<desc>Pont-à-Celles Sentier n°70 Sentier de celui du Clerc au chemin du Ratintout</desc>
<link href="https://chemins.be/pontacelles/sentier/70"/><trkseg>
<trkpt lat="50.512658" lon="4.358638"><time>2026-05-02T17:47:44Z</time></trkpt>
<trkpt lat="50.511786" lon="4.357651"><time>2026-05-02T17:57:44Z</time></trkpt>
</trkseg>
</trk>
<trk>
<name>hpcpc71</name>
<cmt>r</cmt>
<desc>Pont-à-Celles Sentier n°71 Sentier de la ruelle du Chenier au hameau de l'Arnimont</desc>
<link href="https://chemins.be/pontacelles/sentier/71"/><trkseg>
<trkpt lat="50.512124" lon="4.358054"><time>2026-05-02T17:47:44Z</time></trkpt>
<trkpt lat="50.513068" lon="4.356869"><time>2026-05-02T17:57:44Z</time></trkpt>
</trkseg>
</trk>
<trk>
<name>hpcpc72</name>
<cmt>s</cmt>
<desc>Pont-à-Celles Sentier n°72 Sentier de Pont-à-Celles à Luttre</desc>
<link href="https://chemins.be/pontacelles/sentier/72"/><trkseg>
<trkpt lat="50.513162" lon="4.363262"><time>2026-05-02T17:47:44Z</time></trkpt>
<trkpt lat="50.512527" lon="4.365523"><time>2026-05-02T17:57:44Z</time></trkpt>
<trkpt lat="50.511915" lon="4.367909"><time>2026-05-02T18:07:44Z</time></trkpt>
<trkpt lat="50.512603" lon="4.371153"><time>2026-05-02T18:17:44Z</time></trkpt>
</trkseg>
</trk>
<trk>
<name>hpcpc73</name>
<cmt>v</cmt>
<desc>Pont-à-Celles Sentier n°73 Sentier de Pont-à-Celles à Rêves</desc>
<link href="https://chemins.be/pontacelles/sentier/73"/><trkseg>
<trkpt lat="50.513515" lon="4.364534"><time>2026-05-02T17:47:44Z</time></trkpt>
<trkpt lat="50.514120" lon="4.365423"><time>2026-05-02T17:57:44Z</time></trkpt>
</trkseg></trk>
<trk>
<name>hpcpc73</name>
<cmt>d</cmt>
<desc>Pont-à-Celles Sentier n°73 Sentier de Pont-à-Celles à Rêves</desc>
<link href="https://chemins.be/pontacelles/sentier/73"/><trkseg>
<trkpt lat="50.514120" lon="4.365423"><time>2026-05-02T17:57:44Z</time></trkpt>
<trkpt lat="50.516988" lon="4.368449"><time>2026-05-02T18:07:44Z</time></trkpt>
</trkseg></trk>
<trk>
<name>hpcpc73</name>
<cmt>s</cmt>
<desc>Pont-à-Celles Sentier n°73 Sentier de Pont-à-Celles à Rêves</desc>
<link href="https://chemins.be/pontacelles/sentier/73"/><trkseg>
<trkpt lat="50.516988" lon="4.368449"><time>2026-05-02T18:07:44Z</time></trkpt>
<trkpt lat="50.517356" lon="4.368837"><time>2026-05-02T18:17:44Z</time></trkpt>
</trkseg></trk>
<trk>
<name>hpcpc73</name>
<cmt>d</cmt>
<desc>Pont-à-Celles Sentier n°73 Sentier de Pont-à-Celles à Rêves</desc>
<link href="https://chemins.be/pontacelles/sentier/73"/><trkseg>
<trkpt lat="50.517356" lon="4.368837"><time>2026-05-02T18:17:44Z</time></trkpt>
<trkpt lat="50.517714" lon="4.370144"><time>2026-05-02T18:27:44Z</time></trkpt>
<trkpt lat="50.518563" lon="4.375971"><time>2026-05-02T18:37:44Z</time></trkpt>
</trkseg>
</trk>
<trk>
<name>hpcpc74</name>
<cmt>d</cmt>
<desc>Pont-à-Celles Sentier n°74 Sentier de Pont-à-Celles au hameau de Maillemont</desc>
<link href="https://chemins.be/pontacelles/sentier/74"/><trkseg>
<trkpt lat="50.515836" lon="4.364286"><time>2026-05-02T17:47:44Z</time></trkpt>
<trkpt lat="50.516961" lon="4.363779"><time>2026-05-02T17:57:44Z</time></trkpt>
<trkpt lat="50.518860" lon="4.363350"><time>2026-05-02T18:07:44Z</time></trkpt>
<trkpt lat="50.520443" lon="4.362775"><time>2026-05-02T18:17:44Z</time></trkpt>
<trkpt lat="50.521785" lon="4.361994"><time>2026-05-02T18:27:44Z</time></trkpt>
<trkpt lat="50.524934" lon="4.359685"><time>2026-05-02T18:37:44Z</time></trkpt>
</trkseg>
</trk>
<trk>
<name>hpcpc75</name>
<cmt>d</cmt>
<desc>Pont-à-Celles Sentier n°75 Sentier de celui de la Broustière à Obaix</desc>
<link href="https://chemins.be/pontacelles/sentier/75"/><trkseg>
<trkpt lat="50.524741" lon="4.363036"><time>2026-05-02T17:47:44Z</time></trkpt>
<trkpt lat="50.523752" lon="4.362810"><time>2026-05-02T17:57:44Z</time></trkpt>
<trkpt lat="50.522781" lon="4.363402"><time>2026-05-02T18:07:44Z</time></trkpt>
<trkpt lat="50.521963" lon="4.363163"><time>2026-05-02T18:17:44Z</time></trkpt>
<trkpt lat="50.520435" lon="4.362796"><time>2026-05-02T18:27:44Z</time></trkpt>
</trkseg>
</trk>
<trk>
<name>hpcpc76</name>
<cmt>d</cmt>
<desc>Pont-à-Celles Sentier n°76 Sentier du Canal au sentier de la Broustière</desc>
<link href="https://chemins.be/pontacelles/sentier/76"/><trkseg>
<trkpt lat="50.521851" lon="4.361951"><time>2026-05-02T17:47:44Z</time></trkpt>
<trkpt lat="50.518817" lon="4.360252"><time>2026-05-02T17:57:44Z</time></trkpt>
</trkseg></trk>
<trk>
<name>hpcpc76</name>
<cmt>v</cmt>
<desc>Pont-à-Celles Sentier n°76 Sentier du Canal au sentier de la Broustière</desc>
<link href="https://chemins.be/pontacelles/sentier/76"/><trkseg>
<trkpt lat="50.518817" lon="4.360252"><time>2026-05-02T17:57:44Z</time></trkpt>
<trkpt lat="50.518348" lon="4.359566"><time>2026-05-02T18:07:44Z</time></trkpt>
</trkseg></trk>
<trk>
<name>hpcpc76</name>
<cmt>d</cmt>
<desc>Pont-à-Celles Sentier n°76 Sentier du Canal au sentier de la Broustière</desc>
<link href="https://chemins.be/pontacelles/sentier/76"/><trkseg>
<trkpt lat="50.518348" lon="4.359566"><time>2026-05-02T18:07:44Z</time></trkpt>
<trkpt lat="50.516661" lon="4.358689"><time>2026-05-02T18:17:44Z</time></trkpt>
<trkpt lat="50.515521" lon="4.359230"><time>2026-05-02T18:27:44Z</time></trkpt>
<trkpt lat="50.514271" lon="4.359754"><time>2026-05-02T18:37:44Z</time></trkpt>
</trkseg></trk>
<trk>
<name>hpcpc76</name>
<cmt>s</cmt>
<desc>Pont-à-Celles Sentier n°76 Sentier du Canal au sentier de la Broustière</desc>
<link href="https://chemins.be/pontacelles/sentier/76"/><trkseg>
<trkpt lat="50.514271" lon="4.359754"><time>2026-05-02T18:37:44Z</time></trkpt>
<trkpt lat="50.513198" lon="4.363150"><time>2026-05-02T18:47:44Z</time></trkpt>
</trkseg>
</trk>
<trk>
<name>hpcpc77</name>
<cmt>v</cmt>
<desc>Pont-à-Celles Sentier n°77 Sentier du hameau de Fichaux à celui de Maillemont</desc>
<link href="https://chemins.be/pontacelles/sentier/77"/><trkseg>
<trkpt lat="50.515506" lon="4.355228"><time>2026-05-02T17:47:44Z</time></trkpt>
<trkpt lat="50.515602" lon="4.355404"><time>2026-05-02T17:57:44Z</time></trkpt>
</trkseg></trk>
<trk>
<name>hpcpc77</name>
<cmt>q</cmt>
<desc>Pont-à-Celles Sentier n°77 Sentier du hameau de Fichaux à celui de Maillemont</desc>
<link href="https://chemins.be/pontacelles/sentier/77"/><trkseg>
<trkpt lat="50.515602" lon="4.355404"><time>2026-05-02T17:57:44Z</time></trkpt>
<trkpt lat="50.517092" lon="4.356818"><time>2026-05-02T18:07:44Z</time></trkpt>
<trkpt lat="50.517812" lon="4.356981"><time>2026-05-02T18:17:44Z</time></trkpt>
<trkpt lat="50.518740" lon="4.358011"><time>2026-05-02T18:27:44Z</time></trkpt>
<trkpt lat="50.523488" lon="4.358801"><time>2026-05-02T18:37:44Z</time></trkpt>
<trkpt lat="50.524966" lon="4.359702"><time>2026-05-02T18:47:44Z</time></trkpt>
</trkseg>
</trk>
<trk>
<name>hpcpc78</name>
<cmt>q</cmt>
<desc>Pont-à-Celles Sentier n°78 Sentier du hameau d'Heriamont à celui de Maillemont</desc>
<link href="https://chemins.be/pontacelles/sentier/78"/><trkseg>
<trkpt lat="50.524903" lon="4.359228"><time>2026-05-02T17:47:44Z</time></trkpt>
<trkpt lat="50.523869" lon="4.357691"><time>2026-05-02T17:57:44Z</time></trkpt>
<trkpt lat="50.523194" lon="4.355731"><time>2026-05-02T18:07:44Z</time></trkpt>
<trkpt lat="50.522043" lon="4.353954"><time>2026-05-02T18:17:44Z</time></trkpt>
<trkpt lat="50.521998" lon="4.353630"><time>2026-05-02T18:27:44Z</time></trkpt>
<trkpt lat="50.519541" lon="4.350148"><time>2026-05-02T18:37:44Z</time></trkpt>
<trkpt lat="50.517773" lon="4.347590"><time>2026-05-02T18:47:44Z</time></trkpt>
<trkpt lat="50.515372" lon="4.344878"><time>2026-05-02T18:57:44Z</time></trkpt>
<trkpt lat="50.514422" lon="4.344621"><time>2026-05-02T19:07:44Z</time></trkpt>
</trkseg>
</trk>
<trk>
<name>hpcpc79</name>
<cmt>v</cmt>
<desc>Pont-à-Celles Sentier n°79 Sentier du hameau de Fichaux au Bois de Nauw</desc>
<link href="https://chemins.be/pontacelles/sentier/79"/><trkseg>
<trkpt lat="50.514761" lon="4.348725"><time>2026-05-02T17:47:44Z</time></trkpt>
<trkpt lat="50.514770" lon="4.348627"><time>2026-05-02T17:57:44Z</time></trkpt>
<trkpt lat="50.514707" lon="4.348331"><time>2026-05-02T18:07:44Z</time></trkpt>
<trkpt lat="50.514779" lon="4.348260"><time>2026-05-02T18:17:44Z</time></trkpt>
<trkpt lat="50.514931" lon="4.348119"><time>2026-05-02T18:27:44Z</time></trkpt>
<trkpt lat="50.514931" lon="4.347625"><time>2026-05-02T18:37:44Z</time></trkpt>
<trkpt lat="50.515385" lon="4.345012"><time>2026-05-02T18:47:44Z</time></trkpt>
<trkpt lat="50.515596" lon="4.343945"><time>2026-05-02T18:57:44Z</time></trkpt>
<trkpt lat="50.515874" lon="4.343043"><time>2026-05-02T19:07:44Z</time></trkpt>
<trkpt lat="50.515895" lon="4.342235"><time>2026-05-02T19:17:44Z</time></trkpt>
</trkseg></trk>
<trk>
<name>hpcpc79</name>
<cmt>r</cmt>
<desc>Pont-à-Celles Sentier n°79 Sentier du hameau de Fichaux au Bois de Nauw</desc>
<link href="https://chemins.be/pontacelles/sentier/79"/><trkseg>
<trkpt lat="50.515895" lon="4.342235"><time>2026-05-02T19:17:44Z</time></trkpt>
<trkpt lat="50.515895" lon="4.341226"><time>2026-05-02T19:27:44Z</time></trkpt>
<trkpt lat="50.516432" lon="4.340367"><time>2026-05-02T19:37:44Z</time></trkpt>
<trkpt lat="50.516420" lon="4.339519"><time>2026-05-02T19:47:44Z</time></trkpt>
<trkpt lat="50.516948" lon="4.338689"><time>2026-05-02T19:57:44Z</time></trkpt>
</trkseg></trk>
<trk>
<name>hpcpc79</name>
<cmt>v</cmt>
<desc>Pont-à-Celles Sentier n°79 Sentier du hameau de Fichaux au Bois de Nauw</desc>
<link href="https://chemins.be/pontacelles/sentier/79"/><trkseg>
<trkpt lat="50.516948" lon="4.338689"><time>2026-05-02T19:57:44Z</time></trkpt>
<trkpt lat="50.517941" lon="4.335337"><time>2026-05-02T20:07:44Z</time></trkpt>
<trkpt lat="50.518184" lon="4.332595"><time>2026-05-02T20:17:44Z</time></trkpt>
<trkpt lat="50.518821" lon="4.331403"><time>2026-05-02T20:27:44Z</time></trkpt>
<trkpt lat="50.518975" lon="4.329990"><time>2026-05-02T20:37:44Z</time></trkpt>
<trkpt lat="50.519351" lon="4.326539"><time>2026-05-02T20:47:44Z</time></trkpt>
<trkpt lat="50.518875" lon="4.325088"><time>2026-05-02T20:57:44Z</time></trkpt>
<trkpt lat="50.518836" lon="4.324060"><time>2026-05-02T21:07:44Z</time></trkpt>
<trkpt lat="50.519033" lon="4.323082"><time>2026-05-02T21:17:44Z</time></trkpt>
<trkpt lat="50.518857" lon="4.319633"><time>2026-05-02T21:27:44Z</time></trkpt>
<trkpt lat="50.520330" lon="4.315524"><time>2026-05-02T21:37:44Z</time></trkpt>
<trkpt lat="50.522581" lon="4.310535"><time>2026-05-02T21:47:44Z</time></trkpt>
</trkseg>
</trk>
<trk>
<name>hpcpc8</name>
<cmt>s</cmt>
<desc>Pont-à-Celles Chemin n°8 Chemin du hameau de Fichaux à celui d'Heriamont</desc>
<link href="https://chemins.be/pontacelles/chemin/8"/><trkseg>
<trkpt lat="50.515071" lon="4.355351"><time>2026-05-02T17:47:44Z</time></trkpt>
<trkpt lat="50.514921" lon="4.354596"><time>2026-05-02T17:57:44Z</time></trkpt>
<trkpt lat="50.514984" lon="4.354068"><time>2026-05-02T18:07:44Z</time></trkpt>
</trkseg></trk>
<trk>
<name>hpcpc8</name>
<cmt>d</cmt>
<desc>Pont-à-Celles Chemin n°8 Chemin du hameau de Fichaux à celui d'Heriamont</desc>
<link href="https://chemins.be/pontacelles/chemin/8"/><trkseg>
<trkpt lat="50.514984" lon="4.354068"><time>2026-05-02T18:07:44Z</time></trkpt>
<trkpt lat="50.515123" lon="4.353579"><time>2026-05-02T18:17:44Z</time></trkpt>
<trkpt lat="50.515112" lon="4.352701"><time>2026-05-02T18:27:44Z</time></trkpt>
<trkpt lat="50.515013" lon="4.352349"><time>2026-05-02T18:37:44Z</time></trkpt>
</trkseg></trk>
<trk>
<name>hpcpc8</name>
<cmt>v</cmt>
<desc>Pont-à-Celles Chemin n°8 Chemin du hameau de Fichaux à celui d'Heriamont</desc>
<link href="https://chemins.be/pontacelles/chemin/8"/><trkseg>
<trkpt lat="50.515013" lon="4.352349"><time>2026-05-02T18:37:44Z</time></trkpt>
<trkpt lat="50.515031" lon="4.352095"><time>2026-05-02T18:47:44Z</time></trkpt>
<trkpt lat="50.515040" lon="4.351743"><time>2026-05-02T18:57:44Z</time></trkpt>
<trkpt lat="50.515004" lon="4.350826"><time>2026-05-02T19:07:44Z</time></trkpt>
<trkpt lat="50.515004" lon="4.350333"><time>2026-05-02T19:17:44Z</time></trkpt>
<trkpt lat="50.515057" lon="4.349444"><time>2026-05-02T19:27:44Z</time></trkpt>
</trkseg>
</trk>
<trk>
<name>hpcpc80</name>
<cmt>v</cmt>
<desc>Pont-à-Celles Sentier n°80 Sentier du hameau de Hériamont à celui de Rosignies</desc>
<link href="https://chemins.be/pontacelles/sentier/80"/><trkseg>
<trkpt lat="50.514148" lon="4.344468"><time>2026-05-02T17:47:44Z</time></trkpt>
<trkpt lat="50.514319" lon="4.344623"><time>2026-05-02T17:57:44Z</time></trkpt>
<trkpt lat="50.514526" lon="4.344397"><time>2026-05-02T18:07:44Z</time></trkpt>
<trkpt lat="50.515101" lon="4.343988"><time>2026-05-02T18:17:44Z</time></trkpt>
<trkpt lat="50.515398" lon="4.343931"><time>2026-05-02T18:27:44Z</time></trkpt>
<trkpt lat="50.515614" lon="4.343931"><time>2026-05-02T18:37:44Z</time></trkpt>
<trkpt lat="50.515848" lon="4.343945"><time>2026-05-02T18:47:44Z</time></trkpt>
<trkpt lat="50.516881" lon="4.343056"><time>2026-05-02T18:57:44Z</time></trkpt>
<trkpt lat="50.517430" lon="4.342371"><time>2026-05-02T19:07:44Z</time></trkpt>
<trkpt lat="50.518349" lon="4.342042"><time>2026-05-02T19:17:44Z</time></trkpt>
<trkpt lat="50.519595" lon="4.342214"><time>2026-05-02T19:27:44Z</time></trkpt>
</trkseg></trk>
<trk>
<name>hpcpc80</name>
<cmt>q</cmt>
<desc>Pont-à-Celles Sentier n°80 Sentier du hameau de Hériamont à celui de Rosignies</desc>
<link href="https://chemins.be/pontacelles/sentier/80"/><trkseg>
<trkpt lat="50.519595" lon="4.342214"><time>2026-05-02T19:27:44Z</time></trkpt>
<trkpt lat="50.521623" lon="4.340926"><time>2026-05-02T19:37:44Z</time></trkpt>
<trkpt lat="50.522969" lon="4.338938"><time>2026-05-02T19:47:44Z</time></trkpt>
</trkseg>
</trk>
<trk>
<name>hpcpc81</name>
<cmt>q</cmt>
<desc>Pont-à-Celles Sentier n°81 Sentier du hameau de Maillemont au Cabaret Gofin</desc>
<link href="https://chemins.be/pontacelles/sentier/81"/><trkseg>
<trkpt lat="50.525787" lon="4.360632"><time>2026-05-02T17:47:44Z</time></trkpt>
<trkpt lat="50.526224" lon="4.356963"><time>2026-05-02T17:57:44Z</time></trkpt>
</trkseg>
</trk>
<trk>
<name>hpcpc82</name>
<cmt>q</cmt>
<desc>Pont-à-Celles Sentier n°82 Sentier du Moulin Lehos au hameau d'Hériamont</desc>
<link href="https://chemins.be/pontacelles/sentier/82"/><trkseg>
<trkpt lat="50.518056" lon="4.350736"><time>2026-05-02T17:47:44Z</time></trkpt>
<trkpt lat="50.517379" lon="4.347105"><time>2026-05-02T17:57:44Z</time></trkpt>
</trkseg>
</trk>
<trk>
<name>hpcpc83</name>
<cmt>q</cmt>
<desc>Pont-à-Celles Sentier n°83 Sentier de la ferme Lehos au sentier du Grand Champ</desc>
<link href="https://chemins.be/pontacelles/sentier/83"/><trkseg>
<trkpt lat="50.515004" lon="4.352339"><time>2026-05-02T17:47:44Z</time></trkpt>
<trkpt lat="50.516071" lon="4.351918"><time>2026-05-02T17:57:44Z</time></trkpt>
</trkseg></trk>
<trk>
<name>hpcpc83</name>
<cmt>v</cmt>
<desc>Pont-à-Celles Sentier n°83 Sentier de la ferme Lehos au sentier du Grand Champ</desc>
<link href="https://chemins.be/pontacelles/sentier/83"/><trkseg>
<trkpt lat="50.516071" lon="4.351918"><time>2026-05-02T17:57:44Z</time></trkpt>
<trkpt lat="50.518056" lon="4.350728"><time>2026-05-02T18:07:44Z</time></trkpt>
</trkseg></trk>
<trk>
<name>hpcpc83</name>
<cmt>q</cmt>
<desc>Pont-à-Celles Sentier n°83 Sentier de la ferme Lehos au sentier du Grand Champ</desc>
<link href="https://chemins.be/pontacelles/sentier/83"/><trkseg>
<trkpt lat="50.518056" lon="4.350728"><time>2026-05-02T18:07:44Z</time></trkpt>
<trkpt lat="50.519524" lon="4.350127"><time>2026-05-02T18:17:44Z</time></trkpt>
</trkseg>
</trk>
<trk>
<name>hpcpc84</name>
<cmt>v</cmt>
<desc>Pont-à-Celles Sentier n°84 Sentier du Marais Roseau au hameau de la Roquette</desc>
<link href="https://chemins.be/pontacelles/sentier/84"/><trkseg>
<trkpt lat="50.510393" lon="4.359555"><time>2026-05-02T17:47:44Z</time></trkpt>
<trkpt lat="50.510662" lon="4.359188"><time>2026-05-02T17:57:44Z</time></trkpt>
<trkpt lat="50.511004" lon="4.359414"><time>2026-05-02T18:07:44Z</time></trkpt>
<trkpt lat="50.511076" lon="4.359414"><time>2026-05-02T18:17:44Z</time></trkpt>
</trkseg>
</trk>
<trk>
<name>hpcpc85</name>
<cmt>q</cmt>
<desc>Pont-à-Celles Sentier n°85 Sentier du hameau de Traulée au hameau de Baudoux</desc>
<link href="https://chemins.be/pontacelles/sentier/85"/><trkseg>
<trkpt lat="50.506780" lon="4.371617"><time>2026-05-02T17:47:44Z</time></trkpt>
<trkpt lat="50.506628" lon="4.371810"><time>2026-05-02T17:57:44Z</time></trkpt>
<trkpt lat="50.505955" lon="4.373688"><time>2026-05-02T18:07:44Z</time></trkpt>
<trkpt lat="50.505921" lon="4.374103"><time>2026-05-02T18:17:44Z</time></trkpt>
</trkseg>
</trk>
<trk>
<name>hpcpc9</name>
<cmt>r</cmt>
<desc>Pont-à-Celles Chemin n°9 Chemin du hameau de Traulée à Trazegnies</desc>
<link href="https://chemins.be/pontacelles/chemin/9"/><trkseg>
<trkpt lat="50.494102" lon="4.353357"><time>2026-05-02T17:47:44Z</time></trkpt>
<trkpt lat="50.495405" lon="4.354399"><time>2026-05-02T17:57:44Z</time></trkpt>
<trkpt lat="50.496350" lon="4.355259"><time>2026-05-02T18:07:44Z</time></trkpt>
<trkpt lat="50.498256" lon="4.358345"><time>2026-05-02T18:17:44Z</time></trkpt>
</trkseg>
</trk>
<trk>
<name>hpcpci1</name>
<cmt>v</cmt>
<desc>Pont-à-Celles Sentier n°i1 sentier de la Ruhr / Sentier de la Ruhr</desc>
<link href="https://chemins.be/pontacelles/sentier/i1"/><trkseg>
<trkpt lat="50.511472" lon="4.365490"><time>2026-05-02T17:47:44Z</time></trkpt>
<trkpt lat="50.511463" lon="4.365504"><time>2026-05-02T17:57:44Z</time></trkpt>
<trkpt lat="50.510986" lon="4.367238"><time>2026-05-02T18:07:44Z</time></trkpt>
<trkpt lat="50.510824" lon="4.367647"><time>2026-05-02T18:17:44Z</time></trkpt>
<trkpt lat="50.510860" lon="4.367746"><time>2026-05-02T18:27:44Z</time></trkpt>
<trkpt lat="50.510708" lon="4.368197"><time>2026-05-02T18:37:44Z</time></trkpt>
<trkpt lat="50.510672" lon="4.368197"><time>2026-05-02T18:47:44Z</time></trkpt>
<trkpt lat="50.510645" lon="4.368197"><time>2026-05-02T18:57:44Z</time></trkpt>
<trkpt lat="50.510618" lon="4.368155"><time>2026-05-02T19:07:44Z</time></trkpt>
<trkpt lat="50.510573" lon="4.368141"><time>2026-05-02T19:17:44Z</time></trkpt>
<trkpt lat="50.510546" lon="4.368155"><time>2026-05-02T19:27:44Z</time></trkpt>
<trkpt lat="50.510519" lon="4.368225"><time>2026-05-02T19:37:44Z</time></trkpt>
<trkpt lat="50.510492" lon="4.368296"><time>2026-05-02T19:47:44Z</time></trkpt>
<trkpt lat="50.510456" lon="4.368352"><time>2026-05-02T19:57:44Z</time></trkpt>
<trkpt lat="50.510429" lon="4.368395"><time>2026-05-02T20:07:44Z</time></trkpt>
<trkpt lat="50.510402" lon="4.368451"><time>2026-05-02T20:17:44Z</time></trkpt>
<trkpt lat="50.510303" lon="4.368634"><time>2026-05-02T20:27:44Z</time></trkpt>
<trkpt lat="50.510285" lon="4.368775"><time>2026-05-02T20:37:44Z</time></trkpt>
<trkpt lat="50.510357" lon="4.368874"><time>2026-05-02T20:47:44Z</time></trkpt>
<trkpt lat="50.510384" lon="4.368987"><time>2026-05-02T20:57:44Z</time></trkpt>
<trkpt lat="50.510357" lon="4.369142"><time>2026-05-02T21:07:44Z</time></trkpt>
<trkpt lat="50.510312" lon="4.369184"><time>2026-05-02T21:17:44Z</time></trkpt>
<trkpt lat="50.510267" lon="4.369198"><time>2026-05-02T21:27:44Z</time></trkpt>
<trkpt lat="50.510222" lon="4.369198"><time>2026-05-02T21:37:44Z</time></trkpt>
<trkpt lat="50.510186" lon="4.369297"><time>2026-05-02T21:47:44Z</time></trkpt>
<trkpt lat="50.510168" lon="4.369466"><time>2026-05-02T21:57:44Z</time></trkpt>
<trkpt lat="50.510141" lon="4.369593"><time>2026-05-02T22:07:44Z</time></trkpt>
<trkpt lat="50.510114" lon="4.369776"><time>2026-05-02T22:17:44Z</time></trkpt>
<trkpt lat="50.510087" lon="4.369931"><time>2026-05-02T22:27:44Z</time></trkpt>
<trkpt lat="50.510087" lon="4.370002"><time>2026-05-02T22:37:44Z</time></trkpt>
<trkpt lat="50.510060" lon="4.370086"><time>2026-05-02T22:47:44Z</time></trkpt>
<trkpt lat="50.509970" lon="4.370143"><time>2026-05-02T22:57:44Z</time></trkpt>
<trkpt lat="50.509916" lon="4.370143"><time>2026-05-02T23:07:44Z</time></trkpt>
<trkpt lat="50.509836" lon="4.370129"><time>2026-05-02T23:17:44Z</time></trkpt>
<trkpt lat="50.509719" lon="4.370114"><time>2026-05-02T23:27:44Z</time></trkpt>
<trkpt lat="50.509638" lon="4.370044"><time>2026-05-02T23:37:44Z</time></trkpt>
<trkpt lat="50.509593" lon="4.369917"><time>2026-05-02T23:47:44Z</time></trkpt>
<trkpt lat="50.509548" lon="4.369776"><time>2026-05-02T23:57:44Z</time></trkpt>
<trkpt lat="50.509476" lon="4.369720"><time>2026-05-03T00:07:44Z</time></trkpt>
<trkpt lat="50.509422" lon="4.369734"><time>2026-05-03T00:17:44Z</time></trkpt>
<trkpt lat="50.509332" lon="4.369706"><time>2026-05-03T00:27:44Z</time></trkpt>
<trkpt lat="50.509251" lon="4.369734"><time>2026-05-03T00:37:44Z</time></trkpt>
<trkpt lat="50.509197" lon="4.369748"><time>2026-05-03T00:47:44Z</time></trkpt>
<trkpt lat="50.509134" lon="4.369748"><time>2026-05-03T00:57:44Z</time></trkpt>
<trkpt lat="50.509089" lon="4.369748"><time>2026-05-03T01:07:44Z</time></trkpt>
<trkpt lat="50.509026" lon="4.369748"><time>2026-05-03T01:17:44Z</time></trkpt>
</trkseg>
</trk>
<trk>
<name>hpcpci10</name>
<cmt>v</cmt>
<desc>Pont-à-Celles Chemin n°i10 </desc>
<link href="https://chemins.be/pontacelles/chemin/i10"/><trkseg>
<trkpt lat="50.512566" lon="4.342170"><time>2026-05-02T17:47:44Z</time></trkpt>
<trkpt lat="50.512997" lon="4.341733"><time>2026-05-02T17:57:44Z</time></trkpt>
</trkseg>
</trk>
<trk>
<name>hpcpci11</name>
<cmt>v</cmt>
<desc>Pont-à-Celles Chemin n°i11 </desc>
<link href="https://chemins.be/pontacelles/chemin/i11"/><trkseg>
<trkpt lat="50.519028" lon="4.367228"><time>2026-05-02T17:47:44Z</time></trkpt>
<trkpt lat="50.521811" lon="4.366761"><time>2026-05-02T17:57:44Z</time></trkpt>
<trkpt lat="50.522889" lon="4.366375"><time>2026-05-02T18:07:44Z</time></trkpt>
</trkseg>
</trk>
<trk>
<name>hpcpci12</name>
<cmt>v</cmt>
<desc>Pont-à-Celles Chemin n°i12 </desc>
<link href="https://chemins.be/pontacelles/chemin/i12"/><trkseg>
<trkpt lat="50.515265" lon="4.358933"><time>2026-05-02T17:47:44Z</time></trkpt>
<trkpt lat="50.515094" lon="4.358567"><time>2026-05-02T17:57:44Z</time></trkpt>
</trkseg>
</trk>
<trk>
<name>hpcpci13</name>
<cmt>d</cmt>
<desc>Pont-à-Celles Chemin n°i13 </desc>
<link href="https://chemins.be/pontacelles/chemin/i13"/><trkseg>
<trkpt lat="50.512037" lon="4.368146"><time>2026-05-02T17:47:44Z</time></trkpt>
<trkpt lat="50.512992" lon="4.368893"><time>2026-05-02T17:57:44Z</time></trkpt>
</trkseg>
</trk>
<trk>
<name>hpcpci14</name>
<cmt>v</cmt>
<desc>Pont-à-Celles Chemin n°i14 </desc>
<link href="https://chemins.be/pontacelles/chemin/i14"/><trkseg>
<trkpt lat="50.505750" lon="4.369669"><time>2026-05-02T17:47:44Z</time></trkpt>
<trkpt lat="50.504319" lon="4.371961"><time>2026-05-02T17:57:44Z</time></trkpt>
</trkseg>
</trk>
<trk>
<name>hpcpci15</name>
<cmt>v</cmt>
<desc>Pont-à-Celles Sentier n°i15 </desc>
<link href="https://chemins.be/pontacelles/sentier/i15"/><trkseg>
<trkpt lat="50.504457" lon="4.370698"><time>2026-05-02T17:47:44Z</time></trkpt>
<trkpt lat="50.504954" lon="4.370942"><time>2026-05-02T17:57:44Z</time></trkpt>
</trkseg>
</trk>
<trk>
<name>hpcpci16</name>
<cmt>v</cmt>
<desc>Pont-à-Celles Sentier n°i16 </desc>
<link href="https://chemins.be/pontacelles/sentier/i16"/><trkseg>
<trkpt lat="50.504509" lon="4.369796"><time>2026-05-02T17:47:44Z</time></trkpt>
<trkpt lat="50.505088" lon="4.368844"><time>2026-05-02T17:57:44Z</time></trkpt>
</trkseg>
</trk>
<trk>
<name>hpcpci17</name>
<cmt>v</cmt>
<desc>Pont-à-Celles Sentier n°i17 </desc>
<link href="https://chemins.be/pontacelles/sentier/i17"/><trkseg>
<trkpt lat="50.504239" lon="4.369462"><time>2026-05-02T17:47:44Z</time></trkpt>
<trkpt lat="50.504692" lon="4.368702"><time>2026-05-02T17:57:44Z</time></trkpt>
</trkseg>
</trk>
<trk>
<name>hpcpci18</name>
<cmt>v</cmt>
<desc>Pont-à-Celles Sentier n°i18 </desc>
<link href="https://chemins.be/pontacelles/sentier/i18"/><trkseg>
<trkpt lat="50.503909" lon="4.369376"><time>2026-05-02T17:47:44Z</time></trkpt>
<trkpt lat="50.504668" lon="4.370316"><time>2026-05-02T17:57:44Z</time></trkpt>
</trkseg>
</trk>
<trk>
<name>hpcpci19</name>
<cmt>v</cmt>
<desc>Pont-à-Celles Chemin n°i19 </desc>
<link href="https://chemins.be/pontacelles/chemin/i19"/><trkseg>
<trkpt lat="50.485197" lon="4.382178"><time>2026-05-02T17:47:44Z</time></trkpt>
<trkpt lat="50.484345" lon="4.381097"><time>2026-05-02T17:57:44Z</time></trkpt>
<trkpt lat="50.483777" lon="4.379964"><time>2026-05-02T18:07:44Z</time></trkpt>
<trkpt lat="50.482455" lon="4.376599"><time>2026-05-02T18:17:44Z</time></trkpt>
</trkseg>
</trk>
<trk>
<name>hpcpci2</name>
<cmt>v</cmt>
<desc>Pont-à-Celles Sentier n°i2 </desc>
<link href="https://chemins.be/pontacelles/sentier/i2"/><trkseg>
<trkpt lat="50.510707" lon="4.360076"><time>2026-05-02T17:47:44Z</time></trkpt>
<trkpt lat="50.511004" lon="4.359428"><time>2026-05-02T17:57:44Z</time></trkpt>
</trkseg>
</trk>
<trk>
<name>hpcpci20</name>
<cmt>v</cmt>
<desc>Pont-à-Celles Sentier n°i20 </desc>
<link href="https://chemins.be/pontacelles/sentier/i20"/><trkseg>
<trkpt lat="50.515567" lon="4.355393"><time>2026-05-02T17:47:44Z</time></trkpt>
<trkpt lat="50.515420" lon="4.355949"><time>2026-05-02T17:57:44Z</time></trkpt>
</trkseg>
</trk>
<trk>
<name>hpcpci21</name>
<cmt>v</cmt>
<desc>Pont-à-Celles Sentier n°i21 </desc>
<link href="https://chemins.be/pontacelles/sentier/i21"/><trkseg>
<trkpt lat="50.503462" lon="4.385170"><time>2026-05-02T17:47:44Z</time></trkpt>
<trkpt lat="50.503511" lon="4.386604"><time>2026-05-02T17:57:44Z</time></trkpt>
</trkseg>
</trk>
<trk>
<name>hpcpci22</name>
<cmt>r</cmt>
<desc>Pont-à-Celles Chemin n°i22 Rue du grand plateau</desc>
<link href="https://chemins.be/pontacelles/chemin/i22"/><trkseg>
<trkpt lat="50.506208" lon="4.375326"><time>2026-05-02T17:47:44Z</time></trkpt>
<trkpt lat="50.505810" lon="4.377317"><time>2026-05-02T17:57:44Z</time></trkpt>
<trkpt lat="50.505826" lon="4.377523"><time>2026-05-02T18:07:44Z</time></trkpt>
<trkpt lat="50.505515" lon="4.379188"><time>2026-05-02T18:17:44Z</time></trkpt>
<trkpt lat="50.505848" lon="4.379334"><time>2026-05-02T18:27:44Z</time></trkpt>
</trkseg>
</trk>
<trk>
<name>hpcpci23</name>
<cmt>v</cmt>
<desc>Pont-à-Celles Sentier n°i23 </desc>
<link href="https://chemins.be/pontacelles/sentier/i23"/><trkseg>
<trkpt lat="50.505089" lon="4.378141"><time>2026-05-02T17:47:44Z</time></trkpt>
<trkpt lat="50.505668" lon="4.378390"><time>2026-05-02T17:57:44Z</time></trkpt>
</trkseg>
</trk>
<trk>
<name>hpcpci24</name>
<cmt>q</cmt>
<desc>Pont-à-Celles Chemin n°i24 </desc>
<link href="https://chemins.be/pontacelles/chemin/i24"/><trkseg>
<trkpt lat="50.515472" lon="4.355258"><time>2026-05-02T17:47:44Z</time></trkpt>
<trkpt lat="50.515346" lon="4.355095"><time>2026-05-02T17:57:44Z</time></trkpt>
<trkpt lat="50.515275" lon="4.353430"><time>2026-05-02T18:07:44Z</time></trkpt>
<trkpt lat="50.515150" lon="4.352872"><time>2026-05-02T18:17:44Z</time></trkpt>
</trkseg>
</trk>
<trk>
<name>hpcpci3</name>
<cmt>v</cmt>
<desc>Pont-à-Celles Sentier n°i3 </desc>
<link href="https://chemins.be/pontacelles/sentier/i3"/><trkseg>
<trkpt lat="50.510258" lon="4.363051"><time>2026-05-02T17:47:44Z</time></trkpt>
<trkpt lat="50.509746" lon="4.363869"><time>2026-05-02T17:57:44Z</time></trkpt>
<trkpt lat="50.509934" lon="4.364123"><time>2026-05-02T18:07:44Z</time></trkpt>
<trkpt lat="50.509476" lon="4.365053"><time>2026-05-02T18:17:44Z</time></trkpt>
</trkseg>
</trk>
<trk>
<name>hpcpci4</name>
<cmt>v</cmt>
<desc>Pont-à-Celles Sentier n°i4 sentier Petit Govaerts</desc>
<link href="https://chemins.be/pontacelles/sentier/i4"/><trkseg>
<trkpt lat="50.515571" lon="4.355394"><time>2026-05-02T17:47:44Z</time></trkpt>
<trkpt lat="50.515580" lon="4.355944"><time>2026-05-02T17:57:44Z</time></trkpt>
<trkpt lat="50.515481" lon="4.356240"><time>2026-05-02T18:07:44Z</time></trkpt>
<trkpt lat="50.515562" lon="4.356508"><time>2026-05-02T18:17:44Z</time></trkpt>
<trkpt lat="50.515427" lon="4.358144"><time>2026-05-02T18:27:44Z</time></trkpt>
<trkpt lat="50.515328" lon="4.358313"><time>2026-05-02T18:37:44Z</time></trkpt>
<trkpt lat="50.515103" lon="4.358567"><time>2026-05-02T18:47:44Z</time></trkpt>
<trkpt lat="50.514879" lon="4.358468"><time>2026-05-02T18:57:44Z</time></trkpt>
</trkseg>
</trk>
<trk>
<name>hpcpci5</name>
<cmt>v</cmt>
<desc>Pont-à-Celles Sentier n°i5 </desc>
<link href="https://chemins.be/pontacelles/sentier/i5"/><trkseg>
<trkpt lat="50.512407" lon="4.362995"><time>2026-05-02T17:47:44Z</time></trkpt>
<trkpt lat="50.512128" lon="4.364080"><time>2026-05-02T17:57:44Z</time></trkpt>
<trkpt lat="50.511634" lon="4.365575"><time>2026-05-02T18:07:44Z</time></trkpt>
<trkpt lat="50.511400" lon="4.365434"><time>2026-05-02T18:17:44Z</time></trkpt>
<trkpt lat="50.511292" lon="4.365462"><time>2026-05-02T18:27:44Z</time></trkpt>
</trkseg>
</trk>
<trk>
<name>hpcpci6</name>
<cmt>v</cmt>
<desc>Pont-à-Celles Sentier n°i6 Place de la forge</desc>
<link href="https://chemins.be/pontacelles/sentier/i6"/><trkseg>
<trkpt lat="50.506950" lon="4.372906"><time>2026-05-02T17:47:44Z</time></trkpt>
<trkpt lat="50.507624" lon="4.373343"><time>2026-05-02T17:57:44Z</time></trkpt>
<trkpt lat="50.507723" lon="4.373103"><time>2026-05-02T18:07:44Z</time></trkpt>
<trkpt lat="50.507912" lon="4.373103"><time>2026-05-02T18:17:44Z</time></trkpt>
<trkpt lat="50.507966" lon="4.372948"><time>2026-05-02T18:27:44Z</time></trkpt>
<trkpt lat="50.508172" lon="4.372990"><time>2026-05-02T18:37:44Z</time></trkpt>
<trkpt lat="50.508334" lon="4.372497"><time>2026-05-02T18:47:44Z</time></trkpt>
</trkseg>
</trk>
<trk>
<name>hpcpci7</name>
<cmt>v</cmt>
<desc>Pont-à-Celles Chemin n°i7 sentier de l'étang de Launoy</desc>
<link href="https://chemins.be/pontacelles/chemin/i7"/><trkseg>
<trkpt lat="50.507157" lon="4.343696"><time>2026-05-02T17:47:44Z</time></trkpt>
<trkpt lat="50.508759" lon="4.342487"><time>2026-05-02T17:57:44Z</time></trkpt>
<trkpt lat="50.509364" lon="4.341701"><time>2026-05-02T18:07:44Z</time></trkpt>
</trkseg>
</trk>
<trk>
<name>hpcpci8</name>
<cmt>v</cmt>
<desc>Pont-à-Celles Chemin n°i8 Rue de la Ferme Courriaulx / Chemin de Couriau</desc>
<link href="https://chemins.be/pontacelles/chemin/i8"/><trkseg>
<trkpt lat="50.495082" lon="4.360460"><time>2026-05-02T17:47:44Z</time></trkpt>
<trkpt lat="50.495064" lon="4.361460"><time>2026-05-02T17:57:44Z</time></trkpt>
<trkpt lat="50.495190" lon="4.362052"><time>2026-05-02T18:07:44Z</time></trkpt>
<trkpt lat="50.494777" lon="4.362531"><time>2026-05-02T18:17:44Z</time></trkpt>
<trkpt lat="50.494588" lon="4.363025"><time>2026-05-02T18:27:44Z</time></trkpt>
</trkseg>
</trk>
<trk>
<name>hpcpci9</name>
<cmt>v</cmt>
<desc>Pont-à-Celles Sentier n°i9 Sentier des Vaches</desc>
<link href="https://chemins.be/pontacelles/sentier/i9"/><trkseg>
<trkpt lat="50.515031" lon="4.352095"><time>2026-05-02T17:47:44Z</time></trkpt>
<trkpt lat="50.514851" lon="4.352025"><time>2026-05-02T17:57:44Z</time></trkpt>
<trkpt lat="50.514572" lon="4.351503"><time>2026-05-02T18:07:44Z</time></trkpt>
<trkpt lat="50.514419" lon="4.351010"><time>2026-05-02T18:17:44Z</time></trkpt>
<trkpt lat="50.514365" lon="4.350826"><time>2026-05-02T18:27:44Z</time></trkpt>
<trkpt lat="50.514356" lon="4.350728"><time>2026-05-02T18:37:44Z</time></trkpt>
<trkpt lat="50.514275" lon="4.350530"><time>2026-05-02T18:47:44Z</time></trkpt>
<trkpt lat="50.514221" lon="4.350277"><time>2026-05-02T18:57:44Z</time></trkpt>
<trkpt lat="50.514194" lon="4.350093"><time>2026-05-02T19:07:44Z</time></trkpt>
<trkpt lat="50.514149" lon="4.349938"><time>2026-05-02T19:17:44Z</time></trkpt>
<trkpt lat="50.514113" lon="4.349797"><time>2026-05-02T19:27:44Z</time></trkpt>
<trkpt lat="50.514086" lon="4.349642"><time>2026-05-02T19:37:44Z</time></trkpt>
<trkpt lat="50.514024" lon="4.349388"><time>2026-05-02T19:47:44Z</time></trkpt>
<trkpt lat="50.513970" lon="4.349036"><time>2026-05-02T19:57:44Z</time></trkpt>
<trkpt lat="50.513817" lon="4.348401"><time>2026-05-02T20:07:44Z</time></trkpt>
<trkpt lat="50.513745" lon="4.348021"><time>2026-05-02T20:17:44Z</time></trkpt>
<trkpt lat="50.513628" lon="4.347499"><time>2026-05-02T20:27:44Z</time></trkpt>
<trkpt lat="50.513547" lon="4.347203"><time>2026-05-02T20:37:44Z</time></trkpt>
<trkpt lat="50.513448" lon="4.346935"><time>2026-05-02T20:47:44Z</time></trkpt>
<trkpt lat="50.513421" lon="4.346611"><time>2026-05-02T20:57:44Z</time></trkpt>
<trkpt lat="50.513385" lon="4.346357"><time>2026-05-02T21:07:44Z</time></trkpt>
<trkpt lat="50.513259" lon="4.345991"><time>2026-05-02T21:17:44Z</time></trkpt>
<trkpt lat="50.513223" lon="4.345765"><time>2026-05-02T21:27:44Z</time></trkpt>
<trkpt lat="50.513169" lon="4.345258"><time>2026-05-02T21:37:44Z</time></trkpt>
<trkpt lat="50.513142" lon="4.344877"><time>2026-05-02T21:47:44Z</time></trkpt>
<trkpt lat="50.513097" lon="4.344623"><time>2026-05-02T21:57:44Z</time></trkpt>
<trkpt lat="50.513016" lon="4.344383"><time>2026-05-02T22:07:44Z</time></trkpt>
<trkpt lat="50.512917" lon="4.344017"><time>2026-05-02T22:17:44Z</time></trkpt>
<trkpt lat="50.512800" lon="4.343693"><time>2026-05-02T22:27:44Z</time></trkpt>
<trkpt lat="50.512872" lon="4.343481"><time>2026-05-02T22:37:44Z</time></trkpt>
</trkseg>
</trk>
<trk>
<name>hpcpcL119</name>
<cmt>q</cmt>
<desc>Pont-à-Celles Chemin n°L119 </desc>
<link href="https://chemins.be/pontacelles/chemin/L119"/><trkseg>
<trkpt lat="50.491648" lon="4.388852"><time>2026-05-02T17:47:44Z</time></trkpt>
<trkpt lat="50.492635" lon="4.388660"><time>2026-05-02T17:57:44Z</time></trkpt>
<trkpt lat="50.494182" lon="4.389408"><time>2026-05-02T18:07:44Z</time></trkpt>
</trkseg>
</trk>
<trk>
<name>hpcpcL249</name>
<cmt>q</cmt>
<desc>Pont-à-Celles Chemin n°L249 </desc>
<link href="https://chemins.be/pontacelles/chemin/L249"/><trkseg>
<trkpt lat="50.500196" lon="4.392512"><time>2026-05-02T17:47:44Z</time></trkpt>
<trkpt lat="50.498568" lon="4.392849"><time>2026-05-02T17:57:44Z</time></trkpt>
<trkpt lat="50.497858" lon="4.392511"><time>2026-05-02T18:07:44Z</time></trkpt>
<trkpt lat="50.495934" lon="4.391467"><time>2026-05-02T18:17:44Z</time></trkpt>
<trkpt lat="50.494254" lon="4.389239"><time>2026-05-02T18:27:44Z</time></trkpt>
<trkpt lat="50.489688" lon="4.382754"><time>2026-05-02T18:37:44Z</time></trkpt>
<trkpt lat="50.486703" lon="4.378117"><time>2026-05-02T18:47:44Z</time></trkpt>
<trkpt lat="50.485966" lon="4.376497"><time>2026-05-02T18:57:44Z</time></trkpt>
<trkpt lat="50.485373" lon="4.373312"><time>2026-05-02T19:07:44Z</time></trkpt>
<trkpt lat="50.484600" lon="4.371283"><time>2026-05-02T19:17:44Z</time></trkpt>
<trkpt lat="50.483278" lon="4.368845"><time>2026-05-02T19:27:44Z</time></trkpt>
</trkseg>
</trk>
<trk>
<name>hpctm1</name>
<cmt>v</cmt>
<desc>Thiméon Chemin n°1 Chemin de Nivelles à Gosselies</desc>
<link href="https://chemins.be/thimeon/chemin/1"/><trkseg>
<trkpt lat="50.498038" lon="4.425502"><time>2026-05-02T17:47:44Z</time></trkpt>
<trkpt lat="50.498425" lon="4.425764"><time>2026-05-02T17:57:44Z</time></trkpt>
</trkseg></trk>
<trk>
<name>hpctm1</name>
<cmt>d</cmt>
<desc>Thiméon Chemin n°1 Chemin de Nivelles à Gosselies</desc>
<link href="https://chemins.be/thimeon/chemin/1"/><trkseg>
<trkpt lat="50.498425" lon="4.425764"><time>2026-05-02T17:57:44Z</time></trkpt>
<trkpt lat="50.499295" lon="4.425846"><time>2026-05-02T18:07:44Z</time></trkpt>
</trkseg></trk>
<trk>
<name>hpctm1</name>
<cmt>q</cmt>
<desc>Thiméon Chemin n°1 Chemin de Nivelles à Gosselies</desc>
<link href="https://chemins.be/thimeon/chemin/1"/><trkseg>
<trkpt lat="50.499295" lon="4.425846"><time>2026-05-02T18:07:44Z</time></trkpt>
<trkpt lat="50.499578" lon="4.424929"><time>2026-05-02T18:17:44Z</time></trkpt>
</trkseg>
</trk>
<trk>
<name>hpctm2</name>
<cmt>v</cmt>
<desc>Thiméon Chemin n°2 Chemin de Thiméon à Fleurus</desc>
<link href="https://chemins.be/thimeon/chemin/2"/><trkseg>
<trkpt lat="50.488338" lon="4.450184"><time>2026-05-02T17:47:44Z</time></trkpt>
<trkpt lat="50.488662" lon="4.449297"><time>2026-05-02T17:57:44Z</time></trkpt>
<trkpt lat="50.488743" lon="4.449001"><time>2026-05-02T18:07:44Z</time></trkpt>
<trkpt lat="50.488879" lon="4.448198"><time>2026-05-02T18:17:44Z</time></trkpt>
<trkpt lat="50.489014" lon="4.447028"><time>2026-05-02T18:27:44Z</time></trkpt>
<trkpt lat="50.489177" lon="4.445690"><time>2026-05-02T18:37:44Z</time></trkpt>
<trkpt lat="50.489268" lon="4.445014"><time>2026-05-02T18:47:44Z</time></trkpt>
<trkpt lat="50.489349" lon="4.444521"><time>2026-05-02T18:57:44Z</time></trkpt>
<trkpt lat="50.489484" lon="4.443858"><time>2026-05-02T19:07:44Z</time></trkpt>
<trkpt lat="50.489628" lon="4.443281"><time>2026-05-02T19:17:44Z</time></trkpt>
<trkpt lat="50.489709" lon="4.443027"><time>2026-05-02T19:27:44Z</time></trkpt>
<trkpt lat="50.489781" lon="4.442858"><time>2026-05-02T19:37:44Z</time></trkpt>
<trkpt lat="50.489862" lon="4.442703"><time>2026-05-02T19:47:44Z</time></trkpt>
<trkpt lat="50.489970" lon="4.442506"><time>2026-05-02T19:57:44Z</time></trkpt>
<trkpt lat="50.490105" lon="4.442309"><time>2026-05-02T20:07:44Z</time></trkpt>
<trkpt lat="50.490483" lon="4.441845"><time>2026-05-02T20:17:44Z</time></trkpt>
<trkpt lat="50.490690" lon="4.441479"><time>2026-05-02T20:27:44Z</time></trkpt>
<trkpt lat="50.490771" lon="4.441197"><time>2026-05-02T20:37:44Z</time></trkpt>
<trkpt lat="50.490808" lon="4.440873"><time>2026-05-02T20:47:44Z</time></trkpt>
<trkpt lat="50.490898" lon="4.439238"><time>2026-05-02T20:57:44Z</time></trkpt>
<trkpt lat="50.490890" lon="4.438830"><time>2026-05-02T21:07:44Z</time></trkpt>
<trkpt lat="50.490863" lon="4.438520"><time>2026-05-02T21:17:44Z</time></trkpt>
<trkpt lat="50.490782" lon="4.438040"><time>2026-05-02T21:27:44Z</time></trkpt>
<trkpt lat="50.490755" lon="4.437744"><time>2026-05-02T21:37:44Z</time></trkpt>
<trkpt lat="50.490631" lon="4.436123"><time>2026-05-02T21:47:44Z</time></trkpt>
<trkpt lat="50.490622" lon="4.435560"><time>2026-05-02T21:57:44Z</time></trkpt>
<trkpt lat="50.490613" lon="4.434686"><time>2026-05-02T22:07:44Z</time></trkpt>
<trkpt lat="50.490623" lon="4.434179"><time>2026-05-02T22:17:44Z</time></trkpt>
<trkpt lat="50.490659" lon="4.433714"><time>2026-05-02T22:27:44Z</time></trkpt>
<trkpt lat="50.490677" lon="4.433432"><time>2026-05-02T22:37:44Z</time></trkpt>
<trkpt lat="50.490722" lon="4.433122"><time>2026-05-02T22:47:44Z</time></trkpt>
<trkpt lat="50.490785" lon="4.432840"><time>2026-05-02T22:57:44Z</time></trkpt>
<trkpt lat="50.490875" lon="4.432460"><time>2026-05-02T23:07:44Z</time></trkpt>
<trkpt lat="50.490974" lon="4.432150"><time>2026-05-02T23:17:44Z</time></trkpt>
</trkseg>
</trk>
<trk>
<name>hpctm20</name>
<cmt>v</cmt>
<desc>Thiméon Chemin n°20 Chemin du Bati de Mélonsart au chemin de Fleurus</desc>
<link href="https://chemins.be/thimeon/chemin/20"/><trkseg>
<trkpt lat="50.481321" lon="4.438823"><time>2026-05-02T17:47:44Z</time></trkpt>
<trkpt lat="50.483100" lon="4.442551"><time>2026-05-02T17:57:44Z</time></trkpt>
<trkpt lat="50.486901" lon="4.448971"><time>2026-05-02T18:07:44Z</time></trkpt>
<trkpt lat="50.488310" lon="4.450122"><time>2026-05-02T18:17:44Z</time></trkpt>
</trkseg>
</trk>
<trk>
<name>hpctm21</name>
<cmt>s</cmt>
<desc>Thiméon Chemin n°21 Chemin de celui de Gosselies au chemin de Viesville à Heigne</desc>
<link href="https://chemins.be/thimeon/chemin/21"/><trkseg>
<trkpt lat="50.477403" lon="4.417984"><time>2026-05-02T17:47:44Z</time></trkpt>
<trkpt lat="50.473425" lon="4.412683"><time>2026-05-02T17:57:44Z</time></trkpt>
</trkseg></trk>
<trk>
<name>hpctm21</name>
<cmt>d</cmt>
<desc>Thiméon Chemin n°21 Chemin de celui de Gosselies au chemin de Viesville à Heigne</desc>
<link href="https://chemins.be/thimeon/chemin/21"/><trkseg>
<trkpt lat="50.473425" lon="4.412683"><time>2026-05-02T17:57:44Z</time></trkpt>
<trkpt lat="50.472609" lon="4.411595"><time>2026-05-02T18:07:44Z</time></trkpt>
</trkseg>
</trk>
<trk>
<name>hpctm24</name>
<cmt>v</cmt>
<desc>Thiméon Chemin n°24 Chemin de celui de Hierlauleux au Bien Communal</desc>
<link href="https://chemins.be/thimeon/chemin/24"/><trkseg>
<trkpt lat="50.498431" lon="4.425761"><time>2026-05-02T17:47:44Z</time></trkpt>
<trkpt lat="50.499229" lon="4.428482"><time>2026-05-02T17:57:44Z</time></trkpt>
<trkpt lat="50.499193" lon="4.428989"><time>2026-05-02T18:07:44Z</time></trkpt>
<trkpt lat="50.499364" lon="4.429638"><time>2026-05-02T18:17:44Z</time></trkpt>
</trkseg>
</trk>
<trk>
<name>hpctm25</name>
<cmt>r</cmt>
<desc>Thiméon Chemin n°25 Chemin de celui de Viesville aux Grandes Communes</desc>
<link href="https://chemins.be/thimeon/chemin/25"/><trkseg>
<trkpt lat="50.492159" lon="4.426194"><time>2026-05-02T17:47:44Z</time></trkpt>
<trkpt lat="50.492259" lon="4.426514"><time>2026-05-02T17:57:44Z</time></trkpt>
<trkpt lat="50.492579" lon="4.426954"><time>2026-05-02T18:07:44Z</time></trkpt>
<trkpt lat="50.493057" lon="4.427472"><time>2026-05-02T18:17:44Z</time></trkpt>
</trkseg></trk>
<trk>
<name>hpctm25</name>
<cmt>v</cmt>
<desc>Thiméon Chemin n°25 Chemin de celui de Viesville aux Grandes Communes</desc>
<link href="https://chemins.be/thimeon/chemin/25"/><trkseg>
<trkpt lat="50.493057" lon="4.427472"><time>2026-05-02T18:17:44Z</time></trkpt>
<trkpt lat="50.493879" lon="4.428464"><time>2026-05-02T18:27:44Z</time></trkpt>
</trkseg>
</trk>
<trk>
<name>hpctm26</name>
<cmt>v</cmt>
<desc>Thiméon Chemin n°26 Chemin de la Chapelle de Remouleux aux Prairies des Bancs</desc>
<link href="https://chemins.be/thimeon/chemin/26"/><trkseg>
<trkpt lat="50.484799" lon="4.431521"><time>2026-05-02T17:47:44Z</time></trkpt>
<trkpt lat="50.485408" lon="4.434115"><time>2026-05-02T17:57:44Z</time></trkpt>
</trkseg>
</trk>
<trk>
<name>hpctm27</name>
<cmt>q</cmt>
<desc>Thiméon Sentier n°27 Sentier de la Rue de Mons à la Rivière</desc>
<link href="https://chemins.be/thimeon/sentier/27"/><trkseg>
<trkpt lat="50.489181" lon="4.422762"><time>2026-05-02T17:47:44Z</time></trkpt>
<trkpt lat="50.489595" lon="4.422636"><time>2026-05-02T17:57:44Z</time></trkpt>
</trkseg>
</trk>
<trk>
<name>hpctm28</name>
<cmt>d</cmt>
<desc>Thiméon Sentier n°28 Sentier de Thiméon à Liberchies</desc>
<link href="https://chemins.be/thimeon/sentier/28"/><trkseg>
<trkpt lat="50.498379" lon="4.425361"><time>2026-05-02T17:47:44Z</time></trkpt>
<trkpt lat="50.498927" lon="4.425490"><time>2026-05-02T17:57:44Z</time></trkpt>
<trkpt lat="50.499323" lon="4.425036"><time>2026-05-02T18:07:44Z</time></trkpt>
</trkseg>
</trk>
<trk>
<name>hpctm29</name>
<cmt>q</cmt>
<desc>Thiméon Sentier n°29 Sentier du chemin de Hierlauleux au hameau de Brunehault</desc>
<link href="https://chemins.be/thimeon/sentier/29"/><trkseg>
<trkpt lat="50.500691" lon="4.427370"><time>2026-05-02T17:47:44Z</time></trkpt>
<trkpt lat="50.499479" lon="4.426769"><time>2026-05-02T17:57:44Z</time></trkpt>
<trkpt lat="50.499087" lon="4.425744"><time>2026-05-02T18:07:44Z</time></trkpt>
</trkseg>
</trk>
<trk>
<name>hpctm30</name>
<cmt>v</cmt>
<desc>Thiméon Sentier n°30 Sentier du Moulin à eau au Bati Notre Dame</desc>
<link href="https://chemins.be/thimeon/sentier/30"/><trkseg>
<trkpt lat="50.491669" lon="4.426904"><time>2026-05-02T17:47:44Z</time></trkpt>
<trkpt lat="50.492059" lon="4.427624"><time>2026-05-02T17:57:44Z</time></trkpt>
<trkpt lat="50.492563" lon="4.428418"><time>2026-05-02T18:07:44Z</time></trkpt>
<trkpt lat="50.492869" lon="4.428724"><time>2026-05-02T18:17:44Z</time></trkpt>
<trkpt lat="50.493239" lon="4.428884"><time>2026-05-02T18:27:44Z</time></trkpt>
<trkpt lat="50.493659" lon="4.429224"><time>2026-05-02T18:37:44Z</time></trkpt>
<trkpt lat="50.493859" lon="4.429164"><time>2026-05-02T18:47:44Z</time></trkpt>
<trkpt lat="50.494069" lon="4.429574"><time>2026-05-02T18:57:44Z</time></trkpt>
<trkpt lat="50.494289" lon="4.430084"><time>2026-05-02T19:07:44Z</time></trkpt>
<trkpt lat="50.494239" lon="4.431154"><time>2026-05-02T19:17:44Z</time></trkpt>
<trkpt lat="50.494369" lon="4.432284"><time>2026-05-02T19:27:44Z</time></trkpt>
<trkpt lat="50.494829" lon="4.433374"><time>2026-05-02T19:37:44Z</time></trkpt>
<trkpt lat="50.495229" lon="4.434194"><time>2026-05-02T19:47:44Z</time></trkpt>
<trkpt lat="50.495709" lon="4.434614"><time>2026-05-02T19:57:44Z</time></trkpt>
<trkpt lat="50.496569" lon="4.434584"><time>2026-05-02T20:07:44Z</time></trkpt>
<trkpt lat="50.497749" lon="4.435194"><time>2026-05-02T20:17:44Z</time></trkpt>
</trkseg>
</trk>
<trk>
<name>hpctm31</name>
<cmt>v</cmt>
<desc>Thiméon Sentier n°31 Sentier de l'église de Thiméon au chemin de Viesville</desc>
<link href="https://chemins.be/thimeon/sentier/31"/><trkseg>
<trkpt lat="50.490509" lon="4.428344"><time>2026-05-02T17:47:44Z</time></trkpt>
<trkpt lat="50.490779" lon="4.428024"><time>2026-05-02T17:57:44Z</time></trkpt>
</trkseg></trk>
<trk>
<name>hpctm31</name>
<cmt>r</cmt>
<desc>Thiméon Sentier n°31 Sentier de l'église de Thiméon au chemin de Viesville</desc>
<link href="https://chemins.be/thimeon/sentier/31"/><trkseg>
<trkpt lat="50.490779" lon="4.428024"><time>2026-05-02T17:57:44Z</time></trkpt>
<trkpt lat="50.490779" lon="4.428024"><time>2026-05-02T18:07:44Z</time></trkpt>
<trkpt lat="50.491089" lon="4.427684"><time>2026-05-02T18:17:44Z</time></trkpt>
<trkpt lat="50.491249" lon="4.427144"><time>2026-05-02T18:27:44Z</time></trkpt>
<trkpt lat="50.491348" lon="4.427059"><time>2026-05-02T18:37:44Z</time></trkpt>
</trkseg></trk>
<trk>
<name>hpctm31</name>
<cmt>v</cmt>
<desc>Thiméon Sentier n°31 Sentier de l'église de Thiméon au chemin de Viesville</desc>
<link href="https://chemins.be/thimeon/sentier/31"/><trkseg>
<trkpt lat="50.491348" lon="4.427059"><time>2026-05-02T18:37:44Z</time></trkpt>
<trkpt lat="50.491659" lon="4.426864"><time>2026-05-02T18:47:44Z</time></trkpt>
<trkpt lat="50.491659" lon="4.426864"><time>2026-05-02T18:57:44Z</time></trkpt>
<trkpt lat="50.491599" lon="4.426454"><time>2026-05-02T19:07:44Z</time></trkpt>
<trkpt lat="50.491699" lon="4.426344"><time>2026-05-02T19:17:44Z</time></trkpt>
</trkseg></trk>
<trk>
<name>hpctm31</name>
<cmt>q</cmt>
<desc>Thiméon Sentier n°31 Sentier de l'église de Thiméon au chemin de Viesville</desc>
<link href="https://chemins.be/thimeon/sentier/31"/><trkseg>
<trkpt lat="50.491699" lon="4.426344"><time>2026-05-02T19:17:44Z</time></trkpt>
<trkpt lat="50.491699" lon="4.426344"><time>2026-05-02T19:27:44Z</time></trkpt>
<trkpt lat="50.491639" lon="4.426094"><time>2026-05-02T19:37:44Z</time></trkpt>
<trkpt lat="50.491849" lon="4.425544"><time>2026-05-02T19:47:44Z</time></trkpt>
</trkseg>
</trk>
<trk>
<name>hpctm32</name>
<cmt>q</cmt>
<desc>Thiméon Sentier n°32 Sentier de Thiméon à Mellet</desc>
<link href="https://chemins.be/thimeon/sentier/32"/><trkseg>
<trkpt lat="50.490985" lon="4.429233"><time>2026-05-02T17:47:44Z</time></trkpt>
<trkpt lat="50.491245" lon="4.429839"><time>2026-05-02T17:57:44Z</time></trkpt>
<trkpt lat="50.493259" lon="4.430997"><time>2026-05-02T18:07:44Z</time></trkpt>
<trkpt lat="50.494030" lon="4.433380"><time>2026-05-02T18:17:44Z</time></trkpt>
<trkpt lat="50.494623" lon="4.434043"><time>2026-05-02T18:27:44Z</time></trkpt>
<trkpt lat="50.495387" lon="4.435581"><time>2026-05-02T18:37:44Z</time></trkpt>
<trkpt lat="50.496330" lon="4.436273"><time>2026-05-02T18:47:44Z</time></trkpt>
<trkpt lat="50.497443" lon="4.438994"><time>2026-05-02T18:57:44Z</time></trkpt>
<trkpt lat="50.497900" lon="4.442068"><time>2026-05-02T19:07:44Z</time></trkpt>
<trkpt lat="50.499166" lon="4.444734"><time>2026-05-02T19:17:44Z</time></trkpt>
<trkpt lat="50.499550" lon="4.448582"><time>2026-05-02T19:27:44Z</time></trkpt>
</trkseg>
</trk>
<trk>
<name>hpctm33</name>
<cmt>q</cmt>
<desc>Thiméon Sentier n°33 Sentier de la Grange Pierre Gevenoit à la ferme de Floreffe</desc>
<link href="https://chemins.be/thimeon/sentier/33"/><trkseg>
<trkpt lat="50.490994" lon="4.429247"><time>2026-05-02T17:47:44Z</time></trkpt>
<trkpt lat="50.490733" lon="4.430501"><time>2026-05-02T17:57:44Z</time></trkpt>
</trkseg>
</trk>
<trk>
<name>hpctm34</name>
<cmt>r</cmt>
<desc>Thiméon Sentier n°34 Sentier du Cimetière à la ferme de Floreffe</desc>
<link href="https://chemins.be/thimeon/sentier/34"/><trkseg>
<trkpt lat="50.490446" lon="4.429861"><time>2026-05-02T17:47:44Z</time></trkpt>
<trkpt lat="50.490627" lon="4.430424"><time>2026-05-02T17:57:44Z</time></trkpt>
</trkseg>
</trk>
<trk>
<name>hpctm35</name>
<cmt>v</cmt>
<desc>Thiméon Sentier n°35 Sentier de la ferme de Floreffe à la Chapelle de Remouleux</desc>
<link href="https://chemins.be/thimeon/sentier/35"/><trkseg>
<trkpt lat="50.487397" lon="4.431539"><time>2026-05-02T17:47:44Z</time></trkpt>
<trkpt lat="50.487460" lon="4.431398"><time>2026-05-02T17:57:44Z</time></trkpt>
<trkpt lat="50.488602" lon="4.430864"><time>2026-05-02T18:07:44Z</time></trkpt>
<trkpt lat="50.489330" lon="4.430555"><time>2026-05-02T18:17:44Z</time></trkpt>
</trkseg></trk>
<trk>
<name>hpctm35</name>
<cmt>q</cmt>
<desc>Thiméon Sentier n°35 Sentier de la ferme de Floreffe à la Chapelle de Remouleux</desc>
<link href="https://chemins.be/thimeon/sentier/35"/><trkseg>
<trkpt lat="50.489330" lon="4.430555"><time>2026-05-02T18:17:44Z</time></trkpt>
<trkpt lat="50.490679" lon="4.430543"><time>2026-05-02T18:27:44Z</time></trkpt>
</trkseg>
</trk>
<trk>
<name>hpctm36</name>
<cmt>q</cmt>
<desc>Thiméon Sentier n°36 Sentier de la Chapelle St-Charles au chemin des Quatre Bonniers</desc>
<link href="https://chemins.be/thimeon/sentier/36"/><trkseg>
<trkpt lat="50.489617" lon="4.431669"><time>2026-05-02T17:47:44Z</time></trkpt>
<trkpt lat="50.489366" lon="4.430583"><time>2026-05-02T17:57:44Z</time></trkpt>
</trkseg>
</trk>
<trk>
<name>hpctm37</name>
<cmt>v</cmt>
<desc>Thiméon Sentier n°37 Sentier du chemin dit Rue d'Egypte au sentier des Quatre Bonniers</desc>
<link href="https://chemins.be/thimeon/sentier/37"/><trkseg>
<trkpt lat="50.488306" lon="4.429328"><time>2026-05-02T17:47:44Z</time></trkpt>
<trkpt lat="50.488413" lon="4.430033"><time>2026-05-02T17:57:44Z</time></trkpt>
<trkpt lat="50.488620" lon="4.430864"><time>2026-05-02T18:07:44Z</time></trkpt>
</trkseg>
</trk>
<trk>
<name>hpctm38</name>
<cmt>q</cmt>
<desc>Thiméon Sentier n°38 Sentier du chemin des Quatre Bonniers aux Petits Buissons</desc>
<link href="https://chemins.be/thimeon/sentier/38"/><trkseg>
<trkpt lat="50.487459" lon="4.431765"><time>2026-05-02T17:47:44Z</time></trkpt>
<trkpt lat="50.487729" lon="4.433005"><time>2026-05-02T17:57:44Z</time></trkpt>
<trkpt lat="50.488857" lon="4.439588"><time>2026-05-02T18:07:44Z</time></trkpt>
<trkpt lat="50.488767" lon="4.440391"><time>2026-05-02T18:17:44Z</time></trkpt>
<trkpt lat="50.489322" lon="4.444422"><time>2026-05-02T18:27:44Z</time></trkpt>
</trkseg>
</trk>
<trk>
<name>hpctm39</name>
<cmt>q</cmt>
<desc>Thiméon Sentier n°39 Sentier du chemin de l'Aisance des Bancs aux Petits Buissons</desc>
<link href="https://chemins.be/thimeon/sentier/39"/><trkseg>
<trkpt lat="50.485426" lon="4.434129"><time>2026-05-02T17:47:44Z</time></trkpt>
<trkpt lat="50.486010" lon="4.435426"><time>2026-05-02T17:57:44Z</time></trkpt>
<trkpt lat="50.487258" lon="4.437598"><time>2026-05-02T18:07:44Z</time></trkpt>
<trkpt lat="50.488713" lon="4.440320"><time>2026-05-02T18:17:44Z</time></trkpt>
</trkseg>
</trk>
<trk>
<name>hpctm40</name>
<cmt>r</cmt>
<desc>Thiméon Sentier n°40 Sentier de la maison Communale à celle des Haies</desc>
<link href="https://chemins.be/thimeon/sentier/40"/><trkseg>
<trkpt lat="50.489016" lon="4.429103"><time>2026-05-02T17:47:44Z</time></trkpt>
<trkpt lat="50.490042" lon="4.428005"><time>2026-05-02T17:57:44Z</time></trkpt>
</trkseg>
</trk>
<trk>
<name>hpctm41</name>
<cmt>v</cmt>
<desc>Thiméon Sentier n°41 Sentier de la maison Jean-Baptiste Dépasse à la rue de Monts</desc>
<link href="https://chemins.be/thimeon/sentier/41"/><trkseg>
<trkpt lat="50.489359" lon="4.427793"><time>2026-05-02T17:47:44Z</time></trkpt>
<trkpt lat="50.489197" lon="4.427342"><time>2026-05-02T17:57:44Z</time></trkpt>
<trkpt lat="50.489323" lon="4.426694"><time>2026-05-02T18:07:44Z</time></trkpt>
<trkpt lat="50.489791" lon="4.425793"><time>2026-05-02T18:17:44Z</time></trkpt>
</trkseg>
</trk>
<trk>
<name>hpctm42</name>
<cmt>v</cmt>
<desc>Thiméon Sentier n°42 Sentier de Thiméon à Gosselies</desc>
<link href="https://chemins.be/thimeon/sentier/42"/><trkseg>
<trkpt lat="50.489754" lon="4.427568"><time>2026-05-02T17:47:44Z</time></trkpt>
<trkpt lat="50.489323" lon="4.426750"><time>2026-05-02T17:57:44Z</time></trkpt>
<trkpt lat="50.489251" lon="4.426581"><time>2026-05-02T18:07:44Z</time></trkpt>
<trkpt lat="50.488649" lon="4.426158"><time>2026-05-02T18:17:44Z</time></trkpt>
<trkpt lat="50.487840" lon="4.425508"><time>2026-05-02T18:27:44Z</time></trkpt>
</trkseg></trk>
<trk>
<name>hpctm42</name>
<cmt>d</cmt>
<desc>Thiméon Sentier n°42 Sentier de Thiméon à Gosselies</desc>
<link href="https://chemins.be/thimeon/sentier/42"/><trkseg>
<trkpt lat="50.487840" lon="4.425508"><time>2026-05-02T18:27:44Z</time></trkpt>
<trkpt lat="50.485387" lon="4.423293"><time>2026-05-02T18:37:44Z</time></trkpt>
</trkseg></trk>
<trk>
<name>hpctm42</name>
<cmt>v</cmt>
<desc>Thiméon Sentier n°42 Sentier de Thiméon à Gosselies</desc>
<link href="https://chemins.be/thimeon/sentier/42"/><trkseg>
<trkpt lat="50.485387" lon="4.423293"><time>2026-05-02T18:37:44Z</time></trkpt>
<trkpt lat="50.483446" lon="4.422389"><time>2026-05-02T18:47:44Z</time></trkpt>
<trkpt lat="50.482385" lon="4.422205"><time>2026-05-02T18:57:44Z</time></trkpt>
<trkpt lat="50.481018" lon="4.422527"><time>2026-05-02T19:07:44Z</time></trkpt>
<trkpt lat="50.479396" lon="4.422755"><time>2026-05-02T19:17:44Z</time></trkpt>
<trkpt lat="50.478161" lon="4.423939"><time>2026-05-02T19:27:44Z</time></trkpt>
</trkseg></trk>
<trk>
<name>hpctm42</name>
<cmt>q</cmt>
<desc>Thiméon Sentier n°42 Sentier de Thiméon à Gosselies</desc>
<link href="https://chemins.be/thimeon/sentier/42"/><trkseg>
<trkpt lat="50.478161" lon="4.423939"><time>2026-05-02T19:27:44Z</time></trkpt>
<trkpt lat="50.476632" lon="4.424664"><time>2026-05-02T19:37:44Z</time></trkpt>
</trkseg></trk>
<trk>
<name>hpctm42</name>
<cmt>s</cmt>
<desc>Thiméon Sentier n°42 Sentier de Thiméon à Gosselies</desc>
<link href="https://chemins.be/thimeon/sentier/42"/><trkseg>
<trkpt lat="50.476632" lon="4.424664"><time>2026-05-02T19:37:44Z</time></trkpt>
<trkpt lat="50.475987" lon="4.424969"><time>2026-05-02T19:47:44Z</time></trkpt>
</trkseg>
</trk>
<trk>
<name>hpctm43</name>
<cmt>q</cmt>
<desc>Thiméon Sentier n°43 Sentier de Thiméon au hameau d'Azebois</desc>
<link href="https://chemins.be/thimeon/sentier/43"/><trkseg>
<trkpt lat="50.480458" lon="4.424415"><time>2026-05-02T17:47:44Z</time></trkpt>
<trkpt lat="50.481687" lon="4.425313"><time>2026-05-02T17:57:44Z</time></trkpt>
</trkseg></trk>
<trk>
<name>hpctm43</name>
<cmt>r</cmt>
<desc>Thiméon Sentier n°43 Sentier de Thiméon au hameau d'Azebois</desc>
<link href="https://chemins.be/thimeon/sentier/43"/><trkseg>
<trkpt lat="50.481687" lon="4.425313"><time>2026-05-02T17:57:44Z</time></trkpt>
<trkpt lat="50.482158" lon="4.425585"><time>2026-05-02T18:07:44Z</time></trkpt>
<trkpt lat="50.483518" lon="4.426100"><time>2026-05-02T18:17:44Z</time></trkpt>
</trkseg></trk>
<trk>
<name>hpctm43</name>
<cmt>q</cmt>
<desc>Thiméon Sentier n°43 Sentier de Thiméon au hameau d'Azebois</desc>
<link href="https://chemins.be/thimeon/sentier/43"/><trkseg>
<trkpt lat="50.483518" lon="4.426100"><time>2026-05-02T18:17:44Z</time></trkpt>
<trkpt lat="50.487767" lon="4.425499"><time>2026-05-02T18:27:44Z</time></trkpt>
</trkseg>
</trk>
<trk>
<name>hpctm44</name>
<cmt>v</cmt>
<desc>Thiméon Sentier n°44 Sentier de Thiméon au Moulin Toussaint</desc>
<link href="https://chemins.be/thimeon/sentier/44"/><trkseg>
<trkpt lat="50.488550" lon="4.427567"><time>2026-05-02T17:47:44Z</time></trkpt>
<trkpt lat="50.488181" lon="4.427947"><time>2026-05-02T17:57:44Z</time></trkpt>
<trkpt lat="50.487830" lon="4.427862"><time>2026-05-02T18:07:44Z</time></trkpt>
<trkpt lat="50.487641" lon="4.427988"><time>2026-05-02T18:17:44Z</time></trkpt>
</trkseg></trk>
<trk>
<name>hpctm44</name>
<cmt>q</cmt>
<desc>Thiméon Sentier n°44 Sentier de Thiméon au Moulin Toussaint</desc>
<link href="https://chemins.be/thimeon/sentier/44"/><trkseg>
<trkpt lat="50.487641" lon="4.427988"><time>2026-05-02T18:17:44Z</time></trkpt>
<trkpt lat="50.486958" lon="4.428311"><time>2026-05-02T18:27:44Z</time></trkpt>
<trkpt lat="50.486841" lon="4.428184"><time>2026-05-02T18:37:44Z</time></trkpt>
<trkpt lat="50.486095" lon="4.428212"><time>2026-05-02T18:47:44Z</time></trkpt>
</trkseg></trk>
<trk>
<name>hpctm44</name>
<cmt>v</cmt>
<desc>Thiméon Sentier n°44 Sentier de Thiméon au Moulin Toussaint</desc>
<link href="https://chemins.be/thimeon/sentier/44"/><trkseg>
<trkpt lat="50.486095" lon="4.428212"><time>2026-05-02T18:47:44Z</time></trkpt>
<trkpt lat="50.485322" lon="4.428197"><time>2026-05-02T18:57:44Z</time></trkpt>
<trkpt lat="50.484351" lon="4.428308"><time>2026-05-02T19:07:44Z</time></trkpt>
<trkpt lat="50.483722" lon="4.427871"><time>2026-05-02T19:17:44Z</time></trkpt>
<trkpt lat="50.483021" lon="4.427433"><time>2026-05-02T19:27:44Z</time></trkpt>
</trkseg></trk>
<trk>
<name>hpctm44</name>
<cmt>r</cmt>
<desc>Thiméon Sentier n°44 Sentier de Thiméon au Moulin Toussaint</desc>
<link href="https://chemins.be/thimeon/sentier/44"/><trkseg>
<trkpt lat="50.483021" lon="4.427433"><time>2026-05-02T19:27:44Z</time></trkpt>
<trkpt lat="50.482346" lon="4.427362"><time>2026-05-02T19:37:44Z</time></trkpt>
<trkpt lat="50.482292" lon="4.427418"><time>2026-05-02T19:47:44Z</time></trkpt>
</trkseg></trk>
<trk>
<name>hpctm44</name>
<cmt>q</cmt>
<desc>Thiméon Sentier n°44 Sentier de Thiméon au Moulin Toussaint</desc>
<link href="https://chemins.be/thimeon/sentier/44"/><trkseg>
<trkpt lat="50.482292" lon="4.427418"><time>2026-05-02T19:47:44Z</time></trkpt>
<trkpt lat="50.481169" lon="4.427205"><time>2026-05-02T19:57:44Z</time></trkpt>
<trkpt lat="50.479199" lon="4.427992"><time>2026-05-02T20:07:44Z</time></trkpt>
</trkseg></trk>
<trk>
<name>hpctm44</name>
<cmt>v</cmt>
<desc>Thiméon Sentier n°44 Sentier de Thiméon au Moulin Toussaint</desc>
<link href="https://chemins.be/thimeon/sentier/44"/><trkseg>
<trkpt lat="50.479199" lon="4.427992"><time>2026-05-02T20:07:44Z</time></trkpt>
<trkpt lat="50.478957" lon="4.427977"><time>2026-05-02T20:17:44Z</time></trkpt>
</trkseg>
</trk>
<trk>
<name>hpctm45</name>
<cmt>q</cmt>
<desc>Thiméon Sentier n°45 Sentier de la ferme de Lorette au hameau de Haut Bois</desc>
<link href="https://chemins.be/thimeon/sentier/45"/><trkseg>
<trkpt lat="50.487281" lon="4.429552"><time>2026-05-02T17:47:44Z</time></trkpt>
<trkpt lat="50.487317" lon="4.429045"><time>2026-05-02T17:57:44Z</time></trkpt>
<trkpt lat="50.487614" lon="4.428002"><time>2026-05-02T18:07:44Z</time></trkpt>
<trkpt lat="50.487354" lon="4.426748"><time>2026-05-02T18:17:44Z</time></trkpt>
<trkpt lat="50.487804" lon="4.425536"><time>2026-05-02T18:27:44Z</time></trkpt>
<trkpt lat="50.487976" lon="4.424156"><time>2026-05-02T18:37:44Z</time></trkpt>
<trkpt lat="50.487995" lon="4.422451"><time>2026-05-02T18:47:44Z</time></trkpt>
<trkpt lat="50.487842" lon="4.421112"><time>2026-05-02T18:57:44Z</time></trkpt>
</trkseg></trk>
<trk>
<name>hpctm45</name>
<cmt>r</cmt>
<desc>Thiméon Sentier n°45 Sentier de la ferme de Lorette au hameau de Haut Bois</desc>
<link href="https://chemins.be/thimeon/sentier/45"/><trkseg>
<trkpt lat="50.487842" lon="4.421112"><time>2026-05-02T18:57:44Z</time></trkpt>
<trkpt lat="50.487510" lon="4.421224"><time>2026-05-02T19:07:44Z</time></trkpt>
<trkpt lat="50.487177" lon="4.421393"><time>2026-05-02T19:17:44Z</time></trkpt>
<trkpt lat="50.486683" lon="4.420631"><time>2026-05-02T19:27:44Z</time></trkpt>
<trkpt lat="50.485982" lon="4.419574"><time>2026-05-02T19:37:44Z</time></trkpt>
<trkpt lat="50.485623" lon="4.419362"><time>2026-05-02T19:47:44Z</time></trkpt>
<trkpt lat="50.485056" lon="4.419150"><time>2026-05-02T19:57:44Z</time></trkpt>
</trkseg>
</trk>
<trk>
<name>hpctm46</name>
<cmt>q</cmt>
<desc>Thiméon Sentier n°46 Sentier de Thiméon au hameau de Très Vieusart</desc>
<link href="https://chemins.be/thimeon/sentier/46"/><trkseg>
<trkpt lat="50.486661" lon="4.428170"><time>2026-05-02T17:47:44Z</time></trkpt>
<trkpt lat="50.484999" lon="4.426745"><time>2026-05-02T17:57:44Z</time></trkpt>
</trkseg></trk>
<trk>
<name>hpctm46</name>
<cmt>r</cmt>
<desc>Thiméon Sentier n°46 Sentier de Thiméon au hameau de Très Vieusart</desc>
<link href="https://chemins.be/thimeon/sentier/46"/><trkseg>
<trkpt lat="50.484999" lon="4.426745"><time>2026-05-02T17:57:44Z</time></trkpt>
<trkpt lat="50.483597" lon="4.426109"><time>2026-05-02T18:07:44Z</time></trkpt>
<trkpt lat="50.483768" lon="4.425827"><time>2026-05-02T18:17:44Z</time></trkpt>
</trkseg></trk>
<trk>
<name>hpctm46</name>
<cmt>q</cmt>
<desc>Thiméon Sentier n°46 Sentier de Thiméon au hameau de Très Vieusart</desc>
<link href="https://chemins.be/thimeon/sentier/46"/><trkseg>
<trkpt lat="50.483768" lon="4.425827"><time>2026-05-02T18:17:44Z</time></trkpt>
<trkpt lat="50.483130" lon="4.423910"><time>2026-05-02T18:27:44Z</time></trkpt>
<trkpt lat="50.482457" lon="4.422289"><time>2026-05-02T18:37:44Z</time></trkpt>
<trkpt lat="50.480273" lon="4.419342"><time>2026-05-02T18:47:44Z</time></trkpt>
<trkpt lat="50.479528" lon="4.418285"><time>2026-05-02T18:57:44Z</time></trkpt>
<trkpt lat="50.479007" lon="4.416593"><time>2026-05-02T19:07:44Z</time></trkpt>
<trkpt lat="50.478477" lon="4.414634"><time>2026-05-02T19:17:44Z</time></trkpt>
</trkseg></trk>
<trk>
<name>hpctm46</name>
<cmt>v</cmt>
<desc>Thiméon Sentier n°46 Sentier de Thiméon au hameau de Très Vieusart</desc>
<link href="https://chemins.be/thimeon/sentier/46"/><trkseg>
<trkpt lat="50.478477" lon="4.414634"><time>2026-05-02T19:17:44Z</time></trkpt>
<trkpt lat="50.477751" lon="4.412916"><time>2026-05-02T19:27:44Z</time></trkpt>
<trkpt lat="50.475737" lon="4.409560"><time>2026-05-02T19:37:44Z</time></trkpt>
<trkpt lat="50.475711" lon="4.408236"><time>2026-05-02T19:47:44Z</time></trkpt>
<trkpt lat="50.475504" lon="4.406714"><time>2026-05-02T19:57:44Z</time></trkpt>
<trkpt lat="50.475163" lon="4.405967"><time>2026-05-02T20:07:44Z</time></trkpt>
<trkpt lat="50.473743" lon="4.405895"><time>2026-05-02T20:17:44Z</time></trkpt>
<trkpt lat="50.472467" lon="4.403401"><time>2026-05-02T20:27:44Z</time></trkpt>
</trkseg></trk>
<trk>
<name>hpctm46</name>
<cmt>q</cmt>
<desc>Thiméon Sentier n°46 Sentier de Thiméon au hameau de Très Vieusart</desc>
<link href="https://chemins.be/thimeon/sentier/46"/><trkseg>
<trkpt lat="50.472467" lon="4.403401"><time>2026-05-02T20:27:44Z</time></trkpt>
<trkpt lat="50.471622" lon="4.401921"><time>2026-05-02T20:37:44Z</time></trkpt>
</trkseg>
</trk>
<trk>
<name>hpctm47</name>
<cmt>v</cmt>
<desc>Thiméon Sentier n°47 Sentier de la Commune Estienne au chemin des Fosses</desc>
<link href="https://chemins.be/thimeon/sentier/47"/><trkseg>
<trkpt lat="50.485564" lon="4.429507"><time>2026-05-02T17:47:44Z</time></trkpt>
<trkpt lat="50.485294" lon="4.428774"><time>2026-05-02T17:57:44Z</time></trkpt>
<trkpt lat="50.485277" lon="4.428211"><time>2026-05-02T18:07:44Z</time></trkpt>
<trkpt lat="50.485232" lon="4.427492"><time>2026-05-02T18:17:44Z</time></trkpt>
<trkpt lat="50.485268" lon="4.426802"><time>2026-05-02T18:27:44Z</time></trkpt>
</trkseg>
</trk>
<trk>
<name>hpctm48</name>
<cmt>v</cmt>
<desc>Thiméon Sentier n°48 Sentier de celui dit Ruelle Fauberg à la Rue d'Egypte</desc>
<link href="https://chemins.be/thimeon/sentier/48"/><trkseg>
<trkpt lat="50.485285" lon="4.428831"><time>2026-05-02T17:47:44Z</time></trkpt>
<trkpt lat="50.484926" lon="4.429013"><time>2026-05-02T17:57:44Z</time></trkpt>
</trkseg></trk>
<trk>
<name>hpctm48</name>
<cmt>q</cmt>
<desc>Thiméon Sentier n°48 Sentier de celui dit Ruelle Fauberg à la Rue d'Egypte</desc>
<link href="https://chemins.be/thimeon/sentier/48"/><trkseg>
<trkpt lat="50.484926" lon="4.429013"><time>2026-05-02T17:57:44Z</time></trkpt>
<trkpt lat="50.484125" lon="4.429731"><time>2026-05-02T18:07:44Z</time></trkpt>
</trkseg>
</trk>
<trk>
<name>hpctm49</name>
<cmt>q</cmt>
<desc>Thiméon Sentier n°49 Sentier de Thiméon à Gosselies</desc>
<link href="https://chemins.be/thimeon/sentier/49"/><trkseg>
<trkpt lat="50.482563" lon="4.430057"><time>2026-05-02T17:47:44Z</time></trkpt>
<trkpt lat="50.481345" lon="4.430168"><time>2026-05-02T17:57:44Z</time></trkpt>
</trkseg>
</trk>
<trk>
<name>hpctm5</name>
<cmt>s</cmt>
<desc>Thiméon Chemin n°5 Chemin de Viesville à Gosselies</desc>
<link href="https://chemins.be/thimeon/chemin/5"/><trkseg>
<trkpt lat="50.477857" lon="4.417038"><time>2026-05-02T17:47:44Z</time></trkpt>
<trkpt lat="50.475614" lon="4.421543"><time>2026-05-02T17:57:44Z</time></trkpt>
<trkpt lat="50.475041" lon="4.421950"><time>2026-05-02T18:07:44Z</time></trkpt>
</trkseg>
</trk>
<trk>
<name>hpctm50</name>
<cmt>q</cmt>
<desc>Thiméon Sentier n°50 Sentier du hameau d'Azebois au Moulin Toussaint</desc>
<link href="https://chemins.be/thimeon/sentier/50"/><trkseg>
<trkpt lat="50.478889" lon="4.427894"><time>2026-05-02T17:47:44Z</time></trkpt>
<trkpt lat="50.480049" lon="4.425584"><time>2026-05-02T17:57:44Z</time></trkpt>
<trkpt lat="50.480365" lon="4.424555"><time>2026-05-02T18:07:44Z</time></trkpt>
</trkseg>
</trk>
<trk>
<name>hpctm51</name>
<cmt>q</cmt>
<desc>Thiméon Sentier n°51 Sentier du hameau d'Azebois au Cabaret Sauve qui peut</desc>
<link href="https://chemins.be/thimeon/sentier/51"/><trkseg>
<trkpt lat="50.475684" lon="4.421535"><time>2026-05-02T17:47:44Z</time></trkpt>
<trkpt lat="50.478114" lon="4.421500"><time>2026-05-02T17:57:44Z</time></trkpt>
<trkpt lat="50.479010" lon="4.421303"><time>2026-05-02T18:07:44Z</time></trkpt>
</trkseg>
</trk>
<trk>
<name>hpctm52</name>
<cmt>q</cmt>
<desc>Thiméon Sentier n°52 Sentier du Vieux chemin de Nivelles au Bois des Manants</desc>
<link href="https://chemins.be/thimeon/sentier/52"/><trkseg>
<trkpt lat="50.478098" lon="4.423869"><time>2026-05-02T17:47:44Z</time></trkpt>
<trkpt lat="50.477798" lon="4.422316"><time>2026-05-02T17:57:44Z</time></trkpt>
<trkpt lat="50.478131" lon="4.421526"><time>2026-05-02T18:07:44Z</time></trkpt>
<trkpt lat="50.477825" lon="4.418797"><time>2026-05-02T18:17:44Z</time></trkpt>
<trkpt lat="50.477464" lon="4.418187"><time>2026-05-02T18:27:44Z</time></trkpt>
</trkseg>
</trk>
<trk>
<name>hpctm53</name>
<cmt>q</cmt>
<desc>Thiméon Sentier n°53 Sentier de Gosselies au hameau de Joli</desc>
<link href="https://chemins.be/thimeon/sentier/53"/><trkseg>
<trkpt lat="50.479027" lon="4.413964"><time>2026-05-02T17:47:44Z</time></trkpt>
<trkpt lat="50.478131" lon="4.416771"><time>2026-05-02T17:57:44Z</time></trkpt>
<trkpt lat="50.477924" lon="4.417191"><time>2026-05-02T18:07:44Z</time></trkpt>
</trkseg></trk>
<trk>
<name>hpctm53</name>
<cmt>s</cmt>
<desc>Thiméon Sentier n°53 Sentier de Gosselies au hameau de Joli</desc>
<link href="https://chemins.be/thimeon/sentier/53"/><trkseg>
<trkpt lat="50.477924" lon="4.417191"><time>2026-05-02T18:07:44Z</time></trkpt>
<trkpt lat="50.476317" lon="4.420462"><time>2026-05-02T18:17:44Z</time></trkpt>
<trkpt lat="50.475585" lon="4.421792"><time>2026-05-02T18:27:44Z</time></trkpt>
<trkpt lat="50.475165" lon="4.421964"><time>2026-05-02T18:37:44Z</time></trkpt>
</trkseg>
</trk>
<trk>
<name>hpctm54</name>
<cmt>q</cmt>
<desc>Thiméon Sentier n°54 Sentier de Gosselies à Viesvilles</desc>
<link href="https://chemins.be/thimeon/sentier/54"/><trkseg>
<trkpt lat="50.478480" lon="4.417226"><time>2026-05-02T17:47:44Z</time></trkpt>
<trkpt lat="50.480387" lon="4.416642"><time>2026-05-02T17:57:44Z</time></trkpt>
<trkpt lat="50.481020" lon="4.415999"><time>2026-05-02T18:07:44Z</time></trkpt>
</trkseg></trk>
<trk>
<name>hpctm54</name>
<cmt>r</cmt>
<desc>Thiméon Sentier n°54 Sentier de Gosselies à Viesvilles</desc>
<link href="https://chemins.be/thimeon/sentier/54"/><trkseg>
<trkpt lat="50.481020" lon="4.415999"><time>2026-05-02T18:07:44Z</time></trkpt>
<trkpt lat="50.481621" lon="4.416342"><time>2026-05-02T18:17:44Z</time></trkpt>
</trkseg></trk>
<trk>
<name>hpctm54</name>
<cmt>q</cmt>
<desc>Thiméon Sentier n°54 Sentier de Gosselies à Viesvilles</desc>
<link href="https://chemins.be/thimeon/sentier/54"/><trkseg>
<trkpt lat="50.481621" lon="4.416342"><time>2026-05-02T18:17:44Z</time></trkpt>
<trkpt lat="50.482874" lon="4.415584"><time>2026-05-02T18:27:44Z</time></trkpt>
<trkpt lat="50.483889" lon="4.414633"><time>2026-05-02T18:37:44Z</time></trkpt>
</trkseg>
</trk>
<trk>
<name>hpctm56</name>
<cmt>q</cmt>
<desc>Thiméon Sentier n°56 Sentier de Gosselies au Bois des Manants</desc>
<link href="https://chemins.be/thimeon/sentier/56"/><trkseg>
<trkpt lat="50.472312" lon="4.412079"><time>2026-05-02T17:47:44Z</time></trkpt>
<trkpt lat="50.472194" lon="4.415224"><time>2026-05-02T17:57:44Z</time></trkpt>
</trkseg></trk>
<trk>
<name>hpctm56</name>
<cmt>s</cmt>
<desc>Thiméon Sentier n°56 Sentier de Gosselies au Bois des Manants</desc>
<link href="https://chemins.be/thimeon/sentier/56"/><trkseg>
<trkpt lat="50.472194" lon="4.415224"><time>2026-05-02T17:57:44Z</time></trkpt>
<trkpt lat="50.471975" lon="4.418290"><time>2026-05-02T18:07:44Z</time></trkpt>
</trkseg>
</trk>
<trk>
<name>hpctm57</name>
<cmt>q</cmt>
<desc>Thiméon Sentier n°57 Sentier de Gosselies au hameau des Grand sarts</desc>
<link href="https://chemins.be/thimeon/sentier/57"/><trkseg>
<trkpt lat="50.474345" lon="4.401339"><time>2026-05-02T17:47:44Z</time></trkpt>
<trkpt lat="50.470530" lon="4.401847"><time>2026-05-02T17:57:44Z</time></trkpt>
</trkseg></trk>
<trk>
<name>hpctm57</name>
<cmt>r</cmt>
<desc>Thiméon Sentier n°57 Sentier de Gosselies au hameau des Grand sarts</desc>
<link href="https://chemins.be/thimeon/sentier/57"/><trkseg>
<trkpt lat="50.470530" lon="4.401847"><time>2026-05-02T17:57:44Z</time></trkpt>
<trkpt lat="50.470344" lon="4.401984"><time>2026-05-02T18:07:44Z</time></trkpt>
<trkpt lat="50.470346" lon="4.402269"><time>2026-05-02T18:17:44Z</time></trkpt>
<trkpt lat="50.469840" lon="4.402801"><time>2026-05-02T18:27:44Z</time></trkpt>
</trkseg></trk>
<trk>
<name>hpctm57</name>
<cmt>v</cmt>
<desc>Thiméon Sentier n°57 Sentier de Gosselies au hameau des Grand sarts</desc>
<link href="https://chemins.be/thimeon/sentier/57"/><trkseg>
<trkpt lat="50.469840" lon="4.402801"><time>2026-05-02T18:27:44Z</time></trkpt>
<trkpt lat="50.469564" lon="4.403324"><time>2026-05-02T18:37:44Z</time></trkpt>
</trkseg>
</trk>
<trk>
<name>hpctm58</name>
<cmt>v</cmt>
<desc>Thiméon Sentier n°58 Sentier du hameau d'Azebois au Halmeau des Grands Sarts</desc>
<link href="https://chemins.be/thimeon/sentier/58"/><trkseg>
<trkpt lat="50.477784" lon="4.412985"><time>2026-05-02T17:47:44Z</time></trkpt>
<trkpt lat="50.477993" lon="4.409951"><time>2026-05-02T17:57:44Z</time></trkpt>
</trkseg>
</trk>
<trk>
<name>hpctm59</name>
<cmt>v</cmt>
<desc>Thiméon Sentier n°59 Sentier de la maison Mayart à celle de Frasnes</desc>
<link href="https://chemins.be/thimeon/sentier/59"/><trkseg>
<trkpt lat="50.489621" lon="4.425130"><time>2026-05-02T17:47:44Z</time></trkpt>
<trkpt lat="50.489765" lon="4.424271"><time>2026-05-02T17:57:44Z</time></trkpt>
</trkseg></trk>
<trk>
<name>hpctm59</name>
<cmt>q</cmt>
<desc>Thiméon Sentier n°59 Sentier de la maison Mayart à celle de Frasnes</desc>
<link href="https://chemins.be/thimeon/sentier/59"/><trkseg>
<trkpt lat="50.489765" lon="4.424271"><time>2026-05-02T17:57:44Z</time></trkpt>
<trkpt lat="50.489378" lon="4.424143"><time>2026-05-02T18:07:44Z</time></trkpt>
</trkseg>
</trk>
<trk>
<name>hpctm6</name>
<cmt>s</cmt>
<desc>Thiméon Chemin n°6 Chemin de Thiméon à Viesville</desc>
<link href="https://chemins.be/thimeon/chemin/6"/><trkseg>
<trkpt lat="50.487944" lon="4.419499"><time>2026-05-02T17:47:44Z</time></trkpt>
<trkpt lat="50.488330" lon="4.418784"><time>2026-05-02T17:57:44Z</time></trkpt>
</trkseg>
</trk>
<trk>
<name>hpctm60</name>
<cmt>q</cmt>
<desc>Thiméon Sentier n°60 Sentier de la Commune Estienne à Gosselies</desc>
<link href="https://chemins.be/thimeon/sentier/60"/><trkseg>
<trkpt lat="50.482006" lon="4.431404"><time>2026-05-02T17:47:44Z</time></trkpt>
<trkpt lat="50.482666" lon="4.431344"><time>2026-05-02T17:57:44Z</time></trkpt>
</trkseg>
</trk>
<trk>
<name>hpctm61</name>
<cmt>v</cmt>
<desc>Thiméon Sentier n°61 Sentier de la maison Guillaume Pirard à celle Lefebvre</desc>
<link href="https://chemins.be/thimeon/sentier/61"/><trkseg>
<trkpt lat="50.490293" lon="4.427893"><time>2026-05-02T17:47:44Z</time></trkpt>
<trkpt lat="50.490222" lon="4.427414"><time>2026-05-02T17:57:44Z</time></trkpt>
<trkpt lat="50.490159" lon="4.427075"><time>2026-05-02T18:07:44Z</time></trkpt>
<trkpt lat="50.490141" lon="4.426977"><time>2026-05-02T18:17:44Z</time></trkpt>
<trkpt lat="50.490267" lon="4.426850"><time>2026-05-02T18:27:44Z</time></trkpt>
<trkpt lat="50.490007" lon="4.426441"><time>2026-05-02T18:37:44Z</time></trkpt>
<trkpt lat="50.490087" lon="4.426342"><time>2026-05-02T18:47:44Z</time></trkpt>
</trkseg>
</trk>
<trk>
<name>hpctm63</name>
<cmt>q</cmt>
<desc>Thiméon Sentier n°63 Sentier de Thiméon à Melles</desc>
<link href="https://chemins.be/thimeon/sentier/63"/><trkseg>
<trkpt lat="50.494189" lon="4.445019"><time>2026-05-02T17:47:44Z</time></trkpt>
<trkpt lat="50.494257" lon="4.445069"><time>2026-05-02T17:57:44Z</time></trkpt>
<trkpt lat="50.494571" lon="4.446393"><time>2026-05-02T18:07:44Z</time></trkpt>
</trkseg>
</trk>
<trk>
<name>hpctm7</name>
<cmt>r</cmt>
<desc>Thiméon Chemin n°7 Chemin du hameau de Haut Bois au Bois dit des Manants</desc>
<link href="https://chemins.be/thimeon/chemin/7"/><trkseg>
<trkpt lat="50.487015" lon="4.421181"><time>2026-05-02T17:47:44Z</time></trkpt>
<trkpt lat="50.485928" lon="4.419574"><time>2026-05-02T17:57:44Z</time></trkpt>
</trkseg></trk>
<trk>
<name>hpctm7</name>
<cmt>s</cmt>
<desc>Thiméon Chemin n°7 Chemin du hameau de Haut Bois au Bois dit des Manants</desc>
<link href="https://chemins.be/thimeon/chemin/7"/><trkseg>
<trkpt lat="50.485928" lon="4.419574"><time>2026-05-02T17:57:44Z</time></trkpt>
<trkpt lat="50.485137" lon="4.419192"><time>2026-05-02T18:07:44Z</time></trkpt>
<trkpt lat="50.484391" lon="4.418557"><time>2026-05-02T18:17:44Z</time></trkpt>
</trkseg></trk>
<trk>
<name>hpctm7</name>
<cmt>r</cmt>
<desc>Thiméon Chemin n°7 Chemin du hameau de Haut Bois au Bois dit des Manants</desc>
<link href="https://chemins.be/thimeon/chemin/7"/><trkseg>
<trkpt lat="50.484391" lon="4.418557"><time>2026-05-02T18:17:44Z</time></trkpt>
<trkpt lat="50.483097" lon="4.417302"><time>2026-05-02T18:27:44Z</time></trkpt>
</trkseg>
</trk>
<trk>
<name>hpctm8</name>
<cmt>v</cmt>
<desc>Thiméon Chemin n°8 Chemin de Viesville à Heigne</desc>
<link href="https://chemins.be/thimeon/chemin/8"/><trkseg>
<trkpt lat="50.478147" lon="4.409858"><time>2026-05-02T17:47:44Z</time></trkpt>
<trkpt lat="50.477949" lon="4.409858"><time>2026-05-02T17:57:44Z</time></trkpt>
<trkpt lat="50.477427" lon="4.409885"><time>2026-05-02T18:07:44Z</time></trkpt>
<trkpt lat="50.476169" lon="4.410067"><time>2026-05-02T18:17:44Z</time></trkpt>
<trkpt lat="50.475692" lon="4.410123"><time>2026-05-02T18:27:44Z</time></trkpt>
<trkpt lat="50.475023" lon="4.410205"><time>2026-05-02T18:37:44Z</time></trkpt>
</trkseg></trk>
<trk>
<name>hpctm8</name>
<cmt>s</cmt>
<desc>Thiméon Chemin n°8 Chemin de Viesville à Heigne</desc>
<link href="https://chemins.be/thimeon/chemin/8"/><trkseg>
<trkpt lat="50.475023" lon="4.410205"><time>2026-05-02T18:37:44Z</time></trkpt>
<trkpt lat="50.473950" lon="4.410294"><time>2026-05-02T18:47:44Z</time></trkpt>
</trkseg></trk>
<trk>
<name>hpctm8</name>
<cmt>v</cmt>
<desc>Thiméon Chemin n°8 Chemin de Viesville à Heigne</desc>
<link href="https://chemins.be/thimeon/chemin/8"/><trkseg>
<trkpt lat="50.473950" lon="4.410294"><time>2026-05-02T18:47:44Z</time></trkpt>
<trkpt lat="50.473245" lon="4.410582"><time>2026-05-02T18:57:44Z</time></trkpt>
<trkpt lat="50.472274" lon="4.412026"><time>2026-05-02T19:07:44Z</time></trkpt>
<trkpt lat="50.471656" lon="4.412320"><time>2026-05-02T19:17:44Z</time></trkpt>
<trkpt lat="50.468488" lon="4.407513"><time>2026-05-02T19:27:44Z</time></trkpt>
</trkseg>
</trk>
<trk>
<name>hpctm9</name>
<cmt>d</cmt>
<desc>Thiméon Chemin n°9 Chemin de Thiméon à Frasnes</desc>
<link href="https://chemins.be/thimeon/chemin/9"/><trkseg>
<trkpt lat="50.499302" lon="4.425814"><time>2026-05-02T17:47:44Z</time></trkpt>
<trkpt lat="50.500363" lon="4.426302"><time>2026-05-02T17:57:44Z</time></trkpt>
</trkseg>
</trk>
<trk>
<name>hpctmi1</name>
<cmt>v</cmt>
<desc>Thiméon Sentier n°i1 </desc>
<link href="https://chemins.be/thimeon/sentier/i1"/><trkseg>
<trkpt lat="50.475091" lon="4.406108"><time>2026-05-02T17:47:44Z</time></trkpt>
<trkpt lat="50.475145" lon="4.406643"><time>2026-05-02T17:57:44Z</time></trkpt>
<trkpt lat="50.475181" lon="4.407277"><time>2026-05-02T18:07:44Z</time></trkpt>
<trkpt lat="50.475172" lon="4.407714"><time>2026-05-02T18:17:44Z</time></trkpt>
<trkpt lat="50.475117" lon="4.408390"><time>2026-05-02T18:27:44Z</time></trkpt>
<trkpt lat="50.475036" lon="4.409052"><time>2026-05-02T18:37:44Z</time></trkpt>
<trkpt lat="50.474991" lon="4.409897"><time>2026-05-02T18:47:44Z</time></trkpt>
<trkpt lat="50.474991" lon="4.410179"><time>2026-05-02T18:57:44Z</time></trkpt>
<trkpt lat="50.474991" lon="4.410602"><time>2026-05-02T19:07:44Z</time></trkpt>
<trkpt lat="50.475080" lon="4.411475"><time>2026-05-02T19:17:44Z</time></trkpt>
<trkpt lat="50.475224" lon="4.412278"><time>2026-05-02T19:27:44Z</time></trkpt>
<trkpt lat="50.475358" lon="4.412701"><time>2026-05-02T19:37:44Z</time></trkpt>
<trkpt lat="50.475655" lon="4.413420"><time>2026-05-02T19:47:44Z</time></trkpt>
<trkpt lat="50.476104" lon="4.414308"><time>2026-05-02T19:57:44Z</time></trkpt>
<trkpt lat="50.476571" lon="4.415295"><time>2026-05-02T20:07:44Z</time></trkpt>
<trkpt lat="50.477119" lon="4.416352"><time>2026-05-02T20:17:44Z</time></trkpt>
<trkpt lat="50.477389" lon="4.416761"><time>2026-05-02T20:27:44Z</time></trkpt>
<trkpt lat="50.477523" lon="4.417014"><time>2026-05-02T20:37:44Z</time></trkpt>
<trkpt lat="50.477631" lon="4.417071"><time>2026-05-02T20:47:44Z</time></trkpt>
<trkpt lat="50.477775" lon="4.417057"><time>2026-05-02T20:57:44Z</time></trkpt>
<trkpt lat="50.477883" lon="4.416958"><time>2026-05-02T21:07:44Z</time></trkpt>
</trkseg>
</trk>
<trk>
<name>hpctmi10</name>
<cmt>v</cmt>
<desc>Thiméon Chemin n°i10 </desc>
<link href="https://chemins.be/thimeon/chemin/i10"/><trkseg>
<trkpt lat="50.473905" lon="4.410354"><time>2026-05-02T17:47:44Z</time></trkpt>
<trkpt lat="50.474089" lon="4.407139"><time>2026-05-02T17:57:44Z</time></trkpt>
<trkpt lat="50.474189" lon="4.406475"><time>2026-05-02T18:07:44Z</time></trkpt>
<trkpt lat="50.474004" lon="4.405874"><time>2026-05-02T18:17:44Z</time></trkpt>
</trkseg>
</trk>
<trk>
<name>hpctmi11</name>
<cmt>v</cmt>
<desc>Thiméon Sentier n°i11 </desc>
<link href="https://chemins.be/thimeon/sentier/i11"/><trkseg>
<trkpt lat="50.472649" lon="4.409455"><time>2026-05-02T17:47:44Z</time></trkpt>
<trkpt lat="50.473255" lon="4.408760"><time>2026-05-02T17:57:44Z</time></trkpt>
<trkpt lat="50.474113" lon="4.407086"><time>2026-05-02T18:07:44Z</time></trkpt>
</trkseg>
</trk>
<trk>
<name>hpctmi2</name>
<cmt>v</cmt>
<desc>Thiméon Chemin n°i2 </desc>
<link href="https://chemins.be/thimeon/chemin/i2"/><trkseg>
<trkpt lat="50.493889" lon="4.428391"><time>2026-05-02T17:47:44Z</time></trkpt>
<trkpt lat="50.493814" lon="4.428906"><time>2026-05-02T17:57:44Z</time></trkpt>
<trkpt lat="50.493869" lon="4.429217"><time>2026-05-02T18:07:44Z</time></trkpt>
</trkseg>
</trk>
<trk>
<name>hpctmi3</name>
<cmt>q</cmt>
<desc>Thiméon Sentier n°i3 </desc>
<link href="https://chemins.be/thimeon/sentier/i3"/><trkseg>
<trkpt lat="50.483649" lon="4.429730"><time>2026-05-02T17:47:44Z</time></trkpt>
<trkpt lat="50.483622" lon="4.429420"><time>2026-05-02T17:57:44Z</time></trkpt>
<trkpt lat="50.483749" lon="4.427913"><time>2026-05-02T18:07:44Z</time></trkpt>
</trkseg>
</trk>
<trk>
<name>hpctmi4</name>
<cmt>v</cmt>
<desc>Thiméon Chemin n°i4 </desc>
<link href="https://chemins.be/thimeon/chemin/i4"/><trkseg>
<trkpt lat="50.493961" lon="4.443781"><time>2026-05-02T17:47:44Z</time></trkpt>
<trkpt lat="50.494878" lon="4.443458"><time>2026-05-02T17:57:44Z</time></trkpt>
<trkpt lat="50.495994" lon="4.442741"><time>2026-05-02T18:07:44Z</time></trkpt>
<trkpt lat="50.497262" lon="4.442377"><time>2026-05-02T18:17:44Z</time></trkpt>
<trkpt lat="50.497702" lon="4.441814"><time>2026-05-02T18:27:44Z</time></trkpt>
</trkseg>
</trk>
<trk>
<name>hpctmi5</name>
<cmt>v</cmt>
<desc>Thiméon Sentier n°i5 </desc>
<link href="https://chemins.be/thimeon/sentier/i5"/><trkseg>
<trkpt lat="50.482633" lon="4.429969"><time>2026-05-02T17:47:44Z</time></trkpt>
<trkpt lat="50.482641" lon="4.431180"><time>2026-05-02T17:57:44Z</time></trkpt>
</trkseg>
</trk>
<trk>
<name>hpctmi6</name>
<cmt>q</cmt>
<desc>Thiméon Sentier n°i6 </desc>
<link href="https://chemins.be/thimeon/sentier/i6"/><trkseg>
<trkpt lat="50.479872" lon="4.412804"><time>2026-05-02T17:47:44Z</time></trkpt>
<trkpt lat="50.479988" lon="4.412917"><time>2026-05-02T17:57:44Z</time></trkpt>
<trkpt lat="50.480060" lon="4.413438"><time>2026-05-02T18:07:44Z</time></trkpt>
<trkpt lat="50.480509" lon="4.414552"><time>2026-05-02T18:17:44Z</time></trkpt>
<trkpt lat="50.480437" lon="4.414735"><time>2026-05-02T18:27:44Z</time></trkpt>
<trkpt lat="50.480113" lon="4.415129"><time>2026-05-02T18:37:44Z</time></trkpt>
</trkseg>
</trk>
<trk>
<name>hpctmi7</name>
<cmt>v</cmt>
<desc>Thiméon Chemin n°i7 Venelle Louis Charlier</desc>
<link href="https://chemins.be/thimeon/chemin/i7"/><trkseg>
<trkpt lat="50.490419" lon="4.428330"><time>2026-05-02T17:47:44Z</time></trkpt>
<trkpt lat="50.490473" lon="4.428386"><time>2026-05-02T17:57:44Z</time></trkpt>
<trkpt lat="50.490581" lon="4.428753"><time>2026-05-02T18:07:44Z</time></trkpt>
</trkseg>
</trk>
<trk>
<name>hpctmi8</name>
<cmt>v</cmt>
<desc>Thiméon Sentier n°i8 </desc>
<link href="https://chemins.be/thimeon/sentier/i8"/><trkseg>
<trkpt lat="50.488631" lon="4.426157"><time>2026-05-02T17:47:44Z</time></trkpt>
<trkpt lat="50.488083" lon="4.426580"><time>2026-05-02T17:57:44Z</time></trkpt>
</trkseg>
</trk>
<trk>
<name>hpctmi9</name>
<cmt>v</cmt>
<desc>Thiméon Sentier n°i9 </desc>
<link href="https://chemins.be/thimeon/sentier/i9"/><trkseg>
<trkpt lat="50.473326" lon="4.410418"><time>2026-05-02T17:47:44Z</time></trkpt>
<trkpt lat="50.469245" lon="4.403824"><time>2026-05-02T17:57:44Z</time></trkpt>
</trkseg>
</trk>
<trk>
<name>hpctmL119</name>
<cmt>v</cmt>
<desc>Thiméon Chemin n°L119 Ligne 119</desc>
<link href="https://chemins.be/thimeon/chemin/L119"/><trkseg>
<trkpt lat="50.478899" lon="4.428694"><time>2026-05-02T17:47:44Z</time></trkpt>
<trkpt lat="50.479129" lon="4.428024"><time>2026-05-02T17:57:44Z</time></trkpt>
<trkpt lat="50.480309" lon="4.424354"><time>2026-05-02T18:07:44Z</time></trkpt>
<trkpt lat="50.480309" lon="4.424354"><time>2026-05-02T18:17:44Z</time></trkpt>
<trkpt lat="50.480469" lon="4.424254"><time>2026-05-02T18:27:44Z</time></trkpt>
<trkpt lat="50.481039" lon="4.422594"><time>2026-05-02T18:37:44Z</time></trkpt>
<trkpt lat="50.481509" lon="4.421064"><time>2026-05-02T18:47:44Z</time></trkpt>
</trkseg></trk>
<trk>
<name>hpctmL119</name>
<cmt>q</cmt>
<desc>Thiméon Chemin n°L119 Ligne 119</desc>
<link href="https://chemins.be/thimeon/chemin/L119"/><trkseg>
<trkpt lat="50.481509" lon="4.421064"><time>2026-05-02T18:47:44Z</time></trkpt>
<trkpt lat="50.481509" lon="4.421064"><time>2026-05-02T18:57:44Z</time></trkpt>
<trkpt lat="50.481509" lon="4.421064"><time>2026-05-02T19:07:44Z</time></trkpt>
<trkpt lat="50.481969" lon="4.419164"><time>2026-05-02T19:17:44Z</time></trkpt>
<trkpt lat="50.482529" lon="4.417083"><time>2026-05-02T19:27:44Z</time></trkpt>
</trkseg></trk>
<trk>
<name>hpctmL119</name>
<cmt>v</cmt>
<desc>Thiméon Chemin n°L119 Ligne 119</desc>
<link href="https://chemins.be/thimeon/chemin/L119"/><trkseg>
<trkpt lat="50.482529" lon="4.417083"><time>2026-05-02T19:27:44Z</time></trkpt>
<trkpt lat="50.482529" lon="4.417083"><time>2026-05-02T19:37:44Z</time></trkpt>
<trkpt lat="50.483529" lon="4.415213"><time>2026-05-02T19:47:44Z</time></trkpt>
<trkpt lat="50.483935" lon="4.414691"><time>2026-05-02T19:57:44Z</time></trkpt>
</trkseg>
</trk>
<trk>
<name>hpcvv1</name>
<cmt>s</cmt>
<desc>Viesville Chemin n°1 Chemin de Ploys à Thiméon</desc>
<link href="https://chemins.be/viesville/chemin/1"/><trkseg>
<trkpt lat="50.498917" lon="4.399418"><time>2026-05-02T17:47:44Z</time></trkpt>
<trkpt lat="50.498180" lon="4.399882"><time>2026-05-02T17:57:44Z</time></trkpt>
</trkseg></trk>
<trk>
<name>hpcvv1</name>
<cmt>r</cmt>
<desc>Viesville Chemin n°1 Chemin de Ploys à Thiméon</desc>
<link href="https://chemins.be/viesville/chemin/1"/><trkseg>
<trkpt lat="50.498180" lon="4.399882"><time>2026-05-02T17:57:44Z</time></trkpt>
<trkpt lat="50.497757" lon="4.400418"><time>2026-05-02T18:07:44Z</time></trkpt>
<trkpt lat="50.496974" lon="4.403617"><time>2026-05-02T18:17:44Z</time></trkpt>
</trkseg></trk>
<trk>
<name>hpcvv1</name>
<cmt>v</cmt>
<desc>Viesville Chemin n°1 Chemin de Ploys à Thiméon</desc>
<link href="https://chemins.be/viesville/chemin/1"/><trkseg>
<trkpt lat="50.496974" lon="4.403617"><time>2026-05-02T18:17:44Z</time></trkpt>
<trkpt lat="50.496578" lon="4.405012"><time>2026-05-02T18:27:44Z</time></trkpt>
<trkpt lat="50.495039" lon="4.409774"><time>2026-05-02T18:37:44Z</time></trkpt>
<trkpt lat="50.494832" lon="4.411226"><time>2026-05-02T18:47:44Z</time></trkpt>
<trkpt lat="50.494436" lon="4.412381"><time>2026-05-02T18:57:44Z</time></trkpt>
</trkseg></trk>
<trk>
<name>hpcvv1</name>
<cmt>d</cmt>
<desc>Viesville Chemin n°1 Chemin de Ploys à Thiméon</desc>
<link href="https://chemins.be/viesville/chemin/1"/><trkseg>
<trkpt lat="50.494436" lon="4.412381"><time>2026-05-02T18:57:44Z</time></trkpt>
<trkpt lat="50.494902" lon="4.414707"><time>2026-05-02T19:07:44Z</time></trkpt>
<trkpt lat="50.494345" lon="4.415580"><time>2026-05-02T19:17:44Z</time></trkpt>
<trkpt lat="50.493544" lon="4.417101"><time>2026-05-02T19:27:44Z</time></trkpt>
<trkpt lat="50.492877" lon="4.417150"><time>2026-05-02T19:37:44Z</time></trkpt>
</trkseg>
</trk>
<trk>
<name>hpcvv10</name>
<cmt>v</cmt>
<desc>Viesville Chemin n°10 Chemin des Cinq Bonniers à Luttre</desc>
<link href="https://chemins.be/viesville/chemin/10"/><trkseg>
<trkpt lat="50.494850" lon="4.411212"><time>2026-05-02T17:47:44Z</time></trkpt>
<trkpt lat="50.497665" lon="4.409029"><time>2026-05-02T17:57:44Z</time></trkpt>
<trkpt lat="50.499139" lon="4.409806"><time>2026-05-02T18:07:44Z</time></trkpt>
<trkpt lat="50.500667" lon="4.409779"><time>2026-05-02T18:17:44Z</time></trkpt>
<trkpt lat="50.502726" lon="4.410232"><time>2026-05-02T18:27:44Z</time></trkpt>
<trkpt lat="50.505782" lon="4.410714"><time>2026-05-02T18:37:44Z</time></trkpt>
<trkpt lat="50.508885" lon="4.408461"><time>2026-05-02T18:47:44Z</time></trkpt>
</trkseg>
</trk>
<trk>
<name>hpcvv11</name>
<cmt>r</cmt>
<desc>Viesville Chemin n°11 Chemin de la Terre au coin à Thiméon par l'Hautebois</desc>
<link href="https://chemins.be/viesville/chemin/11"/><trkseg>
<trkpt lat="50.488444" lon="4.417954"><time>2026-05-02T17:47:44Z</time></trkpt>
<trkpt lat="50.488226" lon="4.417310"><time>2026-05-02T17:57:44Z</time></trkpt>
<trkpt lat="50.488405" lon="4.416467"><time>2026-05-02T18:07:44Z</time></trkpt>
<trkpt lat="50.488465" lon="4.415772"><time>2026-05-02T18:17:44Z</time></trkpt>
</trkseg></trk>
<trk>
<name>hpcvv11</name>
<cmt>v</cmt>
<desc>Viesville Chemin n°11 Chemin de la Terre au coin à Thiméon par l'Hautebois</desc>
<link href="https://chemins.be/viesville/chemin/11"/><trkseg>
<trkpt lat="50.488465" lon="4.415772"><time>2026-05-02T18:17:44Z</time></trkpt>
<trkpt lat="50.488789" lon="4.415081"><time>2026-05-02T18:27:44Z</time></trkpt>
<trkpt lat="50.489086" lon="4.413644"><time>2026-05-02T18:37:44Z</time></trkpt>
<trkpt lat="50.489015" lon="4.412954"><time>2026-05-02T18:47:44Z</time></trkpt>
<trkpt lat="50.488862" lon="4.412038"><time>2026-05-02T18:57:44Z</time></trkpt>
</trkseg>
</trk>
<trk>
<name>hpcvv12</name>
<cmt>q</cmt>
<desc>Viesville Chemin n°12 Chemin du hameau des Petits Sarts au Grand Tienne</desc>
<link href="https://chemins.be/viesville/chemin/12"/><trkseg>
<trkpt lat="50.488459" lon="4.408077"><time>2026-05-02T17:47:44Z</time></trkpt>
<trkpt lat="50.488180" lon="4.407640"><time>2026-05-02T17:57:44Z</time></trkpt>
<trkpt lat="50.487884" lon="4.407485"><time>2026-05-02T18:07:44Z</time></trkpt>
</trkseg></trk>
<trk>
<name>hpcvv12</name>
<cmt>v</cmt>
<desc>Viesville Chemin n°12 Chemin du hameau des Petits Sarts au Grand Tienne</desc>
<link href="https://chemins.be/viesville/chemin/12"/><trkseg>
<trkpt lat="50.487884" lon="4.407485"><time>2026-05-02T18:07:44Z</time></trkpt>
<trkpt lat="50.487722" lon="4.406963"><time>2026-05-02T18:17:44Z</time></trkpt>
</trkseg></trk>
<trk>
<name>hpcvv12</name>
<cmt>q</cmt>
<desc>Viesville Chemin n°12 Chemin du hameau des Petits Sarts au Grand Tienne</desc>
<link href="https://chemins.be/viesville/chemin/12"/><trkseg>
<trkpt lat="50.487722" lon="4.406963"><time>2026-05-02T18:17:44Z</time></trkpt>
<trkpt lat="50.487129" lon="4.405554"><time>2026-05-02T18:27:44Z</time></trkpt>
<trkpt lat="50.486779" lon="4.404933"><time>2026-05-02T18:37:44Z</time></trkpt>
</trkseg>
</trk>
<trk>
<name>hpcvv14</name>
<cmt>r</cmt>
<desc>Viesville Chemin n°14 Chemin du hameau de Joli au Bois de Saucis</desc>
<link href="https://chemins.be/viesville/chemin/14"/><trkseg>
<trkpt lat="50.480214" lon="4.409775"><time>2026-05-02T17:47:44Z</time></trkpt>
<trkpt lat="50.479423" lon="4.409845"><time>2026-05-02T17:57:44Z</time></trkpt>
</trkseg></trk>
<trk>
<name>hpcvv14</name>
<cmt>v</cmt>
<desc>Viesville Chemin n°14 Chemin du hameau de Joli au Bois de Saucis</desc>
<link href="https://chemins.be/viesville/chemin/14"/><trkseg>
<trkpt lat="50.479423" lon="4.409845"><time>2026-05-02T17:57:44Z</time></trkpt>
<trkpt lat="50.478209" lon="4.409858"><time>2026-05-02T18:07:44Z</time></trkpt>
</trkseg>
</trk>
<trk>
<name>hpcvv15</name>
<cmt>r</cmt>
<desc>Viesville Chemin n°15 Chemin du Bois de Fayat au hameau de Joli</desc>
<link href="https://chemins.be/viesville/chemin/15"/><trkseg>
<trkpt lat="50.487656" lon="4.383684"><time>2026-05-02T17:47:44Z</time></trkpt>
<trkpt lat="50.487952" lon="4.384234"><time>2026-05-02T17:57:44Z</time></trkpt>
<trkpt lat="50.488455" lon="4.386488"><time>2026-05-02T18:07:44Z</time></trkpt>
</trkseg></trk>
<trk>
<name>hpcvv15</name>
<cmt>v</cmt>
<desc>Viesville Chemin n°15 Chemin du Bois de Fayat au hameau de Joli</desc>
<link href="https://chemins.be/viesville/chemin/15"/><trkseg>
<trkpt lat="50.488455" lon="4.386488"><time>2026-05-02T18:07:44Z</time></trkpt>
<trkpt lat="50.488428" lon="4.387602"><time>2026-05-02T18:17:44Z</time></trkpt>
</trkseg></trk>
<trk>
<name>hpcvv15</name>
<cmt>s</cmt>
<desc>Viesville Chemin n°15 Chemin du Bois de Fayat au hameau de Joli</desc>
<link href="https://chemins.be/viesville/chemin/15"/><trkseg>
<trkpt lat="50.488428" lon="4.387602"><time>2026-05-02T18:17:44Z</time></trkpt>
<trkpt lat="50.488266" lon="4.388475"><time>2026-05-02T18:27:44Z</time></trkpt>
<trkpt lat="50.488032" lon="4.388616"><time>2026-05-02T18:37:44Z</time></trkpt>
<trkpt lat="50.487511" lon="4.388644"><time>2026-05-02T18:47:44Z</time></trkpt>
<trkpt lat="50.486630" lon="4.389574"><time>2026-05-02T18:57:44Z</time></trkpt>
</trkseg></trk>
<trk>
<name>hpcvv15</name>
<cmt>d</cmt>
<desc>Viesville Chemin n°15 Chemin du Bois de Fayat au hameau de Joli</desc>
<link href="https://chemins.be/viesville/chemin/15"/><trkseg>
<trkpt lat="50.486630" lon="4.389574"><time>2026-05-02T18:57:44Z</time></trkpt>
<trkpt lat="50.486549" lon="4.390306"><time>2026-05-02T19:07:44Z</time></trkpt>
<trkpt lat="50.485631" lon="4.393744"><time>2026-05-02T19:17:44Z</time></trkpt>
<trkpt lat="50.484992" lon="4.396900"><time>2026-05-02T19:27:44Z</time></trkpt>
<trkpt lat="50.484731" lon="4.397872"><time>2026-05-02T19:37:44Z</time></trkpt>
</trkseg>
</trk>
<trk>
<name>hpcvv16</name>
<cmt>r</cmt>
<desc>Viesville Chemin n°16 Chemin des épaisses tailles à Viesville</desc>
<link href="https://chemins.be/viesville/chemin/16"/><trkseg>
<trkpt lat="50.488469" lon="4.403763"><time>2026-05-02T17:47:44Z</time></trkpt>
<trkpt lat="50.488449" lon="4.402453"><time>2026-05-02T17:57:44Z</time></trkpt>
<trkpt lat="50.488699" lon="4.401013"><time>2026-05-02T18:07:44Z</time></trkpt>
<trkpt lat="50.489099" lon="4.399813"><time>2026-05-02T18:17:44Z</time></trkpt>
</trkseg></trk>
<trk>
<name>hpcvv16</name>
<cmt>v</cmt>
<desc>Viesville Chemin n°16 Chemin des épaisses tailles à Viesville</desc>
<link href="https://chemins.be/viesville/chemin/16"/><trkseg>
<trkpt lat="50.489099" lon="4.399813"><time>2026-05-02T18:17:44Z</time></trkpt>
<trkpt lat="50.489099" lon="4.399813"><time>2026-05-02T18:27:44Z</time></trkpt>
<trkpt lat="50.489099" lon="4.399813"><time>2026-05-02T18:37:44Z</time></trkpt>
<trkpt lat="50.489109" lon="4.399823"><time>2026-05-02T18:47:44Z</time></trkpt>
<trkpt lat="50.489099" lon="4.398883"><time>2026-05-02T18:57:44Z</time></trkpt>
<trkpt lat="50.488819" lon="4.396723"><time>2026-05-02T19:07:44Z</time></trkpt>
<trkpt lat="50.488599" lon="4.395633"><time>2026-05-02T19:17:44Z</time></trkpt>
</trkseg></trk>
<trk>
<name>hpcvv16</name>
<cmt>d</cmt>
<desc>Viesville Chemin n°16 Chemin des épaisses tailles à Viesville</desc>
<link href="https://chemins.be/viesville/chemin/16"/><trkseg>
<trkpt lat="50.488599" lon="4.395633"><time>2026-05-02T19:17:44Z</time></trkpt>
<trkpt lat="50.487959" lon="4.394303"><time>2026-05-02T19:27:44Z</time></trkpt>
<trkpt lat="50.487689" lon="4.393713"><time>2026-05-02T19:37:44Z</time></trkpt>
<trkpt lat="50.487259" lon="4.392402"><time>2026-05-02T19:47:44Z</time></trkpt>
<trkpt lat="50.486834" lon="4.391003"><time>2026-05-02T19:57:44Z</time></trkpt>
<trkpt lat="50.486609" lon="4.390292"><time>2026-05-02T20:07:44Z</time></trkpt>
<trkpt lat="50.486639" lon="4.389612"><time>2026-05-02T20:17:44Z</time></trkpt>
</trkseg></trk>
<trk>
<name>hpcvv16</name>
<cmt>s</cmt>
<desc>Viesville Chemin n°16 Chemin des épaisses tailles à Viesville</desc>
<link href="https://chemins.be/viesville/chemin/16"/><trkseg>
<trkpt lat="50.486639" lon="4.389612"><time>2026-05-02T20:17:44Z</time></trkpt>
<trkpt lat="50.486639" lon="4.389612"><time>2026-05-02T20:27:44Z</time></trkpt>
<trkpt lat="50.486629" lon="4.389602"><time>2026-05-02T20:37:44Z</time></trkpt>
<trkpt lat="50.486639" lon="4.389602"><time>2026-05-02T20:47:44Z</time></trkpt>
<trkpt lat="50.486459" lon="4.388912"><time>2026-05-02T20:57:44Z</time></trkpt>
</trkseg>
</trk>
<trk>
<name>hpcvv17</name>
<cmt>v</cmt>
<desc>Viesville Chemin n°17 Chemin du Pré des Masis à Viesville par l'espêche</desc>
<link href="https://chemins.be/viesville/chemin/17"/><trkseg>
<trkpt lat="50.490009" lon="4.402543"><time>2026-05-02T17:47:44Z</time></trkpt>
<trkpt lat="50.490209" lon="4.402093"><time>2026-05-02T17:57:44Z</time></trkpt>
<trkpt lat="50.490339" lon="4.401373"><time>2026-05-02T18:07:44Z</time></trkpt>
<trkpt lat="50.490559" lon="4.400613"><time>2026-05-02T18:17:44Z</time></trkpt>
<trkpt lat="50.491289" lon="4.399763"><time>2026-05-02T18:27:44Z</time></trkpt>
<trkpt lat="50.491789" lon="4.398263"><time>2026-05-02T18:37:44Z</time></trkpt>
</trkseg></trk>
<trk>
<name>hpcvv17</name>
<cmt>b</cmt>
<desc>Viesville Chemin n°17 Chemin du Pré des Masis à Viesville par l'espêche</desc>
<link href="https://chemins.be/viesville/chemin/17"/><trkseg>
<trkpt lat="50.491789" lon="4.398263"><time>2026-05-02T18:37:44Z</time></trkpt>
<trkpt lat="50.491789" lon="4.398263"><time>2026-05-02T18:47:44Z</time></trkpt>
<trkpt lat="50.491789" lon="4.398263"><time>2026-05-02T18:57:44Z</time></trkpt>
<trkpt lat="50.491779" lon="4.398233"><time>2026-05-02T19:07:44Z</time></trkpt>
<trkpt lat="50.491789" lon="4.397663"><time>2026-05-02T19:17:44Z</time></trkpt>
<trkpt lat="50.491426" lon="4.396226"><time>2026-05-02T19:27:44Z</time></trkpt>
</trkseg></trk>
<trk>
<name>hpcvv17</name>
<cmt>d</cmt>
<desc>Viesville Chemin n°17 Chemin du Pré des Masis à Viesville par l'espêche</desc>
<link href="https://chemins.be/viesville/chemin/17"/><trkseg>
<trkpt lat="50.491426" lon="4.396226"><time>2026-05-02T19:27:44Z</time></trkpt>
<trkpt lat="50.491189" lon="4.395183"><time>2026-05-02T19:37:44Z</time></trkpt>
<trkpt lat="50.492369" lon="4.394242"><time>2026-05-02T19:47:44Z</time></trkpt>
<trkpt lat="50.492809" lon="4.394032"><time>2026-05-02T19:57:44Z</time></trkpt>
</trkseg>
</trk>
<trk>
<name>hpcvv18</name>
<cmt>v</cmt>
<desc>Viesville Chemin n°18 Chemin de Viesville à celui de Ploys</desc>
<link href="https://chemins.be/viesville/chemin/18"/><trkseg>
<trkpt lat="50.492191" lon="4.405346"><time>2026-05-02T17:47:44Z</time></trkpt>
<trkpt lat="50.493148" lon="4.404250"><time>2026-05-02T17:57:44Z</time></trkpt>
<trkpt lat="50.495752" lon="4.402840"><time>2026-05-02T18:07:44Z</time></trkpt>
<trkpt lat="50.496947" lon="4.403461"><time>2026-05-02T18:17:44Z</time></trkpt>
</trkseg>
</trk>
<trk>
<name>hpcvv19</name>
<cmt>v</cmt>
<desc>Viesville Chemin n°19 Chemin des Dagaux à la Ruelle Laguerre</desc>
<link href="https://chemins.be/viesville/chemin/19"/><trkseg>
<trkpt lat="50.492209" lon="4.405248"><time>2026-05-02T17:47:44Z</time></trkpt>
<trkpt lat="50.492308" lon="4.403627"><time>2026-05-02T17:57:44Z</time></trkpt>
<trkpt lat="50.492300" lon="4.401471"><time>2026-05-02T18:07:44Z</time></trkpt>
<trkpt lat="50.492471" lon="4.398695"><time>2026-05-02T18:17:44Z</time></trkpt>
<trkpt lat="50.492643" lon="4.397624"><time>2026-05-02T18:27:44Z</time></trkpt>
</trkseg></trk>
<trk>
<name>hpcvv19</name>
<cmt>d</cmt>
<desc>Viesville Chemin n°19 Chemin des Dagaux à la Ruelle Laguerre</desc>
<link href="https://chemins.be/viesville/chemin/19"/><trkseg>
<trkpt lat="50.492643" lon="4.397624"><time>2026-05-02T18:27:44Z</time></trkpt>
<trkpt lat="50.492877" lon="4.396074"><time>2026-05-02T18:37:44Z</time></trkpt>
<trkpt lat="50.493102" lon="4.395383"><time>2026-05-02T18:47:44Z</time></trkpt>
</trkseg></trk>
<trk>
<name>hpcvv19</name>
<cmt>v</cmt>
<desc>Viesville Chemin n°19 Chemin des Dagaux à la Ruelle Laguerre</desc>
<link href="https://chemins.be/viesville/chemin/19"/><trkseg>
<trkpt lat="50.493102" lon="4.395383"><time>2026-05-02T18:47:44Z</time></trkpt>
<trkpt lat="50.493542" lon="4.394340"><time>2026-05-02T18:57:44Z</time></trkpt>
<trkpt lat="50.493929" lon="4.393805"><time>2026-05-02T19:07:44Z</time></trkpt>
</trkseg></trk>
<trk>
<name>hpcvv19</name>
<cmt>s</cmt>
<desc>Viesville Chemin n°19 Chemin des Dagaux à la Ruelle Laguerre</desc>
<link href="https://chemins.be/viesville/chemin/19"/><trkseg>
<trkpt lat="50.493929" lon="4.393805"><time>2026-05-02T19:07:44Z</time></trkpt>
<trkpt lat="50.494361" lon="4.393185"><time>2026-05-02T19:17:44Z</time></trkpt>
</trkseg>
</trk>
<trk>
<name>hpcvv2</name>
<cmt>v</cmt>
<desc>Viesville Chemin n°2 Chemin de Courcelles à Viesville par Bonpont</desc>
<link href="https://chemins.be/viesville/chemin/2"/><trkseg>
<trkpt lat="50.479329" lon="4.391529"><time>2026-05-02T17:47:44Z</time></trkpt>
<trkpt lat="50.479761" lon="4.391938"><time>2026-05-02T17:57:44Z</time></trkpt>
</trkseg></trk>
<trk>
<name>hpcvv2</name>
<cmt>s</cmt>
<desc>Viesville Chemin n°2 Chemin de Courcelles à Viesville par Bonpont</desc>
<link href="https://chemins.be/viesville/chemin/2"/><trkseg>
<trkpt lat="50.479761" lon="4.391938"><time>2026-05-02T17:57:44Z</time></trkpt>
<trkpt lat="50.481163" lon="4.393108"><time>2026-05-02T18:07:44Z</time></trkpt>
<trkpt lat="50.481667" lon="4.393094"><time>2026-05-02T18:17:44Z</time></trkpt>
</trkseg></trk>
<trk>
<name>hpcvv2</name>
<cmt>r</cmt>
<desc>Viesville Chemin n°2 Chemin de Courcelles à Viesville par Bonpont</desc>
<link href="https://chemins.be/viesville/chemin/2"/><trkseg>
<trkpt lat="50.481667" lon="4.393094"><time>2026-05-02T18:17:44Z</time></trkpt>
<trkpt lat="50.484444" lon="4.397097"><time>2026-05-02T18:27:44Z</time></trkpt>
<trkpt lat="50.484794" lon="4.398168"><time>2026-05-02T18:37:44Z</time></trkpt>
<trkpt lat="50.486465" lon="4.403572"><time>2026-05-02T18:47:44Z</time></trkpt>
</trkseg></trk>
<trk>
<name>hpcvv2</name>
<cmt>d</cmt>
<desc>Viesville Chemin n°2 Chemin de Courcelles à Viesville par Bonpont</desc>
<link href="https://chemins.be/viesville/chemin/2"/><trkseg>
<trkpt lat="50.486465" lon="4.403572"><time>2026-05-02T18:47:44Z</time></trkpt>
<trkpt lat="50.486374" lon="4.404177"><time>2026-05-02T18:57:44Z</time></trkpt>
<trkpt lat="50.486414" lon="4.404547"><time>2026-05-02T19:07:44Z</time></trkpt>
<trkpt lat="50.486742" lon="4.404809"><time>2026-05-02T19:17:44Z</time></trkpt>
</trkseg>
</trk>
<trk>
<name>hpcvv20</name>
<cmt>q</cmt>
<desc>Viesville Chemin n°20 Chemin de celui de Nivelles au sentier du Grand Arbre</desc>
<link href="https://chemins.be/viesville/chemin/20"/><trkseg>
<trkpt lat="50.493137" lon="4.405964"><time>2026-05-02T17:47:44Z</time></trkpt>
<trkpt lat="50.493583" lon="4.407265"><time>2026-05-02T17:57:44Z</time></trkpt>
</trkseg>
</trk>
<trk>
<name>hpcvv21</name>
<cmt>d</cmt>
<desc>Viesville Chemin n°21 Chemin de l'Espêche aux Saules Brulés</desc>
<link href="https://chemins.be/viesville/chemin/21"/><trkseg>
<trkpt lat="50.489351" lon="4.403315"><time>2026-05-02T17:47:44Z</time></trkpt>
<trkpt lat="50.489162" lon="4.403315"><time>2026-05-02T17:57:44Z</time></trkpt>
<trkpt lat="50.488847" lon="4.403427"><time>2026-05-02T18:07:44Z</time></trkpt>
</trkseg>
</trk>
<trk>
<name>hpcvv22</name>
<cmt>r</cmt>
<desc>Viesville Chemin n°22 Chemin du Trieu Navare à l'église de Viesville</desc>
<link href="https://chemins.be/viesville/chemin/22"/><trkseg>
<trkpt lat="50.492172" lon="4.407052"><time>2026-05-02T17:47:44Z</time></trkpt>
<trkpt lat="50.492244" lon="4.407855"><time>2026-05-02T17:57:44Z</time></trkpt>
<trkpt lat="50.492100" lon="4.408193"><time>2026-05-02T18:07:44Z</time></trkpt>
</trkseg>
</trk>
<trk>
<name>hpcvv23</name>
<cmt>v</cmt>
<desc>Viesville Chemin n°23 Chemin de l'église de Viesville au Moulin</desc>
<link href="https://chemins.be/viesville/chemin/23"/><trkseg>
<trkpt lat="50.492118" lon="4.408461"><time>2026-05-02T17:47:44Z</time></trkpt>
<trkpt lat="50.491380" lon="4.409207"><time>2026-05-02T17:57:44Z</time></trkpt>
</trkseg>
</trk>
<trk>
<name>hpcvv24</name>
<cmt>v</cmt>
<desc>Viesville Chemin n°24 Chemin de Viesville à la Chapelle Baude</desc>
<link href="https://chemins.be/viesville/chemin/24"/><trkseg>
<trkpt lat="50.487181" lon="4.411768"><time>2026-05-02T17:47:44Z</time></trkpt>
<trkpt lat="50.488439" lon="4.412206"><time>2026-05-02T17:57:44Z</time></trkpt>
<trkpt lat="50.488880" lon="4.411953"><time>2026-05-02T18:07:44Z</time></trkpt>
<trkpt lat="50.489501" lon="4.411291"><time>2026-05-02T18:17:44Z</time></trkpt>
<trkpt lat="50.490166" lon="4.410179"><time>2026-05-02T18:27:44Z</time></trkpt>
</trkseg>
</trk>
<trk>
<name>hpcvv29</name>
<cmt>r</cmt>
<desc>Viesville Chemin n°29 Chemin du grand tienne à celui de la neuve voie</desc>
<link href="https://chemins.be/viesville/chemin/29"/><trkseg>
<trkpt lat="50.486967" lon="4.407752"><time>2026-05-02T17:47:44Z</time></trkpt>
<trkpt lat="50.487848" lon="4.407499"><time>2026-05-02T17:57:44Z</time></trkpt>
</trkseg>
</trk>
<trk>
<name>hpcvv30</name>
<cmt>q</cmt>
<desc>Viesville Sentier n°30 Sentier de Viesville à Thiméon par l'Hautebois</desc>
<link href="https://chemins.be/viesville/sentier/30"/><trkseg>
<trkpt lat="50.491294" lon="4.410660"><time>2026-05-02T17:47:44Z</time></trkpt>
<trkpt lat="50.490857" lon="4.411805"><time>2026-05-02T17:57:44Z</time></trkpt>
<trkpt lat="50.490020" lon="4.412520"><time>2026-05-02T18:07:44Z</time></trkpt>
<trkpt lat="50.489783" lon="4.415810"><time>2026-05-02T18:17:44Z</time></trkpt>
<trkpt lat="50.488855" lon="4.416954"><time>2026-05-02T18:27:44Z</time></trkpt>
</trkseg>
</trk>
<trk>
<name>hpcvv31</name>
<cmt>v</cmt>
<desc>Viesville Sentier n°31 Sentier de Viesville à Gosselies</desc>
<link href="https://chemins.be/viesville/sentier/31"/><trkseg>
<trkpt lat="50.487249" lon="4.411763"><time>2026-05-02T17:47:44Z</time></trkpt>
<trkpt lat="50.486519" lon="4.412243"><time>2026-05-02T17:57:44Z</time></trkpt>
</trkseg></trk>
<trk>
<name>hpcvv31</name>
<cmt>q</cmt>
<desc>Viesville Sentier n°31 Sentier de Viesville à Gosselies</desc>
<link href="https://chemins.be/viesville/sentier/31"/><trkseg>
<trkpt lat="50.486519" lon="4.412243"><time>2026-05-02T17:57:44Z</time></trkpt>
<trkpt lat="50.486519" lon="4.412243"><time>2026-05-02T18:07:44Z</time></trkpt>
<trkpt lat="50.486529" lon="4.412243"><time>2026-05-02T18:17:44Z</time></trkpt>
<trkpt lat="50.484748" lon="4.413791"><time>2026-05-02T18:27:44Z</time></trkpt>
<trkpt lat="50.483881" lon="4.414628"><time>2026-05-02T18:37:44Z</time></trkpt>
<trkpt lat="50.483881" lon="4.414628"><time>2026-05-02T18:47:44Z</time></trkpt>
<trkpt lat="50.484739" lon="4.413753"><time>2026-05-02T18:57:44Z</time></trkpt>
</trkseg>
</trk>
<trk>
<name>hpcvv31bis</name>
<cmt>v</cmt>
<desc>Viesville Sentier n°31bis Ligne 119</desc>
<link href="https://chemins.be/viesville/sentier/31bis"/><trkseg>
<trkpt lat="50.486075" lon="4.411175"><time>2026-05-02T17:47:44Z</time></trkpt>
<trkpt lat="50.486057" lon="4.411485"><time>2026-05-02T17:57:44Z</time></trkpt>
<trkpt lat="50.485895" lon="4.412021"><time>2026-05-02T18:07:44Z</time></trkpt>
<trkpt lat="50.485850" lon="4.412133"><time>2026-05-02T18:17:44Z</time></trkpt>
<trkpt lat="50.485275" lon="4.413077"><time>2026-05-02T18:27:44Z</time></trkpt>
<trkpt lat="50.484780" lon="4.413725"><time>2026-05-02T18:37:44Z</time></trkpt>
</trkseg>
</trk>
<trk>
<name>hpcvv32</name>
<cmt>q</cmt>
<desc>Viesville Sentier n°32 Sentier de la rue des Lanciers au Sauçoit</desc>
<link href="https://chemins.be/viesville/sentier/32"/><trkseg>
<trkpt lat="50.489385" lon="4.408881"><time>2026-05-02T17:47:44Z</time></trkpt>
<trkpt lat="50.488683" lon="4.409318"><time>2026-05-02T17:57:44Z</time></trkpt>
<trkpt lat="50.488243" lon="4.409698"><time>2026-05-02T18:07:44Z</time></trkpt>
</trkseg>
</trk>
<trk>
<name>hpcvv33</name>
<cmt>v</cmt>
<desc>Viesville Sentier n°33 Sentier du chemin de la Neuve Voie au chemin du Vieux Mayeur</desc>
<link href="https://chemins.be/viesville/sentier/33"/><trkseg>
<trkpt lat="50.488117" lon="4.408162"><time>2026-05-02T17:47:44Z</time></trkpt>
<trkpt lat="50.488243" lon="4.408923"><time>2026-05-02T17:57:44Z</time></trkpt>
<trkpt lat="50.488243" lon="4.409698"><time>2026-05-02T18:07:44Z</time></trkpt>
<trkpt lat="50.488404" lon="4.410092"><time>2026-05-02T18:17:44Z</time></trkpt>
<trkpt lat="50.488350" lon="4.410233"><time>2026-05-02T18:27:44Z</time></trkpt>
<trkpt lat="50.488862" lon="4.411897"><time>2026-05-02T18:37:44Z</time></trkpt>
</trkseg>
</trk>
<trk>
<name>hpcvv35</name>
<cmt>v</cmt>
<desc>Viesville Sentier n°35 Sentier de la rue des Lanciers au Grand Tienne</desc>
<link href="https://chemins.be/viesville/sentier/35"/><trkseg>
<trkpt lat="50.487947" lon="4.407471"><time>2026-05-02T17:47:44Z</time></trkpt>
<trkpt lat="50.488288" lon="4.407288"><time>2026-05-02T17:57:44Z</time></trkpt>
<trkpt lat="50.488441" lon="4.407725"><time>2026-05-02T18:07:44Z</time></trkpt>
<trkpt lat="50.488981" lon="4.407359"><time>2026-05-02T18:17:44Z</time></trkpt>
</trkseg>
</trk>
<trk>
<name>hpcvv36</name>
<cmt>v</cmt>
<desc>Viesville Sentier n°36 Sentier du hameau des Petits Sarts au Bois de Thiméon</desc>
<link href="https://chemins.be/viesville/sentier/36"/><trkseg>
<trkpt lat="50.482159" lon="4.393903"><time>2026-05-02T17:47:44Z</time></trkpt>
<trkpt lat="50.481679" lon="4.395023"><time>2026-05-02T17:57:44Z</time></trkpt>
</trkseg></trk>
<trk>
<name>hpcvv36</name>
<cmt>q</cmt>
<desc>Viesville Sentier n°36 Sentier du hameau des Petits Sarts au Bois de Thiméon</desc>
<link href="https://chemins.be/viesville/sentier/36"/><trkseg>
<trkpt lat="50.481679" lon="4.395023"><time>2026-05-02T17:57:44Z</time></trkpt>
<trkpt lat="50.481679" lon="4.395023"><time>2026-05-02T18:07:44Z</time></trkpt>
<trkpt lat="50.481189" lon="4.395643"><time>2026-05-02T18:17:44Z</time></trkpt>
<trkpt lat="50.481609" lon="4.397553"><time>2026-05-02T18:27:44Z</time></trkpt>
<trkpt lat="50.480609" lon="4.399173"><time>2026-05-02T18:37:44Z</time></trkpt>
<trkpt lat="50.480489" lon="4.399373"><time>2026-05-02T18:47:44Z</time></trkpt>
</trkseg></trk>
<trk>
<name>hpcvv36</name>
<cmt>r</cmt>
<desc>Viesville Sentier n°36 Sentier du hameau des Petits Sarts au Bois de Thiméon</desc>
<link href="https://chemins.be/viesville/sentier/36"/><trkseg>
<trkpt lat="50.480489" lon="4.399373"><time>2026-05-02T18:47:44Z</time></trkpt>
<trkpt lat="50.480489" lon="4.399373"><time>2026-05-02T18:57:44Z</time></trkpt>
<trkpt lat="50.479839" lon="4.400613"><time>2026-05-02T19:07:44Z</time></trkpt>
<trkpt lat="50.479369" lon="4.401153"><time>2026-05-02T19:17:44Z</time></trkpt>
<trkpt lat="50.478929" lon="4.401883"><time>2026-05-02T19:27:44Z</time></trkpt>
<trkpt lat="50.478879" lon="4.401843"><time>2026-05-02T19:37:44Z</time></trkpt>
</trkseg></trk>
<trk>
<name>hpcvv36</name>
<cmt>v</cmt>
<desc>Viesville Sentier n°36 Sentier du hameau des Petits Sarts au Bois de Thiméon</desc>
<link href="https://chemins.be/viesville/sentier/36"/><trkseg>
<trkpt lat="50.478879" lon="4.401843"><time>2026-05-02T19:37:44Z</time></trkpt>
<trkpt lat="50.478879" lon="4.401843"><time>2026-05-02T19:47:44Z</time></trkpt>
<trkpt lat="50.478869" lon="4.401833"><time>2026-05-02T19:57:44Z</time></trkpt>
<trkpt lat="50.478589" lon="4.402553"><time>2026-05-02T20:07:44Z</time></trkpt>
<trkpt lat="50.478589" lon="4.402553"><time>2026-05-02T20:17:44Z</time></trkpt>
<trkpt lat="50.478514" lon="4.402980"><time>2026-05-02T20:27:44Z</time></trkpt>
<trkpt lat="50.478299" lon="4.404526"><time>2026-05-02T20:37:44Z</time></trkpt>
<trkpt lat="50.478289" lon="4.404493"><time>2026-05-02T20:47:44Z</time></trkpt>
<trkpt lat="50.478242" lon="4.405101"><time>2026-05-02T20:57:44Z</time></trkpt>
<trkpt lat="50.478239" lon="4.405183"><time>2026-05-02T21:07:44Z</time></trkpt>
<trkpt lat="50.478239" lon="4.405183"><time>2026-05-02T21:17:44Z</time></trkpt>
<trkpt lat="50.477879" lon="4.408003"><time>2026-05-02T21:27:44Z</time></trkpt>
<trkpt lat="50.477919" lon="4.409823"><time>2026-05-02T21:37:44Z</time></trkpt>
</trkseg>
</trk>
<trk>
<name>hpcvv37</name>
<cmt>v</cmt>
<desc>Viesville Sentier n°37 Sentier des Grands Sarts à la Ruelle du Clerc</desc>
<link href="https://chemins.be/viesville/sentier/37"/><trkseg>
<trkpt lat="50.479793" lon="4.406562"><time>2026-05-02T17:47:44Z</time></trkpt>
<trkpt lat="50.479524" lon="4.405125"><time>2026-05-02T17:57:44Z</time></trkpt>
<trkpt lat="50.479389" lon="4.403547"><time>2026-05-02T18:07:44Z</time></trkpt>
<trkpt lat="50.479434" lon="4.403195"><time>2026-05-02T18:17:44Z</time></trkpt>
</trkseg>
</trk>
<trk>
<name>hpcvv38</name>
<cmt>q</cmt>
<desc>Viesville Sentier n°38 Sentier de la passe de la Chaussée aux blanches épines</desc>
<link href="https://chemins.be/viesville/sentier/38"/><trkseg>
<trkpt lat="50.490407" lon="4.383783"><time>2026-05-02T17:47:44Z</time></trkpt>
<trkpt lat="50.489013" lon="4.382486"><time>2026-05-02T17:57:44Z</time></trkpt>
<trkpt lat="50.488600" lon="4.382331"><time>2026-05-02T18:07:44Z</time></trkpt>
<trkpt lat="50.487764" lon="4.382585"><time>2026-05-02T18:17:44Z</time></trkpt>
<trkpt lat="50.487233" lon="4.383021"><time>2026-05-02T18:27:44Z</time></trkpt>
<trkpt lat="50.487080" lon="4.383641"><time>2026-05-02T18:37:44Z</time></trkpt>
<trkpt lat="50.487755" lon="4.383008"><time>2026-05-02T18:47:44Z</time></trkpt>
<trkpt lat="50.488473" lon="4.386460"><time>2026-05-02T18:57:44Z</time></trkpt>
</trkseg></trk>
<trk>
<name>hpcvv38</name>
<cmt>v</cmt>
<desc>Viesville Sentier n°38 Sentier de la passe de la Chaussée aux blanches épines</desc>
<link href="https://chemins.be/viesville/sentier/38"/><trkseg>
<trkpt lat="50.488473" lon="4.386460"><time>2026-05-02T18:57:44Z</time></trkpt>
<trkpt lat="50.488455" lon="4.387419"><time>2026-05-02T19:07:44Z</time></trkpt>
<trkpt lat="50.488491" lon="4.387743"><time>2026-05-02T19:17:44Z</time></trkpt>
</trkseg></trk>
<trk>
<name>hpcvv38</name>
<cmt>s</cmt>
<desc>Viesville Sentier n°38 Sentier de la passe de la Chaussée aux blanches épines</desc>
<link href="https://chemins.be/viesville/sentier/38"/><trkseg>
<trkpt lat="50.488491" lon="4.387743"><time>2026-05-02T19:17:44Z</time></trkpt>
<trkpt lat="50.489219" lon="4.390294"><time>2026-05-02T19:27:44Z</time></trkpt>
</trkseg></trk>
<trk>
<name>hpcvv38</name>
<cmt>q</cmt>
<desc>Viesville Sentier n°38 Sentier de la passe de la Chaussée aux blanches épines</desc>
<link href="https://chemins.be/viesville/sentier/38"/><trkseg>
<trkpt lat="50.489219" lon="4.390294"><time>2026-05-02T19:27:44Z</time></trkpt>
<trkpt lat="50.489830" lon="4.392239"><time>2026-05-02T19:37:44Z</time></trkpt>
<trkpt lat="50.489551" lon="4.393915"><time>2026-05-02T19:47:44Z</time></trkpt>
<trkpt lat="50.488705" lon="4.394859"><time>2026-05-02T19:57:44Z</time></trkpt>
<trkpt lat="50.488472" lon="4.395366"><time>2026-05-02T20:07:44Z</time></trkpt>
</trkseg>
</trk>
<trk>
<name>hpcvv39</name>
<cmt>v</cmt>
<desc>Viesville Sentier n°39 Sentier du chemin de Marie Casserolle à la ruelle Godron et Lespêche</desc>
<link href="https://chemins.be/viesville/sentier/39"/><trkseg>
<trkpt lat="50.490049" lon="4.404893"><time>2026-05-02T17:47:44Z</time></trkpt>
<trkpt lat="50.489609" lon="4.405473"><time>2026-05-02T17:57:44Z</time></trkpt>
<trkpt lat="50.488903" lon="4.404617"><time>2026-05-02T18:07:44Z</time></trkpt>
<trkpt lat="50.488657" lon="4.404799"><time>2026-05-02T18:17:44Z</time></trkpt>
</trkseg></trk>
<trk>
<name>hpcvv39</name>
<cmt>r</cmt>
<desc>Viesville Sentier n°39 Sentier du chemin de Marie Casserolle à la ruelle Godron et Lespêche</desc>
<link href="https://chemins.be/viesville/sentier/39"/><trkseg>
<trkpt lat="50.488657" lon="4.404799"><time>2026-05-02T18:17:44Z</time></trkpt>
<trkpt lat="50.488439" lon="4.403404"><time>2026-05-02T18:27:44Z</time></trkpt>
</trkseg></trk>
<trk>
<name>hpcvv39</name>
<cmt>q</cmt>
<desc>Viesville Sentier n°39 Sentier du chemin de Marie Casserolle à la ruelle Godron et Lespêche</desc>
<link href="https://chemins.be/viesville/sentier/39"/><trkseg>
<trkpt lat="50.488439" lon="4.403404"><time>2026-05-02T18:27:44Z</time></trkpt>
<trkpt lat="50.487763" lon="4.402642"><time>2026-05-02T18:37:44Z</time></trkpt>
<trkpt lat="50.487115" lon="4.402782"><time>2026-05-02T18:47:44Z</time></trkpt>
<trkpt lat="50.486056" lon="4.402009"><time>2026-05-02T18:57:44Z</time></trkpt>
</trkseg>
</trk>
<trk>
<name>hpcvv40</name>
<cmt>d</cmt>
<desc>Viesville Sentier n°40 Sentier de Lespêche aux Saules Brulées</desc>
<link href="https://chemins.be/viesville/sentier/40"/><trkseg>
<trkpt lat="50.489342" lon="4.403273"><time>2026-05-02T17:47:44Z</time></trkpt>
<trkpt lat="50.489162" lon="4.403287"><time>2026-05-02T17:57:44Z</time></trkpt>
<trkpt lat="50.488820" lon="4.403413"><time>2026-05-02T18:07:44Z</time></trkpt>
<trkpt lat="50.488505" lon="4.403624"><time>2026-05-02T18:17:44Z</time></trkpt>
</trkseg>
</trk>
<trk>
<name>hpcvv41</name>
<cmt>v</cmt>
<desc>Viesville Sentier n°41 Sentier des Hanus à Thirion</desc>
<link href="https://chemins.be/viesville/sentier/41"/><trkseg>
<trkpt lat="50.488159" lon="4.405473"><time>2026-05-02T17:47:44Z</time></trkpt>
<trkpt lat="50.487213" lon="4.404868"><time>2026-05-02T17:57:44Z</time></trkpt>
<trkpt lat="50.486949" lon="4.404743"><time>2026-05-02T18:07:44Z</time></trkpt>
<trkpt lat="50.486769" lon="4.404883"><time>2026-05-02T18:17:44Z</time></trkpt>
</trkseg>
</trk>
<trk>
<name>hpcvv42</name>
<cmt>v</cmt>
<desc>Viesville Sentier n°42 Sentier du chemin des Lanciers à la Ruelle Godron</desc>
<link href="https://chemins.be/viesville/sentier/42"/><trkseg>
<trkpt lat="50.489178" lon="4.407669"><time>2026-05-02T17:47:44Z</time></trkpt>
<trkpt lat="50.489592" lon="4.407331"><time>2026-05-02T17:57:44Z</time></trkpt>
<trkpt lat="50.489862" lon="4.406951"><time>2026-05-02T18:07:44Z</time></trkpt>
</trkseg>
</trk>
<trk>
<name>hpcvv43</name>
<cmt>v</cmt>
<desc>Viesville Sentier n°43 Sentier du Trieu Navare à l'église de Viesville</desc>
<link href="https://chemins.be/viesville/sentier/43"/><trkseg>
<trkpt lat="50.490869" lon="4.406980"><time>2026-05-02T17:47:44Z</time></trkpt>
<trkpt lat="50.491111" lon="4.407051"><time>2026-05-02T17:57:44Z</time></trkpt>
<trkpt lat="50.491516" lon="4.407911"><time>2026-05-02T18:07:44Z</time></trkpt>
</trkseg>
</trk>
<trk>
<name>hpcvv44</name>
<cmt>q</cmt>
<desc>Viesville Sentier n°44 Sentier de la Closière Potot au chemin du Ploys</desc>
<link href="https://chemins.be/viesville/sentier/44"/><trkseg>
<trkpt lat="50.497253" lon="4.401939"><time>2026-05-02T17:47:44Z</time></trkpt>
<trkpt lat="50.495824" lon="4.402756"><time>2026-05-02T17:57:44Z</time></trkpt>
</trkseg>
</trk>
<trk>
<name>hpcvv45</name>
<cmt>v</cmt>
<desc>Viesville Sentier n°45 Sentier de Viesville à Luttre</desc>
<link href="https://chemins.be/viesville/sentier/45"/><trkseg>
<trkpt lat="50.492208" lon="4.408447"><time>2026-05-02T17:47:44Z</time></trkpt>
<trkpt lat="50.492289" lon="4.408179"><time>2026-05-02T17:57:44Z</time></trkpt>
<trkpt lat="50.492442" lon="4.408081"><time>2026-05-02T18:07:44Z</time></trkpt>
<trkpt lat="50.492586" lon="4.407940"><time>2026-05-02T18:17:44Z</time></trkpt>
<trkpt lat="50.492819" lon="4.407884"><time>2026-05-02T18:27:44Z</time></trkpt>
</trkseg></trk>
<trk>
<name>hpcvv45</name>
<cmt>d</cmt>
<desc>Viesville Sentier n°45 Sentier de Viesville à Luttre</desc>
<link href="https://chemins.be/viesville/sentier/45"/><trkseg>
<trkpt lat="50.492819" lon="4.407884"><time>2026-05-02T18:27:44Z</time></trkpt>
<trkpt lat="50.493593" lon="4.407250"><time>2026-05-02T18:37:44Z</time></trkpt>
<trkpt lat="50.494024" lon="4.406828"><time>2026-05-02T18:47:44Z</time></trkpt>
<trkpt lat="50.496569" lon="4.405012"><time>2026-05-02T18:57:44Z</time></trkpt>
</trkseg></trk>
<trk>
<name>hpcvv45</name>
<cmt>v</cmt>
<desc>Viesville Sentier n°45 Sentier de Viesville à Luttre</desc>
<link href="https://chemins.be/viesville/sentier/45"/><trkseg>
<trkpt lat="50.496569" lon="4.405012"><time>2026-05-02T18:57:44Z</time></trkpt>
<trkpt lat="50.497360" lon="4.404491"><time>2026-05-02T19:07:44Z</time></trkpt>
</trkseg></trk>
<trk>
<name>hpcvv45</name>
<cmt>q</cmt>
<desc>Viesville Sentier n°45 Sentier de Viesville à Luttre</desc>
<link href="https://chemins.be/viesville/sentier/45"/><trkseg>
<trkpt lat="50.497360" lon="4.404491"><time>2026-05-02T19:07:44Z</time></trkpt>
<trkpt lat="50.498278" lon="4.403801"><time>2026-05-02T19:17:44Z</time></trkpt>
<trkpt lat="50.498880" lon="4.403407"><time>2026-05-02T19:27:44Z</time></trkpt>
</trkseg>
</trk>
<trk>
<name>hpcvv46</name>
<cmt>d</cmt>
<desc>Viesville Sentier n°46 Sentier de Viesville à Liberchies par Natry</desc>
<link href="https://chemins.be/viesville/sentier/46"/><trkseg>
<trkpt lat="50.492792" lon="4.407926"><time>2026-05-02T17:47:44Z</time></trkpt>
<trkpt lat="50.493655" lon="4.408039"><time>2026-05-02T17:57:44Z</time></trkpt>
<trkpt lat="50.495444" lon="4.408210"><time>2026-05-02T18:07:44Z</time></trkpt>
<trkpt lat="50.496982" lon="4.408155"><time>2026-05-02T18:17:44Z</time></trkpt>
<trkpt lat="50.497746" lon="4.409001"><time>2026-05-02T18:27:44Z</time></trkpt>
</trkseg>
</trk>
<trk>
<name>hpcvv47</name>
<cmt>q</cmt>
<desc>Viesville Sentier n°47 Sentier de Luttre à Liberchies</desc>
<link href="https://chemins.be/viesville/sentier/47"/><trkseg>
<trkpt lat="50.507413" lon="4.409458"><time>2026-05-02T17:47:44Z</time></trkpt>
<trkpt lat="50.505543" lon="4.404142"><time>2026-05-02T17:57:44Z</time></trkpt>
</trkseg>
</trk>
<trk>
<name>hpcvv48</name>
<cmt>q</cmt>
<desc>Viesville Sentier n°48 Sentier de Viesville à Liberchies </desc>
<link href="https://chemins.be/viesville/sentier/48"/><trkseg>
<trkpt lat="50.502318" lon="4.417469"><time>2026-05-02T17:47:44Z</time></trkpt>
<trkpt lat="50.496285" lon="4.414980"><time>2026-05-02T17:57:44Z</time></trkpt>
</trkseg>
</trk>
<trk>
<name>hpcvv49</name>
<cmt>q</cmt>
<desc>Viesville Sentier n°49 Sentier du grand chemin de Nivelles au Pensionnat de Brunehault</desc>
<link href="https://chemins.be/viesville/sentier/49"/><trkseg>
<trkpt lat="50.501322" lon="4.423436"><time>2026-05-02T17:47:44Z</time></trkpt>
<trkpt lat="50.502233" lon="4.424476"><time>2026-05-02T17:57:44Z</time></trkpt>
</trkseg>
</trk>
<trk>
<name>hpcvv5</name>
<cmt>v</cmt>
<desc>Viesville Chemin n°5 Chemin de la ferme du Ploys à celui de Nivelles</desc>
<link href="https://chemins.be/viesville/chemin/5"/><trkseg>
<trkpt lat="50.498926" lon="4.399192"><time>2026-05-02T17:47:44Z</time></trkpt>
<trkpt lat="50.499726" lon="4.400898"><time>2026-05-02T17:57:44Z</time></trkpt>
<trkpt lat="50.500094" lon="4.401984"><time>2026-05-02T18:07:44Z</time></trkpt>
<trkpt lat="50.500480" lon="4.403746"><time>2026-05-02T18:17:44Z</time></trkpt>
<trkpt lat="50.500776" lon="4.406143"><time>2026-05-02T18:27:44Z</time></trkpt>
<trkpt lat="50.500617" lon="4.409865"><time>2026-05-02T18:37:44Z</time></trkpt>
<trkpt lat="50.500917" lon="4.413938"><time>2026-05-02T18:47:44Z</time></trkpt>
<trkpt lat="50.502417" lon="4.417731"><time>2026-05-02T18:57:44Z</time></trkpt>
</trkseg></trk>
<trk>
<name>hpcvv5</name>
<cmt>s</cmt>
<desc>Viesville Chemin n°5 Chemin de la ferme du Ploys à celui de Nivelles</desc>
<link href="https://chemins.be/viesville/chemin/5"/><trkseg>
<trkpt lat="50.502417" lon="4.417731"><time>2026-05-02T18:57:44Z</time></trkpt>
<trkpt lat="50.502722" lon="4.418873"><time>2026-05-02T19:07:44Z</time></trkpt>
</trkseg></trk>
<trk>
<name>hpcvv5</name>
<cmt>d</cmt>
<desc>Viesville Chemin n°5 Chemin de la ferme du Ploys à celui de Nivelles</desc>
<link href="https://chemins.be/viesville/chemin/5"/><trkseg>
<trkpt lat="50.502722" lon="4.418873"><time>2026-05-02T19:07:44Z</time></trkpt>
<trkpt lat="50.503027" lon="4.419959"><time>2026-05-02T19:17:44Z</time></trkpt>
<trkpt lat="50.503152" lon="4.422553"><time>2026-05-02T19:27:44Z</time></trkpt>
</trkseg>
</trk>
<trk>
<name>hpcvv50</name>
<cmt>q</cmt>
<desc>Viesville Sentier n°50 Sentier de Thiméon à Liberchies</desc>
<link href="https://chemins.be/viesville/sentier/50"/><trkseg>
<trkpt lat="50.497625" lon="4.400579"><time>2026-05-02T17:47:44Z</time></trkpt>
<trkpt lat="50.497374" lon="4.401495"><time>2026-05-02T17:57:44Z</time></trkpt>
</trkseg>
</trk>
<trk>
<name>hpcvv51</name>
<cmt>q</cmt>
<desc>Viesville Sentier n°51 Sentier de Viesville à Thiméon</desc>
<link href="https://chemins.be/viesville/sentier/51"/><trkseg>
<trkpt lat="50.491904" lon="4.425344"><time>2026-05-02T17:47:44Z</time></trkpt>
<trkpt lat="50.491859" lon="4.425499"><time>2026-05-02T17:57:44Z</time></trkpt>
</trkseg>
</trk>
<trk>
<name>hpcvv53</name>
<cmt>v</cmt>
<desc>Viesville Sentier n°53 Sentier du chemin de Herlauleu au chemin du pré des Saules</desc>
<link href="https://chemins.be/viesville/sentier/53"/><trkseg>
<trkpt lat="50.492540" lon="4.409561"><time>2026-05-02T17:47:44Z</time></trkpt>
<trkpt lat="50.492027" lon="4.409997"><time>2026-05-02T17:57:44Z</time></trkpt>
</trkseg>
</trk>
<trk>
<name>hpcvv54</name>
<cmt>q</cmt>
<desc>Viesville Sentier n°54 Sentier du chemin Marie Casserolle à la ruelle Monseu</desc>
<link href="https://chemins.be/viesville/sentier/54"/><trkseg>
<trkpt lat="50.487686" lon="4.406992"><time>2026-05-02T17:47:44Z</time></trkpt>
<trkpt lat="50.488100" lon="4.406837"><time>2026-05-02T17:57:44Z</time></trkpt>
<trkpt lat="50.488279" lon="4.407260"><time>2026-05-02T18:07:44Z</time></trkpt>
</trkseg>
</trk>
<trk>
<name>hpcvv55</name>
<cmt>v</cmt>
<desc>Viesville Sentier n°55 Sentier de la Place de Viesville au Pachi Madame</desc>
<link href="https://chemins.be/viesville/sentier/55"/><trkseg>
<trkpt lat="50.490219" lon="4.408459"><time>2026-05-02T17:47:44Z</time></trkpt>
<trkpt lat="50.490264" lon="4.408858"><time>2026-05-02T17:57:44Z</time></trkpt>
</trkseg>
</trk>
<trk>
<name>hpcvv56</name>
<cmt>q</cmt>
<desc>Viesville Sentier n°56 Sentier longeant à diverses reprises le chemin dit de Namur depuis le territoire de Thiméon jusqu'à celui de Pont-à-Celles</desc>
<link href="https://chemins.be/viesville/sentier/56"/><trkseg>
<trkpt lat="50.494426" lon="4.415200"><time>2026-05-02T17:47:44Z</time></trkpt>
<trkpt lat="50.494858" lon="4.414580"><time>2026-05-02T17:57:44Z</time></trkpt>
<trkpt lat="50.494606" lon="4.413506"><time>2026-05-02T18:07:44Z</time></trkpt>
</trkseg>
</trk>
<trk>
<name>hpcvv6</name>
<cmt>v</cmt>
<desc>Viesville Chemin n°6 Chemin de Viesville à Liberchies</desc>
<link href="https://chemins.be/viesville/chemin/6"/><trkseg>
<trkpt lat="50.492691" lon="4.413295"><time>2026-05-02T17:47:44Z</time></trkpt>
<trkpt lat="50.493051" lon="4.413155"><time>2026-05-02T17:57:44Z</time></trkpt>
<trkpt lat="50.493536" lon="4.414184"><time>2026-05-02T18:07:44Z</time></trkpt>
<trkpt lat="50.494327" lon="4.415707"><time>2026-05-02T18:17:44Z</time></trkpt>
</trkseg></trk>
<trk>
<name>hpcvv6</name>
<cmt>d</cmt>
<desc>Viesville Chemin n°6 Chemin de Viesville à Liberchies</desc>
<link href="https://chemins.be/viesville/chemin/6"/><trkseg>
<trkpt lat="50.494327" lon="4.415707"><time>2026-05-02T18:17:44Z</time></trkpt>
<trkpt lat="50.494785" lon="4.417075"><time>2026-05-02T18:27:44Z</time></trkpt>
</trkseg></trk>
<trk>
<name>hpcvv6</name>
<cmt>s</cmt>
<desc>Viesville Chemin n°6 Chemin de Viesville à Liberchies</desc>
<link href="https://chemins.be/viesville/chemin/6"/><trkseg>
<trkpt lat="50.494785" lon="4.417075"><time>2026-05-02T18:27:44Z</time></trkpt>
<trkpt lat="50.495692" lon="4.417865"><time>2026-05-02T18:37:44Z</time></trkpt>
</trkseg></trk>
<trk>
<name>hpcvv6</name>
<cmt>d</cmt>
<desc>Viesville Chemin n°6 Chemin de Viesville à Liberchies</desc>
<link href="https://chemins.be/viesville/chemin/6"/><trkseg>
<trkpt lat="50.495692" lon="4.417865"><time>2026-05-02T18:37:44Z</time></trkpt>
<trkpt lat="50.497130" lon="4.420375"><time>2026-05-02T18:47:44Z</time></trkpt>
<trkpt lat="50.498010" lon="4.421024"><time>2026-05-02T18:57:44Z</time></trkpt>
<trkpt lat="50.499537" lon="4.423944"><time>2026-05-02T19:07:44Z</time></trkpt>
<trkpt lat="50.499591" lon="4.424564"><time>2026-05-02T19:17:44Z</time></trkpt>
</trkseg>
</trk>
<trk>
<name>hpcvv61</name>
<cmt>q</cmt>
<desc>Viesville Sentier n°61 Sentier longeant le chemin du Pré des Sauts</desc>
<link href="https://chemins.be/viesville/sentier/61"/><trkseg>
<trkpt lat="50.493106" lon="4.411111"><time>2026-05-02T17:47:44Z</time></trkpt>
<trkpt lat="50.493852" lon="4.411986"><time>2026-05-02T17:57:44Z</time></trkpt>
</trkseg>
</trk>
<trk>
<name>hpcvv62</name>
<cmt>q</cmt>
<desc>Viesville Sentier n°62 Sentier longeant le chemin dit Ruelle à Graffe</desc>
<link href="https://chemins.be/viesville/sentier/62"/><trkseg>
<trkpt lat="50.492830" lon="4.415984"><time>2026-05-02T17:47:44Z</time></trkpt>
<trkpt lat="50.493012" lon="4.416417"><time>2026-05-02T17:57:44Z</time></trkpt>
<trkpt lat="50.493136" lon="4.417187"><time>2026-05-02T18:07:44Z</time></trkpt>
</trkseg></trk>
<trk>
<name>hpcvv62</name>
<cmt>s</cmt>
<desc>Viesville Sentier n°62 Sentier longeant le chemin dit Ruelle à Graffe</desc>
<link href="https://chemins.be/viesville/sentier/62"/><trkseg>
<trkpt lat="50.493136" lon="4.417187"><time>2026-05-02T18:07:44Z</time></trkpt>
<trkpt lat="50.493214" lon="4.417676"><time>2026-05-02T18:17:44Z</time></trkpt>
</trkseg>
</trk>
<trk>
<name>hpcvv63</name>
<cmt>q</cmt>
<desc>Viesville Sentier n°63 Chemin d'exploitation et sentier de celui dit Ruelle à Graffe jusqu'au ruisseau de Thiméon</desc>
<link href="https://chemins.be/viesville/sentier/63"/><trkseg>
<trkpt lat="50.492723" lon="4.415337"><time>2026-05-02T17:47:44Z</time></trkpt>
<trkpt lat="50.491560" lon="4.416546"><time>2026-05-02T17:57:44Z</time></trkpt>
<trkpt lat="50.490955" lon="4.417304"><time>2026-05-02T18:07:44Z</time></trkpt>
<trkpt lat="50.490336" lon="4.417018"><time>2026-05-02T18:17:44Z</time></trkpt>
<trkpt lat="50.490282" lon="4.416904"><time>2026-05-02T18:27:44Z</time></trkpt>
<trkpt lat="50.489344" lon="4.417175"><time>2026-05-02T18:37:44Z</time></trkpt>
<trkpt lat="50.488901" lon="4.418052"><time>2026-05-02T18:47:44Z</time></trkpt>
</trkseg></trk>
<trk>
<name>hpcvv63</name>
<cmt>s</cmt>
<desc>Viesville Sentier n°63 Chemin d'exploitation et sentier de celui dit Ruelle à Graffe jusqu'au ruisseau de Thiméon</desc>
<link href="https://chemins.be/viesville/sentier/63"/><trkseg>
<trkpt lat="50.488901" lon="4.418052"><time>2026-05-02T18:47:44Z</time></trkpt>
<trkpt lat="50.488582" lon="4.418692"><time>2026-05-02T18:57:44Z</time></trkpt>
<trkpt lat="50.488377" lon="4.418738"><time>2026-05-02T19:07:44Z</time></trkpt>
</trkseg>
</trk>
<trk>
<name>hpcvv65</name>
<cmt>q</cmt>
<desc>Viesville Sentier n°65 Sentier du Ponceau près de la maison Loriaux au territoire de Thiméon</desc>
<link href="https://chemins.be/viesville/sentier/65"/><trkseg>
<trkpt lat="50.488673" lon="4.418755"><time>2026-05-02T17:47:44Z</time></trkpt>
<trkpt lat="50.489524" lon="4.419263"><time>2026-05-02T17:57:44Z</time></trkpt>
<trkpt lat="50.489952" lon="4.419964"><time>2026-05-02T18:07:44Z</time></trkpt>
<trkpt lat="50.490098" lon="4.420815"><time>2026-05-02T18:17:44Z</time></trkpt>
</trkseg>
</trk>
<trk>
<name>hpcvv7</name>
<cmt>d</cmt>
<desc>Viesville Chemin n°7 Chemin de Viesville à Luttre </desc>
<link href="https://chemins.be/viesville/chemin/7"/><trkseg>
<trkpt lat="50.497026" lon="4.403514"><time>2026-05-02T17:47:44Z</time></trkpt>
<trkpt lat="50.498986" lon="4.403384"><time>2026-05-02T17:57:44Z</time></trkpt>
<trkpt lat="50.500219" lon="4.402476"><time>2026-05-02T18:07:44Z</time></trkpt>
</trkseg>
</trk>
<trk>
<name>hpcvv8</name>
<cmt>r</cmt>
<desc>Viesville Chemin n°8 Chemin de Viesville à Liberchies</desc>
<link href="https://chemins.be/viesville/chemin/8"/><trkseg>
<trkpt lat="50.492769" lon="4.410493"><time>2026-05-02T17:47:44Z</time></trkpt>
<trkpt lat="50.493259" lon="4.411103"><time>2026-05-02T17:57:44Z</time></trkpt>
</trkseg></trk>
<trk>
<name>hpcvv8</name>
<cmt>v</cmt>
<desc>Viesville Chemin n°8 Chemin de Viesville à Liberchies</desc>
<link href="https://chemins.be/viesville/chemin/8"/><trkseg>
<trkpt lat="50.493259" lon="4.411103"><time>2026-05-02T17:57:44Z</time></trkpt>
<trkpt lat="50.493269" lon="4.411093"><time>2026-05-02T18:07:44Z</time></trkpt>
<trkpt lat="50.493569" lon="4.411483"><time>2026-05-02T18:17:44Z</time></trkpt>
<trkpt lat="50.494419" lon="4.412343"><time>2026-05-02T18:27:44Z</time></trkpt>
<trkpt lat="50.496129" lon="4.414513"><time>2026-05-02T18:37:44Z</time></trkpt>
<trkpt lat="50.497457" lon="4.417410"><time>2026-05-02T18:47:44Z</time></trkpt>
</trkseg></trk>
<trk>
<name>hpcvv8</name>
<cmt>s</cmt>
<desc>Viesville Chemin n°8 Chemin de Viesville à Liberchies</desc>
<link href="https://chemins.be/viesville/chemin/8"/><trkseg>
<trkpt lat="50.497457" lon="4.417410"><time>2026-05-02T18:47:44Z</time></trkpt>
<trkpt lat="50.497470" lon="4.417421"><time>2026-05-02T18:57:44Z</time></trkpt>
<trkpt lat="50.497757" lon="4.418226"><time>2026-05-02T19:07:44Z</time></trkpt>
</trkseg></trk>
<trk>
<name>hpcvv8</name>
<cmt>v</cmt>
<desc>Viesville Chemin n°8 Chemin de Viesville à Liberchies</desc>
<link href="https://chemins.be/viesville/chemin/8"/><trkseg>
<trkpt lat="50.497757" lon="4.418226"><time>2026-05-02T19:07:44Z</time></trkpt>
<trkpt lat="50.497757" lon="4.418226"><time>2026-05-02T19:17:44Z</time></trkpt>
<trkpt lat="50.499319" lon="4.421433"><time>2026-05-02T19:27:44Z</time></trkpt>
<trkpt lat="50.500989" lon="4.423293"><time>2026-05-02T19:37:44Z</time></trkpt>
</trkseg>
</trk>
<trk>
<name>hpcvvi1</name>
<cmt>v</cmt>
<desc>Viesville Sentier n°i1 </desc>
<link href="https://chemins.be/viesville/sentier/i1"/><trkseg>
<trkpt lat="50.484242" lon="4.409849"><time>2026-05-02T17:47:44Z</time></trkpt>
<trkpt lat="50.484278" lon="4.409708"><time>2026-05-02T17:57:44Z</time></trkpt>
<trkpt lat="50.484647" lon="4.409525"><time>2026-05-02T18:07:44Z</time></trkpt>
<trkpt lat="50.484844" lon="4.409638"><time>2026-05-02T18:17:44Z</time></trkpt>
<trkpt lat="50.485420" lon="4.410033"><time>2026-05-02T18:27:44Z</time></trkpt>
<trkpt lat="50.486103" lon="4.410527"><time>2026-05-02T18:37:44Z</time></trkpt>
<trkpt lat="50.486184" lon="4.410217"><time>2026-05-02T18:47:44Z</time></trkpt>
<trkpt lat="50.486202" lon="4.410133"><time>2026-05-02T18:57:44Z</time></trkpt>
</trkseg>
</trk>
<trk>
<name>hpcvvi10</name>
<cmt>v</cmt>
<desc>Viesville Sentier n°i10 </desc>
<link href="https://chemins.be/viesville/sentier/i10"/><trkseg>
<trkpt lat="50.478797" lon="4.399218"><time>2026-05-02T17:47:44Z</time></trkpt>
<trkpt lat="50.479002" lon="4.399271"><time>2026-05-02T17:57:44Z</time></trkpt>
<trkpt lat="50.479385" lon="4.398874"><time>2026-05-02T18:07:44Z</time></trkpt>
<trkpt lat="50.479897" lon="4.397801"><time>2026-05-02T18:17:44Z</time></trkpt>
<trkpt lat="50.480593" lon="4.395065"><time>2026-05-02T18:27:44Z</time></trkpt>
<trkpt lat="50.480893" lon="4.394851"><time>2026-05-02T18:37:44Z</time></trkpt>
<trkpt lat="50.481556" lon="4.395264"><time>2026-05-02T18:47:44Z</time></trkpt>
<trkpt lat="50.481569" lon="4.395428"><time>2026-05-02T18:57:44Z</time></trkpt>
<trkpt lat="50.481773" lon="4.395643"><time>2026-05-02T19:07:44Z</time></trkpt>
<trkpt lat="50.481821" lon="4.395272"><time>2026-05-02T19:17:44Z</time></trkpt>
<trkpt lat="50.481715" lon="4.394945"><time>2026-05-02T19:27:44Z</time></trkpt>
</trkseg>
</trk>
<trk>
<name>hpcvvi11</name>
<cmt>v</cmt>
<desc>Viesville Sentier n°i11 </desc>
<link href="https://chemins.be/viesville/sentier/i11"/><trkseg>
<trkpt lat="50.487134" lon="4.405236"><time>2026-05-02T17:47:44Z</time></trkpt>
<trkpt lat="50.487229" lon="4.404868"><time>2026-05-02T17:57:44Z</time></trkpt>
</trkseg>
</trk>
<trk>
<name>hpcvvi12</name>
<cmt>v</cmt>
<desc>Viesville Chemin n°i12 </desc>
<link href="https://chemins.be/viesville/chemin/i12"/><trkseg>
<trkpt lat="50.492930" lon="4.418402"><time>2026-05-02T17:47:44Z</time></trkpt>
<trkpt lat="50.493490" lon="4.417854"><time>2026-05-02T17:57:44Z</time></trkpt>
<trkpt lat="50.495189" lon="4.417708"><time>2026-05-02T18:07:44Z</time></trkpt>
<trkpt lat="50.497735" lon="4.418180"><time>2026-05-02T18:17:44Z</time></trkpt>
</trkseg>
</trk>
<trk>
<name>hpcvvi13</name>
<cmt>q</cmt>
<desc>Viesville Sentier n°i13 </desc>
<link href="https://chemins.be/viesville/sentier/i13"/><trkseg>
<trkpt lat="50.500654" lon="4.410098"><time>2026-05-02T17:47:44Z</time></trkpt>
<trkpt lat="50.504672" lon="4.415150"><time>2026-05-02T17:57:44Z</time></trkpt>
</trkseg>
</trk>
<trk>
<name>hpcvvi14</name>
<cmt>v</cmt>
<desc>Viesville Sentier n°i14 </desc>
<link href="https://chemins.be/viesville/sentier/i14"/><trkseg>
<trkpt lat="50.478579" lon="4.402669"><time>2026-05-02T17:47:44Z</time></trkpt>
<trkpt lat="50.479121" lon="4.404350"><time>2026-05-02T17:57:44Z</time></trkpt>
<trkpt lat="50.478230" lon="4.404856"><time>2026-05-02T18:07:44Z</time></trkpt>
</trkseg>
</trk>
<trk>
<name>hpcvvi2</name>
<cmt>v</cmt>
<desc>Viesville Sentier n°i2 </desc>
<link href="https://chemins.be/viesville/sentier/i2"/><trkseg>
<trkpt lat="50.482287" lon="4.394067"><time>2026-05-02T17:47:44Z</time></trkpt>
<trkpt lat="50.482314" lon="4.393771"><time>2026-05-02T17:57:44Z</time></trkpt>
<trkpt lat="50.482260" lon="4.393503"><time>2026-05-02T18:07:44Z</time></trkpt>
<trkpt lat="50.482260" lon="4.393390"><time>2026-05-02T18:17:44Z</time></trkpt>
<trkpt lat="50.482332" lon="4.393263"><time>2026-05-02T18:27:44Z</time></trkpt>
<trkpt lat="50.482485" lon="4.393165"><time>2026-05-02T18:37:44Z</time></trkpt>
<trkpt lat="50.482664" lon="4.392996"><time>2026-05-02T18:47:44Z</time></trkpt>
<trkpt lat="50.482700" lon="4.392940"><time>2026-05-02T18:57:44Z</time></trkpt>
<trkpt lat="50.482700" lon="4.392869"><time>2026-05-02T19:07:44Z</time></trkpt>
<trkpt lat="50.482709" lon="4.392813"><time>2026-05-02T19:17:44Z</time></trkpt>
<trkpt lat="50.483788" lon="4.391982"><time>2026-05-02T19:27:44Z</time></trkpt>
<trkpt lat="50.486468" lon="4.391011"><time>2026-05-02T19:37:44Z</time></trkpt>
<trkpt lat="50.486621" lon="4.390955"><time>2026-05-02T19:47:44Z</time></trkpt>
<trkpt lat="50.488302" lon="4.390913"><time>2026-05-02T19:57:44Z</time></trkpt>
<trkpt lat="50.490190" lon="4.391337"><time>2026-05-02T20:07:44Z</time></trkpt>
<trkpt lat="50.491116" lon="4.391929"><time>2026-05-02T20:17:44Z</time></trkpt>
<trkpt lat="50.491232" lon="4.392014"><time>2026-05-02T20:27:44Z</time></trkpt>
<trkpt lat="50.491367" lon="4.391859"><time>2026-05-02T20:37:44Z</time></trkpt>
</trkseg>
</trk>
<trk>
<name>hpcvvi3</name>
<cmt>v</cmt>
<desc>Viesville Chemin n°i3 Cour de Rassansart</desc>
<link href="https://chemins.be/viesville/chemin/i3"/><trkseg>
<trkpt lat="50.479257" lon="4.393135"><time>2026-05-02T17:47:44Z</time></trkpt>
<trkpt lat="50.479392" lon="4.392924"><time>2026-05-02T17:57:44Z</time></trkpt>
<trkpt lat="50.479671" lon="4.391924"><time>2026-05-02T18:07:44Z</time></trkpt>
</trkseg>
</trk>
<trk>
<name>hpcvvi4</name>
<cmt>v</cmt>
<desc>Viesville Chemin n°i4 </desc>
<link href="https://chemins.be/viesville/chemin/i4"/><trkseg>
<trkpt lat="50.492619" lon="4.397693"><time>2026-05-02T17:47:44Z</time></trkpt>
<trkpt lat="50.492439" lon="4.396773"><time>2026-05-02T17:57:44Z</time></trkpt>
<trkpt lat="50.492509" lon="4.396253"><time>2026-05-02T18:07:44Z</time></trkpt>
<trkpt lat="50.492979" lon="4.395122"><time>2026-05-02T18:17:44Z</time></trkpt>
<trkpt lat="50.493190" lon="4.395105"><time>2026-05-02T18:27:44Z</time></trkpt>
<trkpt lat="50.493258" lon="4.394922"><time>2026-05-02T18:37:44Z</time></trkpt>
<trkpt lat="50.492883" lon="4.394471"><time>2026-05-02T18:47:44Z</time></trkpt>
<trkpt lat="50.492855" lon="4.394021"><time>2026-05-02T18:57:44Z</time></trkpt>
<trkpt lat="50.491852" lon="4.393087"><time>2026-05-02T19:07:44Z</time></trkpt>
</trkseg>
</trk>
<trk>
<name>hpcvvi5</name>
<cmt>v</cmt>
<desc>Viesville Sentier n°i5 </desc>
<link href="https://chemins.be/viesville/sentier/i5"/><trkseg>
<trkpt lat="50.492418" lon="4.396764"><time>2026-05-02T17:47:44Z</time></trkpt>
<trkpt lat="50.492238" lon="4.395975"><time>2026-05-02T17:57:44Z</time></trkpt>
<trkpt lat="50.490926" lon="4.396030"><time>2026-05-02T18:07:44Z</time></trkpt>
<trkpt lat="50.490854" lon="4.395805"><time>2026-05-02T18:17:44Z</time></trkpt>
<trkpt lat="50.491169" lon="4.395424"><time>2026-05-02T18:27:44Z</time></trkpt>
<trkpt lat="50.491322" lon="4.394748"><time>2026-05-02T18:37:44Z</time></trkpt>
<trkpt lat="50.491699" lon="4.393888"><time>2026-05-02T18:47:44Z</time></trkpt>
<trkpt lat="50.491897" lon="4.392789"><time>2026-05-02T18:57:44Z</time></trkpt>
<trkpt lat="50.491835" lon="4.392226"><time>2026-05-02T19:07:44Z</time></trkpt>
</trkseg>
</trk>
<trk>
<name>hpcvvi6</name>
<cmt>v</cmt>
<desc>Viesville Chemin n°i6 </desc>
<link href="https://chemins.be/viesville/chemin/i6"/><trkseg>
<trkpt lat="50.491771" lon="4.398254"><time>2026-05-02T17:47:44Z</time></trkpt>
<trkpt lat="50.492453" lon="4.398629"><time>2026-05-02T17:57:44Z</time></trkpt>
</trkseg>
</trk>
<trk>
<name>hpcvvi7</name>
<cmt>v</cmt>
<desc>Viesville Chemin n°i7 </desc>
<link href="https://chemins.be/viesville/chemin/i7"/><trkseg>
<trkpt lat="50.491099" lon="4.391872"><time>2026-05-02T17:47:44Z</time></trkpt>
<trkpt lat="50.490819" lon="4.393082"><time>2026-05-02T17:57:44Z</time></trkpt>
<trkpt lat="50.490329" lon="4.394102"><time>2026-05-02T18:07:44Z</time></trkpt>
<trkpt lat="50.489679" lon="4.395083"><time>2026-05-02T18:17:44Z</time></trkpt>
<trkpt lat="50.489379" lon="4.395443"><time>2026-05-02T18:27:44Z</time></trkpt>
<trkpt lat="50.488807" lon="4.395716"><time>2026-05-02T18:37:44Z</time></trkpt>
<trkpt lat="50.488630" lon="4.395695"><time>2026-05-02T18:47:44Z</time></trkpt>
<trkpt lat="50.488336" lon="4.395555"><time>2026-05-02T18:57:44Z</time></trkpt>
<trkpt lat="50.487606" lon="4.395512"><time>2026-05-02T19:07:44Z</time></trkpt>
<trkpt lat="50.487483" lon="4.394804"><time>2026-05-02T19:17:44Z</time></trkpt>
<trkpt lat="50.487633" lon="4.394311"><time>2026-05-02T19:27:44Z</time></trkpt>
<trkpt lat="50.487230" lon="4.392605"><time>2026-05-02T19:37:44Z</time></trkpt>
<trkpt lat="50.486404" lon="4.390920"><time>2026-05-02T19:47:44Z</time></trkpt>
</trkseg>
</trk>
<trk>
<name>hpcvvi8</name>
<cmt>v</cmt>
<desc>Viesville Sentier n°i8 Rue Vert Chemin</desc>
<link href="https://chemins.be/viesville/sentier/i8"/><trkseg>
<trkpt lat="50.491347" lon="4.391929"><time>2026-05-02T17:47:44Z</time></trkpt>
<trkpt lat="50.491278" lon="4.392390"><time>2026-05-02T17:57:44Z</time></trkpt>
<trkpt lat="50.490814" lon="4.393635"><time>2026-05-02T18:07:44Z</time></trkpt>
<trkpt lat="50.490275" lon="4.394429"><time>2026-05-02T18:17:44Z</time></trkpt>
<trkpt lat="50.489681" lon="4.395255"><time>2026-05-02T18:27:44Z</time></trkpt>
<trkpt lat="50.489064" lon="4.395795"><time>2026-05-02T18:37:44Z</time></trkpt>
<trkpt lat="50.488872" lon="4.395988"><time>2026-05-02T18:47:44Z</time></trkpt>
<trkpt lat="50.488784" lon="4.396654"><time>2026-05-02T18:57:44Z</time></trkpt>
</trkseg>
</trk>
<trk>
<name>hpcvvi9</name>
<cmt>v</cmt>
<desc>Viesville Sentier n°i9 </desc>
<link href="https://chemins.be/viesville/sentier/i9"/><trkseg>
<trkpt lat="50.480716" lon="4.398864"><time>2026-05-02T17:47:44Z</time></trkpt>
<trkpt lat="50.482211" lon="4.395419"><time>2026-05-02T17:57:44Z</time></trkpt>
<trkpt lat="50.481842" lon="4.394904"><time>2026-05-02T18:07:44Z</time></trkpt>
</trkseg>
</trk>
<trk>
<name>hpcvvL119</name>
<cmt>v</cmt>
<desc>Viesville Chemin n°L119 Ligne 119 / Rue des Petits Sarts</desc>
<link href="https://chemins.be/viesville/chemin/L119"/><trkseg>
<trkpt lat="50.483976" lon="4.414529"><time>2026-05-02T17:47:44Z</time></trkpt>
<trkpt lat="50.484929" lon="4.413383"><time>2026-05-02T17:57:44Z</time></trkpt>
<trkpt lat="50.485349" lon="4.413123"><time>2026-05-02T18:07:44Z</time></trkpt>
<trkpt lat="50.485859" lon="4.412353"><time>2026-05-02T18:17:44Z</time></trkpt>
<trkpt lat="50.485949" lon="4.412103"><time>2026-05-02T18:27:44Z</time></trkpt>
<trkpt lat="50.485939" lon="4.412103"><time>2026-05-02T18:37:44Z</time></trkpt>
<trkpt lat="50.485929" lon="4.412093"><time>2026-05-02T18:47:44Z</time></trkpt>
<trkpt lat="50.486229" lon="4.411293"><time>2026-05-02T18:57:44Z</time></trkpt>
<trkpt lat="50.486389" lon="4.410493"><time>2026-05-02T19:07:44Z</time></trkpt>
<trkpt lat="50.486712" lon="4.407898"><time>2026-05-02T19:17:44Z</time></trkpt>
</trkseg></trk>
<trk>
<name>hpcvvL119</name>
<cmt>s</cmt>
<desc>Viesville Chemin n°L119 Ligne 119 / Rue des Petits Sarts</desc>
<link href="https://chemins.be/viesville/chemin/L119"/><trkseg>
<trkpt lat="50.486712" lon="4.407898"><time>2026-05-02T19:17:44Z</time></trkpt>
<trkpt lat="50.486922" lon="4.404768"><time>2026-05-02T19:27:44Z</time></trkpt>
</trkseg></trk>
<trk>
<name>hpcvvL119</name>
<cmt>v</cmt>
<desc>Viesville Chemin n°L119 Ligne 119 / Rue des Petits Sarts</desc>
<link href="https://chemins.be/viesville/chemin/L119"/><trkseg>
<trkpt lat="50.486922" lon="4.404768"><time>2026-05-02T19:27:44Z</time></trkpt>
<trkpt lat="50.487229" lon="4.400773"><time>2026-05-02T19:37:44Z</time></trkpt>
<trkpt lat="50.487759" lon="4.395503"><time>2026-05-02T19:47:44Z</time></trkpt>
</trkseg></trk>
<trk>
<name>hpcvvL119</name>
<cmt>s</cmt>
<desc>Viesville Chemin n°L119 Ligne 119 / Rue des Petits Sarts</desc>
<link href="https://chemins.be/viesville/chemin/L119"/><trkseg>
<trkpt lat="50.487759" lon="4.395503"><time>2026-05-02T19:47:44Z</time></trkpt>
<trkpt lat="50.487769" lon="4.395503"><time>2026-05-02T19:57:44Z</time></trkpt>
<trkpt lat="50.487779" lon="4.395493"><time>2026-05-02T20:07:44Z</time></trkpt>
<trkpt lat="50.488099" lon="4.391832"><time>2026-05-02T20:17:44Z</time></trkpt>
<trkpt lat="50.488969" lon="4.390392"><time>2026-05-02T20:27:44Z</time></trkpt>
<trkpt lat="50.490275" lon="4.389563"><time>2026-05-02T20:37:44Z</time></trkpt>
<trkpt lat="50.491597" lon="4.388895"><time>2026-05-02T20:47:44Z</time></trkpt>
</trkseg>
</trk>
</gpx>